<?xml version="1.0" encoding="UTF-8" standalone="no" ?>
<gpx xmlns="http://www.topografix.com/GPX/1/1" xmlns:xsi="http://www.w3.org/2001/XMLSchema-instance" xsi:schemaLocation="http://www.topografix.com/GPX/1/1 http://www.topografix.com/GPX/1/1/gpx.xsd" version="1.1" creator="VisuGPX - https://www.visugpx.com">
  <metadata>
    <name>Alpes d'Huez</name>
  </metadata>
  <trk>
    <name><![CDATA[Alpes d'Huez_1]]></name>
    <trkseg>
      <trkpt lat="45.05964" lon="6.03783">
        <ele>722.1</ele>
        <time>2020-08-05T08:28:23Z</time>
      </trkpt>
      <trkpt lat="45.05981" lon="6.03781">
        <ele>721.9</ele>
        <time>2020-08-05T08:28:25Z</time>
      </trkpt>
      <trkpt lat="45.0599" lon="6.0378">
        <ele>721.6</ele>
        <time>2020-08-05T08:28:26Z</time>
      </trkpt>
      <trkpt lat="45.05999" lon="6.03778">
        <ele>721.3</ele>
        <time>2020-08-05T08:28:27Z</time>
      </trkpt>
      <trkpt lat="45.06016" lon="6.03775">
        <ele>721.1</ele>
        <time>2020-08-05T08:28:29Z</time>
      </trkpt>
      <trkpt lat="45.06025" lon="6.03773">
        <ele>720.8</ele>
        <time>2020-08-05T08:28:30Z</time>
      </trkpt>
      <trkpt lat="45.06043" lon="6.03769">
        <ele>720.1</ele>
        <time>2020-08-05T08:28:32Z</time>
      </trkpt>
      <trkpt lat="45.06061" lon="6.03765">
        <ele>719.5</ele>
        <time>2020-08-05T08:28:34Z</time>
      </trkpt>
      <trkpt lat="45.06079" lon="6.0376">
        <ele>719</ele>
        <time>2020-08-05T08:28:36Z</time>
      </trkpt>
      <trkpt lat="45.06088" lon="6.03758">
        <ele>718.9</ele>
        <time>2020-08-05T08:28:37Z</time>
      </trkpt>
      <trkpt lat="45.06097" lon="6.03756">
        <ele>718.8</ele>
        <time>2020-08-05T08:28:38Z</time>
      </trkpt>
      <trkpt lat="45.06114" lon="6.03752">
        <ele>718.6</ele>
        <time>2020-08-05T08:28:40Z</time>
      </trkpt>
      <trkpt lat="45.06123" lon="6.0375">
        <ele>718.5</ele>
        <time>2020-08-05T08:28:41Z</time>
      </trkpt>
      <trkpt lat="45.0614" lon="6.03746">
        <ele>718.5</ele>
        <time>2020-08-05T08:28:43Z</time>
      </trkpt>
      <trkpt lat="45.06156" lon="6.03741">
        <ele>718.4</ele>
        <time>2020-08-05T08:28:45Z</time>
      </trkpt>
      <trkpt lat="45.0617" lon="6.03735">
        <ele>718.3</ele>
        <time>2020-08-05T08:28:47Z</time>
      </trkpt>
      <trkpt lat="45.06177" lon="6.03731">
        <ele>718.3</ele>
        <time>2020-08-05T08:28:48Z</time>
      </trkpt>
      <trkpt lat="45.06184" lon="6.03727">
        <ele>718.2</ele>
        <time>2020-08-05T08:28:49Z</time>
      </trkpt>
      <trkpt lat="45.06198" lon="6.03719">
        <ele>718.2</ele>
        <time>2020-08-05T08:28:51Z</time>
      </trkpt>
      <trkpt lat="45.06212" lon="6.0371">
        <ele>718.3</ele>
        <time>2020-08-05T08:28:53Z</time>
      </trkpt>
      <trkpt lat="45.06226" lon="6.03703">
        <ele>718.2</ele>
        <time>2020-08-05T08:28:55Z</time>
      </trkpt>
      <trkpt lat="45.06233" lon="6.037">
        <ele>718.1</ele>
        <time>2020-08-05T08:28:56Z</time>
      </trkpt>
      <trkpt lat="45.0624" lon="6.03699">
        <ele>718.1</ele>
        <time>2020-08-05T08:28:57Z</time>
      </trkpt>
      <trkpt lat="45.06254" lon="6.03698">
        <ele>718.1</ele>
        <time>2020-08-05T08:28:59Z</time>
      </trkpt>
      <trkpt lat="45.06262" lon="6.037">
        <ele>718.1</ele>
        <time>2020-08-05T08:29:00Z</time>
      </trkpt>
      <trkpt lat="45.06275" lon="6.03704">
        <ele>718.1</ele>
        <time>2020-08-05T08:29:02Z</time>
      </trkpt>
      <trkpt lat="45.06288" lon="6.03712">
        <ele>718.2</ele>
        <time>2020-08-05T08:29:04Z</time>
      </trkpt>
      <trkpt lat="45.06299" lon="6.03724">
        <ele>718.5</ele>
        <time>2020-08-05T08:29:06Z</time>
      </trkpt>
      <trkpt lat="45.06304" lon="6.03731">
        <ele>718.6</ele>
        <time>2020-08-05T08:29:07Z</time>
      </trkpt>
      <trkpt lat="45.06313" lon="6.03744">
        <ele>719</ele>
        <time>2020-08-05T08:29:09Z</time>
      </trkpt>
      <trkpt lat="45.06317" lon="6.03751">
        <ele>719.1</ele>
        <time>2020-08-05T08:29:10Z</time>
      </trkpt>
      <trkpt lat="45.06326" lon="6.03763">
        <ele>719.5</ele>
        <time>2020-08-05T08:29:12Z</time>
      </trkpt>
      <trkpt lat="45.06335" lon="6.03775">
        <ele>720</ele>
        <time>2020-08-05T08:29:14Z</time>
      </trkpt>
      <trkpt lat="45.06344" lon="6.03787">
        <ele>720.4</ele>
        <time>2020-08-05T08:29:16Z</time>
      </trkpt>
      <trkpt lat="45.06352" lon="6.03798">
        <ele>720.9</ele>
        <time>2020-08-05T08:29:18Z</time>
      </trkpt>
      <trkpt lat="45.06357" lon="6.03804">
        <ele>721.1</ele>
        <time>2020-08-05T08:29:19Z</time>
      </trkpt>
      <trkpt lat="45.06365" lon="6.03816">
        <ele>721.5</ele>
        <time>2020-08-05T08:29:21Z</time>
      </trkpt>
      <trkpt lat="45.06369" lon="6.03821">
        <ele>721.8</ele>
        <time>2020-08-05T08:29:22Z</time>
      </trkpt>
      <trkpt lat="45.06376" lon="6.03832">
        <ele>722</ele>
        <time>2020-08-05T08:29:24Z</time>
      </trkpt>
      <trkpt lat="45.06379" lon="6.03838">
        <ele>722.1</ele>
        <time>2020-08-05T08:29:25Z</time>
      </trkpt>
      <trkpt lat="45.06386" lon="6.03849">
        <ele>722.4</ele>
        <time>2020-08-05T08:29:27Z</time>
      </trkpt>
      <trkpt lat="45.0639" lon="6.03855">
        <ele>722.6</ele>
        <time>2020-08-05T08:29:28Z</time>
      </trkpt>
      <trkpt lat="45.06394" lon="6.0386">
        <ele>722.7</ele>
        <time>2020-08-05T08:29:29Z</time>
      </trkpt>
      <trkpt lat="45.06401" lon="6.03871">
        <ele>723.1</ele>
        <time>2020-08-05T08:29:31Z</time>
      </trkpt>
      <trkpt lat="45.06409" lon="6.03881">
        <ele>723.5</ele>
        <time>2020-08-05T08:29:33Z</time>
      </trkpt>
      <trkpt lat="45.06412" lon="6.03886">
        <ele>723.6</ele>
        <time>2020-08-05T08:29:34Z</time>
      </trkpt>
      <trkpt lat="45.06419" lon="6.03894">
        <ele>723.9</ele>
        <time>2020-08-05T08:29:36Z</time>
      </trkpt>
      <trkpt lat="45.06426" lon="6.03904">
        <ele>723.9</ele>
        <time>2020-08-05T08:29:38Z</time>
      </trkpt>
      <trkpt lat="45.0643" lon="6.03909">
        <ele>724</ele>
        <time>2020-08-05T08:29:39Z</time>
      </trkpt>
      <trkpt lat="45.06433" lon="6.03914">
        <ele>724</ele>
        <time>2020-08-05T08:29:40Z</time>
      </trkpt>
      <trkpt lat="45.06441" lon="6.03924">
        <ele>724.5</ele>
        <time>2020-08-05T08:29:42Z</time>
      </trkpt>
      <trkpt lat="45.06448" lon="6.03936">
        <ele>725.1</ele>
        <time>2020-08-05T08:29:44Z</time>
      </trkpt>
      <trkpt lat="45.06456" lon="6.03948">
        <ele>725.6</ele>
        <time>2020-08-05T08:29:46Z</time>
      </trkpt>
      <trkpt lat="45.0646" lon="6.03954">
        <ele>725.9</ele>
        <time>2020-08-05T08:29:47Z</time>
      </trkpt>
      <trkpt lat="45.06465" lon="6.0396">
        <ele>726.2</ele>
        <time>2020-08-05T08:29:48Z</time>
      </trkpt>
      <trkpt lat="45.06473" lon="6.03971">
        <ele>726.8</ele>
        <time>2020-08-05T08:29:50Z</time>
      </trkpt>
      <trkpt lat="45.06477" lon="6.03977">
        <ele>727.1</ele>
        <time>2020-08-05T08:29:51Z</time>
      </trkpt>
      <trkpt lat="45.06485" lon="6.03988">
        <ele>727.7</ele>
        <time>2020-08-05T08:29:53Z</time>
      </trkpt>
      <trkpt lat="45.06494" lon="6.03999">
        <ele>728.4</ele>
        <time>2020-08-05T08:29:55Z</time>
      </trkpt>
      <trkpt lat="45.06499" lon="6.04005">
        <ele>728.8</ele>
        <time>2020-08-05T08:29:56Z</time>
      </trkpt>
      <trkpt lat="45.06509" lon="6.04012">
        <ele>729.5</ele>
        <time>2020-08-05T08:29:58Z</time>
      </trkpt>
      <trkpt lat="45.0652" lon="6.04015">
        <ele>730.2</ele>
        <time>2020-08-05T08:30:00Z</time>
      </trkpt>
      <trkpt lat="45.06531" lon="6.04013">
        <ele>730.9</ele>
        <time>2020-08-05T08:30:02Z</time>
      </trkpt>
      <trkpt lat="45.0654" lon="6.0401">
        <ele>731.7</ele>
        <time>2020-08-05T08:30:04Z</time>
      </trkpt>
      <trkpt lat="45.06544" lon="6.04008">
        <ele>732</ele>
        <time>2020-08-05T08:30:05Z</time>
      </trkpt>
      <trkpt lat="45.06551" lon="6.04005">
        <ele>732.8</ele>
        <time>2020-08-05T08:30:07Z</time>
      </trkpt>
      <trkpt lat="45.06555" lon="6.04004">
        <ele>733.2</ele>
        <time>2020-08-05T08:30:08Z</time>
      </trkpt>
      <trkpt lat="45.06562" lon="6.04001">
        <ele>734.1</ele>
        <time>2020-08-05T08:30:10Z</time>
      </trkpt>
      <trkpt lat="45.06568" lon="6.03999">
        <ele>734.8</ele>
        <time>2020-08-05T08:30:11Z</time>
      </trkpt>
      <trkpt lat="45.06566" lon="6.03996">
        <ele>735.1</ele>
        <time>2020-08-05T08:30:13Z</time>
      </trkpt>
      <trkpt lat="45.06568" lon="6.03998">
        <ele>735.5</ele>
        <time>2020-08-05T08:30:14Z</time>
      </trkpt>
      <trkpt lat="45.06576" lon="6.03996">
        <ele>736.5</ele>
        <time>2020-08-05T08:30:16Z</time>
      </trkpt>
      <trkpt lat="45.06579" lon="6.03995">
        <ele>736.9</ele>
        <time>2020-08-05T08:30:18Z</time>
      </trkpt>
      <trkpt lat="45.06582" lon="6.03993">
        <ele>737.3</ele>
        <time>2020-08-05T08:30:19Z</time>
      </trkpt>
      <trkpt lat="45.06591" lon="6.0399">
        <ele>738.4</ele>
        <time>2020-08-05T08:30:21Z</time>
      </trkpt>
      <trkpt lat="45.06603" lon="6.03986">
        <ele>739.9</ele>
        <time>2020-08-05T08:30:24Z</time>
      </trkpt>
      <trkpt lat="45.0661" lon="6.03983">
        <ele>740.9</ele>
        <time>2020-08-05T08:30:26Z</time>
      </trkpt>
      <trkpt lat="45.06618" lon="6.03981">
        <ele>741.8</ele>
        <time>2020-08-05T08:30:27Z</time>
      </trkpt>
      <trkpt lat="45.06625" lon="6.03978">
        <ele>742.7</ele>
        <time>2020-08-05T08:30:29Z</time>
      </trkpt>
      <trkpt lat="45.06628" lon="6.03977">
        <ele>743.1</ele>
        <time>2020-08-05T08:30:30Z</time>
      </trkpt>
      <trkpt lat="45.06632" lon="6.03975">
        <ele>743.6</ele>
        <time>2020-08-05T08:30:32Z</time>
      </trkpt>
      <trkpt lat="45.06635" lon="6.03974">
        <ele>744</ele>
        <time>2020-08-05T08:30:34Z</time>
      </trkpt>
      <trkpt lat="45.0664" lon="6.03972">
        <ele>744.5</ele>
        <time>2020-08-05T08:30:35Z</time>
      </trkpt>
      <trkpt lat="45.06643" lon="6.0397">
        <ele>745</ele>
        <time>2020-08-05T08:30:36Z</time>
      </trkpt>
      <trkpt lat="45.06645" lon="6.0397">
        <ele>745.2</ele>
        <time>2020-08-05T08:30:37Z</time>
      </trkpt>
      <trkpt lat="45.06648" lon="6.03969">
        <ele>745.5</ele>
        <time>2020-08-05T08:30:38Z</time>
      </trkpt>
      <trkpt lat="45.06653" lon="6.03967">
        <ele>746.1</ele>
        <time>2020-08-05T08:30:40Z</time>
      </trkpt>
      <trkpt lat="45.06655" lon="6.03967">
        <ele>746.5</ele>
        <time>2020-08-05T08:30:41Z</time>
      </trkpt>
      <trkpt lat="45.06663" lon="6.03964">
        <ele>747.4</ele>
        <time>2020-08-05T08:30:43Z</time>
      </trkpt>
      <trkpt lat="45.06667" lon="6.03963">
        <ele>747.8</ele>
        <time>2020-08-05T08:30:45Z</time>
      </trkpt>
      <trkpt lat="45.06669" lon="6.03963">
        <ele>748.2</ele>
        <time>2020-08-05T08:30:46Z</time>
      </trkpt>
      <trkpt lat="45.06673" lon="6.03962">
        <ele>748.6</ele>
        <time>2020-08-05T08:30:47Z</time>
      </trkpt>
      <trkpt lat="45.06676" lon="6.03962">
        <ele>748.9</ele>
        <time>2020-08-05T08:30:48Z</time>
      </trkpt>
      <trkpt lat="45.06679" lon="6.03962">
        <ele>749.3</ele>
        <time>2020-08-05T08:30:50Z</time>
      </trkpt>
      <trkpt lat="45.06683" lon="6.03963">
        <ele>749.8</ele>
        <time>2020-08-05T08:30:51Z</time>
      </trkpt>
      <trkpt lat="45.06687" lon="6.03963">
        <ele>750.3</ele>
        <time>2020-08-05T08:30:53Z</time>
      </trkpt>
      <trkpt lat="45.06692" lon="6.03962">
        <ele>750.9</ele>
        <time>2020-08-05T08:30:55Z</time>
      </trkpt>
      <trkpt lat="45.06698" lon="6.03962">
        <ele>751.6</ele>
        <time>2020-08-05T08:30:56Z</time>
      </trkpt>
      <trkpt lat="45.06701" lon="6.03961">
        <ele>752</ele>
        <time>2020-08-05T08:30:58Z</time>
      </trkpt>
      <trkpt lat="45.06704" lon="6.03961">
        <ele>752.4</ele>
        <time>2020-08-05T08:30:59Z</time>
      </trkpt>
      <trkpt lat="45.06709" lon="6.0396">
        <ele>753.1</ele>
        <time>2020-08-05T08:31:00Z</time>
      </trkpt>
      <trkpt lat="45.06714" lon="6.03959">
        <ele>753.6</ele>
        <time>2020-08-05T08:31:02Z</time>
      </trkpt>
      <trkpt lat="45.06717" lon="6.03958">
        <ele>754</ele>
        <time>2020-08-05T08:31:03Z</time>
      </trkpt>
      <trkpt lat="45.06721" lon="6.03957">
        <ele>754.5</ele>
        <time>2020-08-05T08:31:04Z</time>
      </trkpt>
      <trkpt lat="45.06722" lon="6.03957">
        <ele>754.6</ele>
        <time>2020-08-05T08:31:05Z</time>
      </trkpt>
      <trkpt lat="45.06729" lon="6.03956">
        <ele>755.5</ele>
        <time>2020-08-05T08:31:07Z</time>
      </trkpt>
      <trkpt lat="45.06731" lon="6.03955">
        <ele>755.8</ele>
        <time>2020-08-05T08:31:08Z</time>
      </trkpt>
      <trkpt lat="45.0674" lon="6.03954">
        <ele>756.8</ele>
        <time>2020-08-05T08:31:11Z</time>
      </trkpt>
      <trkpt lat="45.06744" lon="6.03954">
        <ele>757.4</ele>
        <time>2020-08-05T08:31:13Z</time>
      </trkpt>
      <trkpt lat="45.06746" lon="6.03954">
        <ele>757.7</ele>
        <time>2020-08-05T08:31:14Z</time>
      </trkpt>
      <trkpt lat="45.06748" lon="6.03954">
        <ele>757.9</ele>
        <time>2020-08-05T08:31:15Z</time>
      </trkpt>
      <trkpt lat="45.0675" lon="6.03954">
        <ele>758.2</ele>
        <time>2020-08-05T08:31:16Z</time>
      </trkpt>
      <trkpt lat="45.06753" lon="6.03954">
        <ele>758.6</ele>
        <time>2020-08-05T08:31:17Z</time>
      </trkpt>
      <trkpt lat="45.06759" lon="6.03953">
        <ele>759.3</ele>
        <time>2020-08-05T08:31:19Z</time>
      </trkpt>
      <trkpt lat="45.06762" lon="6.03952">
        <ele>759.6</ele>
        <time>2020-08-05T08:31:20Z</time>
      </trkpt>
      <trkpt lat="45.06765" lon="6.03952">
        <ele>760</ele>
        <time>2020-08-05T08:31:22Z</time>
      </trkpt>
      <trkpt lat="45.06768" lon="6.03951">
        <ele>760.3</ele>
        <time>2020-08-05T08:31:23Z</time>
      </trkpt>
      <trkpt lat="45.06775" lon="6.03951">
        <ele>761.2</ele>
        <time>2020-08-05T08:31:25Z</time>
      </trkpt>
      <trkpt lat="45.06778" lon="6.0395">
        <ele>761.6</ele>
        <time>2020-08-05T08:31:27Z</time>
      </trkpt>
      <trkpt lat="45.06784" lon="6.03949">
        <ele>762.3</ele>
        <time>2020-08-05T08:31:29Z</time>
      </trkpt>
      <trkpt lat="45.06787" lon="6.03949">
        <ele>762.6</ele>
        <time>2020-08-05T08:31:30Z</time>
      </trkpt>
      <trkpt lat="45.06794" lon="6.03946">
        <ele>763.5</ele>
        <time>2020-08-05T08:31:32Z</time>
      </trkpt>
      <trkpt lat="45.06798" lon="6.03943">
        <ele>764.1</ele>
        <time>2020-08-05T08:31:35Z</time>
      </trkpt>
      <trkpt lat="45.068" lon="6.03942">
        <ele>764.3</ele>
        <time>2020-08-05T08:31:36Z</time>
      </trkpt>
      <trkpt lat="45.06801" lon="6.03941">
        <ele>764.5</ele>
        <time>2020-08-05T08:31:37Z</time>
      </trkpt>
      <trkpt lat="45.06805" lon="6.03937">
        <ele>765</ele>
        <time>2020-08-05T08:31:38Z</time>
      </trkpt>
      <trkpt lat="45.06811" lon="6.03933">
        <ele>765.9</ele>
        <time>2020-08-05T08:31:40Z</time>
      </trkpt>
      <trkpt lat="45.06814" lon="6.03931">
        <ele>766.4</ele>
        <time>2020-08-05T08:31:41Z</time>
      </trkpt>
      <trkpt lat="45.06818" lon="6.03929">
        <ele>766.8</ele>
        <time>2020-08-05T08:31:43Z</time>
      </trkpt>
      <trkpt lat="45.06822" lon="6.03926">
        <ele>767.4</ele>
        <time>2020-08-05T08:31:46Z</time>
      </trkpt>
      <trkpt lat="45.06824" lon="6.03925">
        <ele>767.7</ele>
        <time>2020-08-05T08:31:47Z</time>
      </trkpt>
      <trkpt lat="45.06829" lon="6.03926">
        <ele>768.4</ele>
        <time>2020-08-05T08:31:49Z</time>
      </trkpt>
      <trkpt lat="45.06834" lon="6.03927">
        <ele>769</ele>
        <time>2020-08-05T08:31:50Z</time>
      </trkpt>
      <trkpt lat="45.06841" lon="6.03928">
        <ele>769.9</ele>
        <time>2020-08-05T08:31:52Z</time>
      </trkpt>
      <trkpt lat="45.06843" lon="6.03929">
        <ele>770.1</ele>
        <time>2020-08-05T08:31:53Z</time>
      </trkpt>
      <trkpt lat="45.06846" lon="6.0393">
        <ele>770.5</ele>
        <time>2020-08-05T08:31:55Z</time>
      </trkpt>
      <trkpt lat="45.06853" lon="6.03933">
        <ele>771.4</ele>
        <time>2020-08-05T08:31:57Z</time>
      </trkpt>
      <trkpt lat="45.06856" lon="6.03933">
        <ele>771.9</ele>
        <time>2020-08-05T08:31:59Z</time>
      </trkpt>
      <trkpt lat="45.06863" lon="6.03934">
        <ele>772.7</ele>
        <time>2020-08-05T08:32:01Z</time>
      </trkpt>
      <trkpt lat="45.06866" lon="6.03935">
        <ele>773</ele>
        <time>2020-08-05T08:32:02Z</time>
      </trkpt>
      <trkpt lat="45.06869" lon="6.03935">
        <ele>773.4</ele>
        <time>2020-08-05T08:32:03Z</time>
      </trkpt>
      <trkpt lat="45.06876" lon="6.03934">
        <ele>774.3</ele>
        <time>2020-08-05T08:32:06Z</time>
      </trkpt>
      <trkpt lat="45.06879" lon="6.03933">
        <ele>774.6</ele>
        <time>2020-08-05T08:32:07Z</time>
      </trkpt>
      <trkpt lat="45.06882" lon="6.03933">
        <ele>775</ele>
        <time>2020-08-05T08:32:09Z</time>
      </trkpt>
      <trkpt lat="45.06885" lon="6.03933">
        <ele>775.4</ele>
        <time>2020-08-05T08:32:10Z</time>
      </trkpt>
      <trkpt lat="45.06888" lon="6.03932">
        <ele>775.7</ele>
        <time>2020-08-05T08:32:12Z</time>
      </trkpt>
      <trkpt lat="45.06893" lon="6.0393">
        <ele>776.2</ele>
        <time>2020-08-05T08:32:13Z</time>
      </trkpt>
      <trkpt lat="45.06896" lon="6.03929">
        <ele>776.6</ele>
        <time>2020-08-05T08:32:14Z</time>
      </trkpt>
      <trkpt lat="45.06903" lon="6.03926">
        <ele>777.4</ele>
        <time>2020-08-05T08:32:16Z</time>
      </trkpt>
      <trkpt lat="45.06906" lon="6.03925">
        <ele>777.8</ele>
        <time>2020-08-05T08:32:18Z</time>
      </trkpt>
      <trkpt lat="45.06909" lon="6.03925">
        <ele>778.1</ele>
        <time>2020-08-05T08:32:20Z</time>
      </trkpt>
      <trkpt lat="45.06912" lon="6.03924">
        <ele>778.5</ele>
        <time>2020-08-05T08:32:21Z</time>
      </trkpt>
      <trkpt lat="45.06921" lon="6.03921">
        <ele>779.6</ele>
        <time>2020-08-05T08:32:23Z</time>
      </trkpt>
      <trkpt lat="45.06924" lon="6.0392">
        <ele>779.9</ele>
        <time>2020-08-05T08:32:24Z</time>
      </trkpt>
      <trkpt lat="45.06928" lon="6.03918">
        <ele>780.4</ele>
        <time>2020-08-05T08:32:26Z</time>
      </trkpt>
      <trkpt lat="45.0693" lon="6.03917">
        <ele>780.8</ele>
        <time>2020-08-05T08:32:27Z</time>
      </trkpt>
      <trkpt lat="45.06933" lon="6.03915">
        <ele>781.2</ele>
        <time>2020-08-05T08:32:28Z</time>
      </trkpt>
      <trkpt lat="45.06937" lon="6.03913">
        <ele>781.7</ele>
        <time>2020-08-05T08:32:29Z</time>
      </trkpt>
      <trkpt lat="45.06944" lon="6.0391">
        <ele>782.6</ele>
        <time>2020-08-05T08:32:32Z</time>
      </trkpt>
      <trkpt lat="45.06947" lon="6.03908">
        <ele>783</ele>
        <time>2020-08-05T08:32:33Z</time>
      </trkpt>
      <trkpt lat="45.0695" lon="6.03906">
        <ele>783.4</ele>
        <time>2020-08-05T08:32:35Z</time>
      </trkpt>
      <trkpt lat="45.06953" lon="6.03904">
        <ele>783.8</ele>
        <time>2020-08-05T08:32:37Z</time>
      </trkpt>
      <trkpt lat="45.06957" lon="6.03901">
        <ele>784.3</ele>
        <time>2020-08-05T08:32:38Z</time>
      </trkpt>
      <trkpt lat="45.0696" lon="6.03899">
        <ele>784.7</ele>
        <time>2020-08-05T08:32:39Z</time>
      </trkpt>
      <trkpt lat="45.06965" lon="6.03896">
        <ele>785.4</ele>
        <time>2020-08-05T08:32:41Z</time>
      </trkpt>
      <trkpt lat="45.06969" lon="6.03895">
        <ele>785.9</ele>
        <time>2020-08-05T08:32:43Z</time>
      </trkpt>
      <trkpt lat="45.06973" lon="6.03893">
        <ele>786.5</ele>
        <time>2020-08-05T08:32:44Z</time>
      </trkpt>
      <trkpt lat="45.06976" lon="6.03891">
        <ele>786.9</ele>
        <time>2020-08-05T08:32:45Z</time>
      </trkpt>
      <trkpt lat="45.06981" lon="6.03888">
        <ele>787.5</ele>
        <time>2020-08-05T08:32:46Z</time>
      </trkpt>
      <trkpt lat="45.06984" lon="6.03887">
        <ele>787.9</ele>
        <time>2020-08-05T08:32:48Z</time>
      </trkpt>
      <trkpt lat="45.06989" lon="6.03884">
        <ele>788.5</ele>
        <time>2020-08-05T08:32:50Z</time>
      </trkpt>
      <trkpt lat="45.06991" lon="6.03883">
        <ele>788.8</ele>
        <time>2020-08-05T08:32:51Z</time>
      </trkpt>
      <trkpt lat="45.06994" lon="6.03881">
        <ele>789.2</ele>
        <time>2020-08-05T08:32:52Z</time>
      </trkpt>
      <trkpt lat="45.06997" lon="6.0388">
        <ele>789.6</ele>
        <time>2020-08-05T08:32:53Z</time>
      </trkpt>
      <trkpt lat="45.07" lon="6.0388">
        <ele>790</ele>
        <time>2020-08-05T08:32:55Z</time>
      </trkpt>
      <trkpt lat="45.07003" lon="6.03878">
        <ele>790.4</ele>
        <time>2020-08-05T08:32:57Z</time>
      </trkpt>
      <trkpt lat="45.07011" lon="6.03874">
        <ele>791.6</ele>
        <time>2020-08-05T08:32:59Z</time>
      </trkpt>
      <trkpt lat="45.07014" lon="6.03873">
        <ele>792</ele>
        <time>2020-08-05T08:33:01Z</time>
      </trkpt>
      <trkpt lat="45.07019" lon="6.03872">
        <ele>792.5</ele>
        <time>2020-08-05T08:33:02Z</time>
      </trkpt>
      <trkpt lat="45.07022" lon="6.03871">
        <ele>793</ele>
        <time>2020-08-05T08:33:04Z</time>
      </trkpt>
      <trkpt lat="45.07027" lon="6.03871">
        <ele>793.5</ele>
        <time>2020-08-05T08:33:06Z</time>
      </trkpt>
      <trkpt lat="45.07029" lon="6.03871">
        <ele>793.9</ele>
        <time>2020-08-05T08:33:08Z</time>
      </trkpt>
      <trkpt lat="45.07034" lon="6.03871">
        <ele>794.5</ele>
        <time>2020-08-05T08:33:09Z</time>
      </trkpt>
      <trkpt lat="45.07037" lon="6.03871">
        <ele>794.9</ele>
        <time>2020-08-05T08:33:10Z</time>
      </trkpt>
      <trkpt lat="45.07043" lon="6.03871">
        <ele>795.6</ele>
        <time>2020-08-05T08:33:12Z</time>
      </trkpt>
      <trkpt lat="45.07046" lon="6.03871">
        <ele>796</ele>
        <time>2020-08-05T08:33:13Z</time>
      </trkpt>
      <trkpt lat="45.07052" lon="6.03871">
        <ele>796.7</ele>
        <time>2020-08-05T08:33:16Z</time>
      </trkpt>
      <trkpt lat="45.07053" lon="6.03871">
        <ele>796.9</ele>
        <time>2020-08-05T08:33:17Z</time>
      </trkpt>
      <trkpt lat="45.07055" lon="6.03871">
        <ele>797.1</ele>
        <time>2020-08-05T08:33:18Z</time>
      </trkpt>
      <trkpt lat="45.07058" lon="6.03872">
        <ele>797.5</ele>
        <time>2020-08-05T08:33:19Z</time>
      </trkpt>
      <trkpt lat="45.07062" lon="6.03872">
        <ele>798</ele>
        <time>2020-08-05T08:33:20Z</time>
      </trkpt>
      <trkpt lat="45.07065" lon="6.03873">
        <ele>798.4</ele>
        <time>2020-08-05T08:33:22Z</time>
      </trkpt>
      <trkpt lat="45.0707" lon="6.03875">
        <ele>799</ele>
        <time>2020-08-05T08:33:24Z</time>
      </trkpt>
      <trkpt lat="45.07075" lon="6.03876">
        <ele>799.5</ele>
        <time>2020-08-05T08:33:25Z</time>
      </trkpt>
      <trkpt lat="45.07077" lon="6.03877">
        <ele>799.8</ele>
        <time>2020-08-05T08:33:26Z</time>
      </trkpt>
      <trkpt lat="45.07083" lon="6.03879">
        <ele>800.5</ele>
        <time>2020-08-05T08:33:28Z</time>
      </trkpt>
      <trkpt lat="45.07086" lon="6.03881">
        <ele>800.9</ele>
        <time>2020-08-05T08:33:29Z</time>
      </trkpt>
      <trkpt lat="45.0709" lon="6.03882">
        <ele>801.3</ele>
        <time>2020-08-05T08:33:31Z</time>
      </trkpt>
      <trkpt lat="45.07095" lon="6.03883">
        <ele>801.9</ele>
        <time>2020-08-05T08:33:33Z</time>
      </trkpt>
      <trkpt lat="45.071" lon="6.03885">
        <ele>802.4</ele>
        <time>2020-08-05T08:33:36Z</time>
      </trkpt>
      <trkpt lat="45.07104" lon="6.03886">
        <ele>802.9</ele>
        <time>2020-08-05T08:33:38Z</time>
      </trkpt>
      <trkpt lat="45.0711" lon="6.03889">
        <ele>803.6</ele>
        <time>2020-08-05T08:33:39Z</time>
      </trkpt>
      <trkpt lat="45.07114" lon="6.0389">
        <ele>804</ele>
        <time>2020-08-05T08:33:41Z</time>
      </trkpt>
      <trkpt lat="45.07121" lon="6.03892">
        <ele>804.8</ele>
        <time>2020-08-05T08:33:43Z</time>
      </trkpt>
      <trkpt lat="45.07126" lon="6.03894">
        <ele>805.4</ele>
        <time>2020-08-05T08:33:45Z</time>
      </trkpt>
      <trkpt lat="45.0713" lon="6.03895">
        <ele>805.8</ele>
        <time>2020-08-05T08:33:46Z</time>
      </trkpt>
      <trkpt lat="45.07132" lon="6.03896">
        <ele>806.1</ele>
        <time>2020-08-05T08:33:47Z</time>
      </trkpt>
      <trkpt lat="45.07139" lon="6.03899">
        <ele>806.9</ele>
        <time>2020-08-05T08:33:50Z</time>
      </trkpt>
      <trkpt lat="45.07143" lon="6.039">
        <ele>807.4</ele>
        <time>2020-08-05T08:33:51Z</time>
      </trkpt>
      <trkpt lat="45.07145" lon="6.03901">
        <ele>807.5</ele>
        <time>2020-08-05T08:33:52Z</time>
      </trkpt>
      <trkpt lat="45.07148" lon="6.03902">
        <ele>807.8</ele>
        <time>2020-08-05T08:33:53Z</time>
      </trkpt>
      <trkpt lat="45.07151" lon="6.03902">
        <ele>808.2</ele>
        <time>2020-08-05T08:33:54Z</time>
      </trkpt>
      <trkpt lat="45.07152" lon="6.03902">
        <ele>808.4</ele>
        <time>2020-08-05T08:33:55Z</time>
      </trkpt>
      <trkpt lat="45.07156" lon="6.03903">
        <ele>808.8</ele>
        <time>2020-08-05T08:33:57Z</time>
      </trkpt>
      <trkpt lat="45.0716" lon="6.03904">
        <ele>809.2</ele>
        <time>2020-08-05T08:33:58Z</time>
      </trkpt>
      <trkpt lat="45.07162" lon="6.03904">
        <ele>809.5</ele>
        <time>2020-08-05T08:33:59Z</time>
      </trkpt>
      <trkpt lat="45.07165" lon="6.03905">
        <ele>809.8</ele>
        <time>2020-08-05T08:34:02Z</time>
      </trkpt>
      <trkpt lat="45.07172" lon="6.03905">
        <ele>810.6</ele>
        <time>2020-08-05T08:34:03Z</time>
      </trkpt>
      <trkpt lat="45.07175" lon="6.03905">
        <ele>811</ele>
        <time>2020-08-05T08:34:04Z</time>
      </trkpt>
      <trkpt lat="45.07178" lon="6.03906">
        <ele>811.3</ele>
        <time>2020-08-05T08:34:06Z</time>
      </trkpt>
      <trkpt lat="45.07185" lon="6.0391">
        <ele>812.1</ele>
        <time>2020-08-05T08:34:08Z</time>
      </trkpt>
      <trkpt lat="45.07187" lon="6.03915">
        <ele>812.4</ele>
        <time>2020-08-05T08:34:10Z</time>
      </trkpt>
      <trkpt lat="45.07186" lon="6.03921">
        <ele>812.7</ele>
        <time>2020-08-05T08:34:11Z</time>
      </trkpt>
      <trkpt lat="45.07183" lon="6.03926">
        <ele>813.1</ele>
        <time>2020-08-05T08:34:13Z</time>
      </trkpt>
      <trkpt lat="45.0717" lon="6.03929">
        <ele>813.9</ele>
        <time>2020-08-05T08:34:15Z</time>
      </trkpt>
      <trkpt lat="45.07164" lon="6.03929">
        <ele>814.4</ele>
        <time>2020-08-05T08:34:16Z</time>
      </trkpt>
      <trkpt lat="45.0716" lon="6.03929">
        <ele>814.8</ele>
        <time>2020-08-05T08:34:17Z</time>
      </trkpt>
      <trkpt lat="45.07156" lon="6.03929">
        <ele>815.1</ele>
        <time>2020-08-05T08:34:18Z</time>
      </trkpt>
      <trkpt lat="45.07146" lon="6.03925">
        <ele>816.2</ele>
        <time>2020-08-05T08:34:20Z</time>
      </trkpt>
      <trkpt lat="45.07138" lon="6.03922">
        <ele>817.3</ele>
        <time>2020-08-05T08:34:23Z</time>
      </trkpt>
      <trkpt lat="45.07134" lon="6.0392">
        <ele>817.7</ele>
        <time>2020-08-05T08:34:24Z</time>
      </trkpt>
      <trkpt lat="45.07128" lon="6.03918">
        <ele>818.6</ele>
        <time>2020-08-05T08:34:27Z</time>
      </trkpt>
      <trkpt lat="45.07125" lon="6.03917">
        <ele>818.9</ele>
        <time>2020-08-05T08:34:28Z</time>
      </trkpt>
      <trkpt lat="45.07122" lon="6.03917">
        <ele>819.2</ele>
        <time>2020-08-05T08:34:29Z</time>
      </trkpt>
      <trkpt lat="45.07119" lon="6.03916">
        <ele>819.6</ele>
        <time>2020-08-05T08:34:31Z</time>
      </trkpt>
      <trkpt lat="45.07116" lon="6.03916">
        <ele>820.1</ele>
        <time>2020-08-05T08:34:32Z</time>
      </trkpt>
      <trkpt lat="45.07113" lon="6.03916">
        <ele>820.4</ele>
        <time>2020-08-05T08:34:33Z</time>
      </trkpt>
      <trkpt lat="45.0711" lon="6.03915">
        <ele>820.8</ele>
        <time>2020-08-05T08:34:35Z</time>
      </trkpt>
      <trkpt lat="45.07107" lon="6.03914">
        <ele>821.1</ele>
        <time>2020-08-05T08:34:36Z</time>
      </trkpt>
      <trkpt lat="45.07104" lon="6.03914">
        <ele>821.4</ele>
        <time>2020-08-05T08:34:37Z</time>
      </trkpt>
      <trkpt lat="45.071" lon="6.03914">
        <ele>821.8</ele>
        <time>2020-08-05T08:34:38Z</time>
      </trkpt>
      <trkpt lat="45.07095" lon="6.03916">
        <ele>822.4</ele>
        <time>2020-08-05T08:34:40Z</time>
      </trkpt>
      <trkpt lat="45.07092" lon="6.03917">
        <ele>822.8</ele>
        <time>2020-08-05T08:34:42Z</time>
      </trkpt>
      <trkpt lat="45.07089" lon="6.03917">
        <ele>823.1</ele>
        <time>2020-08-05T08:34:43Z</time>
      </trkpt>
      <trkpt lat="45.07086" lon="6.03919">
        <ele>823.5</ele>
        <time>2020-08-05T08:34:44Z</time>
      </trkpt>
      <trkpt lat="45.07083" lon="6.0392">
        <ele>823.9</ele>
        <time>2020-08-05T08:34:45Z</time>
      </trkpt>
      <trkpt lat="45.07082" lon="6.0392">
        <ele>824.1</ele>
        <time>2020-08-05T08:34:46Z</time>
      </trkpt>
      <trkpt lat="45.07078" lon="6.03922">
        <ele>824.6</ele>
        <time>2020-08-05T08:34:48Z</time>
      </trkpt>
      <trkpt lat="45.07076" lon="6.03923">
        <ele>824.8</ele>
        <time>2020-08-05T08:34:49Z</time>
      </trkpt>
      <trkpt lat="45.07073" lon="6.03924">
        <ele>825.3</ele>
        <time>2020-08-05T08:34:51Z</time>
      </trkpt>
      <trkpt lat="45.07071" lon="6.03924">
        <ele>825.5</ele>
        <time>2020-08-05T08:34:52Z</time>
      </trkpt>
      <trkpt lat="45.07068" lon="6.03925">
        <ele>825.8</ele>
        <time>2020-08-05T08:34:53Z</time>
      </trkpt>
      <trkpt lat="45.07063" lon="6.03926">
        <ele>826.4</ele>
        <time>2020-08-05T08:34:55Z</time>
      </trkpt>
      <trkpt lat="45.0706" lon="6.03928">
        <ele>826.9</ele>
        <time>2020-08-05T08:34:56Z</time>
      </trkpt>
      <trkpt lat="45.07057" lon="6.0393">
        <ele>827.2</ele>
        <time>2020-08-05T08:34:58Z</time>
      </trkpt>
      <trkpt lat="45.07051" lon="6.03933">
        <ele>827.9</ele>
        <time>2020-08-05T08:35:00Z</time>
      </trkpt>
      <trkpt lat="45.07048" lon="6.03934">
        <ele>828.4</ele>
        <time>2020-08-05T08:35:03Z</time>
      </trkpt>
      <trkpt lat="45.07045" lon="6.03936">
        <ele>828.8</ele>
        <time>2020-08-05T08:35:04Z</time>
      </trkpt>
      <trkpt lat="45.07042" lon="6.03938">
        <ele>829.1</ele>
        <time>2020-08-05T08:35:05Z</time>
      </trkpt>
      <trkpt lat="45.07039" lon="6.03941">
        <ele>829.5</ele>
        <time>2020-08-05T08:35:06Z</time>
      </trkpt>
      <trkpt lat="45.07037" lon="6.03943">
        <ele>829.9</ele>
        <time>2020-08-05T08:35:08Z</time>
      </trkpt>
      <trkpt lat="45.07031" lon="6.03948">
        <ele>830.7</ele>
        <time>2020-08-05T08:35:10Z</time>
      </trkpt>
      <trkpt lat="45.07028" lon="6.03951">
        <ele>831.1</ele>
        <time>2020-08-05T08:35:12Z</time>
      </trkpt>
      <trkpt lat="45.07025" lon="6.03953">
        <ele>831.5</ele>
        <time>2020-08-05T08:35:13Z</time>
      </trkpt>
      <trkpt lat="45.07022" lon="6.03956">
        <ele>831.9</ele>
        <time>2020-08-05T08:35:15Z</time>
      </trkpt>
      <trkpt lat="45.07018" lon="6.03961">
        <ele>832.6</ele>
        <time>2020-08-05T08:35:17Z</time>
      </trkpt>
      <trkpt lat="45.07015" lon="6.03964">
        <ele>833</ele>
        <time>2020-08-05T08:35:19Z</time>
      </trkpt>
      <trkpt lat="45.07011" lon="6.03969">
        <ele>833.7</ele>
        <time>2020-08-05T08:35:21Z</time>
      </trkpt>
      <trkpt lat="45.07009" lon="6.03972">
        <ele>834</ele>
        <time>2020-08-05T08:35:23Z</time>
      </trkpt>
      <trkpt lat="45.07006" lon="6.03974">
        <ele>834.3</ele>
        <time>2020-08-05T08:35:24Z</time>
      </trkpt>
      <trkpt lat="45.07002" lon="6.0398">
        <ele>835</ele>
        <time>2020-08-05T08:35:26Z</time>
      </trkpt>
      <trkpt lat="45.07001" lon="6.03982">
        <ele>835.3</ele>
        <time>2020-08-05T08:35:28Z</time>
      </trkpt>
      <trkpt lat="45.06999" lon="6.03984">
        <ele>835.5</ele>
        <time>2020-08-05T08:35:29Z</time>
      </trkpt>
      <trkpt lat="45.06997" lon="6.03987">
        <ele>835.8</ele>
        <time>2020-08-05T08:35:30Z</time>
      </trkpt>
      <trkpt lat="45.06995" lon="6.0399">
        <ele>836.2</ele>
        <time>2020-08-05T08:35:31Z</time>
      </trkpt>
      <trkpt lat="45.0699" lon="6.03997">
        <ele>836.9</ele>
        <time>2020-08-05T08:35:33Z</time>
      </trkpt>
      <trkpt lat="45.06988" lon="6.04">
        <ele>837.3</ele>
        <time>2020-08-05T08:35:34Z</time>
      </trkpt>
      <trkpt lat="45.06986" lon="6.04003">
        <ele>837.6</ele>
        <time>2020-08-05T08:35:36Z</time>
      </trkpt>
      <trkpt lat="45.06983" lon="6.04005">
        <ele>838</ele>
        <time>2020-08-05T08:35:37Z</time>
      </trkpt>
      <trkpt lat="45.06979" lon="6.0401">
        <ele>838.6</ele>
        <time>2020-08-05T08:35:39Z</time>
      </trkpt>
      <trkpt lat="45.06976" lon="6.04012">
        <ele>839</ele>
        <time>2020-08-05T08:35:40Z</time>
      </trkpt>
      <trkpt lat="45.06971" lon="6.04017">
        <ele>839.8</ele>
        <time>2020-08-05T08:35:41Z</time>
      </trkpt>
      <trkpt lat="45.06969" lon="6.04019">
        <ele>840.1</ele>
        <time>2020-08-05T08:35:42Z</time>
      </trkpt>
      <trkpt lat="45.06966" lon="6.04022">
        <ele>840.5</ele>
        <time>2020-08-05T08:35:45Z</time>
      </trkpt>
      <trkpt lat="45.06963" lon="6.04026">
        <ele>841.1</ele>
        <time>2020-08-05T08:35:46Z</time>
      </trkpt>
      <trkpt lat="45.06961" lon="6.04029">
        <ele>841.5</ele>
        <time>2020-08-05T08:35:47Z</time>
      </trkpt>
      <trkpt lat="45.0696" lon="6.0403">
        <ele>841.6</ele>
        <time>2020-08-05T08:35:48Z</time>
      </trkpt>
      <trkpt lat="45.06957" lon="6.04034">
        <ele>842.2</ele>
        <time>2020-08-05T08:35:50Z</time>
      </trkpt>
      <trkpt lat="45.06956" lon="6.04036">
        <ele>842.3</ele>
        <time>2020-08-05T08:35:51Z</time>
      </trkpt>
      <trkpt lat="45.06955" lon="6.04037">
        <ele>842.5</ele>
        <time>2020-08-05T08:35:52Z</time>
      </trkpt>
      <trkpt lat="45.06952" lon="6.04041">
        <ele>842.9</ele>
        <time>2020-08-05T08:35:53Z</time>
      </trkpt>
      <trkpt lat="45.06951" lon="6.04042">
        <ele>843.1</ele>
        <time>2020-08-05T08:35:54Z</time>
      </trkpt>
      <trkpt lat="45.06948" lon="6.04048">
        <ele>843.8</ele>
        <time>2020-08-05T08:35:56Z</time>
      </trkpt>
      <trkpt lat="45.06946" lon="6.0405">
        <ele>844</ele>
        <time>2020-08-05T08:35:58Z</time>
      </trkpt>
      <trkpt lat="45.06945" lon="6.04052">
        <ele>844.2</ele>
        <time>2020-08-05T08:35:59Z</time>
      </trkpt>
      <trkpt lat="45.06944" lon="6.04056">
        <ele>844.6</ele>
        <time>2020-08-05T08:36:00Z</time>
      </trkpt>
      <trkpt lat="45.06942" lon="6.04059">
        <ele>844.9</ele>
        <time>2020-08-05T08:36:02Z</time>
      </trkpt>
      <trkpt lat="45.0694" lon="6.04065">
        <ele>845.5</ele>
        <time>2020-08-05T08:36:03Z</time>
      </trkpt>
      <trkpt lat="45.06937" lon="6.04072">
        <ele>846.1</ele>
        <time>2020-08-05T08:36:06Z</time>
      </trkpt>
      <trkpt lat="45.06933" lon="6.04079">
        <ele>846.8</ele>
        <time>2020-08-05T08:36:07Z</time>
      </trkpt>
      <trkpt lat="45.06931" lon="6.04082">
        <ele>847.1</ele>
        <time>2020-08-05T08:36:08Z</time>
      </trkpt>
      <trkpt lat="45.06929" lon="6.04085">
        <ele>847.5</ele>
        <time>2020-08-05T08:36:09Z</time>
      </trkpt>
      <trkpt lat="45.06927" lon="6.04087">
        <ele>847.7</ele>
        <time>2020-08-05T08:36:11Z</time>
      </trkpt>
      <trkpt lat="45.06922" lon="6.04089">
        <ele>848.4</ele>
        <time>2020-08-05T08:36:13Z</time>
      </trkpt>
      <trkpt lat="45.06918" lon="6.04089">
        <ele>848.8</ele>
        <time>2020-08-05T08:36:15Z</time>
      </trkpt>
      <trkpt lat="45.06914" lon="6.04089">
        <ele>849.2</ele>
        <time>2020-08-05T08:36:16Z</time>
      </trkpt>
      <trkpt lat="45.0691" lon="6.0409">
        <ele>849.7</ele>
        <time>2020-08-05T08:36:17Z</time>
      </trkpt>
      <trkpt lat="45.06904" lon="6.04091">
        <ele>850.3</ele>
        <time>2020-08-05T08:36:19Z</time>
      </trkpt>
      <trkpt lat="45.06902" lon="6.04092">
        <ele>850.6</ele>
        <time>2020-08-05T08:36:21Z</time>
      </trkpt>
      <trkpt lat="45.06899" lon="6.04093">
        <ele>850.9</ele>
        <time>2020-08-05T08:36:22Z</time>
      </trkpt>
      <trkpt lat="45.06895" lon="6.04092">
        <ele>851.3</ele>
        <time>2020-08-05T08:36:23Z</time>
      </trkpt>
      <trkpt lat="45.06894" lon="6.04092">
        <ele>851.4</ele>
        <time>2020-08-05T08:36:24Z</time>
      </trkpt>
      <trkpt lat="45.06891" lon="6.04093">
        <ele>851.7</ele>
        <time>2020-08-05T08:36:25Z</time>
      </trkpt>
      <trkpt lat="45.06889" lon="6.04093">
        <ele>852</ele>
        <time>2020-08-05T08:36:27Z</time>
      </trkpt>
      <trkpt lat="45.06881" lon="6.04096">
        <ele>852.9</ele>
        <time>2020-08-05T08:36:29Z</time>
      </trkpt>
      <trkpt lat="45.06875" lon="6.04096">
        <ele>853.6</ele>
        <time>2020-08-05T08:36:32Z</time>
      </trkpt>
      <trkpt lat="45.06872" lon="6.04096">
        <ele>853.9</ele>
        <time>2020-08-05T08:36:33Z</time>
      </trkpt>
      <trkpt lat="45.0687" lon="6.04096">
        <ele>854.2</ele>
        <time>2020-08-05T08:36:34Z</time>
      </trkpt>
      <trkpt lat="45.06867" lon="6.04096">
        <ele>854.5</ele>
        <time>2020-08-05T08:36:35Z</time>
      </trkpt>
      <trkpt lat="45.0686" lon="6.04098">
        <ele>855.3</ele>
        <time>2020-08-05T08:36:38Z</time>
      </trkpt>
      <trkpt lat="45.06857" lon="6.04099">
        <ele>855.7</ele>
        <time>2020-08-05T08:36:40Z</time>
      </trkpt>
      <trkpt lat="45.06856" lon="6.04099">
        <ele>855.9</ele>
        <time>2020-08-05T08:36:41Z</time>
      </trkpt>
      <trkpt lat="45.06853" lon="6.04101">
        <ele>856.3</ele>
        <time>2020-08-05T08:36:42Z</time>
      </trkpt>
      <trkpt lat="45.06851" lon="6.04101">
        <ele>856.4</ele>
        <time>2020-08-05T08:36:43Z</time>
      </trkpt>
      <trkpt lat="45.06848" lon="6.04102">
        <ele>856.8</ele>
        <time>2020-08-05T08:36:44Z</time>
      </trkpt>
      <trkpt lat="45.06847" lon="6.04102">
        <ele>856.9</ele>
        <time>2020-08-05T08:36:45Z</time>
      </trkpt>
      <trkpt lat="45.06845" lon="6.04102">
        <ele>857.3</ele>
        <time>2020-08-05T08:36:46Z</time>
      </trkpt>
      <trkpt lat="45.06843" lon="6.04102">
        <ele>857.4</ele>
        <time>2020-08-05T08:36:47Z</time>
      </trkpt>
      <trkpt lat="45.06841" lon="6.04103">
        <ele>857.7</ele>
        <time>2020-08-05T08:36:48Z</time>
      </trkpt>
      <trkpt lat="45.06838" lon="6.04103">
        <ele>858.1</ele>
        <time>2020-08-05T08:36:50Z</time>
      </trkpt>
      <trkpt lat="45.06831" lon="6.04105">
        <ele>858.8</ele>
        <time>2020-08-05T08:36:52Z</time>
      </trkpt>
      <trkpt lat="45.06828" lon="6.04105">
        <ele>859.2</ele>
        <time>2020-08-05T08:36:54Z</time>
      </trkpt>
      <trkpt lat="45.06824" lon="6.04106">
        <ele>859.7</ele>
        <time>2020-08-05T08:36:55Z</time>
      </trkpt>
      <trkpt lat="45.06821" lon="6.04107">
        <ele>860.1</ele>
        <time>2020-08-05T08:36:57Z</time>
      </trkpt>
      <trkpt lat="45.06818" lon="6.04109">
        <ele>860.4</ele>
        <time>2020-08-05T08:36:58Z</time>
      </trkpt>
      <trkpt lat="45.06814" lon="6.0411">
        <ele>860.9</ele>
        <time>2020-08-05T08:36:59Z</time>
      </trkpt>
      <trkpt lat="45.06811" lon="6.04111">
        <ele>861.3</ele>
        <time>2020-08-05T08:37:01Z</time>
      </trkpt>
      <trkpt lat="45.06809" lon="6.04113">
        <ele>861.6</ele>
        <time>2020-08-05T08:37:02Z</time>
      </trkpt>
      <trkpt lat="45.06805" lon="6.04115">
        <ele>862.2</ele>
        <time>2020-08-05T08:37:04Z</time>
      </trkpt>
      <trkpt lat="45.068" lon="6.04118">
        <ele>862.8</ele>
        <time>2020-08-05T08:37:06Z</time>
      </trkpt>
      <trkpt lat="45.06797" lon="6.04119">
        <ele>863.2</ele>
        <time>2020-08-05T08:37:07Z</time>
      </trkpt>
      <trkpt lat="45.0679" lon="6.04123">
        <ele>864.1</ele>
        <time>2020-08-05T08:37:10Z</time>
      </trkpt>
      <trkpt lat="45.06786" lon="6.04124">
        <ele>864.5</ele>
        <time>2020-08-05T08:37:11Z</time>
      </trkpt>
      <trkpt lat="45.06783" lon="6.04126">
        <ele>864.9</ele>
        <time>2020-08-05T08:37:13Z</time>
      </trkpt>
      <trkpt lat="45.06777" lon="6.04129">
        <ele>865.6</ele>
        <time>2020-08-05T08:37:15Z</time>
      </trkpt>
      <trkpt lat="45.06771" lon="6.04132">
        <ele>866.3</ele>
        <time>2020-08-05T08:37:18Z</time>
      </trkpt>
      <trkpt lat="45.06767" lon="6.04134">
        <ele>866.8</ele>
        <time>2020-08-05T08:37:20Z</time>
      </trkpt>
      <trkpt lat="45.06764" lon="6.04136">
        <ele>867.2</ele>
        <time>2020-08-05T08:37:21Z</time>
      </trkpt>
      <trkpt lat="45.06758" lon="6.04139">
        <ele>867.9</ele>
        <time>2020-08-05T08:37:23Z</time>
      </trkpt>
      <trkpt lat="45.06756" lon="6.04141">
        <ele>868.3</ele>
        <time>2020-08-05T08:37:25Z</time>
      </trkpt>
      <trkpt lat="45.06753" lon="6.04143">
        <ele>868.6</ele>
        <time>2020-08-05T08:37:26Z</time>
      </trkpt>
      <trkpt lat="45.0675" lon="6.04145">
        <ele>869</ele>
        <time>2020-08-05T08:37:28Z</time>
      </trkpt>
      <trkpt lat="45.06748" lon="6.04147">
        <ele>869.3</ele>
        <time>2020-08-05T08:37:29Z</time>
      </trkpt>
      <trkpt lat="45.06745" lon="6.04149">
        <ele>869.6</ele>
        <time>2020-08-05T08:37:31Z</time>
      </trkpt>
      <trkpt lat="45.06741" lon="6.04151">
        <ele>870.1</ele>
        <time>2020-08-05T08:37:32Z</time>
      </trkpt>
      <trkpt lat="45.06735" lon="6.04155">
        <ele>870.9</ele>
        <time>2020-08-05T08:37:34Z</time>
      </trkpt>
      <trkpt lat="45.06731" lon="6.04157">
        <ele>871.3</ele>
        <time>2020-08-05T08:37:36Z</time>
      </trkpt>
      <trkpt lat="45.06728" lon="6.04158">
        <ele>871.7</ele>
        <time>2020-08-05T08:37:38Z</time>
      </trkpt>
      <trkpt lat="45.06724" lon="6.04161">
        <ele>872.1</ele>
        <time>2020-08-05T08:37:39Z</time>
      </trkpt>
      <trkpt lat="45.06721" lon="6.04163">
        <ele>872.5</ele>
        <time>2020-08-05T08:37:41Z</time>
      </trkpt>
      <trkpt lat="45.06719" lon="6.04165">
        <ele>872.8</ele>
        <time>2020-08-05T08:37:42Z</time>
      </trkpt>
      <trkpt lat="45.06715" lon="6.04168">
        <ele>873.4</ele>
        <time>2020-08-05T08:37:44Z</time>
      </trkpt>
      <trkpt lat="45.0671" lon="6.04171">
        <ele>874</ele>
        <time>2020-08-05T08:37:46Z</time>
      </trkpt>
      <trkpt lat="45.06706" lon="6.04173">
        <ele>874.5</ele>
        <time>2020-08-05T08:37:47Z</time>
      </trkpt>
      <trkpt lat="45.06701" lon="6.04178">
        <ele>875.3</ele>
        <time>2020-08-05T08:37:49Z</time>
      </trkpt>
      <trkpt lat="45.06698" lon="6.0418">
        <ele>875.6</ele>
        <time>2020-08-05T08:37:50Z</time>
      </trkpt>
      <trkpt lat="45.06695" lon="6.04182">
        <ele>876.1</ele>
        <time>2020-08-05T08:37:52Z</time>
      </trkpt>
      <trkpt lat="45.0669" lon="6.04184">
        <ele>876.6</ele>
        <time>2020-08-05T08:37:54Z</time>
      </trkpt>
      <trkpt lat="45.06687" lon="6.04186">
        <ele>877.1</ele>
        <time>2020-08-05T08:37:56Z</time>
      </trkpt>
      <trkpt lat="45.06683" lon="6.04188">
        <ele>877.7</ele>
        <time>2020-08-05T08:37:57Z</time>
      </trkpt>
      <trkpt lat="45.06678" lon="6.0419">
        <ele>878.2</ele>
        <time>2020-08-05T08:37:59Z</time>
      </trkpt>
      <trkpt lat="45.06672" lon="6.04193">
        <ele>879</ele>
        <time>2020-08-05T08:38:01Z</time>
      </trkpt>
      <trkpt lat="45.06666" lon="6.04195">
        <ele>879.6</ele>
        <time>2020-08-05T08:38:04Z</time>
      </trkpt>
      <trkpt lat="45.06663" lon="6.04196">
        <ele>879.9</ele>
        <time>2020-08-05T08:38:05Z</time>
      </trkpt>
      <trkpt lat="45.0666" lon="6.04197">
        <ele>880.2</ele>
        <time>2020-08-05T08:38:06Z</time>
      </trkpt>
      <trkpt lat="45.06657" lon="6.042">
        <ele>880.5</ele>
        <time>2020-08-05T08:38:08Z</time>
      </trkpt>
      <trkpt lat="45.06653" lon="6.04201">
        <ele>880.8</ele>
        <time>2020-08-05T08:38:10Z</time>
      </trkpt>
      <trkpt lat="45.06647" lon="6.04204">
        <ele>881.3</ele>
        <time>2020-08-05T08:38:11Z</time>
      </trkpt>
      <trkpt lat="45.06642" lon="6.04211">
        <ele>881.7</ele>
        <time>2020-08-05T08:38:13Z</time>
      </trkpt>
      <trkpt lat="45.0664" lon="6.04217">
        <ele>882</ele>
        <time>2020-08-05T08:38:14Z</time>
      </trkpt>
      <trkpt lat="45.06641" lon="6.04222">
        <ele>882.1</ele>
        <time>2020-08-05T08:38:16Z</time>
      </trkpt>
      <trkpt lat="45.06643" lon="6.04226">
        <ele>882.3</ele>
        <time>2020-08-05T08:38:17Z</time>
      </trkpt>
      <trkpt lat="45.06647" lon="6.0423">
        <ele>882.5</ele>
        <time>2020-08-05T08:38:19Z</time>
      </trkpt>
      <trkpt lat="45.06653" lon="6.04231">
        <ele>882.8</ele>
        <time>2020-08-05T08:38:20Z</time>
      </trkpt>
      <trkpt lat="45.06658" lon="6.0423">
        <ele>883</ele>
        <time>2020-08-05T08:38:22Z</time>
      </trkpt>
      <trkpt lat="45.06667" lon="6.04223">
        <ele>883.4</ele>
        <time>2020-08-05T08:38:23Z</time>
      </trkpt>
      <trkpt lat="45.06671" lon="6.0422">
        <ele>883.7</ele>
        <time>2020-08-05T08:38:25Z</time>
      </trkpt>
      <trkpt lat="45.06678" lon="6.04216">
        <ele>884.3</ele>
        <time>2020-08-05T08:38:27Z</time>
      </trkpt>
      <trkpt lat="45.06682" lon="6.04215">
        <ele>884.7</ele>
        <time>2020-08-05T08:38:29Z</time>
      </trkpt>
      <trkpt lat="45.06688" lon="6.04213">
        <ele>885.2</ele>
        <time>2020-08-05T08:38:30Z</time>
      </trkpt>
      <trkpt lat="45.06692" lon="6.04212">
        <ele>885.8</ele>
        <time>2020-08-05T08:38:31Z</time>
      </trkpt>
      <trkpt lat="45.06696" lon="6.0421">
        <ele>886.2</ele>
        <time>2020-08-05T08:38:33Z</time>
      </trkpt>
      <trkpt lat="45.06699" lon="6.04209">
        <ele>886.5</ele>
        <time>2020-08-05T08:38:35Z</time>
      </trkpt>
      <trkpt lat="45.06704" lon="6.04207">
        <ele>887</ele>
        <time>2020-08-05T08:38:36Z</time>
      </trkpt>
      <trkpt lat="45.06708" lon="6.04205">
        <ele>887.5</ele>
        <time>2020-08-05T08:38:37Z</time>
      </trkpt>
      <trkpt lat="45.06709" lon="6.04204">
        <ele>887.7</ele>
        <time>2020-08-05T08:38:38Z</time>
      </trkpt>
      <trkpt lat="45.06712" lon="6.04203">
        <ele>888.1</ele>
        <time>2020-08-05T08:38:39Z</time>
      </trkpt>
      <trkpt lat="45.06716" lon="6.04201">
        <ele>888.5</ele>
        <time>2020-08-05T08:38:41Z</time>
      </trkpt>
      <trkpt lat="45.06719" lon="6.042">
        <ele>889.1</ele>
        <time>2020-08-05T08:38:43Z</time>
      </trkpt>
      <trkpt lat="45.06723" lon="6.04199">
        <ele>889.8</ele>
        <time>2020-08-05T08:38:44Z</time>
      </trkpt>
      <trkpt lat="45.06729" lon="6.04195">
        <ele>890.8</ele>
        <time>2020-08-05T08:38:46Z</time>
      </trkpt>
      <trkpt lat="45.06736" lon="6.04191">
        <ele>891.6</ele>
        <time>2020-08-05T08:38:49Z</time>
      </trkpt>
      <trkpt lat="45.06741" lon="6.04187">
        <ele>892.3</ele>
        <time>2020-08-05T08:38:51Z</time>
      </trkpt>
      <trkpt lat="45.06744" lon="6.04185">
        <ele>892.6</ele>
        <time>2020-08-05T08:38:53Z</time>
      </trkpt>
      <trkpt lat="45.06747" lon="6.04183">
        <ele>892.9</ele>
        <time>2020-08-05T08:38:54Z</time>
      </trkpt>
      <trkpt lat="45.0675" lon="6.04181">
        <ele>893.3</ele>
        <time>2020-08-05T08:38:56Z</time>
      </trkpt>
      <trkpt lat="45.06754" lon="6.04179">
        <ele>893.8</ele>
        <time>2020-08-05T08:38:58Z</time>
      </trkpt>
      <trkpt lat="45.06757" lon="6.04179">
        <ele>894.2</ele>
        <time>2020-08-05T08:38:59Z</time>
      </trkpt>
      <trkpt lat="45.0676" lon="6.0418">
        <ele>894.6</ele>
        <time>2020-08-05T08:39:00Z</time>
      </trkpt>
      <trkpt lat="45.06769" lon="6.0418">
        <ele>895.6</ele>
        <time>2020-08-05T08:39:03Z</time>
      </trkpt>
      <trkpt lat="45.06771" lon="6.04181">
        <ele>895.9</ele>
        <time>2020-08-05T08:39:04Z</time>
      </trkpt>
      <trkpt lat="45.06774" lon="6.04183">
        <ele>896.2</ele>
        <time>2020-08-05T08:39:06Z</time>
      </trkpt>
      <trkpt lat="45.06777" lon="6.04184">
        <ele>896.6</ele>
        <time>2020-08-05T08:39:07Z</time>
      </trkpt>
      <trkpt lat="45.0678" lon="6.04186">
        <ele>896.9</ele>
        <time>2020-08-05T08:39:09Z</time>
      </trkpt>
      <trkpt lat="45.06783" lon="6.04187">
        <ele>897.2</ele>
        <time>2020-08-05T08:39:10Z</time>
      </trkpt>
      <trkpt lat="45.06786" lon="6.04188">
        <ele>897.5</ele>
        <time>2020-08-05T08:39:12Z</time>
      </trkpt>
      <trkpt lat="45.06791" lon="6.0419">
        <ele>898</ele>
        <time>2020-08-05T08:39:14Z</time>
      </trkpt>
      <trkpt lat="45.06794" lon="6.04191">
        <ele>898.3</ele>
        <time>2020-08-05T08:39:15Z</time>
      </trkpt>
      <trkpt lat="45.068" lon="6.04198">
        <ele>898.9</ele>
        <time>2020-08-05T08:39:18Z</time>
      </trkpt>
      <trkpt lat="45.06797" lon="6.04204">
        <ele>899.2</ele>
        <time>2020-08-05T08:39:20Z</time>
      </trkpt>
      <trkpt lat="45.06793" lon="6.04206">
        <ele>899.4</ele>
        <time>2020-08-05T08:39:21Z</time>
      </trkpt>
      <trkpt lat="45.0679" lon="6.04208">
        <ele>899.7</ele>
        <time>2020-08-05T08:39:22Z</time>
      </trkpt>
      <trkpt lat="45.06787" lon="6.04208">
        <ele>899.9</ele>
        <time>2020-08-05T08:39:24Z</time>
      </trkpt>
      <trkpt lat="45.06784" lon="6.04208">
        <ele>900.1</ele>
        <time>2020-08-05T08:39:25Z</time>
      </trkpt>
      <trkpt lat="45.06778" lon="6.04205">
        <ele>900.6</ele>
        <time>2020-08-05T08:39:27Z</time>
      </trkpt>
      <trkpt lat="45.06771" lon="6.04199">
        <ele>901.3</ele>
        <time>2020-08-05T08:39:28Z</time>
      </trkpt>
      <trkpt lat="45.06767" lon="6.04196">
        <ele>901.6</ele>
        <time>2020-08-05T08:39:30Z</time>
      </trkpt>
      <trkpt lat="45.06759" lon="6.04192">
        <ele>902.4</ele>
        <time>2020-08-05T08:39:31Z</time>
      </trkpt>
      <trkpt lat="45.06755" lon="6.04193">
        <ele>902.8</ele>
        <time>2020-08-05T08:39:34Z</time>
      </trkpt>
      <trkpt lat="45.06751" lon="6.04194">
        <ele>903.3</ele>
        <time>2020-08-05T08:39:35Z</time>
      </trkpt>
      <trkpt lat="45.06746" lon="6.04196">
        <ele>904</ele>
        <time>2020-08-05T08:39:37Z</time>
      </trkpt>
      <trkpt lat="45.06743" lon="6.04197">
        <ele>904.3</ele>
        <time>2020-08-05T08:39:38Z</time>
      </trkpt>
      <trkpt lat="45.06741" lon="6.04199">
        <ele>904.6</ele>
        <time>2020-08-05T08:39:39Z</time>
      </trkpt>
      <trkpt lat="45.06738" lon="6.04202">
        <ele>905</ele>
        <time>2020-08-05T08:39:41Z</time>
      </trkpt>
      <trkpt lat="45.06736" lon="6.04203">
        <ele>905.2</ele>
        <time>2020-08-05T08:39:42Z</time>
      </trkpt>
      <trkpt lat="45.06732" lon="6.04207">
        <ele>905.8</ele>
        <time>2020-08-05T08:39:44Z</time>
      </trkpt>
      <trkpt lat="45.0673" lon="6.04209">
        <ele>906.2</ele>
        <time>2020-08-05T08:39:45Z</time>
      </trkpt>
      <trkpt lat="45.06727" lon="6.04213">
        <ele>906.6</ele>
        <time>2020-08-05T08:39:47Z</time>
      </trkpt>
      <trkpt lat="45.06726" lon="6.04214">
        <ele>906.7</ele>
        <time>2020-08-05T08:39:48Z</time>
      </trkpt>
      <trkpt lat="45.06722" lon="6.04219">
        <ele>907.5</ele>
        <time>2020-08-05T08:39:49Z</time>
      </trkpt>
      <trkpt lat="45.06719" lon="6.04223">
        <ele>907.9</ele>
        <time>2020-08-05T08:39:51Z</time>
      </trkpt>
      <trkpt lat="45.06716" lon="6.04226">
        <ele>908.3</ele>
        <time>2020-08-05T08:39:53Z</time>
      </trkpt>
      <trkpt lat="45.06713" lon="6.0423">
        <ele>908.8</ele>
        <time>2020-08-05T08:39:54Z</time>
      </trkpt>
      <trkpt lat="45.06708" lon="6.04237">
        <ele>909.6</ele>
        <time>2020-08-05T08:39:56Z</time>
      </trkpt>
      <trkpt lat="45.06705" lon="6.04241">
        <ele>910.1</ele>
        <time>2020-08-05T08:39:58Z</time>
      </trkpt>
      <trkpt lat="45.06704" lon="6.04242">
        <ele>910.3</ele>
        <time>2020-08-05T08:39:59Z</time>
      </trkpt>
      <trkpt lat="45.06701" lon="6.04246">
        <ele>910.7</ele>
        <time>2020-08-05T08:40:00Z</time>
      </trkpt>
      <trkpt lat="45.06697" lon="6.04251">
        <ele>911.4</ele>
        <time>2020-08-05T08:40:03Z</time>
      </trkpt>
      <trkpt lat="45.06695" lon="6.04253">
        <ele>911.6</ele>
        <time>2020-08-05T08:40:04Z</time>
      </trkpt>
      <trkpt lat="45.06693" lon="6.04254">
        <ele>911.8</ele>
        <time>2020-08-05T08:40:05Z</time>
      </trkpt>
      <trkpt lat="45.06691" lon="6.04257">
        <ele>912.2</ele>
        <time>2020-08-05T08:40:06Z</time>
      </trkpt>
      <trkpt lat="45.06688" lon="6.04259">
        <ele>912.6</ele>
        <time>2020-08-05T08:40:07Z</time>
      </trkpt>
      <trkpt lat="45.06687" lon="6.0426">
        <ele>912.7</ele>
        <time>2020-08-05T08:40:08Z</time>
      </trkpt>
      <trkpt lat="45.06684" lon="6.04263">
        <ele>913.1</ele>
        <time>2020-08-05T08:40:09Z</time>
      </trkpt>
      <trkpt lat="45.06681" lon="6.04267">
        <ele>913.5</ele>
        <time>2020-08-05T08:40:11Z</time>
      </trkpt>
      <trkpt lat="45.06678" lon="6.0427">
        <ele>914</ele>
        <time>2020-08-05T08:40:13Z</time>
      </trkpt>
      <trkpt lat="45.06674" lon="6.04272">
        <ele>914.5</ele>
        <time>2020-08-05T08:40:14Z</time>
      </trkpt>
      <trkpt lat="45.06672" lon="6.04273">
        <ele>914.7</ele>
        <time>2020-08-05T08:40:15Z</time>
      </trkpt>
      <trkpt lat="45.06669" lon="6.04274">
        <ele>915</ele>
        <time>2020-08-05T08:40:16Z</time>
      </trkpt>
      <trkpt lat="45.06667" lon="6.04275">
        <ele>915.3</ele>
        <time>2020-08-05T08:40:17Z</time>
      </trkpt>
      <trkpt lat="45.06664" lon="6.04277">
        <ele>915.7</ele>
        <time>2020-08-05T08:40:19Z</time>
      </trkpt>
      <trkpt lat="45.0666" lon="6.0428">
        <ele>916.2</ele>
        <time>2020-08-05T08:40:21Z</time>
      </trkpt>
      <trkpt lat="45.06656" lon="6.0428">
        <ele>916.7</ele>
        <time>2020-08-05T08:40:23Z</time>
      </trkpt>
      <trkpt lat="45.06653" lon="6.04282">
        <ele>917.1</ele>
        <time>2020-08-05T08:40:24Z</time>
      </trkpt>
      <trkpt lat="45.0665" lon="6.04283">
        <ele>917.3</ele>
        <time>2020-08-05T08:40:26Z</time>
      </trkpt>
      <trkpt lat="45.06646" lon="6.04285">
        <ele>917.9</ele>
        <time>2020-08-05T08:40:28Z</time>
      </trkpt>
      <trkpt lat="45.06641" lon="6.04287">
        <ele>918.4</ele>
        <time>2020-08-05T08:40:30Z</time>
      </trkpt>
      <trkpt lat="45.06639" lon="6.04288">
        <ele>918.7</ele>
        <time>2020-08-05T08:40:31Z</time>
      </trkpt>
      <trkpt lat="45.06635" lon="6.0429">
        <ele>919.2</ele>
        <time>2020-08-05T08:40:32Z</time>
      </trkpt>
      <trkpt lat="45.0663" lon="6.04292">
        <ele>919.7</ele>
        <time>2020-08-05T08:40:33Z</time>
      </trkpt>
      <trkpt lat="45.06624" lon="6.04295">
        <ele>920.3</ele>
        <time>2020-08-05T08:40:36Z</time>
      </trkpt>
      <trkpt lat="45.06618" lon="6.04297">
        <ele>921</ele>
        <time>2020-08-05T08:40:38Z</time>
      </trkpt>
      <trkpt lat="45.06611" lon="6.043">
        <ele>921.7</ele>
        <time>2020-08-05T08:40:41Z</time>
      </trkpt>
      <trkpt lat="45.06609" lon="6.04301">
        <ele>922</ele>
        <time>2020-08-05T08:40:43Z</time>
      </trkpt>
      <trkpt lat="45.06605" lon="6.04303">
        <ele>922.5</ele>
        <time>2020-08-05T08:40:44Z</time>
      </trkpt>
      <trkpt lat="45.06602" lon="6.04305">
        <ele>922.8</ele>
        <time>2020-08-05T08:40:46Z</time>
      </trkpt>
      <trkpt lat="45.06597" lon="6.0431">
        <ele>923.4</ele>
        <time>2020-08-05T08:40:48Z</time>
      </trkpt>
      <trkpt lat="45.06594" lon="6.04314">
        <ele>923.8</ele>
        <time>2020-08-05T08:40:50Z</time>
      </trkpt>
      <trkpt lat="45.06593" lon="6.04323">
        <ele>924.3</ele>
        <time>2020-08-05T08:40:52Z</time>
      </trkpt>
      <trkpt lat="45.06594" lon="6.04327">
        <ele>924.6</ele>
        <time>2020-08-05T08:40:53Z</time>
      </trkpt>
      <trkpt lat="45.06597" lon="6.04333">
        <ele>924.9</ele>
        <time>2020-08-05T08:40:55Z</time>
      </trkpt>
      <trkpt lat="45.066" lon="6.04335">
        <ele>925.2</ele>
        <time>2020-08-05T08:40:57Z</time>
      </trkpt>
      <trkpt lat="45.06606" lon="6.04338">
        <ele>925.6</ele>
        <time>2020-08-05T08:40:58Z</time>
      </trkpt>
      <trkpt lat="45.06615" lon="6.04335">
        <ele>926.3</ele>
        <time>2020-08-05T08:41:00Z</time>
      </trkpt>
      <trkpt lat="45.06618" lon="6.04332">
        <ele>926.6</ele>
        <time>2020-08-05T08:41:02Z</time>
      </trkpt>
      <trkpt lat="45.06625" lon="6.04328">
        <ele>927.3</ele>
        <time>2020-08-05T08:41:04Z</time>
      </trkpt>
      <trkpt lat="45.06628" lon="6.04327">
        <ele>927.7</ele>
        <time>2020-08-05T08:41:05Z</time>
      </trkpt>
      <trkpt lat="45.06631" lon="6.04326">
        <ele>928</ele>
        <time>2020-08-05T08:41:06Z</time>
      </trkpt>
      <trkpt lat="45.06634" lon="6.04324">
        <ele>928.4</ele>
        <time>2020-08-05T08:41:08Z</time>
      </trkpt>
      <trkpt lat="45.06637" lon="6.04323">
        <ele>928.7</ele>
        <time>2020-08-05T08:41:09Z</time>
      </trkpt>
      <trkpt lat="45.06643" lon="6.04323">
        <ele>929.5</ele>
        <time>2020-08-05T08:41:11Z</time>
      </trkpt>
      <trkpt lat="45.06647" lon="6.04322">
        <ele>930</ele>
        <time>2020-08-05T08:41:12Z</time>
      </trkpt>
      <trkpt lat="45.06649" lon="6.04322">
        <ele>930.2</ele>
        <time>2020-08-05T08:41:13Z</time>
      </trkpt>
      <trkpt lat="45.06652" lon="6.0432">
        <ele>930.6</ele>
        <time>2020-08-05T08:41:15Z</time>
      </trkpt>
      <trkpt lat="45.06655" lon="6.0432">
        <ele>931.1</ele>
        <time>2020-08-05T08:41:17Z</time>
      </trkpt>
      <trkpt lat="45.06661" lon="6.04319">
        <ele>931.8</ele>
        <time>2020-08-05T08:41:19Z</time>
      </trkpt>
      <trkpt lat="45.06666" lon="6.04318">
        <ele>932.4</ele>
        <time>2020-08-05T08:41:20Z</time>
      </trkpt>
      <trkpt lat="45.06671" lon="6.04316">
        <ele>933.1</ele>
        <time>2020-08-05T08:41:22Z</time>
      </trkpt>
      <trkpt lat="45.06674" lon="6.04315">
        <ele>933.5</ele>
        <time>2020-08-05T08:41:23Z</time>
      </trkpt>
      <trkpt lat="45.0668" lon="6.04312">
        <ele>934.2</ele>
        <time>2020-08-05T08:41:26Z</time>
      </trkpt>
      <trkpt lat="45.06683" lon="6.0431">
        <ele>934.6</ele>
        <time>2020-08-05T08:41:27Z</time>
      </trkpt>
      <trkpt lat="45.06686" lon="6.04309">
        <ele>935</ele>
        <time>2020-08-05T08:41:29Z</time>
      </trkpt>
      <trkpt lat="45.06691" lon="6.04304">
        <ele>935.6</ele>
        <time>2020-08-05T08:41:31Z</time>
      </trkpt>
      <trkpt lat="45.06693" lon="6.04302">
        <ele>936</ele>
        <time>2020-08-05T08:41:32Z</time>
      </trkpt>
      <trkpt lat="45.06696" lon="6.043">
        <ele>936.3</ele>
        <time>2020-08-05T08:41:34Z</time>
      </trkpt>
      <trkpt lat="45.06701" lon="6.04295">
        <ele>937</ele>
        <time>2020-08-05T08:41:36Z</time>
      </trkpt>
      <trkpt lat="45.06703" lon="6.04293">
        <ele>937.3</ele>
        <time>2020-08-05T08:41:37Z</time>
      </trkpt>
      <trkpt lat="45.06709" lon="6.04289">
        <ele>938</ele>
        <time>2020-08-05T08:41:40Z</time>
      </trkpt>
      <trkpt lat="45.06711" lon="6.04287">
        <ele>938.3</ele>
        <time>2020-08-05T08:41:41Z</time>
      </trkpt>
      <trkpt lat="45.06714" lon="6.04286">
        <ele>938.7</ele>
        <time>2020-08-05T08:41:42Z</time>
      </trkpt>
      <trkpt lat="45.06718" lon="6.04284">
        <ele>939.1</ele>
        <time>2020-08-05T08:41:44Z</time>
      </trkpt>
      <trkpt lat="45.06721" lon="6.04284">
        <ele>939.4</ele>
        <time>2020-08-05T08:41:46Z</time>
      </trkpt>
      <trkpt lat="45.06723" lon="6.04283">
        <ele>939.8</ele>
        <time>2020-08-05T08:41:47Z</time>
      </trkpt>
      <trkpt lat="45.06729" lon="6.04283">
        <ele>940.4</ele>
        <time>2020-08-05T08:41:48Z</time>
      </trkpt>
      <trkpt lat="45.06732" lon="6.04283">
        <ele>940.8</ele>
        <time>2020-08-05T08:41:49Z</time>
      </trkpt>
      <trkpt lat="45.06736" lon="6.04284">
        <ele>941.4</ele>
        <time>2020-08-05T08:41:51Z</time>
      </trkpt>
      <trkpt lat="45.0674" lon="6.04284">
        <ele>941.8</ele>
        <time>2020-08-05T08:41:53Z</time>
      </trkpt>
      <trkpt lat="45.06743" lon="6.04284">
        <ele>942.2</ele>
        <time>2020-08-05T08:41:54Z</time>
      </trkpt>
      <trkpt lat="45.06746" lon="6.04285">
        <ele>942.6</ele>
        <time>2020-08-05T08:41:55Z</time>
      </trkpt>
      <trkpt lat="45.06749" lon="6.04285">
        <ele>943</ele>
        <time>2020-08-05T08:41:58Z</time>
      </trkpt>
      <trkpt lat="45.06754" lon="6.04286">
        <ele>943.6</ele>
        <time>2020-08-05T08:41:59Z</time>
      </trkpt>
      <trkpt lat="45.06758" lon="6.04286">
        <ele>944</ele>
        <time>2020-08-05T08:42:01Z</time>
      </trkpt>
      <trkpt lat="45.06761" lon="6.04286">
        <ele>944.4</ele>
        <time>2020-08-05T08:42:02Z</time>
      </trkpt>
      <trkpt lat="45.06767" lon="6.04284">
        <ele>945.1</ele>
        <time>2020-08-05T08:42:04Z</time>
      </trkpt>
      <trkpt lat="45.0677" lon="6.04283">
        <ele>945.5</ele>
        <time>2020-08-05T08:42:06Z</time>
      </trkpt>
      <trkpt lat="45.06773" lon="6.04282">
        <ele>945.8</ele>
        <time>2020-08-05T08:42:07Z</time>
      </trkpt>
      <trkpt lat="45.06776" lon="6.0428">
        <ele>946.2</ele>
        <time>2020-08-05T08:42:09Z</time>
      </trkpt>
      <trkpt lat="45.06779" lon="6.04279">
        <ele>946.5</ele>
        <time>2020-08-05T08:42:11Z</time>
      </trkpt>
      <trkpt lat="45.06784" lon="6.04277">
        <ele>947</ele>
        <time>2020-08-05T08:42:12Z</time>
      </trkpt>
      <trkpt lat="45.06786" lon="6.04276">
        <ele>947.3</ele>
        <time>2020-08-05T08:42:13Z</time>
      </trkpt>
      <trkpt lat="45.06791" lon="6.04273">
        <ele>947.9</ele>
        <time>2020-08-05T08:42:15Z</time>
      </trkpt>
      <trkpt lat="45.06793" lon="6.04271">
        <ele>948.2</ele>
        <time>2020-08-05T08:42:16Z</time>
      </trkpt>
      <trkpt lat="45.06796" lon="6.0427">
        <ele>948.5</ele>
        <time>2020-08-05T08:42:17Z</time>
      </trkpt>
      <trkpt lat="45.06798" lon="6.04269">
        <ele>948.7</ele>
        <time>2020-08-05T08:42:19Z</time>
      </trkpt>
      <trkpt lat="45.06802" lon="6.04267">
        <ele>949.2</ele>
        <time>2020-08-05T08:42:21Z</time>
      </trkpt>
      <trkpt lat="45.06806" lon="6.04266">
        <ele>949.7</ele>
        <time>2020-08-05T08:42:22Z</time>
      </trkpt>
      <trkpt lat="45.06808" lon="6.04266">
        <ele>950</ele>
        <time>2020-08-05T08:42:23Z</time>
      </trkpt>
      <trkpt lat="45.06811" lon="6.04265">
        <ele>950.3</ele>
        <time>2020-08-05T08:42:25Z</time>
      </trkpt>
      <trkpt lat="45.0682" lon="6.04264">
        <ele>951.3</ele>
        <time>2020-08-05T08:42:27Z</time>
      </trkpt>
      <trkpt lat="45.06825" lon="6.04264">
        <ele>951.9</ele>
        <time>2020-08-05T08:42:29Z</time>
      </trkpt>
      <trkpt lat="45.06827" lon="6.04264">
        <ele>952</ele>
        <time>2020-08-05T08:42:30Z</time>
      </trkpt>
      <trkpt lat="45.06828" lon="6.04264">
        <ele>952.2</ele>
        <time>2020-08-05T08:42:31Z</time>
      </trkpt>
      <trkpt lat="45.06835" lon="6.04265">
        <ele>953</ele>
        <time>2020-08-05T08:42:33Z</time>
      </trkpt>
      <trkpt lat="45.06837" lon="6.04265">
        <ele>953.3</ele>
        <time>2020-08-05T08:42:35Z</time>
      </trkpt>
      <trkpt lat="45.0684" lon="6.04265">
        <ele>953.7</ele>
        <time>2020-08-05T08:42:36Z</time>
      </trkpt>
      <trkpt lat="45.06843" lon="6.04266">
        <ele>953.9</ele>
        <time>2020-08-05T08:42:37Z</time>
      </trkpt>
      <trkpt lat="45.06848" lon="6.04267">
        <ele>954.6</ele>
        <time>2020-08-05T08:42:39Z</time>
      </trkpt>
      <trkpt lat="45.06852" lon="6.04267">
        <ele>955</ele>
        <time>2020-08-05T08:42:41Z</time>
      </trkpt>
      <trkpt lat="45.06855" lon="6.04267">
        <ele>955.3</ele>
        <time>2020-08-05T08:42:43Z</time>
      </trkpt>
      <trkpt lat="45.06858" lon="6.04268">
        <ele>955.8</ele>
        <time>2020-08-05T08:42:44Z</time>
      </trkpt>
      <trkpt lat="45.06863" lon="6.04268">
        <ele>956.3</ele>
        <time>2020-08-05T08:42:45Z</time>
      </trkpt>
      <trkpt lat="45.06865" lon="6.04269">
        <ele>956.5</ele>
        <time>2020-08-05T08:42:46Z</time>
      </trkpt>
      <trkpt lat="45.06868" lon="6.04269">
        <ele>956.8</ele>
        <time>2020-08-05T08:42:48Z</time>
      </trkpt>
      <trkpt lat="45.0687" lon="6.04269">
        <ele>957.1</ele>
        <time>2020-08-05T08:42:49Z</time>
      </trkpt>
      <trkpt lat="45.06874" lon="6.04269">
        <ele>957.6</ele>
        <time>2020-08-05T08:42:51Z</time>
      </trkpt>
      <trkpt lat="45.06876" lon="6.0427">
        <ele>957.8</ele>
        <time>2020-08-05T08:42:52Z</time>
      </trkpt>
      <trkpt lat="45.06884" lon="6.04273">
        <ele>958.6</ele>
        <time>2020-08-05T08:42:54Z</time>
      </trkpt>
      <trkpt lat="45.06887" lon="6.04275">
        <ele>958.8</ele>
        <time>2020-08-05T08:42:55Z</time>
      </trkpt>
      <trkpt lat="45.06889" lon="6.04279">
        <ele>959.1</ele>
        <time>2020-08-05T08:42:57Z</time>
      </trkpt>
      <trkpt lat="45.06887" lon="6.04287">
        <ele>959.4</ele>
        <time>2020-08-05T08:42:59Z</time>
      </trkpt>
      <trkpt lat="45.06876" lon="6.0429">
        <ele>960</ele>
        <time>2020-08-05T08:43:01Z</time>
      </trkpt>
      <trkpt lat="45.06869" lon="6.04289">
        <ele>960.4</ele>
        <time>2020-08-05T08:43:02Z</time>
      </trkpt>
      <trkpt lat="45.06865" lon="6.0429">
        <ele>960.7</ele>
        <time>2020-08-05T08:43:03Z</time>
      </trkpt>
      <trkpt lat="45.06859" lon="6.04288">
        <ele>961.1</ele>
        <time>2020-08-05T08:43:04Z</time>
      </trkpt>
      <trkpt lat="45.06855" lon="6.04288">
        <ele>961.5</ele>
        <time>2020-08-05T08:43:06Z</time>
      </trkpt>
      <trkpt lat="45.06851" lon="6.04287">
        <ele>961.9</ele>
        <time>2020-08-05T08:43:08Z</time>
      </trkpt>
      <trkpt lat="45.06847" lon="6.04287">
        <ele>962.2</ele>
        <time>2020-08-05T08:43:09Z</time>
      </trkpt>
      <trkpt lat="45.06842" lon="6.04286">
        <ele>962.7</ele>
        <time>2020-08-05T08:43:10Z</time>
      </trkpt>
      <trkpt lat="45.06839" lon="6.04286">
        <ele>963.1</ele>
        <time>2020-08-05T08:43:11Z</time>
      </trkpt>
      <trkpt lat="45.06833" lon="6.04285">
        <ele>963.8</ele>
        <time>2020-08-05T08:43:13Z</time>
      </trkpt>
      <trkpt lat="45.0683" lon="6.04286">
        <ele>964.2</ele>
        <time>2020-08-05T08:43:15Z</time>
      </trkpt>
      <trkpt lat="45.06827" lon="6.04287">
        <ele>964.5</ele>
        <time>2020-08-05T08:43:17Z</time>
      </trkpt>
      <trkpt lat="45.06823" lon="6.04288">
        <ele>965</ele>
        <time>2020-08-05T08:43:19Z</time>
      </trkpt>
      <trkpt lat="45.06819" lon="6.04292">
        <ele>965.6</ele>
        <time>2020-08-05T08:43:20Z</time>
      </trkpt>
      <trkpt lat="45.06816" lon="6.04294">
        <ele>966</ele>
        <time>2020-08-05T08:43:21Z</time>
      </trkpt>
      <trkpt lat="45.06814" lon="6.04296">
        <ele>966.3</ele>
        <time>2020-08-05T08:43:22Z</time>
      </trkpt>
      <trkpt lat="45.06811" lon="6.04298">
        <ele>966.6</ele>
        <time>2020-08-05T08:43:24Z</time>
      </trkpt>
      <trkpt lat="45.06806" lon="6.04302">
        <ele>967.3</ele>
        <time>2020-08-05T08:43:26Z</time>
      </trkpt>
      <trkpt lat="45.06803" lon="6.04304">
        <ele>967.7</ele>
        <time>2020-08-05T08:43:28Z</time>
      </trkpt>
      <trkpt lat="45.06799" lon="6.04307">
        <ele>968.2</ele>
        <time>2020-08-05T08:43:30Z</time>
      </trkpt>
      <trkpt lat="45.06797" lon="6.04309">
        <ele>968.6</ele>
        <time>2020-08-05T08:43:32Z</time>
      </trkpt>
      <trkpt lat="45.06791" lon="6.04314">
        <ele>969.4</ele>
        <time>2020-08-05T08:43:34Z</time>
      </trkpt>
      <trkpt lat="45.06788" lon="6.04317">
        <ele>969.8</ele>
        <time>2020-08-05T08:43:37Z</time>
      </trkpt>
      <trkpt lat="45.06785" lon="6.0432">
        <ele>970.3</ele>
        <time>2020-08-05T08:43:38Z</time>
      </trkpt>
      <trkpt lat="45.06783" lon="6.04322">
        <ele>970.7</ele>
        <time>2020-08-05T08:43:39Z</time>
      </trkpt>
      <trkpt lat="45.06779" lon="6.04326">
        <ele>971.2</ele>
        <time>2020-08-05T08:43:41Z</time>
      </trkpt>
      <trkpt lat="45.06777" lon="6.04327">
        <ele>971.4</ele>
        <time>2020-08-05T08:43:43Z</time>
      </trkpt>
      <trkpt lat="45.06776" lon="6.04328">
        <ele>971.6</ele>
        <time>2020-08-05T08:43:44Z</time>
      </trkpt>
      <trkpt lat="45.0677" lon="6.04333">
        <ele>972.3</ele>
        <time>2020-08-05T08:43:45Z</time>
      </trkpt>
      <trkpt lat="45.06765" lon="6.04337">
        <ele>973</ele>
        <time>2020-08-05T08:43:48Z</time>
      </trkpt>
      <trkpt lat="45.06762" lon="6.04339">
        <ele>973.3</ele>
        <time>2020-08-05T08:43:49Z</time>
      </trkpt>
      <trkpt lat="45.0676" lon="6.04341">
        <ele>973.6</ele>
        <time>2020-08-05T08:43:52Z</time>
      </trkpt>
      <trkpt lat="45.06755" lon="6.04345">
        <ele>974.2</ele>
        <time>2020-08-05T08:43:53Z</time>
      </trkpt>
      <trkpt lat="45.06751" lon="6.04347">
        <ele>974.6</ele>
        <time>2020-08-05T08:43:55Z</time>
      </trkpt>
      <trkpt lat="45.06748" lon="6.04349">
        <ele>974.9</ele>
        <time>2020-08-05T08:43:57Z</time>
      </trkpt>
      <trkpt lat="45.06742" lon="6.04353">
        <ele>975.5</ele>
        <time>2020-08-05T08:43:59Z</time>
      </trkpt>
      <trkpt lat="45.06735" lon="6.04358">
        <ele>976.2</ele>
        <time>2020-08-05T08:44:02Z</time>
      </trkpt>
      <trkpt lat="45.06731" lon="6.04362">
        <ele>976.5</ele>
        <time>2020-08-05T08:44:05Z</time>
      </trkpt>
      <trkpt lat="45.06727" lon="6.04367">
        <ele>977</ele>
        <time>2020-08-05T08:44:07Z</time>
      </trkpt>
      <trkpt lat="45.06722" lon="6.04375">
        <ele>977.4</ele>
        <time>2020-08-05T08:44:08Z</time>
      </trkpt>
      <trkpt lat="45.06719" lon="6.04384">
        <ele>977.8</ele>
        <time>2020-08-05T08:44:09Z</time>
      </trkpt>
      <trkpt lat="45.0672" lon="6.04391">
        <ele>978.1</ele>
        <time>2020-08-05T08:44:11Z</time>
      </trkpt>
      <trkpt lat="45.06722" lon="6.04396">
        <ele>978.2</ele>
        <time>2020-08-05T08:44:13Z</time>
      </trkpt>
      <trkpt lat="45.06724" lon="6.044">
        <ele>978.4</ele>
        <time>2020-08-05T08:44:14Z</time>
      </trkpt>
      <trkpt lat="45.06731" lon="6.0441">
        <ele>978.8</ele>
        <time>2020-08-05T08:44:15Z</time>
      </trkpt>
      <trkpt lat="45.06734" lon="6.04414">
        <ele>979.3</ele>
        <time>2020-08-05T08:44:16Z</time>
      </trkpt>
      <trkpt lat="45.06738" lon="6.04418">
        <ele>979.7</ele>
        <time>2020-08-05T08:44:18Z</time>
      </trkpt>
      <trkpt lat="45.06742" lon="6.04422">
        <ele>980.2</ele>
        <time>2020-08-05T08:44:19Z</time>
      </trkpt>
      <trkpt lat="45.0675" lon="6.0443">
        <ele>981.1</ele>
        <time>2020-08-05T08:44:21Z</time>
      </trkpt>
      <trkpt lat="45.06754" lon="6.04434">
        <ele>981.5</ele>
        <time>2020-08-05T08:44:22Z</time>
      </trkpt>
      <trkpt lat="45.06758" lon="6.04438">
        <ele>982</ele>
        <time>2020-08-05T08:44:24Z</time>
      </trkpt>
      <trkpt lat="45.06762" lon="6.04442">
        <ele>982.5</ele>
        <time>2020-08-05T08:44:26Z</time>
      </trkpt>
      <trkpt lat="45.06765" lon="6.04445">
        <ele>982.9</ele>
        <time>2020-08-05T08:44:27Z</time>
      </trkpt>
      <trkpt lat="45.06772" lon="6.0445">
        <ele>983.7</ele>
        <time>2020-08-05T08:44:28Z</time>
      </trkpt>
      <trkpt lat="45.06775" lon="6.04453">
        <ele>984.1</ele>
        <time>2020-08-05T08:44:30Z</time>
      </trkpt>
      <trkpt lat="45.06783" lon="6.04458">
        <ele>984.9</ele>
        <time>2020-08-05T08:44:31Z</time>
      </trkpt>
      <trkpt lat="45.06787" lon="6.0446">
        <ele>985.3</ele>
        <time>2020-08-05T08:44:33Z</time>
      </trkpt>
      <trkpt lat="45.06793" lon="6.04463">
        <ele>985.9</ele>
        <time>2020-08-05T08:44:34Z</time>
      </trkpt>
      <trkpt lat="45.06803" lon="6.04467">
        <ele>986.8</ele>
        <time>2020-08-05T08:44:36Z</time>
      </trkpt>
      <trkpt lat="45.06807" lon="6.04468">
        <ele>987.2</ele>
        <time>2020-08-05T08:44:38Z</time>
      </trkpt>
      <trkpt lat="45.06812" lon="6.04469">
        <ele>987.7</ele>
        <time>2020-08-05T08:44:40Z</time>
      </trkpt>
      <trkpt lat="45.0682" lon="6.04472">
        <ele>988.5</ele>
        <time>2020-08-05T08:44:41Z</time>
      </trkpt>
      <trkpt lat="45.06826" lon="6.04473">
        <ele>989.1</ele>
        <time>2020-08-05T08:44:44Z</time>
      </trkpt>
      <trkpt lat="45.06837" lon="6.04477">
        <ele>990.3</ele>
        <time>2020-08-05T08:44:46Z</time>
      </trkpt>
      <trkpt lat="45.06842" lon="6.04478">
        <ele>990.9</ele>
        <time>2020-08-05T08:44:48Z</time>
      </trkpt>
      <trkpt lat="45.06846" lon="6.04479">
        <ele>991.3</ele>
        <time>2020-08-05T08:44:50Z</time>
      </trkpt>
      <trkpt lat="45.06853" lon="6.04481">
        <ele>992.1</ele>
        <time>2020-08-05T08:44:51Z</time>
      </trkpt>
      <trkpt lat="45.06858" lon="6.04483">
        <ele>992.6</ele>
        <time>2020-08-05T08:44:52Z</time>
      </trkpt>
      <trkpt lat="45.06862" lon="6.04484">
        <ele>993.1</ele>
        <time>2020-08-05T08:44:54Z</time>
      </trkpt>
      <trkpt lat="45.0687" lon="6.04486">
        <ele>993.9</ele>
        <time>2020-08-05T08:44:56Z</time>
      </trkpt>
      <trkpt lat="45.06874" lon="6.04487">
        <ele>994.4</ele>
        <time>2020-08-05T08:44:58Z</time>
      </trkpt>
      <trkpt lat="45.0688" lon="6.04488">
        <ele>995</ele>
        <time>2020-08-05T08:45:00Z</time>
      </trkpt>
      <trkpt lat="45.06884" lon="6.0449">
        <ele>995.4</ele>
        <time>2020-08-05T08:45:02Z</time>
      </trkpt>
      <trkpt lat="45.0689" lon="6.04493">
        <ele>996.1</ele>
        <time>2020-08-05T08:45:03Z</time>
      </trkpt>
      <trkpt lat="45.06893" lon="6.04497">
        <ele>996.5</ele>
        <time>2020-08-05T08:45:04Z</time>
      </trkpt>
      <trkpt lat="45.06898" lon="6.04501">
        <ele>997</ele>
        <time>2020-08-05T08:45:06Z</time>
      </trkpt>
      <trkpt lat="45.06902" lon="6.04509">
        <ele>997.5</ele>
        <time>2020-08-05T08:45:09Z</time>
      </trkpt>
      <trkpt lat="45.06907" lon="6.04517">
        <ele>998.2</ele>
        <time>2020-08-05T08:45:10Z</time>
      </trkpt>
      <trkpt lat="45.06915" lon="6.04531">
        <ele>999.3</ele>
        <time>2020-08-05T08:45:13Z</time>
      </trkpt>
      <trkpt lat="45.06919" lon="6.04536">
        <ele>999.7</ele>
        <time>2020-08-05T08:45:15Z</time>
      </trkpt>
      <trkpt lat="45.06924" lon="6.04541">
        <ele>1000.2</ele>
        <time>2020-08-05T08:45:16Z</time>
      </trkpt>
      <trkpt lat="45.06928" lon="6.04544">
        <ele>1000.6</ele>
        <time>2020-08-05T08:45:17Z</time>
      </trkpt>
      <trkpt lat="45.06936" lon="6.04552">
        <ele>1001.6</ele>
        <time>2020-08-05T08:45:20Z</time>
      </trkpt>
      <trkpt lat="45.06941" lon="6.04555">
        <ele>1002.2</ele>
        <time>2020-08-05T08:45:23Z</time>
      </trkpt>
      <trkpt lat="45.06947" lon="6.04559">
        <ele>1003</ele>
        <time>2020-08-05T08:45:25Z</time>
      </trkpt>
      <trkpt lat="45.0695" lon="6.04562">
        <ele>1003.4</ele>
        <time>2020-08-05T08:45:26Z</time>
      </trkpt>
      <trkpt lat="45.06955" lon="6.04566">
        <ele>1004</ele>
        <time>2020-08-05T08:45:27Z</time>
      </trkpt>
      <trkpt lat="45.06958" lon="6.04567">
        <ele>1004.4</ele>
        <time>2020-08-05T08:45:28Z</time>
      </trkpt>
      <trkpt lat="45.06961" lon="6.04569">
        <ele>1004.8</ele>
        <time>2020-08-05T08:45:30Z</time>
      </trkpt>
      <trkpt lat="45.06965" lon="6.04571">
        <ele>1005.4</ele>
        <time>2020-08-05T08:45:31Z</time>
      </trkpt>
      <trkpt lat="45.06969" lon="6.04573">
        <ele>1005.9</ele>
        <time>2020-08-05T08:45:32Z</time>
      </trkpt>
      <trkpt lat="45.06973" lon="6.04575">
        <ele>1006.4</ele>
        <time>2020-08-05T08:45:34Z</time>
      </trkpt>
      <trkpt lat="45.06978" lon="6.04577">
        <ele>1007</ele>
        <time>2020-08-05T08:45:35Z</time>
      </trkpt>
      <trkpt lat="45.06981" lon="6.04578">
        <ele>1007.4</ele>
        <time>2020-08-05T08:45:36Z</time>
      </trkpt>
      <trkpt lat="45.06984" lon="6.04579">
        <ele>1007.8</ele>
        <time>2020-08-05T08:45:37Z</time>
      </trkpt>
      <trkpt lat="45.06987" lon="6.0458">
        <ele>1008.2</ele>
        <time>2020-08-05T08:45:38Z</time>
      </trkpt>
      <trkpt lat="45.0699" lon="6.0458">
        <ele>1008.5</ele>
        <time>2020-08-05T08:45:40Z</time>
      </trkpt>
      <trkpt lat="45.06993" lon="6.04581">
        <ele>1008.9</ele>
        <time>2020-08-05T08:45:41Z</time>
      </trkpt>
      <trkpt lat="45.06999" lon="6.04585">
        <ele>1009.7</ele>
        <time>2020-08-05T08:45:42Z</time>
      </trkpt>
      <trkpt lat="45.07004" lon="6.04587">
        <ele>1010.3</ele>
        <time>2020-08-05T08:45:44Z</time>
      </trkpt>
      <trkpt lat="45.07007" lon="6.0459">
        <ele>1010.7</ele>
        <time>2020-08-05T08:45:45Z</time>
      </trkpt>
      <trkpt lat="45.07009" lon="6.04592">
        <ele>1011</ele>
        <time>2020-08-05T08:45:46Z</time>
      </trkpt>
      <trkpt lat="45.07012" lon="6.04595">
        <ele>1011.4</ele>
        <time>2020-08-05T08:45:47Z</time>
      </trkpt>
      <trkpt lat="45.07017" lon="6.046">
        <ele>1012.1</ele>
        <time>2020-08-05T08:45:50Z</time>
      </trkpt>
      <trkpt lat="45.07019" lon="6.04604">
        <ele>1012.4</ele>
        <time>2020-08-05T08:45:51Z</time>
      </trkpt>
      <trkpt lat="45.07022" lon="6.04611">
        <ele>1013</ele>
        <time>2020-08-05T08:45:52Z</time>
      </trkpt>
      <trkpt lat="45.07026" lon="6.0462">
        <ele>1013.7</ele>
        <time>2020-08-05T08:45:54Z</time>
      </trkpt>
      <trkpt lat="45.07028" lon="6.04625">
        <ele>1014.1</ele>
        <time>2020-08-05T08:45:55Z</time>
      </trkpt>
      <trkpt lat="45.0703" lon="6.04629">
        <ele>1014.4</ele>
        <time>2020-08-05T08:45:57Z</time>
      </trkpt>
      <trkpt lat="45.07033" lon="6.04633">
        <ele>1014.8</ele>
        <time>2020-08-05T08:45:59Z</time>
      </trkpt>
      <trkpt lat="45.07036" lon="6.04641">
        <ele>1015.4</ele>
        <time>2020-08-05T08:46:00Z</time>
      </trkpt>
      <trkpt lat="45.07038" lon="6.04645">
        <ele>1015.7</ele>
        <time>2020-08-05T08:46:01Z</time>
      </trkpt>
      <trkpt lat="45.07041" lon="6.04649">
        <ele>1016.1</ele>
        <time>2020-08-05T08:46:02Z</time>
      </trkpt>
      <trkpt lat="45.07043" lon="6.04653">
        <ele>1016.5</ele>
        <time>2020-08-05T08:46:04Z</time>
      </trkpt>
      <trkpt lat="45.07045" lon="6.04657">
        <ele>1016.8</ele>
        <time>2020-08-05T08:46:05Z</time>
      </trkpt>
      <trkpt lat="45.07047" lon="6.0466">
        <ele>1017.1</ele>
        <time>2020-08-05T08:46:06Z</time>
      </trkpt>
      <trkpt lat="45.07049" lon="6.04664">
        <ele>1017.4</ele>
        <time>2020-08-05T08:46:07Z</time>
      </trkpt>
      <trkpt lat="45.07051" lon="6.04667">
        <ele>1017.8</ele>
        <time>2020-08-05T08:46:08Z</time>
      </trkpt>
      <trkpt lat="45.07053" lon="6.04671">
        <ele>1018.1</ele>
        <time>2020-08-05T08:46:09Z</time>
      </trkpt>
      <trkpt lat="45.07055" lon="6.04675">
        <ele>1018.5</ele>
        <time>2020-08-05T08:46:10Z</time>
      </trkpt>
      <trkpt lat="45.0706" lon="6.04682">
        <ele>1019.2</ele>
        <time>2020-08-05T08:46:13Z</time>
      </trkpt>
      <trkpt lat="45.07064" lon="6.04689">
        <ele>1019.8</ele>
        <time>2020-08-05T08:46:15Z</time>
      </trkpt>
      <trkpt lat="45.07066" lon="6.04692">
        <ele>1020.1</ele>
        <time>2020-08-05T08:46:16Z</time>
      </trkpt>
      <trkpt lat="45.07068" lon="6.04695">
        <ele>1020.3</ele>
        <time>2020-08-05T08:46:17Z</time>
      </trkpt>
      <trkpt lat="45.0707" lon="6.04697">
        <ele>1020.6</ele>
        <time>2020-08-05T08:46:18Z</time>
      </trkpt>
      <trkpt lat="45.07073" lon="6.047">
        <ele>1020.9</ele>
        <time>2020-08-05T08:46:20Z</time>
      </trkpt>
      <trkpt lat="45.07075" lon="6.04702">
        <ele>1021.2</ele>
        <time>2020-08-05T08:46:21Z</time>
      </trkpt>
      <trkpt lat="45.0708" lon="6.04707">
        <ele>1021.7</ele>
        <time>2020-08-05T08:46:23Z</time>
      </trkpt>
      <trkpt lat="45.07082" lon="6.04709">
        <ele>1022</ele>
        <time>2020-08-05T08:46:24Z</time>
      </trkpt>
      <trkpt lat="45.07087" lon="6.04712">
        <ele>1022.5</ele>
        <time>2020-08-05T08:46:27Z</time>
      </trkpt>
      <trkpt lat="45.0709" lon="6.04716">
        <ele>1022.9</ele>
        <time>2020-08-05T08:46:28Z</time>
      </trkpt>
      <trkpt lat="45.07093" lon="6.04719">
        <ele>1023.2</ele>
        <time>2020-08-05T08:46:30Z</time>
      </trkpt>
      <trkpt lat="45.07099" lon="6.04723">
        <ele>1023.8</ele>
        <time>2020-08-05T08:46:31Z</time>
      </trkpt>
      <trkpt lat="45.07103" lon="6.04726">
        <ele>1024.3</ele>
        <time>2020-08-05T08:46:33Z</time>
      </trkpt>
      <trkpt lat="45.07107" lon="6.04731">
        <ele>1024.8</ele>
        <time>2020-08-05T08:46:35Z</time>
      </trkpt>
      <trkpt lat="45.0711" lon="6.04733">
        <ele>1025.1</ele>
        <time>2020-08-05T08:46:36Z</time>
      </trkpt>
      <trkpt lat="45.07114" lon="6.04737">
        <ele>1025.5</ele>
        <time>2020-08-05T08:46:38Z</time>
      </trkpt>
      <trkpt lat="45.0712" lon="6.04741">
        <ele>1026.2</ele>
        <time>2020-08-05T08:46:40Z</time>
      </trkpt>
      <trkpt lat="45.07123" lon="6.04744">
        <ele>1026.6</ele>
        <time>2020-08-05T08:46:41Z</time>
      </trkpt>
      <trkpt lat="45.07127" lon="6.04746">
        <ele>1027</ele>
        <time>2020-08-05T08:46:43Z</time>
      </trkpt>
      <trkpt lat="45.07133" lon="6.04751">
        <ele>1027.7</ele>
        <time>2020-08-05T08:46:45Z</time>
      </trkpt>
      <trkpt lat="45.07135" lon="6.04754">
        <ele>1028</ele>
        <time>2020-08-05T08:46:46Z</time>
      </trkpt>
      <trkpt lat="45.07139" lon="6.04757">
        <ele>1028.4</ele>
        <time>2020-08-05T08:46:49Z</time>
      </trkpt>
      <trkpt lat="45.07142" lon="6.04759">
        <ele>1028.7</ele>
        <time>2020-08-05T08:46:50Z</time>
      </trkpt>
      <trkpt lat="45.07148" lon="6.04765">
        <ele>1029.4</ele>
        <time>2020-08-05T08:46:51Z</time>
      </trkpt>
      <trkpt lat="45.07151" lon="6.04769">
        <ele>1029.8</ele>
        <time>2020-08-05T08:46:53Z</time>
      </trkpt>
      <trkpt lat="45.07153" lon="6.04771">
        <ele>1030</ele>
        <time>2020-08-05T08:46:55Z</time>
      </trkpt>
      <trkpt lat="45.07157" lon="6.04776">
        <ele>1030.5</ele>
        <time>2020-08-05T08:46:56Z</time>
      </trkpt>
      <trkpt lat="45.07162" lon="6.04781">
        <ele>1031.1</ele>
        <time>2020-08-05T08:46:58Z</time>
      </trkpt>
      <trkpt lat="45.07165" lon="6.04784">
        <ele>1031.5</ele>
        <time>2020-08-05T08:47:00Z</time>
      </trkpt>
      <trkpt lat="45.0717" lon="6.0479">
        <ele>1032.1</ele>
        <time>2020-08-05T08:47:02Z</time>
      </trkpt>
      <trkpt lat="45.07173" lon="6.04793">
        <ele>1032.3</ele>
        <time>2020-08-05T08:47:03Z</time>
      </trkpt>
      <trkpt lat="45.07175" lon="6.04797">
        <ele>1032.6</ele>
        <time>2020-08-05T08:47:04Z</time>
      </trkpt>
      <trkpt lat="45.07178" lon="6.04801">
        <ele>1033</ele>
        <time>2020-08-05T08:47:06Z</time>
      </trkpt>
      <trkpt lat="45.0718" lon="6.04804">
        <ele>1033.3</ele>
        <time>2020-08-05T08:47:08Z</time>
      </trkpt>
      <trkpt lat="45.07182" lon="6.04806">
        <ele>1033.5</ele>
        <time>2020-08-05T08:47:09Z</time>
      </trkpt>
      <trkpt lat="45.07186" lon="6.04811">
        <ele>1034</ele>
        <time>2020-08-05T08:47:10Z</time>
      </trkpt>
      <trkpt lat="45.07188" lon="6.04814">
        <ele>1034.3</ele>
        <time>2020-08-05T08:47:11Z</time>
      </trkpt>
      <trkpt lat="45.07191" lon="6.04816">
        <ele>1034.6</ele>
        <time>2020-08-05T08:47:12Z</time>
      </trkpt>
      <trkpt lat="45.07199" lon="6.04817">
        <ele>1035.3</ele>
        <time>2020-08-05T08:47:15Z</time>
      </trkpt>
      <trkpt lat="45.07201" lon="6.04816">
        <ele>1035.5</ele>
        <time>2020-08-05T08:47:16Z</time>
      </trkpt>
      <trkpt lat="45.07206" lon="6.04809">
        <ele>1036</ele>
        <time>2020-08-05T08:47:17Z</time>
      </trkpt>
      <trkpt lat="45.07207" lon="6.04802">
        <ele>1036.3</ele>
        <time>2020-08-05T08:47:19Z</time>
      </trkpt>
      <trkpt lat="45.07202" lon="6.04788">
        <ele>1036.8</ele>
        <time>2020-08-05T08:47:21Z</time>
      </trkpt>
      <trkpt lat="45.07198" lon="6.04782">
        <ele>1037</ele>
        <time>2020-08-05T08:47:23Z</time>
      </trkpt>
      <trkpt lat="45.0719" lon="6.04777">
        <ele>1037.4</ele>
        <time>2020-08-05T08:47:26Z</time>
      </trkpt>
      <trkpt lat="45.07183" lon="6.04771">
        <ele>1037.7</ele>
        <time>2020-08-05T08:47:28Z</time>
      </trkpt>
      <trkpt lat="45.07176" lon="6.04765">
        <ele>1038.1</ele>
        <time>2020-08-05T08:47:30Z</time>
      </trkpt>
      <trkpt lat="45.07171" lon="6.0476">
        <ele>1038.5</ele>
        <time>2020-08-05T08:47:32Z</time>
      </trkpt>
      <trkpt lat="45.07165" lon="6.04754">
        <ele>1039</ele>
        <time>2020-08-05T08:47:34Z</time>
      </trkpt>
      <trkpt lat="45.0716" lon="6.04748">
        <ele>1039.5</ele>
        <time>2020-08-05T08:47:36Z</time>
      </trkpt>
      <trkpt lat="45.07156" lon="6.04742">
        <ele>1040</ele>
        <time>2020-08-05T08:47:37Z</time>
      </trkpt>
      <trkpt lat="45.07153" lon="6.04738">
        <ele>1040.4</ele>
        <time>2020-08-05T08:47:39Z</time>
      </trkpt>
      <trkpt lat="45.07151" lon="6.04734">
        <ele>1040.7</ele>
        <time>2020-08-05T08:47:40Z</time>
      </trkpt>
      <trkpt lat="45.07148" lon="6.04731">
        <ele>1041</ele>
        <time>2020-08-05T08:47:41Z</time>
      </trkpt>
      <trkpt lat="45.07142" lon="6.04721">
        <ele>1041.9</ele>
        <time>2020-08-05T08:47:43Z</time>
      </trkpt>
      <trkpt lat="45.07139" lon="6.04716">
        <ele>1042.3</ele>
        <time>2020-08-05T08:47:45Z</time>
      </trkpt>
      <trkpt lat="45.07137" lon="6.04711">
        <ele>1043.1</ele>
        <time>2020-08-05T08:47:46Z</time>
      </trkpt>
      <trkpt lat="45.07135" lon="6.04708">
        <ele>1043.4</ele>
        <time>2020-08-05T08:47:48Z</time>
      </trkpt>
      <trkpt lat="45.07133" lon="6.04704">
        <ele>1043.8</ele>
        <time>2020-08-05T08:47:49Z</time>
      </trkpt>
      <trkpt lat="45.07129" lon="6.04698">
        <ele>1044.3</ele>
        <time>2020-08-05T08:47:51Z</time>
      </trkpt>
      <trkpt lat="45.07127" lon="6.04694">
        <ele>1044.7</ele>
        <time>2020-08-05T08:47:52Z</time>
      </trkpt>
      <trkpt lat="45.07123" lon="6.04688">
        <ele>1045.2</ele>
        <time>2020-08-05T08:47:53Z</time>
      </trkpt>
      <trkpt lat="45.07121" lon="6.04684">
        <ele>1045.6</ele>
        <time>2020-08-05T08:47:55Z</time>
      </trkpt>
      <trkpt lat="45.07117" lon="6.04676">
        <ele>1046.2</ele>
        <time>2020-08-05T08:47:56Z</time>
      </trkpt>
      <trkpt lat="45.07116" lon="6.04672">
        <ele>1046.5</ele>
        <time>2020-08-05T08:47:58Z</time>
      </trkpt>
      <trkpt lat="45.07114" lon="6.04666">
        <ele>1046.9</ele>
        <time>2020-08-05T08:47:59Z</time>
      </trkpt>
      <trkpt lat="45.07113" lon="6.04661">
        <ele>1047.3</ele>
        <time>2020-08-05T08:48:01Z</time>
      </trkpt>
      <trkpt lat="45.07111" lon="6.04651">
        <ele>1048</ele>
        <time>2020-08-05T08:48:02Z</time>
      </trkpt>
      <trkpt lat="45.0711" lon="6.04639">
        <ele>1048.9</ele>
        <time>2020-08-05T08:48:05Z</time>
      </trkpt>
      <trkpt lat="45.0711" lon="6.04628">
        <ele>1049.6</ele>
        <time>2020-08-05T08:48:08Z</time>
      </trkpt>
      <trkpt lat="45.0711" lon="6.04622">
        <ele>1050</ele>
        <time>2020-08-05T08:48:10Z</time>
      </trkpt>
      <trkpt lat="45.0711" lon="6.04616">
        <ele>1050.4</ele>
        <time>2020-08-05T08:48:12Z</time>
      </trkpt>
      <trkpt lat="45.0711" lon="6.04612">
        <ele>1050.6</ele>
        <time>2020-08-05T08:48:13Z</time>
      </trkpt>
      <trkpt lat="45.0711" lon="6.04608">
        <ele>1050.9</ele>
        <time>2020-08-05T08:48:14Z</time>
      </trkpt>
      <trkpt lat="45.0711" lon="6.04603">
        <ele>1051.2</ele>
        <time>2020-08-05T08:48:15Z</time>
      </trkpt>
      <trkpt lat="45.07111" lon="6.04597">
        <ele>1051.7</ele>
        <time>2020-08-05T08:48:16Z</time>
      </trkpt>
      <trkpt lat="45.07112" lon="6.04586">
        <ele>1052.4</ele>
        <time>2020-08-05T08:48:18Z</time>
      </trkpt>
      <trkpt lat="45.07113" lon="6.04581">
        <ele>1052.8</ele>
        <time>2020-08-05T08:48:20Z</time>
      </trkpt>
      <trkpt lat="45.07113" lon="6.04575">
        <ele>1053.2</ele>
        <time>2020-08-05T08:48:21Z</time>
      </trkpt>
      <trkpt lat="45.07113" lon="6.04569">
        <ele>1053.7</ele>
        <time>2020-08-05T08:48:22Z</time>
      </trkpt>
      <trkpt lat="45.07113" lon="6.04564">
        <ele>1054</ele>
        <time>2020-08-05T08:48:24Z</time>
      </trkpt>
      <trkpt lat="45.07113" lon="6.04558">
        <ele>1054.4</ele>
        <time>2020-08-05T08:48:25Z</time>
      </trkpt>
      <trkpt lat="45.07113" lon="6.04551">
        <ele>1055</ele>
        <time>2020-08-05T08:48:27Z</time>
      </trkpt>
      <trkpt lat="45.07113" lon="6.04543">
        <ele>1055.5</ele>
        <time>2020-08-05T08:48:28Z</time>
      </trkpt>
      <trkpt lat="45.07114" lon="6.04537">
        <ele>1055.9</ele>
        <time>2020-08-05T08:48:30Z</time>
      </trkpt>
      <trkpt lat="45.07114" lon="6.0453">
        <ele>1056.4</ele>
        <time>2020-08-05T08:48:32Z</time>
      </trkpt>
      <trkpt lat="45.07115" lon="6.04518">
        <ele>1057.1</ele>
        <time>2020-08-05T08:48:34Z</time>
      </trkpt>
      <trkpt lat="45.07115" lon="6.04513">
        <ele>1057.5</ele>
        <time>2020-08-05T08:48:36Z</time>
      </trkpt>
      <trkpt lat="45.07115" lon="6.04508">
        <ele>1057.8</ele>
        <time>2020-08-05T08:48:38Z</time>
      </trkpt>
      <trkpt lat="45.07115" lon="6.045">
        <ele>1058.3</ele>
        <time>2020-08-05T08:48:39Z</time>
      </trkpt>
      <trkpt lat="45.07114" lon="6.04496">
        <ele>1058.6</ele>
        <time>2020-08-05T08:48:40Z</time>
      </trkpt>
      <trkpt lat="45.07114" lon="6.04491">
        <ele>1058.8</ele>
        <time>2020-08-05T08:48:41Z</time>
      </trkpt>
      <trkpt lat="45.07112" lon="6.04485">
        <ele>1059.2</ele>
        <time>2020-08-05T08:48:43Z</time>
      </trkpt>
      <trkpt lat="45.07111" lon="6.04478">
        <ele>1059.6</ele>
        <time>2020-08-05T08:48:44Z</time>
      </trkpt>
      <trkpt lat="45.07109" lon="6.04474">
        <ele>1059.9</ele>
        <time>2020-08-05T08:48:45Z</time>
      </trkpt>
      <trkpt lat="45.07105" lon="6.04465">
        <ele>1060.4</ele>
        <time>2020-08-05T08:48:47Z</time>
      </trkpt>
      <trkpt lat="45.07103" lon="6.04458">
        <ele>1060.8</ele>
        <time>2020-08-05T08:48:50Z</time>
      </trkpt>
      <trkpt lat="45.07101" lon="6.04454">
        <ele>1061.1</ele>
        <time>2020-08-05T08:48:51Z</time>
      </trkpt>
      <trkpt lat="45.07099" lon="6.0445">
        <ele>1061.3</ele>
        <time>2020-08-05T08:48:52Z</time>
      </trkpt>
      <trkpt lat="45.07094" lon="6.04437">
        <ele>1062.2</ele>
        <time>2020-08-05T08:48:54Z</time>
      </trkpt>
      <trkpt lat="45.07094" lon="6.04431">
        <ele>1062.6</ele>
        <time>2020-08-05T08:48:55Z</time>
      </trkpt>
      <trkpt lat="45.07096" lon="6.04427">
        <ele>1062.9</ele>
        <time>2020-08-05T08:48:57Z</time>
      </trkpt>
      <trkpt lat="45.07098" lon="6.04425">
        <ele>1063.2</ele>
        <time>2020-08-05T08:48:59Z</time>
      </trkpt>
      <trkpt lat="45.07102" lon="6.04425">
        <ele>1063.5</ele>
        <time>2020-08-05T08:49:00Z</time>
      </trkpt>
      <trkpt lat="45.07108" lon="6.04433">
        <ele>1064.1</ele>
        <time>2020-08-05T08:49:01Z</time>
      </trkpt>
      <trkpt lat="45.07112" lon="6.0444">
        <ele>1064.5</ele>
        <time>2020-08-05T08:49:02Z</time>
      </trkpt>
      <trkpt lat="45.07115" lon="6.04447">
        <ele>1064.9</ele>
        <time>2020-08-05T08:49:05Z</time>
      </trkpt>
      <trkpt lat="45.07119" lon="6.04454">
        <ele>1065.3</ele>
        <time>2020-08-05T08:49:06Z</time>
      </trkpt>
      <trkpt lat="45.07123" lon="6.0446">
        <ele>1065.8</ele>
        <time>2020-08-05T08:49:07Z</time>
      </trkpt>
      <trkpt lat="45.07127" lon="6.04467">
        <ele>1066.3</ele>
        <time>2020-08-05T08:49:10Z</time>
      </trkpt>
      <trkpt lat="45.07129" lon="6.04471">
        <ele>1066.6</ele>
        <time>2020-08-05T08:49:11Z</time>
      </trkpt>
      <trkpt lat="45.07131" lon="6.04479">
        <ele>1067.2</ele>
        <time>2020-08-05T08:49:12Z</time>
      </trkpt>
      <trkpt lat="45.07134" lon="6.04485">
        <ele>1067.7</ele>
        <time>2020-08-05T08:49:13Z</time>
      </trkpt>
      <trkpt lat="45.07136" lon="6.0449">
        <ele>1068.1</ele>
        <time>2020-08-05T08:49:14Z</time>
      </trkpt>
      <trkpt lat="45.07137" lon="6.04495">
        <ele>1068.6</ele>
        <time>2020-08-05T08:49:16Z</time>
      </trkpt>
      <trkpt lat="45.07139" lon="6.04507">
        <ele>1069.4</ele>
        <time>2020-08-05T08:49:18Z</time>
      </trkpt>
      <trkpt lat="45.07139" lon="6.04515">
        <ele>1070</ele>
        <time>2020-08-05T08:49:20Z</time>
      </trkpt>
      <trkpt lat="45.0714" lon="6.0452">
        <ele>1070.4</ele>
        <time>2020-08-05T08:49:22Z</time>
      </trkpt>
      <trkpt lat="45.0714" lon="6.04525">
        <ele>1070.8</ele>
        <time>2020-08-05T08:49:24Z</time>
      </trkpt>
      <trkpt lat="45.0714" lon="6.0453">
        <ele>1071.1</ele>
        <time>2020-08-05T08:49:25Z</time>
      </trkpt>
      <trkpt lat="45.07141" lon="6.04536">
        <ele>1071.6</ele>
        <time>2020-08-05T08:49:26Z</time>
      </trkpt>
      <trkpt lat="45.07141" lon="6.0454">
        <ele>1071.9</ele>
        <time>2020-08-05T08:49:27Z</time>
      </trkpt>
      <trkpt lat="45.07142" lon="6.04547">
        <ele>1072.4</ele>
        <time>2020-08-05T08:49:28Z</time>
      </trkpt>
      <trkpt lat="45.07142" lon="6.04551">
        <ele>1072.7</ele>
        <time>2020-08-05T08:49:29Z</time>
      </trkpt>
      <trkpt lat="45.07144" lon="6.04556">
        <ele>1073.1</ele>
        <time>2020-08-05T08:49:30Z</time>
      </trkpt>
      <trkpt lat="45.07145" lon="6.04567">
        <ele>1074</ele>
        <time>2020-08-05T08:49:33Z</time>
      </trkpt>
      <trkpt lat="45.07146" lon="6.0457">
        <ele>1074.2</ele>
        <time>2020-08-05T08:49:34Z</time>
      </trkpt>
      <trkpt lat="45.07147" lon="6.04575">
        <ele>1074.6</ele>
        <time>2020-08-05T08:49:36Z</time>
      </trkpt>
      <trkpt lat="45.07148" lon="6.04581">
        <ele>1075</ele>
        <time>2020-08-05T08:49:38Z</time>
      </trkpt>
      <trkpt lat="45.07149" lon="6.04591">
        <ele>1075.7</ele>
        <time>2020-08-05T08:49:40Z</time>
      </trkpt>
      <trkpt lat="45.0715" lon="6.04595">
        <ele>1076</ele>
        <time>2020-08-05T08:49:42Z</time>
      </trkpt>
      <trkpt lat="45.07151" lon="6.04601">
        <ele>1076.5</ele>
        <time>2020-08-05T08:49:43Z</time>
      </trkpt>
      <trkpt lat="45.07152" lon="6.04606">
        <ele>1076.8</ele>
        <time>2020-08-05T08:49:44Z</time>
      </trkpt>
      <trkpt lat="45.07153" lon="6.04611">
        <ele>1077.2</ele>
        <time>2020-08-05T08:49:46Z</time>
      </trkpt>
      <trkpt lat="45.07154" lon="6.04617">
        <ele>1077.6</ele>
        <time>2020-08-05T08:49:48Z</time>
      </trkpt>
      <trkpt lat="45.07156" lon="6.04621">
        <ele>1078</ele>
        <time>2020-08-05T08:49:49Z</time>
      </trkpt>
      <trkpt lat="45.07157" lon="6.04626">
        <ele>1078.4</ele>
        <time>2020-08-05T08:49:50Z</time>
      </trkpt>
      <trkpt lat="45.07159" lon="6.04631">
        <ele>1078.8</ele>
        <time>2020-08-05T08:49:52Z</time>
      </trkpt>
      <trkpt lat="45.07165" lon="6.04642">
        <ele>1079.8</ele>
        <time>2020-08-05T08:49:55Z</time>
      </trkpt>
      <trkpt lat="45.07167" lon="6.04647">
        <ele>1080.1</ele>
        <time>2020-08-05T08:49:57Z</time>
      </trkpt>
      <trkpt lat="45.07169" lon="6.04651">
        <ele>1080.5</ele>
        <time>2020-08-05T08:49:58Z</time>
      </trkpt>
      <trkpt lat="45.07171" lon="6.04654">
        <ele>1080.8</ele>
        <time>2020-08-05T08:49:59Z</time>
      </trkpt>
      <trkpt lat="45.07175" lon="6.04657">
        <ele>1081.2</ele>
        <time>2020-08-05T08:50:01Z</time>
      </trkpt>
      <trkpt lat="45.07178" lon="6.04661">
        <ele>1081.6</ele>
        <time>2020-08-05T08:50:02Z</time>
      </trkpt>
      <trkpt lat="45.07179" lon="6.04663">
        <ele>1081.8</ele>
        <time>2020-08-05T08:50:03Z</time>
      </trkpt>
      <trkpt lat="45.07182" lon="6.04666">
        <ele>1082.1</ele>
        <time>2020-08-05T08:50:05Z</time>
      </trkpt>
      <trkpt lat="45.07184" lon="6.04669">
        <ele>1082.4</ele>
        <time>2020-08-05T08:50:06Z</time>
      </trkpt>
      <trkpt lat="45.07186" lon="6.04674">
        <ele>1082.8</ele>
        <time>2020-08-05T08:50:07Z</time>
      </trkpt>
      <trkpt lat="45.07188" lon="6.04676">
        <ele>1083.1</ele>
        <time>2020-08-05T08:50:08Z</time>
      </trkpt>
      <trkpt lat="45.0719" lon="6.04679">
        <ele>1083.4</ele>
        <time>2020-08-05T08:50:10Z</time>
      </trkpt>
      <trkpt lat="45.07193" lon="6.04682">
        <ele>1083.8</ele>
        <time>2020-08-05T08:50:11Z</time>
      </trkpt>
      <trkpt lat="45.07196" lon="6.04685">
        <ele>1084.1</ele>
        <time>2020-08-05T08:50:13Z</time>
      </trkpt>
      <trkpt lat="45.072" lon="6.04689">
        <ele>1084.6</ele>
        <time>2020-08-05T08:50:14Z</time>
      </trkpt>
      <trkpt lat="45.07205" lon="6.04694">
        <ele>1085.2</ele>
        <time>2020-08-05T08:50:16Z</time>
      </trkpt>
      <trkpt lat="45.07207" lon="6.04697">
        <ele>1085.6</ele>
        <time>2020-08-05T08:50:17Z</time>
      </trkpt>
      <trkpt lat="45.07214" lon="6.04702">
        <ele>1086.3</ele>
        <time>2020-08-05T08:50:19Z</time>
      </trkpt>
      <trkpt lat="45.07218" lon="6.04705">
        <ele>1086.7</ele>
        <time>2020-08-05T08:50:21Z</time>
      </trkpt>
      <trkpt lat="45.07222" lon="6.04707">
        <ele>1087.1</ele>
        <time>2020-08-05T08:50:22Z</time>
      </trkpt>
      <trkpt lat="45.07225" lon="6.0471">
        <ele>1087.5</ele>
        <time>2020-08-05T08:50:24Z</time>
      </trkpt>
      <trkpt lat="45.07228" lon="6.04713">
        <ele>1087.9</ele>
        <time>2020-08-05T08:50:25Z</time>
      </trkpt>
      <trkpt lat="45.07233" lon="6.04717">
        <ele>1088.4</ele>
        <time>2020-08-05T08:50:27Z</time>
      </trkpt>
      <trkpt lat="45.07238" lon="6.0472">
        <ele>1088.9</ele>
        <time>2020-08-05T08:50:29Z</time>
      </trkpt>
      <trkpt lat="45.07241" lon="6.04723">
        <ele>1089.3</ele>
        <time>2020-08-05T08:50:30Z</time>
      </trkpt>
      <trkpt lat="45.07243" lon="6.04725">
        <ele>1089.6</ele>
        <time>2020-08-05T08:50:31Z</time>
      </trkpt>
      <trkpt lat="45.07248" lon="6.04728">
        <ele>1090</ele>
        <time>2020-08-05T08:50:33Z</time>
      </trkpt>
      <trkpt lat="45.07251" lon="6.04731">
        <ele>1090.4</ele>
        <time>2020-08-05T08:50:35Z</time>
      </trkpt>
      <trkpt lat="45.07258" lon="6.04736">
        <ele>1091.2</ele>
        <time>2020-08-05T08:50:36Z</time>
      </trkpt>
      <trkpt lat="45.0726" lon="6.04738">
        <ele>1091.5</ele>
        <time>2020-08-05T08:50:37Z</time>
      </trkpt>
      <trkpt lat="45.07269" lon="6.04742">
        <ele>1092.3</ele>
        <time>2020-08-05T08:50:40Z</time>
      </trkpt>
      <trkpt lat="45.07271" lon="6.04744">
        <ele>1092.6</ele>
        <time>2020-08-05T08:50:41Z</time>
      </trkpt>
      <trkpt lat="45.07274" lon="6.04746">
        <ele>1092.9</ele>
        <time>2020-08-05T08:50:42Z</time>
      </trkpt>
      <trkpt lat="45.07278" lon="6.04749">
        <ele>1093.3</ele>
        <time>2020-08-05T08:50:44Z</time>
      </trkpt>
      <trkpt lat="45.07282" lon="6.04753">
        <ele>1093.9</ele>
        <time>2020-08-05T08:50:46Z</time>
      </trkpt>
      <trkpt lat="45.07286" lon="6.04757">
        <ele>1094.3</ele>
        <time>2020-08-05T08:50:47Z</time>
      </trkpt>
      <trkpt lat="45.07289" lon="6.04759">
        <ele>1094.7</ele>
        <time>2020-08-05T08:50:48Z</time>
      </trkpt>
      <trkpt lat="45.07293" lon="6.04762">
        <ele>1095.1</ele>
        <time>2020-08-05T08:50:50Z</time>
      </trkpt>
      <trkpt lat="45.073" lon="6.04766">
        <ele>1095.9</ele>
        <time>2020-08-05T08:50:52Z</time>
      </trkpt>
      <trkpt lat="45.07303" lon="6.04767">
        <ele>1096.2</ele>
        <time>2020-08-05T08:50:53Z</time>
      </trkpt>
      <trkpt lat="45.07307" lon="6.04769">
        <ele>1096.6</ele>
        <time>2020-08-05T08:50:56Z</time>
      </trkpt>
      <trkpt lat="45.0731" lon="6.0477">
        <ele>1096.9</ele>
        <time>2020-08-05T08:50:57Z</time>
      </trkpt>
      <trkpt lat="45.07315" lon="6.04771">
        <ele>1097.3</ele>
        <time>2020-08-05T08:50:58Z</time>
      </trkpt>
      <trkpt lat="45.07318" lon="6.04771">
        <ele>1097.6</ele>
        <time>2020-08-05T08:50:59Z</time>
      </trkpt>
      <trkpt lat="45.07322" lon="6.04771">
        <ele>1098</ele>
        <time>2020-08-05T08:51:00Z</time>
      </trkpt>
      <trkpt lat="45.07326" lon="6.04771">
        <ele>1098.3</ele>
        <time>2020-08-05T08:51:02Z</time>
      </trkpt>
      <trkpt lat="45.0733" lon="6.04771">
        <ele>1098.7</ele>
        <time>2020-08-05T08:51:04Z</time>
      </trkpt>
      <trkpt lat="45.07335" lon="6.04772">
        <ele>1099.1</ele>
        <time>2020-08-05T08:51:05Z</time>
      </trkpt>
      <trkpt lat="45.0734" lon="6.04772">
        <ele>1099.4</ele>
        <time>2020-08-05T08:51:06Z</time>
      </trkpt>
      <trkpt lat="45.07343" lon="6.04773">
        <ele>1099.7</ele>
        <time>2020-08-05T08:51:07Z</time>
      </trkpt>
      <trkpt lat="45.07347" lon="6.04777">
        <ele>1100</ele>
        <time>2020-08-05T08:51:10Z</time>
      </trkpt>
      <trkpt lat="45.07349" lon="6.04781">
        <ele>1100.2</ele>
        <time>2020-08-05T08:51:11Z</time>
      </trkpt>
      <trkpt lat="45.07354" lon="6.04788">
        <ele>1100.8</ele>
        <time>2020-08-05T08:51:13Z</time>
      </trkpt>
      <trkpt lat="45.07357" lon="6.04795">
        <ele>1101.4</ele>
        <time>2020-08-05T08:51:14Z</time>
      </trkpt>
      <trkpt lat="45.07361" lon="6.04807">
        <ele>1101.9</ele>
        <time>2020-08-05T08:51:16Z</time>
      </trkpt>
      <trkpt lat="45.07362" lon="6.04812">
        <ele>1102.2</ele>
        <time>2020-08-05T08:51:18Z</time>
      </trkpt>
      <trkpt lat="45.07364" lon="6.04821">
        <ele>1102.6</ele>
        <time>2020-08-05T08:51:20Z</time>
      </trkpt>
      <trkpt lat="45.07364" lon="6.04826">
        <ele>1102.9</ele>
        <time>2020-08-05T08:51:22Z</time>
      </trkpt>
      <trkpt lat="45.07366" lon="6.04834">
        <ele>1103.3</ele>
        <time>2020-08-05T08:51:23Z</time>
      </trkpt>
      <trkpt lat="45.07369" lon="6.04842">
        <ele>1103.8</ele>
        <time>2020-08-05T08:51:25Z</time>
      </trkpt>
      <trkpt lat="45.07369" lon="6.04846">
        <ele>1104</ele>
        <time>2020-08-05T08:51:26Z</time>
      </trkpt>
      <trkpt lat="45.0737" lon="6.04852">
        <ele>1104.4</ele>
        <time>2020-08-05T08:51:27Z</time>
      </trkpt>
      <trkpt lat="45.07371" lon="6.04857">
        <ele>1104.7</ele>
        <time>2020-08-05T08:51:28Z</time>
      </trkpt>
      <trkpt lat="45.07372" lon="6.04861">
        <ele>1105</ele>
        <time>2020-08-05T08:51:29Z</time>
      </trkpt>
      <trkpt lat="45.07372" lon="6.04867">
        <ele>1105.4</ele>
        <time>2020-08-05T08:51:31Z</time>
      </trkpt>
      <trkpt lat="45.07372" lon="6.04871">
        <ele>1105.6</ele>
        <time>2020-08-05T08:51:33Z</time>
      </trkpt>
      <trkpt lat="45.07371" lon="6.04878">
        <ele>1106.1</ele>
        <time>2020-08-05T08:51:34Z</time>
      </trkpt>
      <trkpt lat="45.07368" lon="6.04885">
        <ele>1106.6</ele>
        <time>2020-08-05T08:51:35Z</time>
      </trkpt>
      <trkpt lat="45.07366" lon="6.04889">
        <ele>1107</ele>
        <time>2020-08-05T08:51:37Z</time>
      </trkpt>
      <trkpt lat="45.07363" lon="6.04895">
        <ele>1107.5</ele>
        <time>2020-08-05T08:51:39Z</time>
      </trkpt>
      <trkpt lat="45.07362" lon="6.04897">
        <ele>1107.7</ele>
        <time>2020-08-05T08:51:40Z</time>
      </trkpt>
      <trkpt lat="45.07358" lon="6.04902">
        <ele>1108.2</ele>
        <time>2020-08-05T08:51:41Z</time>
      </trkpt>
      <trkpt lat="45.07355" lon="6.04906">
        <ele>1108.6</ele>
        <time>2020-08-05T08:51:42Z</time>
      </trkpt>
      <trkpt lat="45.07352" lon="6.0491">
        <ele>1108.9</ele>
        <time>2020-08-05T08:51:44Z</time>
      </trkpt>
      <trkpt lat="45.07349" lon="6.04913">
        <ele>1109.3</ele>
        <time>2020-08-05T08:51:46Z</time>
      </trkpt>
      <trkpt lat="45.07344" lon="6.04919">
        <ele>1109.9</ele>
        <time>2020-08-05T08:51:47Z</time>
      </trkpt>
      <trkpt lat="45.07342" lon="6.04923">
        <ele>1110.2</ele>
        <time>2020-08-05T08:51:48Z</time>
      </trkpt>
      <trkpt lat="45.07339" lon="6.04928">
        <ele>1110.6</ele>
        <time>2020-08-05T08:51:50Z</time>
      </trkpt>
      <trkpt lat="45.07337" lon="6.04932">
        <ele>1110.9</ele>
        <time>2020-08-05T08:51:52Z</time>
      </trkpt>
      <trkpt lat="45.07334" lon="6.04945">
        <ele>1111.7</ele>
        <time>2020-08-05T08:51:54Z</time>
      </trkpt>
      <trkpt lat="45.07333" lon="6.0495">
        <ele>1112.1</ele>
        <time>2020-08-05T08:51:56Z</time>
      </trkpt>
      <trkpt lat="45.07333" lon="6.04955">
        <ele>1112.4</ele>
        <time>2020-08-05T08:51:57Z</time>
      </trkpt>
      <trkpt lat="45.07331" lon="6.04962">
        <ele>1112.9</ele>
        <time>2020-08-05T08:51:59Z</time>
      </trkpt>
      <trkpt lat="45.07327" lon="6.04974">
        <ele>1113.7</ele>
        <time>2020-08-05T08:52:02Z</time>
      </trkpt>
      <trkpt lat="45.07326" lon="6.04978">
        <ele>1114</ele>
        <time>2020-08-05T08:52:03Z</time>
      </trkpt>
      <trkpt lat="45.07325" lon="6.0498">
        <ele>1114.1</ele>
        <time>2020-08-05T08:52:04Z</time>
      </trkpt>
      <trkpt lat="45.07324" lon="6.04983">
        <ele>1114.4</ele>
        <time>2020-08-05T08:52:05Z</time>
      </trkpt>
      <trkpt lat="45.07322" lon="6.04987">
        <ele>1114.7</ele>
        <time>2020-08-05T08:52:07Z</time>
      </trkpt>
      <trkpt lat="45.0732" lon="6.0499">
        <ele>1115</ele>
        <time>2020-08-05T08:52:08Z</time>
      </trkpt>
      <trkpt lat="45.07318" lon="6.04993">
        <ele>1115.3</ele>
        <time>2020-08-05T08:52:09Z</time>
      </trkpt>
      <trkpt lat="45.07316" lon="6.04997">
        <ele>1115.6</ele>
        <time>2020-08-05T08:52:10Z</time>
      </trkpt>
      <trkpt lat="45.07314" lon="6.05001">
        <ele>1116</ele>
        <time>2020-08-05T08:52:11Z</time>
      </trkpt>
      <trkpt lat="45.07313" lon="6.05004">
        <ele>1116.3</ele>
        <time>2020-08-05T08:52:12Z</time>
      </trkpt>
      <trkpt lat="45.07311" lon="6.05007">
        <ele>1116.6</ele>
        <time>2020-08-05T08:52:14Z</time>
      </trkpt>
      <trkpt lat="45.07306" lon="6.05014">
        <ele>1117.3</ele>
        <time>2020-08-05T08:52:16Z</time>
      </trkpt>
      <trkpt lat="45.07304" lon="6.05018">
        <ele>1117.7</ele>
        <time>2020-08-05T08:52:18Z</time>
      </trkpt>
      <trkpt lat="45.07299" lon="6.05025">
        <ele>1118.4</ele>
        <time>2020-08-05T08:52:20Z</time>
      </trkpt>
      <trkpt lat="45.07297" lon="6.05029">
        <ele>1118.8</ele>
        <time>2020-08-05T08:52:22Z</time>
      </trkpt>
      <trkpt lat="45.07292" lon="6.05036">
        <ele>1119.5</ele>
        <time>2020-08-05T08:52:24Z</time>
      </trkpt>
      <trkpt lat="45.07288" lon="6.05043">
        <ele>1120.2</ele>
        <time>2020-08-05T08:52:26Z</time>
      </trkpt>
      <trkpt lat="45.07285" lon="6.05046">
        <ele>1120.6</ele>
        <time>2020-08-05T08:52:28Z</time>
      </trkpt>
      <trkpt lat="45.07283" lon="6.0505">
        <ele>1120.9</ele>
        <time>2020-08-05T08:52:29Z</time>
      </trkpt>
      <trkpt lat="45.07281" lon="6.05052">
        <ele>1121.3</ele>
        <time>2020-08-05T08:52:31Z</time>
      </trkpt>
      <trkpt lat="45.07279" lon="6.05056">
        <ele>1121.6</ele>
        <time>2020-08-05T08:52:33Z</time>
      </trkpt>
      <trkpt lat="45.07277" lon="6.05058">
        <ele>1121.9</ele>
        <time>2020-08-05T08:52:34Z</time>
      </trkpt>
      <trkpt lat="45.07274" lon="6.05063">
        <ele>1122.4</ele>
        <time>2020-08-05T08:52:35Z</time>
      </trkpt>
      <trkpt lat="45.0727" lon="6.05069">
        <ele>1123.1</ele>
        <time>2020-08-05T08:52:37Z</time>
      </trkpt>
      <trkpt lat="45.07269" lon="6.05073">
        <ele>1123.4</ele>
        <time>2020-08-05T08:52:38Z</time>
      </trkpt>
      <trkpt lat="45.07266" lon="6.05077">
        <ele>1123.8</ele>
        <time>2020-08-05T08:52:40Z</time>
      </trkpt>
      <trkpt lat="45.07265" lon="6.05081">
        <ele>1124.2</ele>
        <time>2020-08-05T08:52:41Z</time>
      </trkpt>
      <trkpt lat="45.07263" lon="6.05083">
        <ele>1124.4</ele>
        <time>2020-08-05T08:52:42Z</time>
      </trkpt>
      <trkpt lat="45.07257" lon="6.05091">
        <ele>1125.3</ele>
        <time>2020-08-05T08:52:45Z</time>
      </trkpt>
      <trkpt lat="45.07255" lon="6.05095">
        <ele>1125.7</ele>
        <time>2020-08-05T08:52:47Z</time>
      </trkpt>
      <trkpt lat="45.07254" lon="6.05097">
        <ele>1125.9</ele>
        <time>2020-08-05T08:52:48Z</time>
      </trkpt>
      <trkpt lat="45.07251" lon="6.05101">
        <ele>1126.3</ele>
        <time>2020-08-05T08:52:49Z</time>
      </trkpt>
      <trkpt lat="45.07251" lon="6.05103">
        <ele>1126.4</ele>
        <time>2020-08-05T08:52:50Z</time>
      </trkpt>
      <trkpt lat="45.07248" lon="6.0511">
        <ele>1127</ele>
        <time>2020-08-05T08:52:52Z</time>
      </trkpt>
      <trkpt lat="45.07246" lon="6.05117">
        <ele>1127.5</ele>
        <time>2020-08-05T08:52:55Z</time>
      </trkpt>
      <trkpt lat="45.07245" lon="6.05119">
        <ele>1127.7</ele>
        <time>2020-08-05T08:52:56Z</time>
      </trkpt>
      <trkpt lat="45.07245" lon="6.05121">
        <ele>1127.8</ele>
        <time>2020-08-05T08:52:57Z</time>
      </trkpt>
      <trkpt lat="45.07246" lon="6.05127">
        <ele>1128.2</ele>
        <time>2020-08-05T08:52:58Z</time>
      </trkpt>
      <trkpt lat="45.07252" lon="6.05132">
        <ele>1128.7</ele>
        <time>2020-08-05T08:53:00Z</time>
      </trkpt>
      <trkpt lat="45.07255" lon="6.05132">
        <ele>1128.9</ele>
        <time>2020-08-05T08:53:01Z</time>
      </trkpt>
      <trkpt lat="45.07258" lon="6.05131">
        <ele>1129.1</ele>
        <time>2020-08-05T08:53:03Z</time>
      </trkpt>
      <trkpt lat="45.07262" lon="6.05129">
        <ele>1129.3</ele>
        <time>2020-08-05T08:53:04Z</time>
      </trkpt>
      <trkpt lat="45.07265" lon="6.05124">
        <ele>1129.5</ele>
        <time>2020-08-05T08:53:05Z</time>
      </trkpt>
      <trkpt lat="45.07267" lon="6.05118">
        <ele>1129.8</ele>
        <time>2020-08-05T08:53:07Z</time>
      </trkpt>
      <trkpt lat="45.07272" lon="6.05103">
        <ele>1130.3</ele>
        <time>2020-08-05T08:53:08Z</time>
      </trkpt>
      <trkpt lat="45.07276" lon="6.05097">
        <ele>1130.6</ele>
        <time>2020-08-05T08:53:10Z</time>
      </trkpt>
      <trkpt lat="45.0728" lon="6.05091">
        <ele>1130.9</ele>
        <time>2020-08-05T08:53:11Z</time>
      </trkpt>
      <trkpt lat="45.07282" lon="6.05087">
        <ele>1131.2</ele>
        <time>2020-08-05T08:53:13Z</time>
      </trkpt>
      <trkpt lat="45.07286" lon="6.05083">
        <ele>1131.6</ele>
        <time>2020-08-05T08:53:14Z</time>
      </trkpt>
      <trkpt lat="45.07291" lon="6.05078">
        <ele>1132.1</ele>
        <time>2020-08-05T08:53:17Z</time>
      </trkpt>
      <trkpt lat="45.07296" lon="6.05074">
        <ele>1132.7</ele>
        <time>2020-08-05T08:53:18Z</time>
      </trkpt>
      <trkpt lat="45.07299" lon="6.05071">
        <ele>1133</ele>
        <time>2020-08-05T08:53:19Z</time>
      </trkpt>
      <trkpt lat="45.07302" lon="6.05068">
        <ele>1133.4</ele>
        <time>2020-08-05T08:53:21Z</time>
      </trkpt>
      <trkpt lat="45.07304" lon="6.05066">
        <ele>1133.7</ele>
        <time>2020-08-05T08:53:22Z</time>
      </trkpt>
      <trkpt lat="45.07311" lon="6.05061">
        <ele>1134.5</ele>
        <time>2020-08-05T08:53:24Z</time>
      </trkpt>
      <trkpt lat="45.07312" lon="6.05059">
        <ele>1134.7</ele>
        <time>2020-08-05T08:53:25Z</time>
      </trkpt>
      <trkpt lat="45.07316" lon="6.05055">
        <ele>1135.2</ele>
        <time>2020-08-05T08:53:27Z</time>
      </trkpt>
      <trkpt lat="45.07317" lon="6.05054">
        <ele>1135.4</ele>
        <time>2020-08-05T08:53:29Z</time>
      </trkpt>
      <trkpt lat="45.07319" lon="6.05053">
        <ele>1135.5</ele>
        <time>2020-08-05T08:53:30Z</time>
      </trkpt>
      <trkpt lat="45.07323" lon="6.05049">
        <ele>1136.1</ele>
        <time>2020-08-05T08:53:31Z</time>
      </trkpt>
      <trkpt lat="45.07326" lon="6.05046">
        <ele>1136.5</ele>
        <time>2020-08-05T08:53:32Z</time>
      </trkpt>
      <trkpt lat="45.07329" lon="6.05043">
        <ele>1136.9</ele>
        <time>2020-08-05T08:53:34Z</time>
      </trkpt>
      <trkpt lat="45.07331" lon="6.05041">
        <ele>1137.2</ele>
        <time>2020-08-05T08:53:36Z</time>
      </trkpt>
      <trkpt lat="45.07335" lon="6.05039">
        <ele>1137.6</ele>
        <time>2020-08-05T08:53:37Z</time>
      </trkpt>
      <trkpt lat="45.07339" lon="6.05036">
        <ele>1138.1</ele>
        <time>2020-08-05T08:53:39Z</time>
      </trkpt>
      <trkpt lat="45.07345" lon="6.05031">
        <ele>1138.8</ele>
        <time>2020-08-05T08:53:41Z</time>
      </trkpt>
      <trkpt lat="45.07348" lon="6.05028">
        <ele>1139.2</ele>
        <time>2020-08-05T08:53:43Z</time>
      </trkpt>
      <trkpt lat="45.07351" lon="6.05026">
        <ele>1139.5</ele>
        <time>2020-08-05T08:53:44Z</time>
      </trkpt>
      <trkpt lat="45.07354" lon="6.05023">
        <ele>1139.9</ele>
        <time>2020-08-05T08:53:45Z</time>
      </trkpt>
      <trkpt lat="45.07355" lon="6.05022">
        <ele>1140</ele>
        <time>2020-08-05T08:53:46Z</time>
      </trkpt>
      <trkpt lat="45.07358" lon="6.0502">
        <ele>1140.2</ele>
        <time>2020-08-05T08:53:47Z</time>
      </trkpt>
      <trkpt lat="45.0736" lon="6.05018">
        <ele>1140.5</ele>
        <time>2020-08-05T08:53:49Z</time>
      </trkpt>
      <trkpt lat="45.07364" lon="6.05015">
        <ele>1140.9</ele>
        <time>2020-08-05T08:53:51Z</time>
      </trkpt>
      <trkpt lat="45.07368" lon="6.05011">
        <ele>1141.4</ele>
        <time>2020-08-05T08:53:52Z</time>
      </trkpt>
      <trkpt lat="45.0737" lon="6.05008">
        <ele>1141.6</ele>
        <time>2020-08-05T08:53:53Z</time>
      </trkpt>
      <trkpt lat="45.07373" lon="6.05006">
        <ele>1141.9</ele>
        <time>2020-08-05T08:53:55Z</time>
      </trkpt>
      <trkpt lat="45.07376" lon="6.05002">
        <ele>1142.3</ele>
        <time>2020-08-05T08:53:56Z</time>
      </trkpt>
      <trkpt lat="45.07377" lon="6.05">
        <ele>1142.5</ele>
        <time>2020-08-05T08:53:57Z</time>
      </trkpt>
      <trkpt lat="45.0738" lon="6.04997">
        <ele>1142.8</ele>
        <time>2020-08-05T08:53:59Z</time>
      </trkpt>
      <trkpt lat="45.07383" lon="6.04992">
        <ele>1143.2</ele>
        <time>2020-08-05T08:54:01Z</time>
      </trkpt>
      <trkpt lat="45.07384" lon="6.04989">
        <ele>1143.4</ele>
        <time>2020-08-05T08:54:03Z</time>
      </trkpt>
      <trkpt lat="45.07388" lon="6.04985">
        <ele>1143.9</ele>
        <time>2020-08-05T08:54:04Z</time>
      </trkpt>
      <trkpt lat="45.0739" lon="6.04983">
        <ele>1144.1</ele>
        <time>2020-08-05T08:54:05Z</time>
      </trkpt>
      <trkpt lat="45.07393" lon="6.04979">
        <ele>1144.5</ele>
        <time>2020-08-05T08:54:07Z</time>
      </trkpt>
      <trkpt lat="45.07399" lon="6.04974">
        <ele>1145.1</ele>
        <time>2020-08-05T08:54:09Z</time>
      </trkpt>
      <trkpt lat="45.07402" lon="6.04972">
        <ele>1145.4</ele>
        <time>2020-08-05T08:54:11Z</time>
      </trkpt>
      <trkpt lat="45.07406" lon="6.0497">
        <ele>1145.9</ele>
        <time>2020-08-05T08:54:12Z</time>
      </trkpt>
      <trkpt lat="45.07412" lon="6.04967">
        <ele>1146.5</ele>
        <time>2020-08-05T08:54:14Z</time>
      </trkpt>
      <trkpt lat="45.07414" lon="6.04966">
        <ele>1146.8</ele>
        <time>2020-08-05T08:54:16Z</time>
      </trkpt>
      <trkpt lat="45.07417" lon="6.04964">
        <ele>1147.2</ele>
        <time>2020-08-05T08:54:17Z</time>
      </trkpt>
      <trkpt lat="45.07421" lon="6.04963">
        <ele>1147.6</ele>
        <time>2020-08-05T08:54:18Z</time>
      </trkpt>
      <trkpt lat="45.07426" lon="6.04962">
        <ele>1148.2</ele>
        <time>2020-08-05T08:54:21Z</time>
      </trkpt>
      <trkpt lat="45.07434" lon="6.04962">
        <ele>1149.2</ele>
        <time>2020-08-05T08:54:24Z</time>
      </trkpt>
      <trkpt lat="45.07437" lon="6.04962">
        <ele>1149.5</ele>
        <time>2020-08-05T08:54:26Z</time>
      </trkpt>
      <trkpt lat="45.0744" lon="6.04962">
        <ele>1149.9</ele>
        <time>2020-08-05T08:54:28Z</time>
      </trkpt>
      <trkpt lat="45.07445" lon="6.04961">
        <ele>1150.4</ele>
        <time>2020-08-05T08:54:29Z</time>
      </trkpt>
      <trkpt lat="45.07449" lon="6.0496">
        <ele>1150.8</ele>
        <time>2020-08-05T08:54:31Z</time>
      </trkpt>
      <trkpt lat="45.07455" lon="6.04958">
        <ele>1151.5</ele>
        <time>2020-08-05T08:54:33Z</time>
      </trkpt>
      <trkpt lat="45.07458" lon="6.04956">
        <ele>1151.9</ele>
        <time>2020-08-05T08:54:35Z</time>
      </trkpt>
      <trkpt lat="45.0746" lon="6.04955">
        <ele>1152.1</ele>
        <time>2020-08-05T08:54:36Z</time>
      </trkpt>
      <trkpt lat="45.07466" lon="6.04953">
        <ele>1152.8</ele>
        <time>2020-08-05T08:54:38Z</time>
      </trkpt>
      <trkpt lat="45.07469" lon="6.04951">
        <ele>1153.1</ele>
        <time>2020-08-05T08:54:40Z</time>
      </trkpt>
      <trkpt lat="45.07474" lon="6.04948">
        <ele>1153.6</ele>
        <time>2020-08-05T08:54:41Z</time>
      </trkpt>
      <trkpt lat="45.07477" lon="6.04946">
        <ele>1153.9</ele>
        <time>2020-08-05T08:54:43Z</time>
      </trkpt>
      <trkpt lat="45.07482" lon="6.04939">
        <ele>1154.6</ele>
        <time>2020-08-05T08:54:45Z</time>
      </trkpt>
      <trkpt lat="45.07487" lon="6.04931">
        <ele>1155.3</ele>
        <time>2020-08-05T08:54:48Z</time>
      </trkpt>
      <trkpt lat="45.07491" lon="6.04921">
        <ele>1156</ele>
        <time>2020-08-05T08:54:51Z</time>
      </trkpt>
      <trkpt lat="45.07492" lon="6.04917">
        <ele>1156.3</ele>
        <time>2020-08-05T08:54:54Z</time>
      </trkpt>
      <trkpt lat="45.07494" lon="6.04911">
        <ele>1156.8</ele>
        <time>2020-08-05T08:54:56Z</time>
      </trkpt>
      <trkpt lat="45.07496" lon="6.04906">
        <ele>1157.2</ele>
        <time>2020-08-05T08:54:57Z</time>
      </trkpt>
      <trkpt lat="45.07497" lon="6.04902">
        <ele>1157.4</ele>
        <time>2020-08-05T08:54:58Z</time>
      </trkpt>
      <trkpt lat="45.07499" lon="6.04897">
        <ele>1157.8</ele>
        <time>2020-08-05T08:54:59Z</time>
      </trkpt>
      <trkpt lat="45.075" lon="6.04893">
        <ele>1158.1</ele>
        <time>2020-08-05T08:55:00Z</time>
      </trkpt>
      <trkpt lat="45.07502" lon="6.04887">
        <ele>1158.5</ele>
        <time>2020-08-05T08:55:02Z</time>
      </trkpt>
      <trkpt lat="45.07502" lon="6.04885">
        <ele>1158.7</ele>
        <time>2020-08-05T08:55:03Z</time>
      </trkpt>
      <trkpt lat="45.07503" lon="6.04881">
        <ele>1159</ele>
        <time>2020-08-05T08:55:04Z</time>
      </trkpt>
      <trkpt lat="45.07506" lon="6.04871">
        <ele>1159.8</ele>
        <time>2020-08-05T08:55:07Z</time>
      </trkpt>
      <trkpt lat="45.07507" lon="6.04867">
        <ele>1160.1</ele>
        <time>2020-08-05T08:55:08Z</time>
      </trkpt>
      <trkpt lat="45.07508" lon="6.04863">
        <ele>1160.4</ele>
        <time>2020-08-05T08:55:10Z</time>
      </trkpt>
      <trkpt lat="45.07509" lon="6.04853">
        <ele>1161.1</ele>
        <time>2020-08-05T08:55:12Z</time>
      </trkpt>
      <trkpt lat="45.07508" lon="6.04843">
        <ele>1162.4</ele>
        <time>2020-08-05T08:55:15Z</time>
      </trkpt>
      <trkpt lat="45.07506" lon="6.04838">
        <ele>1162.1</ele>
        <time>2020-08-05T08:55:17Z</time>
      </trkpt>
      <trkpt lat="45.07505" lon="6.04834">
        <ele>1163</ele>
        <time>2020-08-05T08:55:18Z</time>
      </trkpt>
      <trkpt lat="45.07503" lon="6.04827">
        <ele>1162.9</ele>
        <time>2020-08-05T08:55:20Z</time>
      </trkpt>
      <trkpt lat="45.07502" lon="6.04824">
        <ele>1163.5</ele>
        <time>2020-08-05T08:55:21Z</time>
      </trkpt>
      <trkpt lat="45.075" lon="6.04821">
        <ele>1163</ele>
        <time>2020-08-05T08:55:22Z</time>
      </trkpt>
      <trkpt lat="45.07499" lon="6.04817">
        <ele>1164</ele>
        <time>2020-08-05T08:55:23Z</time>
      </trkpt>
      <trkpt lat="45.07498" lon="6.04813">
        <ele>1163.5</ele>
        <time>2020-08-05T08:55:24Z</time>
      </trkpt>
      <trkpt lat="45.07496" lon="6.04809">
        <ele>1164.5</ele>
        <time>2020-08-05T08:55:25Z</time>
      </trkpt>
      <trkpt lat="45.07495" lon="6.04803">
        <ele>1164.1</ele>
        <time>2020-08-05T08:55:27Z</time>
      </trkpt>
      <trkpt lat="45.07491" lon="6.04792">
        <ele>1164.7</ele>
        <time>2020-08-05T08:55:29Z</time>
      </trkpt>
      <trkpt lat="45.0749" lon="6.04788">
        <ele>1165.7</ele>
        <time>2020-08-05T08:55:31Z</time>
      </trkpt>
      <trkpt lat="45.07488" lon="6.04785">
        <ele>1165.2</ele>
        <time>2020-08-05T08:55:33Z</time>
      </trkpt>
      <trkpt lat="45.07485" lon="6.04779">
        <ele>1165.4</ele>
        <time>2020-08-05T08:55:34Z</time>
      </trkpt>
      <trkpt lat="45.07483" lon="6.04773">
        <ele>1166.3</ele>
        <time>2020-08-05T08:55:35Z</time>
      </trkpt>
      <trkpt lat="45.07483" lon="6.04769">
        <ele>1167.1</ele>
        <time>2020-08-05T08:55:36Z</time>
      </trkpt>
      <trkpt lat="45.07484" lon="6.04765">
        <ele>1167.9</ele>
        <time>2020-08-05T08:55:37Z</time>
      </trkpt>
      <trkpt lat="45.07488" lon="6.04763">
        <ele>1168.1</ele>
        <time>2020-08-05T08:55:38Z</time>
      </trkpt>
      <trkpt lat="45.07495" lon="6.04774">
        <ele>1168.6</ele>
        <time>2020-08-05T08:55:41Z</time>
      </trkpt>
      <trkpt lat="45.07496" lon="6.04784">
        <ele>1168.9</ele>
        <time>2020-08-05T08:55:44Z</time>
      </trkpt>
      <trkpt lat="45.07498" lon="6.04793">
        <ele>1169.2</ele>
        <time>2020-08-05T08:55:45Z</time>
      </trkpt>
      <trkpt lat="45.07499" lon="6.048">
        <ele>1169.4</ele>
        <time>2020-08-05T08:55:47Z</time>
      </trkpt>
      <trkpt lat="45.075" lon="6.04809">
        <ele>1169.8</ele>
        <time>2020-08-05T08:55:48Z</time>
      </trkpt>
      <trkpt lat="45.07503" lon="6.04815">
        <ele>1170</ele>
        <time>2020-08-05T08:55:50Z</time>
      </trkpt>
      <trkpt lat="45.07504" lon="6.0482">
        <ele>1170.2</ele>
        <time>2020-08-05T08:55:51Z</time>
      </trkpt>
      <trkpt lat="45.07506" lon="6.04825">
        <ele>1170.4</ele>
        <time>2020-08-05T08:55:52Z</time>
      </trkpt>
      <trkpt lat="45.0751" lon="6.04832">
        <ele>1170.9</ele>
        <time>2020-08-05T08:55:53Z</time>
      </trkpt>
      <trkpt lat="45.07513" lon="6.04838">
        <ele>1171.2</ele>
        <time>2020-08-05T08:55:54Z</time>
      </trkpt>
      <trkpt lat="45.07515" lon="6.04844">
        <ele>1171.6</ele>
        <time>2020-08-05T08:55:55Z</time>
      </trkpt>
      <trkpt lat="45.07519" lon="6.04852">
        <ele>1172.2</ele>
        <time>2020-08-05T08:55:58Z</time>
      </trkpt>
      <trkpt lat="45.0752" lon="6.04856">
        <ele>1172.4</ele>
        <time>2020-08-05T08:55:59Z</time>
      </trkpt>
      <trkpt lat="45.07522" lon="6.04861">
        <ele>1172.8</ele>
        <time>2020-08-05T08:56:00Z</time>
      </trkpt>
      <trkpt lat="45.07523" lon="6.04866">
        <ele>1173.2</ele>
        <time>2020-08-05T08:56:02Z</time>
      </trkpt>
      <trkpt lat="45.07526" lon="6.04876">
        <ele>1174.1</ele>
        <time>2020-08-05T08:56:04Z</time>
      </trkpt>
      <trkpt lat="45.07526" lon="6.04886">
        <ele>1174.8</ele>
        <time>2020-08-05T08:56:07Z</time>
      </trkpt>
      <trkpt lat="45.07526" lon="6.0489">
        <ele>1175.1</ele>
        <time>2020-08-05T08:56:08Z</time>
      </trkpt>
      <trkpt lat="45.07527" lon="6.04897">
        <ele>1175.6</ele>
        <time>2020-08-05T08:56:10Z</time>
      </trkpt>
      <trkpt lat="45.07527" lon="6.04906">
        <ele>1176.2</ele>
        <time>2020-08-05T08:56:12Z</time>
      </trkpt>
      <trkpt lat="45.07527" lon="6.04911">
        <ele>1176.5</ele>
        <time>2020-08-05T08:56:14Z</time>
      </trkpt>
      <trkpt lat="45.07527" lon="6.04924">
        <ele>1177.4</ele>
        <time>2020-08-05T08:56:16Z</time>
      </trkpt>
      <trkpt lat="45.07527" lon="6.0493">
        <ele>1177.8</ele>
        <time>2020-08-05T08:56:18Z</time>
      </trkpt>
      <trkpt lat="45.07527" lon="6.04934">
        <ele>1178.1</ele>
        <time>2020-08-05T08:56:20Z</time>
      </trkpt>
      <trkpt lat="45.07527" lon="6.04941">
        <ele>1178.6</ele>
        <time>2020-08-05T08:56:21Z</time>
      </trkpt>
      <trkpt lat="45.07527" lon="6.04945">
        <ele>1178.8</ele>
        <time>2020-08-05T08:56:22Z</time>
      </trkpt>
      <trkpt lat="45.07526" lon="6.04949">
        <ele>1179.1</ele>
        <time>2020-08-05T08:56:23Z</time>
      </trkpt>
      <trkpt lat="45.07526" lon="6.04954">
        <ele>1179.5</ele>
        <time>2020-08-05T08:56:24Z</time>
      </trkpt>
      <trkpt lat="45.07526" lon="6.04958">
        <ele>1179.8</ele>
        <time>2020-08-05T08:56:25Z</time>
      </trkpt>
      <trkpt lat="45.07526" lon="6.04968">
        <ele>1180.6</ele>
        <time>2020-08-05T08:56:28Z</time>
      </trkpt>
      <trkpt lat="45.07525" lon="6.04972">
        <ele>1180.9</ele>
        <time>2020-08-05T08:56:29Z</time>
      </trkpt>
      <trkpt lat="45.07525" lon="6.04976">
        <ele>1181.2</ele>
        <time>2020-08-05T08:56:31Z</time>
      </trkpt>
      <trkpt lat="45.07523" lon="6.04981">
        <ele>1181.6</ele>
        <time>2020-08-05T08:56:32Z</time>
      </trkpt>
      <trkpt lat="45.07523" lon="6.04983">
        <ele>1181.8</ele>
        <time>2020-08-05T08:56:33Z</time>
      </trkpt>
      <trkpt lat="45.07521" lon="6.04988">
        <ele>1182.2</ele>
        <time>2020-08-05T08:56:34Z</time>
      </trkpt>
      <trkpt lat="45.0752" lon="6.0499">
        <ele>1182.4</ele>
        <time>2020-08-05T08:56:35Z</time>
      </trkpt>
      <trkpt lat="45.07517" lon="6.04992">
        <ele>1182.7</ele>
        <time>2020-08-05T08:56:37Z</time>
      </trkpt>
      <trkpt lat="45.07515" lon="6.04995">
        <ele>1183</ele>
        <time>2020-08-05T08:56:38Z</time>
      </trkpt>
      <trkpt lat="45.07512" lon="6.04999">
        <ele>1183.4</ele>
        <time>2020-08-05T08:56:39Z</time>
      </trkpt>
      <trkpt lat="45.07511" lon="6.05">
        <ele>1183.5</ele>
        <time>2020-08-05T08:56:40Z</time>
      </trkpt>
      <trkpt lat="45.07509" lon="6.05002">
        <ele>1183.8</ele>
        <time>2020-08-05T08:56:41Z</time>
      </trkpt>
      <trkpt lat="45.07504" lon="6.05004">
        <ele>1184.3</ele>
        <time>2020-08-05T08:56:42Z</time>
      </trkpt>
      <trkpt lat="45.07501" lon="6.05006">
        <ele>1184.6</ele>
        <time>2020-08-05T08:56:44Z</time>
      </trkpt>
      <trkpt lat="45.07492" lon="6.0501">
        <ele>1185.4</ele>
        <time>2020-08-05T08:56:46Z</time>
      </trkpt>
      <trkpt lat="45.07488" lon="6.05011">
        <ele>1185.7</ele>
        <time>2020-08-05T08:56:47Z</time>
      </trkpt>
      <trkpt lat="45.07485" lon="6.05013">
        <ele>1186</ele>
        <time>2020-08-05T08:56:49Z</time>
      </trkpt>
      <trkpt lat="45.0748" lon="6.05015">
        <ele>1186.4</ele>
        <time>2020-08-05T08:56:51Z</time>
      </trkpt>
      <trkpt lat="45.07473" lon="6.05017">
        <ele>1187</ele>
        <time>2020-08-05T08:56:53Z</time>
      </trkpt>
      <trkpt lat="45.0747" lon="6.05019">
        <ele>1187.3</ele>
        <time>2020-08-05T08:56:54Z</time>
      </trkpt>
      <trkpt lat="45.07467" lon="6.0502">
        <ele>1187.5</ele>
        <time>2020-08-05T08:56:55Z</time>
      </trkpt>
      <trkpt lat="45.07464" lon="6.05022">
        <ele>1187.8</ele>
        <time>2020-08-05T08:56:56Z</time>
      </trkpt>
      <trkpt lat="45.07461" lon="6.05023">
        <ele>1188.1</ele>
        <time>2020-08-05T08:56:58Z</time>
      </trkpt>
      <trkpt lat="45.07456" lon="6.05024">
        <ele>1188.5</ele>
        <time>2020-08-05T08:56:59Z</time>
      </trkpt>
      <trkpt lat="45.07455" lon="6.05025">
        <ele>1188.6</ele>
        <time>2020-08-05T08:57:00Z</time>
      </trkpt>
      <trkpt lat="45.07452" lon="6.05027">
        <ele>1188.9</ele>
        <time>2020-08-05T08:57:01Z</time>
      </trkpt>
      <trkpt lat="45.07448" lon="6.05029">
        <ele>1189.2</ele>
        <time>2020-08-05T08:57:02Z</time>
      </trkpt>
      <trkpt lat="45.07445" lon="6.05032">
        <ele>1189.5</ele>
        <time>2020-08-05T08:57:04Z</time>
      </trkpt>
      <trkpt lat="45.07443" lon="6.05036">
        <ele>1189.9</ele>
        <time>2020-08-05T08:57:06Z</time>
      </trkpt>
      <trkpt lat="45.07439" lon="6.05042">
        <ele>1190.4</ele>
        <time>2020-08-05T08:57:07Z</time>
      </trkpt>
      <trkpt lat="45.07437" lon="6.05048">
        <ele>1190.8</ele>
        <time>2020-08-05T08:57:09Z</time>
      </trkpt>
      <trkpt lat="45.07435" lon="6.05053">
        <ele>1191.1</ele>
        <time>2020-08-05T08:57:10Z</time>
      </trkpt>
      <trkpt lat="45.07434" lon="6.05058">
        <ele>1191.5</ele>
        <time>2020-08-05T08:57:12Z</time>
      </trkpt>
      <trkpt lat="45.07431" lon="6.05065">
        <ele>1191.9</ele>
        <time>2020-08-05T08:57:14Z</time>
      </trkpt>
      <trkpt lat="45.07428" lon="6.05071">
        <ele>1192.4</ele>
        <time>2020-08-05T08:57:15Z</time>
      </trkpt>
      <trkpt lat="45.07424" lon="6.05078">
        <ele>1193</ele>
        <time>2020-08-05T08:57:18Z</time>
      </trkpt>
      <trkpt lat="45.07422" lon="6.05081">
        <ele>1193.3</ele>
        <time>2020-08-05T08:57:19Z</time>
      </trkpt>
      <trkpt lat="45.0742" lon="6.05084">
        <ele>1193.6</ele>
        <time>2020-08-05T08:57:20Z</time>
      </trkpt>
      <trkpt lat="45.07417" lon="6.05088">
        <ele>1194</ele>
        <time>2020-08-05T08:57:22Z</time>
      </trkpt>
      <trkpt lat="45.07414" lon="6.05091">
        <ele>1194.3</ele>
        <time>2020-08-05T08:57:23Z</time>
      </trkpt>
      <trkpt lat="45.07409" lon="6.05098">
        <ele>1194.9</ele>
        <time>2020-08-05T08:57:25Z</time>
      </trkpt>
      <trkpt lat="45.07407" lon="6.05101">
        <ele>1195.2</ele>
        <time>2020-08-05T08:57:26Z</time>
      </trkpt>
      <trkpt lat="45.07405" lon="6.05104">
        <ele>1195.5</ele>
        <time>2020-08-05T08:57:27Z</time>
      </trkpt>
      <trkpt lat="45.07402" lon="6.05108">
        <ele>1195.8</ele>
        <time>2020-08-05T08:57:29Z</time>
      </trkpt>
      <trkpt lat="45.07397" lon="6.05116">
        <ele>1196.5</ele>
        <time>2020-08-05T08:57:31Z</time>
      </trkpt>
      <trkpt lat="45.07394" lon="6.0512">
        <ele>1196.8</ele>
        <time>2020-08-05T08:57:32Z</time>
      </trkpt>
      <trkpt lat="45.07392" lon="6.05124">
        <ele>1197.2</ele>
        <time>2020-08-05T08:57:34Z</time>
      </trkpt>
      <trkpt lat="45.0739" lon="6.05127">
        <ele>1197.4</ele>
        <time>2020-08-05T08:57:36Z</time>
      </trkpt>
      <trkpt lat="45.07386" lon="6.05131">
        <ele>1197.8</ele>
        <time>2020-08-05T08:57:37Z</time>
      </trkpt>
      <trkpt lat="45.07382" lon="6.05137">
        <ele>1198.3</ele>
        <time>2020-08-05T08:57:39Z</time>
      </trkpt>
      <trkpt lat="45.07378" lon="6.05142">
        <ele>1198.7</ele>
        <time>2020-08-05T08:57:40Z</time>
      </trkpt>
      <trkpt lat="45.07375" lon="6.05146">
        <ele>1199</ele>
        <time>2020-08-05T08:57:42Z</time>
      </trkpt>
      <trkpt lat="45.07372" lon="6.05151">
        <ele>1199.4</ele>
        <time>2020-08-05T08:57:43Z</time>
      </trkpt>
      <trkpt lat="45.07368" lon="6.05155">
        <ele>1199.8</ele>
        <time>2020-08-05T08:57:44Z</time>
      </trkpt>
      <trkpt lat="45.07361" lon="6.05165">
        <ele>1200.6</ele>
        <time>2020-08-05T08:57:47Z</time>
      </trkpt>
      <trkpt lat="45.07354" lon="6.05174">
        <ele>1201.3</ele>
        <time>2020-08-05T08:57:50Z</time>
      </trkpt>
      <trkpt lat="45.07344" lon="6.05184">
        <ele>1202.2</ele>
        <time>2020-08-05T08:57:53Z</time>
      </trkpt>
      <trkpt lat="45.0734" lon="6.05187">
        <ele>1202.5</ele>
        <time>2020-08-05T08:57:55Z</time>
      </trkpt>
      <trkpt lat="45.07337" lon="6.05191">
        <ele>1202.7</ele>
        <time>2020-08-05T08:57:57Z</time>
      </trkpt>
      <trkpt lat="45.07327" lon="6.05201">
        <ele>1203.4</ele>
        <time>2020-08-05T08:57:59Z</time>
      </trkpt>
      <trkpt lat="45.07325" lon="6.05206">
        <ele>1203.6</ele>
        <time>2020-08-05T08:58:01Z</time>
      </trkpt>
      <trkpt lat="45.07325" lon="6.05211">
        <ele>1203.8</ele>
        <time>2020-08-05T08:58:03Z</time>
      </trkpt>
      <trkpt lat="45.0733" lon="6.05216">
        <ele>1203.9</ele>
        <time>2020-08-05T08:58:04Z</time>
      </trkpt>
      <trkpt lat="45.07344" lon="6.0521">
        <ele>1204.3</ele>
        <time>2020-08-05T08:58:06Z</time>
      </trkpt>
      <trkpt lat="45.07347" lon="6.05205">
        <ele>1204.4</ele>
        <time>2020-08-05T08:58:07Z</time>
      </trkpt>
      <trkpt lat="45.07349" lon="6.05206">
        <ele>1204.4</ele>
        <time>2020-08-05T08:58:10Z</time>
      </trkpt>
      <trkpt lat="45.07355" lon="6.05195">
        <ele>1204.8</ele>
        <time>2020-08-05T08:58:12Z</time>
      </trkpt>
      <trkpt lat="45.07359" lon="6.0519">
        <ele>1205</ele>
        <time>2020-08-05T08:58:13Z</time>
      </trkpt>
      <trkpt lat="45.07369" lon="6.05177">
        <ele>1205.8</ele>
        <time>2020-08-05T08:58:15Z</time>
      </trkpt>
      <trkpt lat="45.07372" lon="6.05173">
        <ele>1206.1</ele>
        <time>2020-08-05T08:58:16Z</time>
      </trkpt>
      <trkpt lat="45.07376" lon="6.05169">
        <ele>1206.4</ele>
        <time>2020-08-05T08:58:18Z</time>
      </trkpt>
      <trkpt lat="45.07382" lon="6.05163">
        <ele>1207</ele>
        <time>2020-08-05T08:58:20Z</time>
      </trkpt>
      <trkpt lat="45.07386" lon="6.0516">
        <ele>1207.3</ele>
        <time>2020-08-05T08:58:21Z</time>
      </trkpt>
      <trkpt lat="45.07394" lon="6.05153">
        <ele>1208</ele>
        <time>2020-08-05T08:58:23Z</time>
      </trkpt>
      <trkpt lat="45.07398" lon="6.0515">
        <ele>1208.4</ele>
        <time>2020-08-05T08:58:25Z</time>
      </trkpt>
      <trkpt lat="45.07406" lon="6.05143">
        <ele>1209.1</ele>
        <time>2020-08-05T08:58:27Z</time>
      </trkpt>
      <trkpt lat="45.07409" lon="6.0514">
        <ele>1209.5</ele>
        <time>2020-08-05T08:58:28Z</time>
      </trkpt>
      <trkpt lat="45.07417" lon="6.05132">
        <ele>1210.3</ele>
        <time>2020-08-05T08:58:31Z</time>
      </trkpt>
      <trkpt lat="45.0742" lon="6.05129">
        <ele>1210.6</ele>
        <time>2020-08-05T08:58:33Z</time>
      </trkpt>
      <trkpt lat="45.07426" lon="6.05124">
        <ele>1211.2</ele>
        <time>2020-08-05T08:58:35Z</time>
      </trkpt>
      <trkpt lat="45.0743" lon="6.0512">
        <ele>1211.6</ele>
        <time>2020-08-05T08:58:36Z</time>
      </trkpt>
      <trkpt lat="45.07433" lon="6.05118">
        <ele>1211.9</ele>
        <time>2020-08-05T08:58:38Z</time>
      </trkpt>
      <trkpt lat="45.0744" lon="6.05109">
        <ele>1212.7</ele>
        <time>2020-08-05T08:58:40Z</time>
      </trkpt>
      <trkpt lat="45.07444" lon="6.05106">
        <ele>1213</ele>
        <time>2020-08-05T08:58:42Z</time>
      </trkpt>
      <trkpt lat="45.07447" lon="6.05104">
        <ele>1213.4</ele>
        <time>2020-08-05T08:58:44Z</time>
      </trkpt>
      <trkpt lat="45.07454" lon="6.05099">
        <ele>1214</ele>
        <time>2020-08-05T08:58:45Z</time>
      </trkpt>
      <trkpt lat="45.07458" lon="6.05096">
        <ele>1214.5</ele>
        <time>2020-08-05T08:58:48Z</time>
      </trkpt>
      <trkpt lat="45.07462" lon="6.05093">
        <ele>1214.9</ele>
        <time>2020-08-05T08:58:49Z</time>
      </trkpt>
      <trkpt lat="45.07471" lon="6.0509">
        <ele>1215.8</ele>
        <time>2020-08-05T08:58:51Z</time>
      </trkpt>
      <trkpt lat="45.07475" lon="6.05088">
        <ele>1216.2</ele>
        <time>2020-08-05T08:58:54Z</time>
      </trkpt>
      <trkpt lat="45.0748" lon="6.05084">
        <ele>1216.8</ele>
        <time>2020-08-05T08:58:56Z</time>
      </trkpt>
      <trkpt lat="45.07483" lon="6.05083">
        <ele>1217.1</ele>
        <time>2020-08-05T08:58:57Z</time>
      </trkpt>
      <trkpt lat="45.07489" lon="6.05081">
        <ele>1217.7</ele>
        <time>2020-08-05T08:58:58Z</time>
      </trkpt>
      <trkpt lat="45.07492" lon="6.0508">
        <ele>1218</ele>
        <time>2020-08-05T08:58:59Z</time>
      </trkpt>
      <trkpt lat="45.07496" lon="6.05079">
        <ele>1218.4</ele>
        <time>2020-08-05T08:59:01Z</time>
      </trkpt>
      <trkpt lat="45.075" lon="6.05078">
        <ele>1218.8</ele>
        <time>2020-08-05T08:59:03Z</time>
      </trkpt>
      <trkpt lat="45.0751" lon="6.05076">
        <ele>1219.7</ele>
        <time>2020-08-05T08:59:05Z</time>
      </trkpt>
      <trkpt lat="45.07519" lon="6.05074">
        <ele>1220.5</ele>
        <time>2020-08-05T08:59:08Z</time>
      </trkpt>
      <trkpt lat="45.07522" lon="6.05073">
        <ele>1220.9</ele>
        <time>2020-08-05T08:59:10Z</time>
      </trkpt>
      <trkpt lat="45.0753" lon="6.0507">
        <ele>1221.6</ele>
        <time>2020-08-05T08:59:12Z</time>
      </trkpt>
      <trkpt lat="45.07534" lon="6.0507">
        <ele>1221.9</ele>
        <time>2020-08-05T08:59:14Z</time>
      </trkpt>
      <trkpt lat="45.07537" lon="6.05069">
        <ele>1222.2</ele>
        <time>2020-08-05T08:59:16Z</time>
      </trkpt>
      <trkpt lat="45.07539" lon="6.05067">
        <ele>1222.4</ele>
        <time>2020-08-05T08:59:17Z</time>
      </trkpt>
      <trkpt lat="45.07544" lon="6.05065">
        <ele>1222.9</ele>
        <time>2020-08-05T08:59:18Z</time>
      </trkpt>
      <trkpt lat="45.07548" lon="6.05061">
        <ele>1223.3</ele>
        <time>2020-08-05T08:59:19Z</time>
      </trkpt>
      <trkpt lat="45.0755" lon="6.05059">
        <ele>1223.6</ele>
        <time>2020-08-05T08:59:21Z</time>
      </trkpt>
      <trkpt lat="45.07553" lon="6.05056">
        <ele>1223.9</ele>
        <time>2020-08-05T08:59:22Z</time>
      </trkpt>
      <trkpt lat="45.07558" lon="6.05052">
        <ele>1224.4</ele>
        <time>2020-08-05T08:59:24Z</time>
      </trkpt>
      <trkpt lat="45.07561" lon="6.05049">
        <ele>1224.8</ele>
        <time>2020-08-05T08:59:25Z</time>
      </trkpt>
      <trkpt lat="45.07566" lon="6.05046">
        <ele>1225.3</ele>
        <time>2020-08-05T08:59:28Z</time>
      </trkpt>
      <trkpt lat="45.07571" lon="6.05042">
        <ele>1225.8</ele>
        <time>2020-08-05T08:59:29Z</time>
      </trkpt>
      <trkpt lat="45.07573" lon="6.05039">
        <ele>1226.2</ele>
        <time>2020-08-05T08:59:30Z</time>
      </trkpt>
      <trkpt lat="45.07579" lon="6.05032">
        <ele>1226.9</ele>
        <time>2020-08-05T08:59:32Z</time>
      </trkpt>
      <trkpt lat="45.07582" lon="6.05029">
        <ele>1227.2</ele>
        <time>2020-08-05T08:59:34Z</time>
      </trkpt>
      <trkpt lat="45.07587" lon="6.05023">
        <ele>1227.8</ele>
        <time>2020-08-05T08:59:36Z</time>
      </trkpt>
      <trkpt lat="45.07589" lon="6.0502">
        <ele>1228.1</ele>
        <time>2020-08-05T08:59:37Z</time>
      </trkpt>
      <trkpt lat="45.07592" lon="6.05016">
        <ele>1228.4</ele>
        <time>2020-08-05T08:59:38Z</time>
      </trkpt>
      <trkpt lat="45.07595" lon="6.05013">
        <ele>1228.7</ele>
        <time>2020-08-05T08:59:40Z</time>
      </trkpt>
      <trkpt lat="45.07599" lon="6.05004">
        <ele>1229.3</ele>
        <time>2020-08-05T08:59:42Z</time>
      </trkpt>
      <trkpt lat="45.07601" lon="6.05">
        <ele>1229.5</ele>
        <time>2020-08-05T08:59:44Z</time>
      </trkpt>
      <trkpt lat="45.07602" lon="6.04996">
        <ele>1229.8</ele>
        <time>2020-08-05T08:59:46Z</time>
      </trkpt>
      <trkpt lat="45.07603" lon="6.04987">
        <ele>1230.3</ele>
        <time>2020-08-05T08:59:48Z</time>
      </trkpt>
      <trkpt lat="45.07604" lon="6.04982">
        <ele>1230.6</ele>
        <time>2020-08-05T08:59:49Z</time>
      </trkpt>
      <trkpt lat="45.07606" lon="6.04973">
        <ele>1231.1</ele>
        <time>2020-08-05T08:59:50Z</time>
      </trkpt>
      <trkpt lat="45.07608" lon="6.04966">
        <ele>1231.5</ele>
        <time>2020-08-05T08:59:51Z</time>
      </trkpt>
      <trkpt lat="45.07609" lon="6.0496">
        <ele>1231.9</ele>
        <time>2020-08-05T08:59:53Z</time>
      </trkpt>
      <trkpt lat="45.07611" lon="6.04955">
        <ele>1232.3</ele>
        <time>2020-08-05T08:59:54Z</time>
      </trkpt>
      <trkpt lat="45.07613" lon="6.04949">
        <ele>1232.6</ele>
        <time>2020-08-05T08:59:56Z</time>
      </trkpt>
      <trkpt lat="45.07615" lon="6.04944">
        <ele>1233</ele>
        <time>2020-08-05T08:59:57Z</time>
      </trkpt>
      <trkpt lat="45.07617" lon="6.0494">
        <ele>1233.3</ele>
        <time>2020-08-05T08:59:58Z</time>
      </trkpt>
      <trkpt lat="45.07619" lon="6.04936">
        <ele>1233.6</ele>
        <time>2020-08-05T09:00:00Z</time>
      </trkpt>
      <trkpt lat="45.0762" lon="6.04932">
        <ele>1233.9</ele>
        <time>2020-08-05T09:00:01Z</time>
      </trkpt>
      <trkpt lat="45.07625" lon="6.04922">
        <ele>1234.7</ele>
        <time>2020-08-05T09:00:03Z</time>
      </trkpt>
      <trkpt lat="45.07627" lon="6.04919">
        <ele>1235</ele>
        <time>2020-08-05T09:00:05Z</time>
      </trkpt>
      <trkpt lat="45.07632" lon="6.04909">
        <ele>1235.8</ele>
        <time>2020-08-05T09:00:07Z</time>
      </trkpt>
      <trkpt lat="45.07636" lon="6.04901">
        <ele>1236.5</ele>
        <time>2020-08-05T09:00:10Z</time>
      </trkpt>
      <trkpt lat="45.07637" lon="6.04898">
        <ele>1236.7</ele>
        <time>2020-08-05T09:00:11Z</time>
      </trkpt>
      <trkpt lat="45.07638" lon="6.04894">
        <ele>1237</ele>
        <time>2020-08-05T09:00:12Z</time>
      </trkpt>
      <trkpt lat="45.0764" lon="6.0489">
        <ele>1237.2</ele>
        <time>2020-08-05T09:00:14Z</time>
      </trkpt>
      <trkpt lat="45.07641" lon="6.04884">
        <ele>1237.6</ele>
        <time>2020-08-05T09:00:16Z</time>
      </trkpt>
      <trkpt lat="45.07642" lon="6.04874">
        <ele>1238.2</ele>
        <time>2020-08-05T09:00:17Z</time>
      </trkpt>
      <trkpt lat="45.07642" lon="6.0487">
        <ele>1238.5</ele>
        <time>2020-08-05T09:00:18Z</time>
      </trkpt>
      <trkpt lat="45.07642" lon="6.04865">
        <ele>1238.7</ele>
        <time>2020-08-05T09:00:20Z</time>
      </trkpt>
      <trkpt lat="45.07642" lon="6.04862">
        <ele>1238.9</ele>
        <time>2020-08-05T09:00:21Z</time>
      </trkpt>
      <trkpt lat="45.07641" lon="6.04853">
        <ele>1239.5</ele>
        <time>2020-08-05T09:00:23Z</time>
      </trkpt>
      <trkpt lat="45.07639" lon="6.0484">
        <ele>1240.3</ele>
        <time>2020-08-05T09:00:26Z</time>
      </trkpt>
      <trkpt lat="45.07637" lon="6.0483">
        <ele>1240.9</ele>
        <time>2020-08-05T09:00:29Z</time>
      </trkpt>
      <trkpt lat="45.07636" lon="6.04826">
        <ele>1241.2</ele>
        <time>2020-08-05T09:00:30Z</time>
      </trkpt>
      <trkpt lat="45.07635" lon="6.04821">
        <ele>1241.6</ele>
        <time>2020-08-05T09:00:31Z</time>
      </trkpt>
      <trkpt lat="45.07634" lon="6.04811">
        <ele>1242.2</ele>
        <time>2020-08-05T09:00:34Z</time>
      </trkpt>
      <trkpt lat="45.07633" lon="6.04807">
        <ele>1242.5</ele>
        <time>2020-08-05T09:00:35Z</time>
      </trkpt>
      <trkpt lat="45.07633" lon="6.04802">
        <ele>1242.9</ele>
        <time>2020-08-05T09:00:36Z</time>
      </trkpt>
      <trkpt lat="45.07633" lon="6.04801">
        <ele>1243</ele>
        <time>2020-08-05T09:00:37Z</time>
      </trkpt>
      <trkpt lat="45.07634" lon="6.04795">
        <ele>1243.4</ele>
        <time>2020-08-05T09:00:38Z</time>
      </trkpt>
      <trkpt lat="45.07635" lon="6.04794">
        <ele>1243.5</ele>
        <time>2020-08-05T09:00:39Z</time>
      </trkpt>
      <trkpt lat="45.07636" lon="6.04789">
        <ele>1243.9</ele>
        <time>2020-08-05T09:00:40Z</time>
      </trkpt>
      <trkpt lat="45.07637" lon="6.04787">
        <ele>1244.1</ele>
        <time>2020-08-05T09:00:41Z</time>
      </trkpt>
      <trkpt lat="45.07638" lon="6.04784">
        <ele>1244.3</ele>
        <time>2020-08-05T09:00:42Z</time>
      </trkpt>
      <trkpt lat="45.0764" lon="6.04779">
        <ele>1244.8</ele>
        <time>2020-08-05T09:00:45Z</time>
      </trkpt>
      <trkpt lat="45.07643" lon="6.0477">
        <ele>1245.5</ele>
        <time>2020-08-05T09:00:46Z</time>
      </trkpt>
      <trkpt lat="45.07645" lon="6.04766">
        <ele>1245.8</ele>
        <time>2020-08-05T09:00:47Z</time>
      </trkpt>
      <trkpt lat="45.07646" lon="6.04761">
        <ele>1246.1</ele>
        <time>2020-08-05T09:00:49Z</time>
      </trkpt>
      <trkpt lat="45.07649" lon="6.04755">
        <ele>1246.5</ele>
        <time>2020-08-05T09:00:51Z</time>
      </trkpt>
      <trkpt lat="45.07653" lon="6.04744">
        <ele>1247.2</ele>
        <time>2020-08-05T09:00:53Z</time>
      </trkpt>
      <trkpt lat="45.07655" lon="6.04739">
        <ele>1247.5</ele>
        <time>2020-08-05T09:00:55Z</time>
      </trkpt>
      <trkpt lat="45.07657" lon="6.04734">
        <ele>1247.8</ele>
        <time>2020-08-05T09:00:57Z</time>
      </trkpt>
      <trkpt lat="45.07661" lon="6.04731">
        <ele>1248.2</ele>
        <time>2020-08-05T09:00:58Z</time>
      </trkpt>
      <trkpt lat="45.07665" lon="6.04734">
        <ele>1248.6</ele>
        <time>2020-08-05T09:01:00Z</time>
      </trkpt>
      <trkpt lat="45.07667" lon="6.04739">
        <ele>1248.8</ele>
        <time>2020-08-05T09:01:01Z</time>
      </trkpt>
      <trkpt lat="45.07667" lon="6.04747">
        <ele>1249.1</ele>
        <time>2020-08-05T09:01:02Z</time>
      </trkpt>
      <trkpt lat="45.07665" lon="6.04753">
        <ele>1249.4</ele>
        <time>2020-08-05T09:01:04Z</time>
      </trkpt>
      <trkpt lat="45.07663" lon="6.04764">
        <ele>1249.9</ele>
        <time>2020-08-05T09:01:05Z</time>
      </trkpt>
      <trkpt lat="45.0766" lon="6.0477">
        <ele>1250.2</ele>
        <time>2020-08-05T09:01:08Z</time>
      </trkpt>
      <trkpt lat="45.07656" lon="6.04777">
        <ele>1250.6</ele>
        <time>2020-08-05T09:01:09Z</time>
      </trkpt>
      <trkpt lat="45.07654" lon="6.04782">
        <ele>1250.9</ele>
        <time>2020-08-05T09:01:10Z</time>
      </trkpt>
      <trkpt lat="45.07652" lon="6.04788">
        <ele>1251.2</ele>
        <time>2020-08-05T09:01:12Z</time>
      </trkpt>
      <trkpt lat="45.0765" lon="6.04793">
        <ele>1251.5</ele>
        <time>2020-08-05T09:01:13Z</time>
      </trkpt>
      <trkpt lat="45.07649" lon="6.04798">
        <ele>1251.8</ele>
        <time>2020-08-05T09:01:15Z</time>
      </trkpt>
      <trkpt lat="45.07648" lon="6.04802">
        <ele>1252.1</ele>
        <time>2020-08-05T09:01:16Z</time>
      </trkpt>
      <trkpt lat="45.07648" lon="6.04807">
        <ele>1252.5</ele>
        <time>2020-08-05T09:01:18Z</time>
      </trkpt>
      <trkpt lat="45.07648" lon="6.04812">
        <ele>1252.7</ele>
        <time>2020-08-05T09:01:20Z</time>
      </trkpt>
      <trkpt lat="45.07649" lon="6.04818">
        <ele>1253.2</ele>
        <time>2020-08-05T09:01:21Z</time>
      </trkpt>
      <trkpt lat="45.07651" lon="6.04823">
        <ele>1253.5</ele>
        <time>2020-08-05T09:01:22Z</time>
      </trkpt>
      <trkpt lat="45.07652" lon="6.04827">
        <ele>1253.8</ele>
        <time>2020-08-05T09:01:24Z</time>
      </trkpt>
      <trkpt lat="45.07655" lon="6.04832">
        <ele>1254.3</ele>
        <time>2020-08-05T09:01:26Z</time>
      </trkpt>
      <trkpt lat="45.0766" lon="6.04842">
        <ele>1255.1</ele>
        <time>2020-08-05T09:01:29Z</time>
      </trkpt>
      <trkpt lat="45.07662" lon="6.04845">
        <ele>1255.4</ele>
        <time>2020-08-05T09:01:31Z</time>
      </trkpt>
      <trkpt lat="45.07667" lon="6.04853">
        <ele>1256.1</ele>
        <time>2020-08-05T09:01:33Z</time>
      </trkpt>
      <trkpt lat="45.07668" lon="6.04856">
        <ele>1256.4</ele>
        <time>2020-08-05T09:01:35Z</time>
      </trkpt>
      <trkpt lat="45.07671" lon="6.04863">
        <ele>1256.9</ele>
        <time>2020-08-05T09:01:37Z</time>
      </trkpt>
      <trkpt lat="45.07672" lon="6.04867">
        <ele>1257.2</ele>
        <time>2020-08-05T09:01:38Z</time>
      </trkpt>
      <trkpt lat="45.07673" lon="6.04871">
        <ele>1257.5</ele>
        <time>2020-08-05T09:01:40Z</time>
      </trkpt>
      <trkpt lat="45.07674" lon="6.0488">
        <ele>1258</ele>
        <time>2020-08-05T09:01:42Z</time>
      </trkpt>
      <trkpt lat="45.07675" lon="6.04884">
        <ele>1258.3</ele>
        <time>2020-08-05T09:01:43Z</time>
      </trkpt>
      <trkpt lat="45.07675" lon="6.04888">
        <ele>1258.6</ele>
        <time>2020-08-05T09:01:45Z</time>
      </trkpt>
      <trkpt lat="45.07675" lon="6.04892">
        <ele>1258.8</ele>
        <time>2020-08-05T09:01:46Z</time>
      </trkpt>
      <trkpt lat="45.07675" lon="6.04905">
        <ele>1259.6</ele>
        <time>2020-08-05T09:01:49Z</time>
      </trkpt>
      <trkpt lat="45.07675" lon="6.0491">
        <ele>1259.9</ele>
        <time>2020-08-05T09:01:51Z</time>
      </trkpt>
      <trkpt lat="45.07674" lon="6.0492">
        <ele>1260.5</ele>
        <time>2020-08-05T09:01:53Z</time>
      </trkpt>
      <trkpt lat="45.07674" lon="6.04924">
        <ele>1260.8</ele>
        <time>2020-08-05T09:01:55Z</time>
      </trkpt>
      <trkpt lat="45.07674" lon="6.04929">
        <ele>1261.2</ele>
        <time>2020-08-05T09:01:56Z</time>
      </trkpt>
      <trkpt lat="45.07674" lon="6.04936">
        <ele>1261.6</ele>
        <time>2020-08-05T09:01:59Z</time>
      </trkpt>
      <trkpt lat="45.07673" lon="6.04947">
        <ele>1262.4</ele>
        <time>2020-08-05T09:02:01Z</time>
      </trkpt>
      <trkpt lat="45.07672" lon="6.04951">
        <ele>1262.7</ele>
        <time>2020-08-05T09:02:02Z</time>
      </trkpt>
      <trkpt lat="45.0767" lon="6.04959">
        <ele>1263.3</ele>
        <time>2020-08-05T09:02:05Z</time>
      </trkpt>
      <trkpt lat="45.07669" lon="6.04964">
        <ele>1263.6</ele>
        <time>2020-08-05T09:02:07Z</time>
      </trkpt>
      <trkpt lat="45.07667" lon="6.04973">
        <ele>1264.3</ele>
        <time>2020-08-05T09:02:09Z</time>
      </trkpt>
      <trkpt lat="45.07666" lon="6.04978">
        <ele>1264.6</ele>
        <time>2020-08-05T09:02:11Z</time>
      </trkpt>
      <trkpt lat="45.07663" lon="6.04986">
        <ele>1265.2</ele>
        <time>2020-08-05T09:02:13Z</time>
      </trkpt>
      <trkpt lat="45.07662" lon="6.0499">
        <ele>1265.5</ele>
        <time>2020-08-05T09:02:14Z</time>
      </trkpt>
      <trkpt lat="45.07661" lon="6.04994">
        <ele>1265.8</ele>
        <time>2020-08-05T09:02:16Z</time>
      </trkpt>
      <trkpt lat="45.0766" lon="6.04998">
        <ele>1266.2</ele>
        <time>2020-08-05T09:02:17Z</time>
      </trkpt>
      <trkpt lat="45.07659" lon="6.05002">
        <ele>1266.4</ele>
        <time>2020-08-05T09:02:18Z</time>
      </trkpt>
      <trkpt lat="45.07658" lon="6.05006">
        <ele>1267.1</ele>
        <time>2020-08-05T09:02:20Z</time>
      </trkpt>
      <trkpt lat="45.07657" lon="6.05011">
        <ele>1267.5</ele>
        <time>2020-08-05T09:02:21Z</time>
      </trkpt>
      <trkpt lat="45.07655" lon="6.05022">
        <ele>1268.4</ele>
        <time>2020-08-05T09:02:24Z</time>
      </trkpt>
      <trkpt lat="45.07655" lon="6.05024">
        <ele>1268.6</ele>
        <time>2020-08-05T09:02:25Z</time>
      </trkpt>
      <trkpt lat="45.07655" lon="6.0503">
        <ele>1269</ele>
        <time>2020-08-05T09:02:27Z</time>
      </trkpt>
      <trkpt lat="45.07654" lon="6.05033">
        <ele>1269.2</ele>
        <time>2020-08-05T09:02:28Z</time>
      </trkpt>
      <trkpt lat="45.07654" lon="6.05035">
        <ele>1269.4</ele>
        <time>2020-08-05T09:02:30Z</time>
      </trkpt>
      <trkpt lat="45.07654" lon="6.05041">
        <ele>1269.8</ele>
        <time>2020-08-05T09:02:31Z</time>
      </trkpt>
      <trkpt lat="45.07654" lon="6.05042">
        <ele>1269.9</ele>
        <time>2020-08-05T09:02:32Z</time>
      </trkpt>
      <trkpt lat="45.07653" lon="6.05048">
        <ele>1270.3</ele>
        <time>2020-08-05T09:02:33Z</time>
      </trkpt>
      <trkpt lat="45.07653" lon="6.05052">
        <ele>1270.6</ele>
        <time>2020-08-05T09:02:34Z</time>
      </trkpt>
      <trkpt lat="45.07652" lon="6.05057">
        <ele>1271</ele>
        <time>2020-08-05T09:02:35Z</time>
      </trkpt>
      <trkpt lat="45.07652" lon="6.05062">
        <ele>1271.3</ele>
        <time>2020-08-05T09:02:37Z</time>
      </trkpt>
      <trkpt lat="45.07652" lon="6.05066">
        <ele>1271.6</ele>
        <time>2020-08-05T09:02:38Z</time>
      </trkpt>
      <trkpt lat="45.07651" lon="6.0507">
        <ele>1271.9</ele>
        <time>2020-08-05T09:02:39Z</time>
      </trkpt>
      <trkpt lat="45.0765" lon="6.05074">
        <ele>1272.2</ele>
        <time>2020-08-05T09:02:40Z</time>
      </trkpt>
      <trkpt lat="45.07648" lon="6.05079">
        <ele>1272.5</ele>
        <time>2020-08-05T09:02:42Z</time>
      </trkpt>
      <trkpt lat="45.07646" lon="6.05085">
        <ele>1273</ele>
        <time>2020-08-05T09:02:44Z</time>
      </trkpt>
      <trkpt lat="45.07642" lon="6.05092">
        <ele>1273.6</ele>
        <time>2020-08-05T09:02:46Z</time>
      </trkpt>
      <trkpt lat="45.0764" lon="6.05095">
        <ele>1273.9</ele>
        <time>2020-08-05T09:02:47Z</time>
      </trkpt>
      <trkpt lat="45.07638" lon="6.05099">
        <ele>1274.2</ele>
        <time>2020-08-05T09:02:50Z</time>
      </trkpt>
      <trkpt lat="45.07637" lon="6.05102">
        <ele>1274.4</ele>
        <time>2020-08-05T09:02:51Z</time>
      </trkpt>
      <trkpt lat="45.07631" lon="6.0511">
        <ele>1275.2</ele>
        <time>2020-08-05T09:02:53Z</time>
      </trkpt>
      <trkpt lat="45.07629" lon="6.05114">
        <ele>1275.6</ele>
        <time>2020-08-05T09:02:55Z</time>
      </trkpt>
      <trkpt lat="45.07625" lon="6.0512">
        <ele>1276.1</ele>
        <time>2020-08-05T09:02:57Z</time>
      </trkpt>
      <trkpt lat="45.07624" lon="6.05122">
        <ele>1276.3</ele>
        <time>2020-08-05T09:02:58Z</time>
      </trkpt>
      <trkpt lat="45.07623" lon="6.05124">
        <ele>1276.5</ele>
        <time>2020-08-05T09:02:59Z</time>
      </trkpt>
      <trkpt lat="45.07621" lon="6.05127">
        <ele>1276.9</ele>
        <time>2020-08-05T09:03:00Z</time>
      </trkpt>
      <trkpt lat="45.07618" lon="6.05131">
        <ele>1277.2</ele>
        <time>2020-08-05T09:03:02Z</time>
      </trkpt>
      <trkpt lat="45.07617" lon="6.05133">
        <ele>1277.5</ele>
        <time>2020-08-05T09:03:03Z</time>
      </trkpt>
      <trkpt lat="45.07615" lon="6.05136">
        <ele>1277.8</ele>
        <time>2020-08-05T09:03:05Z</time>
      </trkpt>
      <trkpt lat="45.07613" lon="6.0514">
        <ele>1278.2</ele>
        <time>2020-08-05T09:03:06Z</time>
      </trkpt>
      <trkpt lat="45.0761" lon="6.05144">
        <ele>1278.6</ele>
        <time>2020-08-05T09:03:07Z</time>
      </trkpt>
      <trkpt lat="45.07607" lon="6.05148">
        <ele>1279.1</ele>
        <time>2020-08-05T09:03:09Z</time>
      </trkpt>
      <trkpt lat="45.07605" lon="6.05151">
        <ele>1279.4</ele>
        <time>2020-08-05T09:03:10Z</time>
      </trkpt>
      <trkpt lat="45.07601" lon="6.05156">
        <ele>1280</ele>
        <time>2020-08-05T09:03:12Z</time>
      </trkpt>
      <trkpt lat="45.07596" lon="6.0516">
        <ele>1280.6</ele>
        <time>2020-08-05T09:03:14Z</time>
      </trkpt>
      <trkpt lat="45.07595" lon="6.05161">
        <ele>1280.8</ele>
        <time>2020-08-05T09:03:15Z</time>
      </trkpt>
      <trkpt lat="45.07594" lon="6.05162">
        <ele>1281</ele>
        <time>2020-08-05T09:03:16Z</time>
      </trkpt>
      <trkpt lat="45.0759" lon="6.05165">
        <ele>1281.4</ele>
        <time>2020-08-05T09:03:18Z</time>
      </trkpt>
      <trkpt lat="45.07587" lon="6.05167">
        <ele>1281.8</ele>
        <time>2020-08-05T09:03:19Z</time>
      </trkpt>
      <trkpt lat="45.07583" lon="6.05169">
        <ele>1282.2</ele>
        <time>2020-08-05T09:03:21Z</time>
      </trkpt>
      <trkpt lat="45.07582" lon="6.05169">
        <ele>1282.3</ele>
        <time>2020-08-05T09:03:22Z</time>
      </trkpt>
      <trkpt lat="45.07577" lon="6.05173">
        <ele>1282.9</ele>
        <time>2020-08-05T09:03:23Z</time>
      </trkpt>
      <trkpt lat="45.07574" lon="6.05175">
        <ele>1283.3</ele>
        <time>2020-08-05T09:03:25Z</time>
      </trkpt>
      <trkpt lat="45.07571" lon="6.05177">
        <ele>1283.6</ele>
        <time>2020-08-05T09:03:26Z</time>
      </trkpt>
      <trkpt lat="45.0757" lon="6.05178">
        <ele>1283.7</ele>
        <time>2020-08-05T09:03:27Z</time>
      </trkpt>
      <trkpt lat="45.07568" lon="6.0518">
        <ele>1284.1</ele>
        <time>2020-08-05T09:03:28Z</time>
      </trkpt>
      <trkpt lat="45.07566" lon="6.05181">
        <ele>1284.2</ele>
        <time>2020-08-05T09:03:29Z</time>
      </trkpt>
      <trkpt lat="45.07564" lon="6.05183">
        <ele>1284.5</ele>
        <time>2020-08-05T09:03:30Z</time>
      </trkpt>
      <trkpt lat="45.07563" lon="6.05184">
        <ele>1284.6</ele>
        <time>2020-08-05T09:03:31Z</time>
      </trkpt>
      <trkpt lat="45.0756" lon="6.05185">
        <ele>1284.9</ele>
        <time>2020-08-05T09:03:32Z</time>
      </trkpt>
      <trkpt lat="45.07558" lon="6.05187">
        <ele>1285.1</ele>
        <time>2020-08-05T09:03:34Z</time>
      </trkpt>
      <trkpt lat="45.07555" lon="6.05189">
        <ele>1285.4</ele>
        <time>2020-08-05T09:03:35Z</time>
      </trkpt>
      <trkpt lat="45.0755" lon="6.05193">
        <ele>1286</ele>
        <time>2020-08-05T09:03:37Z</time>
      </trkpt>
      <trkpt lat="45.07547" lon="6.05195">
        <ele>1286.3</ele>
        <time>2020-08-05T09:03:38Z</time>
      </trkpt>
      <trkpt lat="45.07544" lon="6.05197">
        <ele>1286.6</ele>
        <time>2020-08-05T09:03:40Z</time>
      </trkpt>
      <trkpt lat="45.0754" lon="6.05199">
        <ele>1287.1</ele>
        <time>2020-08-05T09:03:41Z</time>
      </trkpt>
      <trkpt lat="45.07537" lon="6.05201">
        <ele>1287.4</ele>
        <time>2020-08-05T09:03:43Z</time>
      </trkpt>
      <trkpt lat="45.07533" lon="6.05204">
        <ele>1287.9</ele>
        <time>2020-08-05T09:03:46Z</time>
      </trkpt>
      <trkpt lat="45.07529" lon="6.05207">
        <ele>1288.3</ele>
        <time>2020-08-05T09:03:47Z</time>
      </trkpt>
      <trkpt lat="45.07526" lon="6.05208">
        <ele>1288.6</ele>
        <time>2020-08-05T09:03:48Z</time>
      </trkpt>
      <trkpt lat="45.07522" lon="6.05211">
        <ele>1289.1</ele>
        <time>2020-08-05T09:03:49Z</time>
      </trkpt>
      <trkpt lat="45.07519" lon="6.05212">
        <ele>1289.4</ele>
        <time>2020-08-05T09:03:51Z</time>
      </trkpt>
      <trkpt lat="45.07513" lon="6.05215">
        <ele>1290.1</ele>
        <time>2020-08-05T09:03:53Z</time>
      </trkpt>
      <trkpt lat="45.07506" lon="6.05218">
        <ele>1290.8</ele>
        <time>2020-08-05T09:03:56Z</time>
      </trkpt>
      <trkpt lat="45.07503" lon="6.05219">
        <ele>1291.1</ele>
        <time>2020-08-05T09:03:57Z</time>
      </trkpt>
      <trkpt lat="45.07497" lon="6.0522">
        <ele>1291.7</ele>
        <time>2020-08-05T09:03:59Z</time>
      </trkpt>
      <trkpt lat="45.07494" lon="6.0522">
        <ele>1292</ele>
        <time>2020-08-05T09:04:01Z</time>
      </trkpt>
      <trkpt lat="45.07491" lon="6.0522">
        <ele>1292.2</ele>
        <time>2020-08-05T09:04:02Z</time>
      </trkpt>
      <trkpt lat="45.07486" lon="6.05222">
        <ele>1292.6</ele>
        <time>2020-08-05T09:04:05Z</time>
      </trkpt>
      <trkpt lat="45.07481" lon="6.05226">
        <ele>1293</ele>
        <time>2020-08-05T09:04:06Z</time>
      </trkpt>
      <trkpt lat="45.07479" lon="6.0523">
        <ele>1293.2</ele>
        <time>2020-08-05T09:04:07Z</time>
      </trkpt>
      <trkpt lat="45.07477" lon="6.05235">
        <ele>1293.4</ele>
        <time>2020-08-05T09:04:09Z</time>
      </trkpt>
      <trkpt lat="45.07478" lon="6.05247">
        <ele>1293.7</ele>
        <time>2020-08-05T09:04:10Z</time>
      </trkpt>
      <trkpt lat="45.07482" lon="6.05252">
        <ele>1293.9</ele>
        <time>2020-08-05T09:04:12Z</time>
      </trkpt>
      <trkpt lat="45.07494" lon="6.05252">
        <ele>1294.1</ele>
        <time>2020-08-05T09:04:15Z</time>
      </trkpt>
      <trkpt lat="45.07498" lon="6.0525">
        <ele>1294.3</ele>
        <time>2020-08-05T09:04:16Z</time>
      </trkpt>
      <trkpt lat="45.07502" lon="6.05251">
        <ele>1294.4</ele>
        <time>2020-08-05T09:04:17Z</time>
      </trkpt>
      <trkpt lat="45.07505" lon="6.05246">
        <ele>1294.6</ele>
        <time>2020-08-05T09:04:18Z</time>
      </trkpt>
      <trkpt lat="45.07511" lon="6.05239">
        <ele>1295</ele>
        <time>2020-08-05T09:04:20Z</time>
      </trkpt>
      <trkpt lat="45.07514" lon="6.05235">
        <ele>1295.3</ele>
        <time>2020-08-05T09:04:21Z</time>
      </trkpt>
      <trkpt lat="45.0752" lon="6.0523">
        <ele>1295.9</ele>
        <time>2020-08-05T09:04:24Z</time>
      </trkpt>
      <trkpt lat="45.07525" lon="6.05228">
        <ele>1296.3</ele>
        <time>2020-08-05T09:04:26Z</time>
      </trkpt>
      <trkpt lat="45.07529" lon="6.05226">
        <ele>1296.7</ele>
        <time>2020-08-05T09:04:28Z</time>
      </trkpt>
      <trkpt lat="45.07532" lon="6.05224">
        <ele>1297</ele>
        <time>2020-08-05T09:04:30Z</time>
      </trkpt>
      <trkpt lat="45.07533" lon="6.05224">
        <ele>1297.2</ele>
        <time>2020-08-05T09:04:31Z</time>
      </trkpt>
      <trkpt lat="45.07538" lon="6.05222">
        <ele>1297.7</ele>
        <time>2020-08-05T09:04:33Z</time>
      </trkpt>
      <trkpt lat="45.07542" lon="6.05219">
        <ele>1298.1</ele>
        <time>2020-08-05T09:04:34Z</time>
      </trkpt>
      <trkpt lat="45.07545" lon="6.05218">
        <ele>1298.5</ele>
        <time>2020-08-05T09:04:36Z</time>
      </trkpt>
      <trkpt lat="45.07549" lon="6.05217">
        <ele>1298.9</ele>
        <time>2020-08-05T09:04:37Z</time>
      </trkpt>
      <trkpt lat="45.07551" lon="6.05216">
        <ele>1299.1</ele>
        <time>2020-08-05T09:04:38Z</time>
      </trkpt>
      <trkpt lat="45.07554" lon="6.05214">
        <ele>1299.5</ele>
        <time>2020-08-05T09:04:40Z</time>
      </trkpt>
      <trkpt lat="45.07558" lon="6.05213">
        <ele>1299.9</ele>
        <time>2020-08-05T09:04:41Z</time>
      </trkpt>
      <trkpt lat="45.07561" lon="6.05212">
        <ele>1300.2</ele>
        <time>2020-08-05T09:04:42Z</time>
      </trkpt>
      <trkpt lat="45.07564" lon="6.0521">
        <ele>1300.5</ele>
        <time>2020-08-05T09:04:43Z</time>
      </trkpt>
      <trkpt lat="45.07567" lon="6.05209">
        <ele>1300.9</ele>
        <time>2020-08-05T09:04:45Z</time>
      </trkpt>
      <trkpt lat="45.07572" lon="6.05207">
        <ele>1301.3</ele>
        <time>2020-08-05T09:04:47Z</time>
      </trkpt>
      <trkpt lat="45.07578" lon="6.05206">
        <ele>1302</ele>
        <time>2020-08-05T09:04:49Z</time>
      </trkpt>
      <trkpt lat="45.07581" lon="6.05204">
        <ele>1302.3</ele>
        <time>2020-08-05T09:04:51Z</time>
      </trkpt>
      <trkpt lat="45.07583" lon="6.05203">
        <ele>1302.6</ele>
        <time>2020-08-05T09:04:53Z</time>
      </trkpt>
      <trkpt lat="45.07592" lon="6.05202">
        <ele>1303.5</ele>
        <time>2020-08-05T09:04:55Z</time>
      </trkpt>
      <trkpt lat="45.07599" lon="6.05201">
        <ele>1304.3</ele>
        <time>2020-08-05T09:04:58Z</time>
      </trkpt>
      <trkpt lat="45.07602" lon="6.05201">
        <ele>1304.6</ele>
        <time>2020-08-05T09:05:00Z</time>
      </trkpt>
      <trkpt lat="45.07604" lon="6.052">
        <ele>1304.9</ele>
        <time>2020-08-05T09:05:01Z</time>
      </trkpt>
      <trkpt lat="45.07607" lon="6.052">
        <ele>1305.2</ele>
        <time>2020-08-05T09:05:02Z</time>
      </trkpt>
      <trkpt lat="45.07613" lon="6.05198">
        <ele>1305.9</ele>
        <time>2020-08-05T09:05:04Z</time>
      </trkpt>
      <trkpt lat="45.07619" lon="6.05198">
        <ele>1306.5</ele>
        <time>2020-08-05T09:05:07Z</time>
      </trkpt>
      <trkpt lat="45.07621" lon="6.05197">
        <ele>1306.8</ele>
        <time>2020-08-05T09:05:08Z</time>
      </trkpt>
      <trkpt lat="45.07624" lon="6.05197">
        <ele>1307.1</ele>
        <time>2020-08-05T09:05:09Z</time>
      </trkpt>
      <trkpt lat="45.07628" lon="6.05197">
        <ele>1307.5</ele>
        <time>2020-08-05T09:05:10Z</time>
      </trkpt>
      <trkpt lat="45.07632" lon="6.05196">
        <ele>1307.9</ele>
        <time>2020-08-05T09:05:12Z</time>
      </trkpt>
      <trkpt lat="45.07635" lon="6.05195">
        <ele>1308.3</ele>
        <time>2020-08-05T09:05:13Z</time>
      </trkpt>
      <trkpt lat="45.07638" lon="6.05193">
        <ele>1308.6</ele>
        <time>2020-08-05T09:05:15Z</time>
      </trkpt>
      <trkpt lat="45.07642" lon="6.05191">
        <ele>1309.1</ele>
        <time>2020-08-05T09:05:16Z</time>
      </trkpt>
      <trkpt lat="45.07646" lon="6.0519">
        <ele>1309.4</ele>
        <time>2020-08-05T09:05:18Z</time>
      </trkpt>
      <trkpt lat="45.07649" lon="6.05188">
        <ele>1309.7</ele>
        <time>2020-08-05T09:05:19Z</time>
      </trkpt>
      <trkpt lat="45.07651" lon="6.05187">
        <ele>1310</ele>
        <time>2020-08-05T09:05:20Z</time>
      </trkpt>
      <trkpt lat="45.07654" lon="6.05186">
        <ele>1310.3</ele>
        <time>2020-08-05T09:05:22Z</time>
      </trkpt>
      <trkpt lat="45.07657" lon="6.05185">
        <ele>1310.7</ele>
        <time>2020-08-05T09:05:23Z</time>
      </trkpt>
      <trkpt lat="45.07661" lon="6.05184">
        <ele>1311.1</ele>
        <time>2020-08-05T09:05:24Z</time>
      </trkpt>
      <trkpt lat="45.07662" lon="6.05183">
        <ele>1311.3</ele>
        <time>2020-08-05T09:05:25Z</time>
      </trkpt>
      <trkpt lat="45.07669" lon="6.0518">
        <ele>1312.1</ele>
        <time>2020-08-05T09:05:28Z</time>
      </trkpt>
      <trkpt lat="45.0767" lon="6.0518">
        <ele>1312.2</ele>
        <time>2020-08-05T09:05:29Z</time>
      </trkpt>
      <trkpt lat="45.07675" lon="6.05177">
        <ele>1312.8</ele>
        <time>2020-08-05T09:05:32Z</time>
      </trkpt>
      <trkpt lat="45.07677" lon="6.05176">
        <ele>1313.1</ele>
        <time>2020-08-05T09:05:33Z</time>
      </trkpt>
      <trkpt lat="45.07679" lon="6.05175">
        <ele>1313.3</ele>
        <time>2020-08-05T09:05:34Z</time>
      </trkpt>
      <trkpt lat="45.07683" lon="6.05172">
        <ele>1313.8</ele>
        <time>2020-08-05T09:05:35Z</time>
      </trkpt>
      <trkpt lat="45.07684" lon="6.05171">
        <ele>1313.9</ele>
        <time>2020-08-05T09:05:36Z</time>
      </trkpt>
      <trkpt lat="45.07686" lon="6.05169">
        <ele>1314.2</ele>
        <time>2020-08-05T09:05:37Z</time>
      </trkpt>
      <trkpt lat="45.07689" lon="6.05166">
        <ele>1314.6</ele>
        <time>2020-08-05T09:05:39Z</time>
      </trkpt>
      <trkpt lat="45.07691" lon="6.05163">
        <ele>1314.9</ele>
        <time>2020-08-05T09:05:41Z</time>
      </trkpt>
      <trkpt lat="45.07692" lon="6.05162">
        <ele>1315.1</ele>
        <time>2020-08-05T09:05:42Z</time>
      </trkpt>
      <trkpt lat="45.07696" lon="6.05156">
        <ele>1315.7</ele>
        <time>2020-08-05T09:05:43Z</time>
      </trkpt>
      <trkpt lat="45.077" lon="6.0515">
        <ele>1316.3</ele>
        <time>2020-08-05T09:05:46Z</time>
      </trkpt>
      <trkpt lat="45.07702" lon="6.05147">
        <ele>1316.6</ele>
        <time>2020-08-05T09:05:47Z</time>
      </trkpt>
      <trkpt lat="45.07704" lon="6.05144">
        <ele>1316.9</ele>
        <time>2020-08-05T09:05:48Z</time>
      </trkpt>
      <trkpt lat="45.07705" lon="6.05142">
        <ele>1317.1</ele>
        <time>2020-08-05T09:05:49Z</time>
      </trkpt>
      <trkpt lat="45.07707" lon="6.05138">
        <ele>1317.4</ele>
        <time>2020-08-05T09:05:51Z</time>
      </trkpt>
      <trkpt lat="45.07709" lon="6.05135">
        <ele>1317.8</ele>
        <time>2020-08-05T09:05:52Z</time>
      </trkpt>
      <trkpt lat="45.07711" lon="6.05132">
        <ele>1318.1</ele>
        <time>2020-08-05T09:05:53Z</time>
      </trkpt>
      <trkpt lat="45.07712" lon="6.05131">
        <ele>1318.2</ele>
        <time>2020-08-05T09:05:54Z</time>
      </trkpt>
      <trkpt lat="45.07714" lon="6.05128">
        <ele>1318.4</ele>
        <time>2020-08-05T09:05:56Z</time>
      </trkpt>
      <trkpt lat="45.07715" lon="6.05123">
        <ele>1318.8</ele>
        <time>2020-08-05T09:05:58Z</time>
      </trkpt>
      <trkpt lat="45.07718" lon="6.05119">
        <ele>1319.1</ele>
        <time>2020-08-05T09:05:59Z</time>
      </trkpt>
      <trkpt lat="45.07719" lon="6.05116">
        <ele>1319.4</ele>
        <time>2020-08-05T09:06:01Z</time>
      </trkpt>
      <trkpt lat="45.07721" lon="6.0511">
        <ele>1319.9</ele>
        <time>2020-08-05T09:06:02Z</time>
      </trkpt>
      <trkpt lat="45.07723" lon="6.05105">
        <ele>1320.2</ele>
        <time>2020-08-05T09:06:03Z</time>
      </trkpt>
      <trkpt lat="45.07724" lon="6.05101">
        <ele>1320.6</ele>
        <time>2020-08-05T09:06:05Z</time>
      </trkpt>
      <trkpt lat="45.07726" lon="6.05097">
        <ele>1320.9</ele>
        <time>2020-08-05T09:06:06Z</time>
      </trkpt>
      <trkpt lat="45.07728" lon="6.05094">
        <ele>1321.2</ele>
        <time>2020-08-05T09:06:07Z</time>
      </trkpt>
      <trkpt lat="45.07731" lon="6.05088">
        <ele>1321.7</ele>
        <time>2020-08-05T09:06:09Z</time>
      </trkpt>
      <trkpt lat="45.07732" lon="6.05086">
        <ele>1321.9</ele>
        <time>2020-08-05T09:06:10Z</time>
      </trkpt>
      <trkpt lat="45.07733" lon="6.05083">
        <ele>1322.1</ele>
        <time>2020-08-05T09:06:11Z</time>
      </trkpt>
      <trkpt lat="45.07736" lon="6.0508">
        <ele>1322.5</ele>
        <time>2020-08-05T09:06:13Z</time>
      </trkpt>
      <trkpt lat="45.07738" lon="6.05076">
        <ele>1322.8</ele>
        <time>2020-08-05T09:06:14Z</time>
      </trkpt>
      <trkpt lat="45.0774" lon="6.05072">
        <ele>1323.2</ele>
        <time>2020-08-05T09:06:17Z</time>
      </trkpt>
      <trkpt lat="45.07743" lon="6.05067">
        <ele>1323.7</ele>
        <time>2020-08-05T09:06:18Z</time>
      </trkpt>
      <trkpt lat="45.07746" lon="6.05063">
        <ele>1324.1</ele>
        <time>2020-08-05T09:06:19Z</time>
      </trkpt>
      <trkpt lat="45.07746" lon="6.05062">
        <ele>1324.2</ele>
        <time>2020-08-05T09:06:20Z</time>
      </trkpt>
      <trkpt lat="45.07749" lon="6.05059">
        <ele>1324.6</ele>
        <time>2020-08-05T09:06:21Z</time>
      </trkpt>
      <trkpt lat="45.07753" lon="6.05053">
        <ele>1325.2</ele>
        <time>2020-08-05T09:06:24Z</time>
      </trkpt>
      <trkpt lat="45.07754" lon="6.0505">
        <ele>1325.5</ele>
        <time>2020-08-05T09:06:25Z</time>
      </trkpt>
      <trkpt lat="45.07759" lon="6.05043">
        <ele>1326.4</ele>
        <time>2020-08-05T09:06:28Z</time>
      </trkpt>
      <trkpt lat="45.07761" lon="6.0504">
        <ele>1326.7</ele>
        <time>2020-08-05T09:06:29Z</time>
      </trkpt>
      <trkpt lat="45.07765" lon="6.05034">
        <ele>1327.3</ele>
        <time>2020-08-05T09:06:32Z</time>
      </trkpt>
      <trkpt lat="45.07766" lon="6.05032">
        <ele>1327.5</ele>
        <time>2020-08-05T09:06:33Z</time>
      </trkpt>
      <trkpt lat="45.07767" lon="6.0503">
        <ele>1327.7</ele>
        <time>2020-08-05T09:06:34Z</time>
      </trkpt>
      <trkpt lat="45.0777" lon="6.05027">
        <ele>1328.1</ele>
        <time>2020-08-05T09:06:36Z</time>
      </trkpt>
      <trkpt lat="45.07773" lon="6.05022">
        <ele>1328.6</ele>
        <time>2020-08-05T09:06:37Z</time>
      </trkpt>
      <trkpt lat="45.07774" lon="6.0502">
        <ele>1328.9</ele>
        <time>2020-08-05T09:06:38Z</time>
      </trkpt>
      <trkpt lat="45.07776" lon="6.05018">
        <ele>1329.1</ele>
        <time>2020-08-05T09:06:40Z</time>
      </trkpt>
      <trkpt lat="45.07778" lon="6.05014">
        <ele>1329.5</ele>
        <time>2020-08-05T09:06:41Z</time>
      </trkpt>
      <trkpt lat="45.07778" lon="6.05013">
        <ele>1329.6</ele>
        <time>2020-08-05T09:06:42Z</time>
      </trkpt>
      <trkpt lat="45.07781" lon="6.05009">
        <ele>1330.1</ele>
        <time>2020-08-05T09:06:43Z</time>
      </trkpt>
      <trkpt lat="45.07783" lon="6.05005">
        <ele>1330.5</ele>
        <time>2020-08-05T09:06:44Z</time>
      </trkpt>
      <trkpt lat="45.07788" lon="6.04998">
        <ele>1331.3</ele>
        <time>2020-08-05T09:06:46Z</time>
      </trkpt>
      <trkpt lat="45.0779" lon="6.04995">
        <ele>1331.7</ele>
        <time>2020-08-05T09:06:48Z</time>
      </trkpt>
      <trkpt lat="45.07792" lon="6.04992">
        <ele>1332.1</ele>
        <time>2020-08-05T09:06:49Z</time>
      </trkpt>
      <trkpt lat="45.07795" lon="6.04988">
        <ele>1332.5</ele>
        <time>2020-08-05T09:06:51Z</time>
      </trkpt>
      <trkpt lat="45.07796" lon="6.04987">
        <ele>1332.6</ele>
        <time>2020-08-05T09:06:52Z</time>
      </trkpt>
      <trkpt lat="45.07798" lon="6.04983">
        <ele>1333</ele>
        <time>2020-08-05T09:06:53Z</time>
      </trkpt>
      <trkpt lat="45.07798" lon="6.04982">
        <ele>1333.1</ele>
        <time>2020-08-05T09:06:54Z</time>
      </trkpt>
      <trkpt lat="45.07799" lon="6.04979">
        <ele>1333.3</ele>
        <time>2020-08-05T09:06:55Z</time>
      </trkpt>
      <trkpt lat="45.078" lon="6.04976">
        <ele>1333.6</ele>
        <time>2020-08-05T09:06:57Z</time>
      </trkpt>
      <trkpt lat="45.07801" lon="6.04973">
        <ele>1333.9</ele>
        <time>2020-08-05T09:06:58Z</time>
      </trkpt>
      <trkpt lat="45.07803" lon="6.04968">
        <ele>1334.4</ele>
        <time>2020-08-05T09:07:00Z</time>
      </trkpt>
      <trkpt lat="45.07805" lon="6.04963">
        <ele>1334.8</ele>
        <time>2020-08-05T09:07:02Z</time>
      </trkpt>
      <trkpt lat="45.07807" lon="6.04956">
        <ele>1335.4</ele>
        <time>2020-08-05T09:07:03Z</time>
      </trkpt>
      <trkpt lat="45.07809" lon="6.04953">
        <ele>1335.7</ele>
        <time>2020-08-05T09:07:04Z</time>
      </trkpt>
      <trkpt lat="45.0781" lon="6.04949">
        <ele>1336</ele>
        <time>2020-08-05T09:07:06Z</time>
      </trkpt>
      <trkpt lat="45.07811" lon="6.04941">
        <ele>1336.6</ele>
        <time>2020-08-05T09:07:08Z</time>
      </trkpt>
      <trkpt lat="45.07811" lon="6.04937">
        <ele>1336.9</ele>
        <time>2020-08-05T09:07:09Z</time>
      </trkpt>
      <trkpt lat="45.07812" lon="6.0493">
        <ele>1337.4</ele>
        <time>2020-08-05T09:07:12Z</time>
      </trkpt>
      <trkpt lat="45.07812" lon="6.04928">
        <ele>1337.6</ele>
        <time>2020-08-05T09:07:13Z</time>
      </trkpt>
      <trkpt lat="45.07812" lon="6.04926">
        <ele>1337.7</ele>
        <time>2020-08-05T09:07:14Z</time>
      </trkpt>
      <trkpt lat="45.07811" lon="6.04922">
        <ele>1338</ele>
        <time>2020-08-05T09:07:15Z</time>
      </trkpt>
      <trkpt lat="45.07809" lon="6.04918">
        <ele>1338.3</ele>
        <time>2020-08-05T09:07:16Z</time>
      </trkpt>
      <trkpt lat="45.07808" lon="6.04917">
        <ele>1338.4</ele>
        <time>2020-08-05T09:07:17Z</time>
      </trkpt>
      <trkpt lat="45.07806" lon="6.04914">
        <ele>1338.7</ele>
        <time>2020-08-05T09:07:19Z</time>
      </trkpt>
      <trkpt lat="45.07803" lon="6.04904">
        <ele>1339.4</ele>
        <time>2020-08-05T09:07:21Z</time>
      </trkpt>
      <trkpt lat="45.07801" lon="6.04901">
        <ele>1339.6</ele>
        <time>2020-08-05T09:07:22Z</time>
      </trkpt>
      <trkpt lat="45.07801" lon="6.04898">
        <ele>1339.8</ele>
        <time>2020-08-05T09:07:23Z</time>
      </trkpt>
      <trkpt lat="45.078" lon="6.04887">
        <ele>1340.5</ele>
        <time>2020-08-05T09:07:26Z</time>
      </trkpt>
      <trkpt lat="45.078" lon="6.04884">
        <ele>1340.8</ele>
        <time>2020-08-05T09:07:28Z</time>
      </trkpt>
      <trkpt lat="45.07799" lon="6.0488">
        <ele>1341.1</ele>
        <time>2020-08-05T09:07:29Z</time>
      </trkpt>
      <trkpt lat="45.07799" lon="6.04876">
        <ele>1341.4</ele>
        <time>2020-08-05T09:07:30Z</time>
      </trkpt>
      <trkpt lat="45.07799" lon="6.04872">
        <ele>1341.7</ele>
        <time>2020-08-05T09:07:32Z</time>
      </trkpt>
      <trkpt lat="45.07799" lon="6.04866">
        <ele>1342.1</ele>
        <time>2020-08-05T09:07:33Z</time>
      </trkpt>
      <trkpt lat="45.07799" lon="6.04861">
        <ele>1342.4</ele>
        <time>2020-08-05T09:07:34Z</time>
      </trkpt>
      <trkpt lat="45.07799" lon="6.0486">
        <ele>1342.5</ele>
        <time>2020-08-05T09:07:35Z</time>
      </trkpt>
      <trkpt lat="45.07799" lon="6.04854">
        <ele>1342.9</ele>
        <time>2020-08-05T09:07:36Z</time>
      </trkpt>
      <trkpt lat="45.07799" lon="6.04852">
        <ele>1343.1</ele>
        <time>2020-08-05T09:07:37Z</time>
      </trkpt>
      <trkpt lat="45.07799" lon="6.04848">
        <ele>1343.4</ele>
        <time>2020-08-05T09:07:39Z</time>
      </trkpt>
      <trkpt lat="45.07798" lon="6.04839">
        <ele>1344</ele>
        <time>2020-08-05T09:07:41Z</time>
      </trkpt>
      <trkpt lat="45.07797" lon="6.04834">
        <ele>1344.4</ele>
        <time>2020-08-05T09:07:43Z</time>
      </trkpt>
      <trkpt lat="45.07796" lon="6.04828">
        <ele>1344.8</ele>
        <time>2020-08-05T09:07:44Z</time>
      </trkpt>
      <trkpt lat="45.07794" lon="6.04824">
        <ele>1345.1</ele>
        <time>2020-08-05T09:07:46Z</time>
      </trkpt>
      <trkpt lat="45.07794" lon="6.04819">
        <ele>1345.4</ele>
        <time>2020-08-05T09:07:47Z</time>
      </trkpt>
      <trkpt lat="45.07792" lon="6.04815">
        <ele>1345.7</ele>
        <time>2020-08-05T09:07:49Z</time>
      </trkpt>
      <trkpt lat="45.07791" lon="6.04811">
        <ele>1345.9</ele>
        <time>2020-08-05T09:07:50Z</time>
      </trkpt>
      <trkpt lat="45.0779" lon="6.04808">
        <ele>1346.1</ele>
        <time>2020-08-05T09:07:51Z</time>
      </trkpt>
      <trkpt lat="45.07788" lon="6.048">
        <ele>1346.6</ele>
        <time>2020-08-05T09:07:53Z</time>
      </trkpt>
      <trkpt lat="45.07787" lon="6.04795">
        <ele>1346.9</ele>
        <time>2020-08-05T09:07:54Z</time>
      </trkpt>
      <trkpt lat="45.07786" lon="6.04794">
        <ele>1347</ele>
        <time>2020-08-05T09:07:55Z</time>
      </trkpt>
      <trkpt lat="45.07786" lon="6.0479">
        <ele>1347.3</ele>
        <time>2020-08-05T09:07:57Z</time>
      </trkpt>
      <trkpt lat="45.07787" lon="6.04786">
        <ele>1347.5</ele>
        <time>2020-08-05T09:07:58Z</time>
      </trkpt>
      <trkpt lat="45.07793" lon="6.04785">
        <ele>1347.9</ele>
        <time>2020-08-05T09:07:59Z</time>
      </trkpt>
      <trkpt lat="45.07796" lon="6.04787">
        <ele>1348.1</ele>
        <time>2020-08-05T09:08:00Z</time>
      </trkpt>
      <trkpt lat="45.07798" lon="6.04791">
        <ele>1348.3</ele>
        <time>2020-08-05T09:08:02Z</time>
      </trkpt>
      <trkpt lat="45.07799" lon="6.04795">
        <ele>1348.5</ele>
        <time>2020-08-05T09:08:03Z</time>
      </trkpt>
      <trkpt lat="45.07799" lon="6.048">
        <ele>1348.6</ele>
        <time>2020-08-05T09:08:04Z</time>
      </trkpt>
      <trkpt lat="45.078" lon="6.04804">
        <ele>1348.8</ele>
        <time>2020-08-05T09:08:06Z</time>
      </trkpt>
      <trkpt lat="45.07801" lon="6.04808">
        <ele>1349</ele>
        <time>2020-08-05T09:08:07Z</time>
      </trkpt>
      <trkpt lat="45.07803" lon="6.04816">
        <ele>1349.3</ele>
        <time>2020-08-05T09:08:08Z</time>
      </trkpt>
      <trkpt lat="45.07805" lon="6.04822">
        <ele>1349.6</ele>
        <time>2020-08-05T09:08:10Z</time>
      </trkpt>
      <trkpt lat="45.07807" lon="6.04831">
        <ele>1350.1</ele>
        <time>2020-08-05T09:08:11Z</time>
      </trkpt>
      <trkpt lat="45.07809" lon="6.04835">
        <ele>1350.3</ele>
        <time>2020-08-05T09:08:12Z</time>
      </trkpt>
      <trkpt lat="45.0781" lon="6.0484">
        <ele>1350.6</ele>
        <time>2020-08-05T09:08:14Z</time>
      </trkpt>
      <trkpt lat="45.07813" lon="6.0485">
        <ele>1351.3</ele>
        <time>2020-08-05T09:08:16Z</time>
      </trkpt>
      <trkpt lat="45.07816" lon="6.04859">
        <ele>1351.9</ele>
        <time>2020-08-05T09:08:19Z</time>
      </trkpt>
      <trkpt lat="45.07818" lon="6.04863">
        <ele>1352.3</ele>
        <time>2020-08-05T09:08:21Z</time>
      </trkpt>
      <trkpt lat="45.0782" lon="6.04869">
        <ele>1352.8</ele>
        <time>2020-08-05T09:08:22Z</time>
      </trkpt>
      <trkpt lat="45.07822" lon="6.04873">
        <ele>1353.1</ele>
        <time>2020-08-05T09:08:24Z</time>
      </trkpt>
      <trkpt lat="45.07824" lon="6.04877">
        <ele>1353.5</ele>
        <time>2020-08-05T09:08:25Z</time>
      </trkpt>
      <trkpt lat="45.07826" lon="6.04883">
        <ele>1354.2</ele>
        <time>2020-08-05T09:08:27Z</time>
      </trkpt>
      <trkpt lat="45.07829" lon="6.04888">
        <ele>1354.6</ele>
        <time>2020-08-05T09:08:28Z</time>
      </trkpt>
      <trkpt lat="45.07831" lon="6.04892">
        <ele>1355</ele>
        <time>2020-08-05T09:08:30Z</time>
      </trkpt>
      <trkpt lat="45.07835" lon="6.04899">
        <ele>1355.8</ele>
        <time>2020-08-05T09:08:32Z</time>
      </trkpt>
      <trkpt lat="45.07838" lon="6.04903">
        <ele>1356.2</ele>
        <time>2020-08-05T09:08:33Z</time>
      </trkpt>
      <trkpt lat="45.07841" lon="6.04907">
        <ele>1356.6</ele>
        <time>2020-08-05T09:08:35Z</time>
      </trkpt>
      <trkpt lat="45.07843" lon="6.04912">
        <ele>1357.1</ele>
        <time>2020-08-05T09:08:36Z</time>
      </trkpt>
      <trkpt lat="45.07846" lon="6.04914">
        <ele>1357.4</ele>
        <time>2020-08-05T09:08:38Z</time>
      </trkpt>
      <trkpt lat="45.07848" lon="6.04917">
        <ele>1357.7</ele>
        <time>2020-08-05T09:08:39Z</time>
      </trkpt>
      <trkpt lat="45.07849" lon="6.0492">
        <ele>1358</ele>
        <time>2020-08-05T09:08:40Z</time>
      </trkpt>
      <trkpt lat="45.0785" lon="6.04923">
        <ele>1358.3</ele>
        <time>2020-08-05T09:08:41Z</time>
      </trkpt>
      <trkpt lat="45.07851" lon="6.04926">
        <ele>1358.6</ele>
        <time>2020-08-05T09:08:43Z</time>
      </trkpt>
      <trkpt lat="45.07852" lon="6.04933">
        <ele>1359.1</ele>
        <time>2020-08-05T09:08:44Z</time>
      </trkpt>
      <trkpt lat="45.07852" lon="6.04936">
        <ele>1359.3</ele>
        <time>2020-08-05T09:08:45Z</time>
      </trkpt>
      <trkpt lat="45.07852" lon="6.04941">
        <ele>1359.8</ele>
        <time>2020-08-05T09:08:46Z</time>
      </trkpt>
      <trkpt lat="45.07852" lon="6.04943">
        <ele>1359.9</ele>
        <time>2020-08-05T09:08:47Z</time>
      </trkpt>
      <trkpt lat="45.07852" lon="6.04949">
        <ele>1360.4</ele>
        <time>2020-08-05T09:08:48Z</time>
      </trkpt>
      <trkpt lat="45.07852" lon="6.04952">
        <ele>1360.6</ele>
        <time>2020-08-05T09:08:49Z</time>
      </trkpt>
      <trkpt lat="45.07852" lon="6.04958">
        <ele>1361.1</ele>
        <time>2020-08-05T09:08:51Z</time>
      </trkpt>
      <trkpt lat="45.0785" lon="6.04967">
        <ele>1361.8</ele>
        <time>2020-08-05T09:08:53Z</time>
      </trkpt>
      <trkpt lat="45.07849" lon="6.04971">
        <ele>1362.1</ele>
        <time>2020-08-05T09:08:54Z</time>
      </trkpt>
      <trkpt lat="45.07848" lon="6.04978">
        <ele>1362.6</ele>
        <time>2020-08-05T09:08:56Z</time>
      </trkpt>
      <trkpt lat="45.07848" lon="6.04983">
        <ele>1363</ele>
        <time>2020-08-05T09:08:57Z</time>
      </trkpt>
      <trkpt lat="45.07848" lon="6.04987">
        <ele>1363.2</ele>
        <time>2020-08-05T09:08:58Z</time>
      </trkpt>
      <trkpt lat="45.07847" lon="6.04998">
        <ele>1364</ele>
        <time>2020-08-05T09:09:01Z</time>
      </trkpt>
      <trkpt lat="45.07847" lon="6.05002">
        <ele>1364.2</ele>
        <time>2020-08-05T09:09:02Z</time>
      </trkpt>
      <trkpt lat="45.07846" lon="6.05006">
        <ele>1364.5</ele>
        <time>2020-08-05T09:09:03Z</time>
      </trkpt>
      <trkpt lat="45.07845" lon="6.0501">
        <ele>1364.8</ele>
        <time>2020-08-05T09:09:05Z</time>
      </trkpt>
      <trkpt lat="45.07844" lon="6.05017">
        <ele>1365.2</ele>
        <time>2020-08-05T09:09:06Z</time>
      </trkpt>
      <trkpt lat="45.07844" lon="6.05022">
        <ele>1365.6</ele>
        <time>2020-08-05T09:09:08Z</time>
      </trkpt>
      <trkpt lat="45.07843" lon="6.05026">
        <ele>1365.9</ele>
        <time>2020-08-05T09:09:10Z</time>
      </trkpt>
      <trkpt lat="45.07841" lon="6.05033">
        <ele>1366.3</ele>
        <time>2020-08-05T09:09:11Z</time>
      </trkpt>
      <trkpt lat="45.0784" lon="6.05038">
        <ele>1366.7</ele>
        <time>2020-08-05T09:09:13Z</time>
      </trkpt>
      <trkpt lat="45.07837" lon="6.05045">
        <ele>1367.2</ele>
        <time>2020-08-05T09:09:15Z</time>
      </trkpt>
      <trkpt lat="45.07836" lon="6.05048">
        <ele>1367.4</ele>
        <time>2020-08-05T09:09:16Z</time>
      </trkpt>
      <trkpt lat="45.07834" lon="6.05052">
        <ele>1367.6</ele>
        <time>2020-08-05T09:09:17Z</time>
      </trkpt>
      <trkpt lat="45.0783" lon="6.0506">
        <ele>1368.3</ele>
        <time>2020-08-05T09:09:19Z</time>
      </trkpt>
      <trkpt lat="45.07828" lon="6.05065">
        <ele>1368.6</ele>
        <time>2020-08-05T09:09:21Z</time>
      </trkpt>
      <trkpt lat="45.07826" lon="6.05068">
        <ele>1368.9</ele>
        <time>2020-08-05T09:09:22Z</time>
      </trkpt>
      <trkpt lat="45.07825" lon="6.05073">
        <ele>1369.2</ele>
        <time>2020-08-05T09:09:23Z</time>
      </trkpt>
      <trkpt lat="45.07824" lon="6.05075">
        <ele>1369.3</ele>
        <time>2020-08-05T09:09:24Z</time>
      </trkpt>
      <trkpt lat="45.07823" lon="6.05078">
        <ele>1369.6</ele>
        <time>2020-08-05T09:09:25Z</time>
      </trkpt>
      <trkpt lat="45.07821" lon="6.05081">
        <ele>1369.8</ele>
        <time>2020-08-05T09:09:27Z</time>
      </trkpt>
      <trkpt lat="45.07818" lon="6.05087">
        <ele>1370.3</ele>
        <time>2020-08-05T09:09:28Z</time>
      </trkpt>
      <trkpt lat="45.07815" lon="6.05093">
        <ele>1370.8</ele>
        <time>2020-08-05T09:09:31Z</time>
      </trkpt>
      <trkpt lat="45.07814" lon="6.05097">
        <ele>1371</ele>
        <time>2020-08-05T09:09:32Z</time>
      </trkpt>
      <trkpt lat="45.07811" lon="6.05103">
        <ele>1371.5</ele>
        <time>2020-08-05T09:09:34Z</time>
      </trkpt>
      <trkpt lat="45.07808" lon="6.0511">
        <ele>1372.1</ele>
        <time>2020-08-05T09:09:35Z</time>
      </trkpt>
      <trkpt lat="45.07804" lon="6.0512">
        <ele>1372.9</ele>
        <time>2020-08-05T09:09:38Z</time>
      </trkpt>
      <trkpt lat="45.07803" lon="6.05123">
        <ele>1373.2</ele>
        <time>2020-08-05T09:09:39Z</time>
      </trkpt>
      <trkpt lat="45.078" lon="6.05133">
        <ele>1373.9</ele>
        <time>2020-08-05T09:09:42Z</time>
      </trkpt>
      <trkpt lat="45.07797" lon="6.05142">
        <ele>1374.7</ele>
        <time>2020-08-05T09:09:45Z</time>
      </trkpt>
      <trkpt lat="45.07795" lon="6.05146">
        <ele>1375</ele>
        <time>2020-08-05T09:09:46Z</time>
      </trkpt>
      <trkpt lat="45.07793" lon="6.05151">
        <ele>1375.4</ele>
        <time>2020-08-05T09:09:47Z</time>
      </trkpt>
      <trkpt lat="45.07792" lon="6.05152">
        <ele>1375.5</ele>
        <time>2020-08-05T09:09:48Z</time>
      </trkpt>
      <trkpt lat="45.0779" lon="6.05158">
        <ele>1375.9</ele>
        <time>2020-08-05T09:09:50Z</time>
      </trkpt>
      <trkpt lat="45.07789" lon="6.0516">
        <ele>1376.1</ele>
        <time>2020-08-05T09:09:51Z</time>
      </trkpt>
      <trkpt lat="45.07788" lon="6.05162">
        <ele>1376.2</ele>
        <time>2020-08-05T09:09:52Z</time>
      </trkpt>
      <trkpt lat="45.07786" lon="6.05166">
        <ele>1376.6</ele>
        <time>2020-08-05T09:09:53Z</time>
      </trkpt>
      <trkpt lat="45.07786" lon="6.05168">
        <ele>1376.7</ele>
        <time>2020-08-05T09:09:54Z</time>
      </trkpt>
      <trkpt lat="45.07784" lon="6.05171">
        <ele>1377</ele>
        <time>2020-08-05T09:09:55Z</time>
      </trkpt>
      <trkpt lat="45.07782" lon="6.05179">
        <ele>1377.6</ele>
        <time>2020-08-05T09:09:57Z</time>
      </trkpt>
      <trkpt lat="45.07781" lon="6.05184">
        <ele>1377.9</ele>
        <time>2020-08-05T09:09:59Z</time>
      </trkpt>
      <trkpt lat="45.0778" lon="6.05188">
        <ele>1378.2</ele>
        <time>2020-08-05T09:10:00Z</time>
      </trkpt>
      <trkpt lat="45.07779" lon="6.05192">
        <ele>1378.5</ele>
        <time>2020-08-05T09:10:01Z</time>
      </trkpt>
      <trkpt lat="45.07779" lon="6.05194">
        <ele>1378.7</ele>
        <time>2020-08-05T09:10:02Z</time>
      </trkpt>
      <trkpt lat="45.07777" lon="6.052">
        <ele>1379.1</ele>
        <time>2020-08-05T09:10:04Z</time>
      </trkpt>
      <trkpt lat="45.07776" lon="6.05204">
        <ele>1379.4</ele>
        <time>2020-08-05T09:10:05Z</time>
      </trkpt>
      <trkpt lat="45.07775" lon="6.05208">
        <ele>1379.7</ele>
        <time>2020-08-05T09:10:06Z</time>
      </trkpt>
      <trkpt lat="45.07775" lon="6.05213">
        <ele>1380.1</ele>
        <time>2020-08-05T09:10:08Z</time>
      </trkpt>
      <trkpt lat="45.07774" lon="6.05218">
        <ele>1380.4</ele>
        <time>2020-08-05T09:10:09Z</time>
      </trkpt>
      <trkpt lat="45.07773" lon="6.05223">
        <ele>1380.7</ele>
        <time>2020-08-05T09:10:11Z</time>
      </trkpt>
      <trkpt lat="45.07771" lon="6.05227">
        <ele>1381</ele>
        <time>2020-08-05T09:10:12Z</time>
      </trkpt>
      <trkpt lat="45.0777" lon="6.05231">
        <ele>1381.3</ele>
        <time>2020-08-05T09:10:14Z</time>
      </trkpt>
      <trkpt lat="45.07766" lon="6.05239">
        <ele>1381.9</ele>
        <time>2020-08-05T09:10:15Z</time>
      </trkpt>
      <trkpt lat="45.07764" lon="6.05243">
        <ele>1382.2</ele>
        <time>2020-08-05T09:10:17Z</time>
      </trkpt>
      <trkpt lat="45.07762" lon="6.05246">
        <ele>1382.5</ele>
        <time>2020-08-05T09:10:18Z</time>
      </trkpt>
      <trkpt lat="45.07758" lon="6.05254">
        <ele>1383</ele>
        <time>2020-08-05T09:10:20Z</time>
      </trkpt>
      <trkpt lat="45.07756" lon="6.05258">
        <ele>1383.3</ele>
        <time>2020-08-05T09:10:22Z</time>
      </trkpt>
      <trkpt lat="45.07752" lon="6.05265">
        <ele>1383.7</ele>
        <time>2020-08-05T09:10:24Z</time>
      </trkpt>
      <trkpt lat="45.07749" lon="6.05269">
        <ele>1384</ele>
        <time>2020-08-05T09:10:25Z</time>
      </trkpt>
      <trkpt lat="45.07746" lon="6.05273">
        <ele>1384.3</ele>
        <time>2020-08-05T09:10:27Z</time>
      </trkpt>
      <trkpt lat="45.07743" lon="6.05277">
        <ele>1384.6</ele>
        <time>2020-08-05T09:10:28Z</time>
      </trkpt>
      <trkpt lat="45.0774" lon="6.05281">
        <ele>1384.8</ele>
        <time>2020-08-05T09:10:30Z</time>
      </trkpt>
      <trkpt lat="45.07733" lon="6.05289">
        <ele>1385.4</ele>
        <time>2020-08-05T09:10:32Z</time>
      </trkpt>
      <trkpt lat="45.07731" lon="6.05292">
        <ele>1385.6</ele>
        <time>2020-08-05T09:10:34Z</time>
      </trkpt>
      <trkpt lat="45.07728" lon="6.05296">
        <ele>1385.8</ele>
        <time>2020-08-05T09:10:36Z</time>
      </trkpt>
      <trkpt lat="45.07723" lon="6.053">
        <ele>1386.2</ele>
        <time>2020-08-05T09:10:37Z</time>
      </trkpt>
      <trkpt lat="45.0772" lon="6.05303">
        <ele>1386.4</ele>
        <time>2020-08-05T09:10:38Z</time>
      </trkpt>
      <trkpt lat="45.07715" lon="6.05309">
        <ele>1386.9</ele>
        <time>2020-08-05T09:10:40Z</time>
      </trkpt>
      <trkpt lat="45.07712" lon="6.05312">
        <ele>1387.2</ele>
        <time>2020-08-05T09:10:41Z</time>
      </trkpt>
      <trkpt lat="45.07709" lon="6.05316">
        <ele>1387.4</ele>
        <time>2020-08-05T09:10:43Z</time>
      </trkpt>
      <trkpt lat="45.07707" lon="6.05321">
        <ele>1387.7</ele>
        <time>2020-08-05T09:10:45Z</time>
      </trkpt>
      <trkpt lat="45.07706" lon="6.05331">
        <ele>1388</ele>
        <time>2020-08-05T09:10:47Z</time>
      </trkpt>
      <trkpt lat="45.07706" lon="6.05335">
        <ele>1388.2</ele>
        <time>2020-08-05T09:10:48Z</time>
      </trkpt>
      <trkpt lat="45.07708" lon="6.05344">
        <ele>1388.5</ele>
        <time>2020-08-05T09:10:50Z</time>
      </trkpt>
      <trkpt lat="45.07709" lon="6.05348">
        <ele>1388.6</ele>
        <time>2020-08-05T09:10:51Z</time>
      </trkpt>
      <trkpt lat="45.07713" lon="6.05354">
        <ele>1388.9</ele>
        <time>2020-08-05T09:10:53Z</time>
      </trkpt>
      <trkpt lat="45.07718" lon="6.05359">
        <ele>1389.1</ele>
        <time>2020-08-05T09:10:54Z</time>
      </trkpt>
      <trkpt lat="45.07723" lon="6.05361">
        <ele>1389.4</ele>
        <time>2020-08-05T09:10:55Z</time>
      </trkpt>
      <trkpt lat="45.0773" lon="6.05362">
        <ele>1389.7</ele>
        <time>2020-08-05T09:10:58Z</time>
      </trkpt>
      <trkpt lat="45.07738" lon="6.05363">
        <ele>1390.1</ele>
        <time>2020-08-05T09:10:59Z</time>
      </trkpt>
      <trkpt lat="45.07746" lon="6.05364">
        <ele>1390.6</ele>
        <time>2020-08-05T09:11:02Z</time>
      </trkpt>
      <trkpt lat="45.0775" lon="6.05365">
        <ele>1390.8</ele>
        <time>2020-08-05T09:11:03Z</time>
      </trkpt>
      <trkpt lat="45.07753" lon="6.05365">
        <ele>1391.1</ele>
        <time>2020-08-05T09:11:04Z</time>
      </trkpt>
      <trkpt lat="45.07755" lon="6.05366">
        <ele>1391.3</ele>
        <time>2020-08-05T09:11:06Z</time>
      </trkpt>
      <trkpt lat="45.0776" lon="6.05367">
        <ele>1391.7</ele>
        <time>2020-08-05T09:11:08Z</time>
      </trkpt>
      <trkpt lat="45.07765" lon="6.05369">
        <ele>1392.1</ele>
        <time>2020-08-05T09:11:09Z</time>
      </trkpt>
      <trkpt lat="45.07768" lon="6.05371">
        <ele>1392.5</ele>
        <time>2020-08-05T09:11:11Z</time>
      </trkpt>
      <trkpt lat="45.07772" lon="6.05373">
        <ele>1392.9</ele>
        <time>2020-08-05T09:11:12Z</time>
      </trkpt>
      <trkpt lat="45.07774" lon="6.05374">
        <ele>1393.1</ele>
        <time>2020-08-05T09:11:13Z</time>
      </trkpt>
      <trkpt lat="45.07776" lon="6.05376">
        <ele>1393.4</ele>
        <time>2020-08-05T09:11:14Z</time>
      </trkpt>
      <trkpt lat="45.07779" lon="6.05379">
        <ele>1393.7</ele>
        <time>2020-08-05T09:11:15Z</time>
      </trkpt>
      <trkpt lat="45.07782" lon="6.05381">
        <ele>1394.1</ele>
        <time>2020-08-05T09:11:16Z</time>
      </trkpt>
      <trkpt lat="45.07786" lon="6.05383">
        <ele>1394.5</ele>
        <time>2020-08-05T09:11:18Z</time>
      </trkpt>
      <trkpt lat="45.07789" lon="6.05386">
        <ele>1394.9</ele>
        <time>2020-08-05T09:11:19Z</time>
      </trkpt>
      <trkpt lat="45.07792" lon="6.05389">
        <ele>1395.3</ele>
        <time>2020-08-05T09:11:21Z</time>
      </trkpt>
      <trkpt lat="45.07794" lon="6.05391">
        <ele>1395.6</ele>
        <time>2020-08-05T09:11:22Z</time>
      </trkpt>
      <trkpt lat="45.07796" lon="6.05393">
        <ele>1395.8</ele>
        <time>2020-08-05T09:11:24Z</time>
      </trkpt>
      <trkpt lat="45.07801" lon="6.05398">
        <ele>1396.4</ele>
        <time>2020-08-05T09:11:26Z</time>
      </trkpt>
      <trkpt lat="45.07804" lon="6.054">
        <ele>1396.8</ele>
        <time>2020-08-05T09:11:27Z</time>
      </trkpt>
      <trkpt lat="45.07807" lon="6.05402">
        <ele>1397.1</ele>
        <time>2020-08-05T09:11:28Z</time>
      </trkpt>
      <trkpt lat="45.07813" lon="6.05407">
        <ele>1397.8</ele>
        <time>2020-08-05T09:11:30Z</time>
      </trkpt>
      <trkpt lat="45.07817" lon="6.05409">
        <ele>1398.1</ele>
        <time>2020-08-05T09:11:32Z</time>
      </trkpt>
      <trkpt lat="45.07819" lon="6.0541">
        <ele>1398.4</ele>
        <time>2020-08-05T09:11:33Z</time>
      </trkpt>
      <trkpt lat="45.07822" lon="6.05412">
        <ele>1398.6</ele>
        <time>2020-08-05T09:11:35Z</time>
      </trkpt>
      <trkpt lat="45.07824" lon="6.05413">
        <ele>1398.9</ele>
        <time>2020-08-05T09:11:36Z</time>
      </trkpt>
      <trkpt lat="45.07832" lon="6.05419">
        <ele>1399.7</ele>
        <time>2020-08-05T09:11:38Z</time>
      </trkpt>
      <trkpt lat="45.07836" lon="6.05421">
        <ele>1400.1</ele>
        <time>2020-08-05T09:11:40Z</time>
      </trkpt>
      <trkpt lat="45.07839" lon="6.05424">
        <ele>1400.5</ele>
        <time>2020-08-05T09:11:41Z</time>
      </trkpt>
      <trkpt lat="45.07842" lon="6.05426">
        <ele>1400.8</ele>
        <time>2020-08-05T09:11:43Z</time>
      </trkpt>
      <trkpt lat="45.07847" lon="6.0543">
        <ele>1401.3</ele>
        <time>2020-08-05T09:11:45Z</time>
      </trkpt>
      <trkpt lat="45.0785" lon="6.05432">
        <ele>1401.6</ele>
        <time>2020-08-05T09:11:46Z</time>
      </trkpt>
      <trkpt lat="45.07857" lon="6.05435">
        <ele>1402.3</ele>
        <time>2020-08-05T09:11:48Z</time>
      </trkpt>
      <trkpt lat="45.07861" lon="6.05437">
        <ele>1402.6</ele>
        <time>2020-08-05T09:11:50Z</time>
      </trkpt>
      <trkpt lat="45.07868" lon="6.0544">
        <ele>1403.2</ele>
        <time>2020-08-05T09:11:52Z</time>
      </trkpt>
      <trkpt lat="45.07869" lon="6.05441">
        <ele>1403.4</ele>
        <time>2020-08-05T09:11:53Z</time>
      </trkpt>
      <trkpt lat="45.07873" lon="6.05443">
        <ele>1403.8</ele>
        <time>2020-08-05T09:11:56Z</time>
      </trkpt>
      <trkpt lat="45.07882" lon="6.05449">
        <ele>1404.7</ele>
        <time>2020-08-05T09:11:58Z</time>
      </trkpt>
      <trkpt lat="45.07885" lon="6.05451">
        <ele>1404.9</ele>
        <time>2020-08-05T09:11:59Z</time>
      </trkpt>
      <trkpt lat="45.07889" lon="6.05453">
        <ele>1405.4</ele>
        <time>2020-08-05T09:12:02Z</time>
      </trkpt>
      <trkpt lat="45.07892" lon="6.05455">
        <ele>1405.7</ele>
        <time>2020-08-05T09:12:03Z</time>
      </trkpt>
      <trkpt lat="45.07896" lon="6.05457">
        <ele>1406.1</ele>
        <time>2020-08-05T09:12:04Z</time>
      </trkpt>
      <trkpt lat="45.07898" lon="6.05458">
        <ele>1406.3</ele>
        <time>2020-08-05T09:12:05Z</time>
      </trkpt>
      <trkpt lat="45.07902" lon="6.0546">
        <ele>1406.7</ele>
        <time>2020-08-05T09:12:06Z</time>
      </trkpt>
      <trkpt lat="45.07906" lon="6.05462">
        <ele>1407.1</ele>
        <time>2020-08-05T09:12:08Z</time>
      </trkpt>
      <trkpt lat="45.07907" lon="6.05463">
        <ele>1407.2</ele>
        <time>2020-08-05T09:12:09Z</time>
      </trkpt>
      <trkpt lat="45.0791" lon="6.05465">
        <ele>1407.6</ele>
        <time>2020-08-05T09:12:10Z</time>
      </trkpt>
      <trkpt lat="45.07912" lon="6.05465">
        <ele>1407.7</ele>
        <time>2020-08-05T09:12:11Z</time>
      </trkpt>
      <trkpt lat="45.07917" lon="6.05468">
        <ele>1408.2</ele>
        <time>2020-08-05T09:12:12Z</time>
      </trkpt>
      <trkpt lat="45.0792" lon="6.0547">
        <ele>1408.6</ele>
        <time>2020-08-05T09:12:15Z</time>
      </trkpt>
      <trkpt lat="45.07924" lon="6.05472">
        <ele>1409.1</ele>
        <time>2020-08-05T09:12:16Z</time>
      </trkpt>
      <trkpt lat="45.07927" lon="6.05473">
        <ele>1409.4</ele>
        <time>2020-08-05T09:12:17Z</time>
      </trkpt>
      <trkpt lat="45.07934" lon="6.05474">
        <ele>1410</ele>
        <time>2020-08-05T09:12:19Z</time>
      </trkpt>
      <trkpt lat="45.07937" lon="6.05474">
        <ele>1410.4</ele>
        <time>2020-08-05T09:12:20Z</time>
      </trkpt>
      <trkpt lat="45.07941" lon="6.05473">
        <ele>1410.7</ele>
        <time>2020-08-05T09:12:21Z</time>
      </trkpt>
      <trkpt lat="45.07944" lon="6.05472">
        <ele>1411.1</ele>
        <time>2020-08-05T09:12:23Z</time>
      </trkpt>
      <trkpt lat="45.07947" lon="6.05471">
        <ele>1411.4</ele>
        <time>2020-08-05T09:12:24Z</time>
      </trkpt>
      <trkpt lat="45.07951" lon="6.0547">
        <ele>1411.8</ele>
        <time>2020-08-05T09:12:25Z</time>
      </trkpt>
      <trkpt lat="45.07954" lon="6.05468">
        <ele>1412.1</ele>
        <time>2020-08-05T09:12:27Z</time>
      </trkpt>
      <trkpt lat="45.07958" lon="6.05468">
        <ele>1412.5</ele>
        <time>2020-08-05T09:12:29Z</time>
      </trkpt>
      <trkpt lat="45.07966" lon="6.05466">
        <ele>1413.1</ele>
        <time>2020-08-05T09:12:30Z</time>
      </trkpt>
      <trkpt lat="45.0797" lon="6.05465">
        <ele>1413.5</ele>
        <time>2020-08-05T09:12:33Z</time>
      </trkpt>
      <trkpt lat="45.07974" lon="6.05464">
        <ele>1413.9</ele>
        <time>2020-08-05T09:12:34Z</time>
      </trkpt>
      <trkpt lat="45.07982" lon="6.05464">
        <ele>1414.5</ele>
        <time>2020-08-05T09:12:36Z</time>
      </trkpt>
      <trkpt lat="45.07987" lon="6.05465">
        <ele>1414.9</ele>
        <time>2020-08-05T09:12:38Z</time>
      </trkpt>
      <trkpt lat="45.0799" lon="6.05466">
        <ele>1415.2</ele>
        <time>2020-08-05T09:12:40Z</time>
      </trkpt>
      <trkpt lat="45.07995" lon="6.05469">
        <ele>1415.7</ele>
        <time>2020-08-05T09:12:42Z</time>
      </trkpt>
      <trkpt lat="45.08001" lon="6.0547">
        <ele>1416.2</ele>
        <time>2020-08-05T09:12:43Z</time>
      </trkpt>
      <trkpt lat="45.08004" lon="6.0547">
        <ele>1416.4</ele>
        <time>2020-08-05T09:12:45Z</time>
      </trkpt>
      <trkpt lat="45.08006" lon="6.0547">
        <ele>1416.6</ele>
        <time>2020-08-05T09:12:46Z</time>
      </trkpt>
      <trkpt lat="45.08012" lon="6.05471">
        <ele>1417.1</ele>
        <time>2020-08-05T09:12:48Z</time>
      </trkpt>
      <trkpt lat="45.08015" lon="6.05472">
        <ele>1417.4</ele>
        <time>2020-08-05T09:12:49Z</time>
      </trkpt>
      <trkpt lat="45.08018" lon="6.05473">
        <ele>1417.7</ele>
        <time>2020-08-05T09:12:50Z</time>
      </trkpt>
      <trkpt lat="45.08024" lon="6.05474">
        <ele>1418.3</ele>
        <time>2020-08-05T09:12:53Z</time>
      </trkpt>
      <trkpt lat="45.08028" lon="6.05474">
        <ele>1418.7</ele>
        <time>2020-08-05T09:12:54Z</time>
      </trkpt>
      <trkpt lat="45.08029" lon="6.05475">
        <ele>1418.8</ele>
        <time>2020-08-05T09:12:55Z</time>
      </trkpt>
      <trkpt lat="45.08033" lon="6.05476">
        <ele>1419.2</ele>
        <time>2020-08-05T09:12:57Z</time>
      </trkpt>
      <trkpt lat="45.08036" lon="6.05476">
        <ele>1419.5</ele>
        <time>2020-08-05T09:12:58Z</time>
      </trkpt>
      <trkpt lat="45.08037" lon="6.05476">
        <ele>1419.7</ele>
        <time>2020-08-05T09:12:59Z</time>
      </trkpt>
      <trkpt lat="45.08041" lon="6.05476">
        <ele>1420</ele>
        <time>2020-08-05T09:13:00Z</time>
      </trkpt>
      <trkpt lat="45.08042" lon="6.05477">
        <ele>1420.1</ele>
        <time>2020-08-05T09:13:01Z</time>
      </trkpt>
      <trkpt lat="45.08045" lon="6.05477">
        <ele>1420.4</ele>
        <time>2020-08-05T09:13:02Z</time>
      </trkpt>
      <trkpt lat="45.08048" lon="6.05478">
        <ele>1420.6</ele>
        <time>2020-08-05T09:13:03Z</time>
      </trkpt>
      <trkpt lat="45.08056" lon="6.0548">
        <ele>1421.3</ele>
        <time>2020-08-05T09:13:06Z</time>
      </trkpt>
      <trkpt lat="45.0806" lon="6.05482">
        <ele>1421.7</ele>
        <time>2020-08-05T09:13:08Z</time>
      </trkpt>
      <trkpt lat="45.08064" lon="6.05485">
        <ele>1422.1</ele>
        <time>2020-08-05T09:13:10Z</time>
      </trkpt>
      <trkpt lat="45.08069" lon="6.05491">
        <ele>1422.7</ele>
        <time>2020-08-05T09:13:11Z</time>
      </trkpt>
      <trkpt lat="45.08073" lon="6.05499">
        <ele>1423.2</ele>
        <time>2020-08-05T09:13:13Z</time>
      </trkpt>
      <trkpt lat="45.08074" lon="6.05502">
        <ele>1423.5</ele>
        <time>2020-08-05T09:13:14Z</time>
      </trkpt>
      <trkpt lat="45.08076" lon="6.05508">
        <ele>1423.8</ele>
        <time>2020-08-05T09:13:16Z</time>
      </trkpt>
      <trkpt lat="45.08079" lon="6.05516">
        <ele>1424.4</ele>
        <time>2020-08-05T09:13:18Z</time>
      </trkpt>
      <trkpt lat="45.0808" lon="6.0552">
        <ele>1424.7</ele>
        <time>2020-08-05T09:13:19Z</time>
      </trkpt>
      <trkpt lat="45.08081" lon="6.05527">
        <ele>1425.1</ele>
        <time>2020-08-05T09:13:20Z</time>
      </trkpt>
      <trkpt lat="45.08081" lon="6.05533">
        <ele>1425.4</ele>
        <time>2020-08-05T09:13:21Z</time>
      </trkpt>
      <trkpt lat="45.0808" lon="6.05538">
        <ele>1425.7</ele>
        <time>2020-08-05T09:13:23Z</time>
      </trkpt>
      <trkpt lat="45.08079" lon="6.05542">
        <ele>1426</ele>
        <time>2020-08-05T09:13:24Z</time>
      </trkpt>
      <trkpt lat="45.08076" lon="6.05548">
        <ele>1426.4</ele>
        <time>2020-08-05T09:13:25Z</time>
      </trkpt>
      <trkpt lat="45.08072" lon="6.05554">
        <ele>1426.9</ele>
        <time>2020-08-05T09:13:27Z</time>
      </trkpt>
      <trkpt lat="45.08069" lon="6.05555">
        <ele>1427.3</ele>
        <time>2020-08-05T09:13:28Z</time>
      </trkpt>
      <trkpt lat="45.08064" lon="6.05558">
        <ele>1427.8</ele>
        <time>2020-08-05T09:13:30Z</time>
      </trkpt>
      <trkpt lat="45.08059" lon="6.05562">
        <ele>1428.5</ele>
        <time>2020-08-05T09:13:32Z</time>
      </trkpt>
      <trkpt lat="45.08055" lon="6.05564">
        <ele>1428.9</ele>
        <time>2020-08-05T09:13:33Z</time>
      </trkpt>
      <trkpt lat="45.08053" lon="6.05565">
        <ele>1429.1</ele>
        <time>2020-08-05T09:13:34Z</time>
      </trkpt>
      <trkpt lat="45.0805" lon="6.05566">
        <ele>1429.4</ele>
        <time>2020-08-05T09:13:35Z</time>
      </trkpt>
      <trkpt lat="45.08049" lon="6.05566">
        <ele>1429.5</ele>
        <time>2020-08-05T09:13:36Z</time>
      </trkpt>
      <trkpt lat="45.08046" lon="6.05568">
        <ele>1429.9</ele>
        <time>2020-08-05T09:13:37Z</time>
      </trkpt>
      <trkpt lat="45.08045" lon="6.05568">
        <ele>1430</ele>
        <time>2020-08-05T09:13:38Z</time>
      </trkpt>
      <trkpt lat="45.08042" lon="6.05569">
        <ele>1430.4</ele>
        <time>2020-08-05T09:13:40Z</time>
      </trkpt>
      <trkpt lat="45.0804" lon="6.0557">
        <ele>1430.5</ele>
        <time>2020-08-05T09:13:41Z</time>
      </trkpt>
      <trkpt lat="45.08036" lon="6.05574">
        <ele>1431</ele>
        <time>2020-08-05T09:13:43Z</time>
      </trkpt>
      <trkpt lat="45.08033" lon="6.05577">
        <ele>1431.3</ele>
        <time>2020-08-05T09:13:44Z</time>
      </trkpt>
      <trkpt lat="45.0803" lon="6.0558">
        <ele>1431.7</ele>
        <time>2020-08-05T09:13:45Z</time>
      </trkpt>
      <trkpt lat="45.08024" lon="6.05586">
        <ele>1432.3</ele>
        <time>2020-08-05T09:13:47Z</time>
      </trkpt>
      <trkpt lat="45.08022" lon="6.05589">
        <ele>1432.6</ele>
        <time>2020-08-05T09:13:49Z</time>
      </trkpt>
      <trkpt lat="45.08019" lon="6.05592">
        <ele>1432.9</ele>
        <time>2020-08-05T09:13:50Z</time>
      </trkpt>
      <trkpt lat="45.08018" lon="6.05597">
        <ele>1433.2</ele>
        <time>2020-08-05T09:13:51Z</time>
      </trkpt>
      <trkpt lat="45.08014" lon="6.05606">
        <ele>1433.7</ele>
        <time>2020-08-05T09:13:54Z</time>
      </trkpt>
      <trkpt lat="45.08013" lon="6.0561">
        <ele>1433.9</ele>
        <time>2020-08-05T09:13:55Z</time>
      </trkpt>
      <trkpt lat="45.08012" lon="6.05615">
        <ele>1434.2</ele>
        <time>2020-08-05T09:13:56Z</time>
      </trkpt>
      <trkpt lat="45.08009" lon="6.05629">
        <ele>1435.2</ele>
        <time>2020-08-05T09:13:58Z</time>
      </trkpt>
      <trkpt lat="45.08008" lon="6.05635">
        <ele>1435.9</ele>
        <time>2020-08-05T09:14:00Z</time>
      </trkpt>
      <trkpt lat="45.08006" lon="6.05649">
        <ele>1437.2</ele>
        <time>2020-08-05T09:14:02Z</time>
      </trkpt>
      <trkpt lat="45.08005" lon="6.05655">
        <ele>1437.8</ele>
        <time>2020-08-05T09:14:04Z</time>
      </trkpt>
      <trkpt lat="45.08005" lon="6.05662">
        <ele>1438.4</ele>
        <time>2020-08-05T09:14:06Z</time>
      </trkpt>
      <trkpt lat="45.08005" lon="6.05668">
        <ele>1438.9</ele>
        <time>2020-08-05T09:14:07Z</time>
      </trkpt>
      <trkpt lat="45.08006" lon="6.05678">
        <ele>1439.8</ele>
        <time>2020-08-05T09:14:08Z</time>
      </trkpt>
      <trkpt lat="45.08007" lon="6.05684">
        <ele>1440.3</ele>
        <time>2020-08-05T09:14:09Z</time>
      </trkpt>
      <trkpt lat="45.08009" lon="6.05693">
        <ele>1441.1</ele>
        <time>2020-08-05T09:14:10Z</time>
      </trkpt>
      <trkpt lat="45.08014" lon="6.05709">
        <ele>1442.5</ele>
        <time>2020-08-05T09:14:13Z</time>
      </trkpt>
      <trkpt lat="45.08017" lon="6.05714">
        <ele>1443</ele>
        <time>2020-08-05T09:14:15Z</time>
      </trkpt>
      <trkpt lat="45.08021" lon="6.05725">
        <ele>1444</ele>
        <time>2020-08-05T09:14:17Z</time>
      </trkpt>
      <trkpt lat="45.08024" lon="6.05733">
        <ele>1444.7</ele>
        <time>2020-08-05T09:14:19Z</time>
      </trkpt>
      <trkpt lat="45.08029" lon="6.05745">
        <ele>1445.8</ele>
        <time>2020-08-05T09:14:21Z</time>
      </trkpt>
      <trkpt lat="45.08034" lon="6.05757">
        <ele>1447</ele>
        <time>2020-08-05T09:14:24Z</time>
      </trkpt>
      <trkpt lat="45.08037" lon="6.05764">
        <ele>1447.6</ele>
        <time>2020-08-05T09:14:26Z</time>
      </trkpt>
      <trkpt lat="45.08038" lon="6.05768">
        <ele>1448</ele>
        <time>2020-08-05T09:14:27Z</time>
      </trkpt>
      <trkpt lat="45.0804" lon="6.05774">
        <ele>1448.5</ele>
        <time>2020-08-05T09:14:28Z</time>
      </trkpt>
      <trkpt lat="45.08042" lon="6.05781">
        <ele>1449.3</ele>
        <time>2020-08-05T09:14:30Z</time>
      </trkpt>
      <trkpt lat="45.08044" lon="6.05786">
        <ele>1449.8</ele>
        <time>2020-08-05T09:14:32Z</time>
      </trkpt>
      <trkpt lat="45.08046" lon="6.0579">
        <ele>1450.3</ele>
        <time>2020-08-05T09:14:33Z</time>
      </trkpt>
      <trkpt lat="45.08049" lon="6.05796">
        <ele>1451.1</ele>
        <time>2020-08-05T09:14:34Z</time>
      </trkpt>
      <trkpt lat="45.0805" lon="6.05801">
        <ele>1451.6</ele>
        <time>2020-08-05T09:14:35Z</time>
      </trkpt>
      <trkpt lat="45.08054" lon="6.0581">
        <ele>1452.8</ele>
        <time>2020-08-05T09:14:37Z</time>
      </trkpt>
      <trkpt lat="45.08056" lon="6.05815">
        <ele>1453.4</ele>
        <time>2020-08-05T09:14:39Z</time>
      </trkpt>
      <trkpt lat="45.08058" lon="6.05818">
        <ele>1453.8</ele>
        <time>2020-08-05T09:14:40Z</time>
      </trkpt>
      <trkpt lat="45.08061" lon="6.05827">
        <ele>1454.8</ele>
        <time>2020-08-05T09:14:42Z</time>
      </trkpt>
      <trkpt lat="45.08064" lon="6.05832">
        <ele>1455.4</ele>
        <time>2020-08-05T09:14:43Z</time>
      </trkpt>
      <trkpt lat="45.08068" lon="6.05843">
        <ele>1456.5</ele>
        <time>2020-08-05T09:14:46Z</time>
      </trkpt>
      <trkpt lat="45.0807" lon="6.05848">
        <ele>1456.9</ele>
        <time>2020-08-05T09:14:48Z</time>
      </trkpt>
      <trkpt lat="45.08072" lon="6.05852">
        <ele>1457.3</ele>
        <time>2020-08-05T09:14:49Z</time>
      </trkpt>
      <trkpt lat="45.08075" lon="6.05859">
        <ele>1457.9</ele>
        <time>2020-08-05T09:14:51Z</time>
      </trkpt>
      <trkpt lat="45.08079" lon="6.05867">
        <ele>1458.7</ele>
        <time>2020-08-05T09:14:53Z</time>
      </trkpt>
      <trkpt lat="45.08081" lon="6.05872">
        <ele>1459.2</ele>
        <time>2020-08-05T09:14:54Z</time>
      </trkpt>
      <trkpt lat="45.08084" lon="6.05876">
        <ele>1459.6</ele>
        <time>2020-08-05T09:14:56Z</time>
      </trkpt>
      <trkpt lat="45.08087" lon="6.05879">
        <ele>1460</ele>
        <time>2020-08-05T09:14:58Z</time>
      </trkpt>
      <trkpt lat="45.08089" lon="6.05882">
        <ele>1460</ele>
        <time>2020-08-05T09:14:59Z</time>
      </trkpt>
      <trkpt lat="45.08091" lon="6.05885">
        <ele>1460.2</ele>
        <time>2020-08-05T09:15:00Z</time>
      </trkpt>
      <trkpt lat="45.08095" lon="6.0589">
        <ele>1460.6</ele>
        <time>2020-08-05T09:15:01Z</time>
      </trkpt>
      <trkpt lat="45.08099" lon="6.05897">
        <ele>1461.1</ele>
        <time>2020-08-05T09:15:03Z</time>
      </trkpt>
      <trkpt lat="45.08101" lon="6.05902">
        <ele>1461.5</ele>
        <time>2020-08-05T09:15:04Z</time>
      </trkpt>
      <trkpt lat="45.08103" lon="6.05906">
        <ele>1461.8</ele>
        <time>2020-08-05T09:15:06Z</time>
      </trkpt>
      <trkpt lat="45.08105" lon="6.05909">
        <ele>1462</ele>
        <time>2020-08-05T09:15:07Z</time>
      </trkpt>
      <trkpt lat="45.08107" lon="6.05912">
        <ele>1462.3</ele>
        <time>2020-08-05T09:15:08Z</time>
      </trkpt>
      <trkpt lat="45.0811" lon="6.05917">
        <ele>1462.7</ele>
        <time>2020-08-05T09:15:10Z</time>
      </trkpt>
      <trkpt lat="45.08112" lon="6.05919">
        <ele>1462.9</ele>
        <time>2020-08-05T09:15:11Z</time>
      </trkpt>
      <trkpt lat="45.08113" lon="6.05923">
        <ele>1463.2</ele>
        <time>2020-08-05T09:15:12Z</time>
      </trkpt>
      <trkpt lat="45.08115" lon="6.05928">
        <ele>1463.6</ele>
        <time>2020-08-05T09:15:13Z</time>
      </trkpt>
      <trkpt lat="45.08116" lon="6.0593">
        <ele>1463.8</ele>
        <time>2020-08-05T09:15:14Z</time>
      </trkpt>
      <trkpt lat="45.08118" lon="6.05935">
        <ele>1464.2</ele>
        <time>2020-08-05T09:15:16Z</time>
      </trkpt>
      <trkpt lat="45.08119" lon="6.05942">
        <ele>1464.7</ele>
        <time>2020-08-05T09:15:18Z</time>
      </trkpt>
      <trkpt lat="45.0812" lon="6.05944">
        <ele>1464.8</ele>
        <time>2020-08-05T09:15:19Z</time>
      </trkpt>
      <trkpt lat="45.0812" lon="6.05946">
        <ele>1465</ele>
        <time>2020-08-05T09:15:20Z</time>
      </trkpt>
      <trkpt lat="45.08122" lon="6.05951">
        <ele>1465.4</ele>
        <time>2020-08-05T09:15:21Z</time>
      </trkpt>
      <trkpt lat="45.08123" lon="6.05955">
        <ele>1465.4</ele>
        <time>2020-08-05T09:15:22Z</time>
      </trkpt>
      <trkpt lat="45.08124" lon="6.05962">
        <ele>1465.4</ele>
        <time>2020-08-05T09:15:24Z</time>
      </trkpt>
      <trkpt lat="45.08125" lon="6.05965">
        <ele>1465.5</ele>
        <time>2020-08-05T09:15:26Z</time>
      </trkpt>
      <trkpt lat="45.08127" lon="6.05972">
        <ele>1465.8</ele>
        <time>2020-08-05T09:15:27Z</time>
      </trkpt>
      <trkpt lat="45.08129" lon="6.05975">
        <ele>1466.2</ele>
        <time>2020-08-05T09:15:28Z</time>
      </trkpt>
      <trkpt lat="45.0813" lon="6.05978">
        <ele>1466.5</ele>
        <time>2020-08-05T09:15:29Z</time>
      </trkpt>
      <trkpt lat="45.08135" lon="6.05986">
        <ele>1467.4</ele>
        <time>2020-08-05T09:15:32Z</time>
      </trkpt>
      <trkpt lat="45.08138" lon="6.05989">
        <ele>1467.8</ele>
        <time>2020-08-05T09:15:34Z</time>
      </trkpt>
      <trkpt lat="45.08142" lon="6.05995">
        <ele>1468.5</ele>
        <time>2020-08-05T09:15:36Z</time>
      </trkpt>
      <trkpt lat="45.08143" lon="6.05998">
        <ele>1468.7</ele>
        <time>2020-08-05T09:15:37Z</time>
      </trkpt>
      <trkpt lat="45.08145" lon="6.06001">
        <ele>1469.1</ele>
        <time>2020-08-05T09:15:39Z</time>
      </trkpt>
      <trkpt lat="45.08147" lon="6.06003">
        <ele>1469.3</ele>
        <time>2020-08-05T09:15:40Z</time>
      </trkpt>
      <trkpt lat="45.08151" lon="6.0601">
        <ele>1469.9</ele>
        <time>2020-08-05T09:15:42Z</time>
      </trkpt>
      <trkpt lat="45.08153" lon="6.06014">
        <ele>1470.2</ele>
        <time>2020-08-05T09:15:44Z</time>
      </trkpt>
      <trkpt lat="45.08156" lon="6.06022">
        <ele>1470.8</ele>
        <time>2020-08-05T09:15:46Z</time>
      </trkpt>
      <trkpt lat="45.08157" lon="6.06026">
        <ele>1471</ele>
        <time>2020-08-05T09:15:48Z</time>
      </trkpt>
      <trkpt lat="45.08157" lon="6.0603">
        <ele>1471.3</ele>
        <time>2020-08-05T09:15:50Z</time>
      </trkpt>
      <trkpt lat="45.08159" lon="6.06035">
        <ele>1471.6</ele>
        <time>2020-08-05T09:15:51Z</time>
      </trkpt>
      <trkpt lat="45.08161" lon="6.06041">
        <ele>1472</ele>
        <time>2020-08-05T09:15:53Z</time>
      </trkpt>
      <trkpt lat="45.08162" lon="6.06044">
        <ele>1472.1</ele>
        <time>2020-08-05T09:15:54Z</time>
      </trkpt>
      <trkpt lat="45.08163" lon="6.06047">
        <ele>1472.4</ele>
        <time>2020-08-05T09:15:55Z</time>
      </trkpt>
      <trkpt lat="45.08165" lon="6.06053">
        <ele>1472.7</ele>
        <time>2020-08-05T09:15:57Z</time>
      </trkpt>
      <trkpt lat="45.08167" lon="6.06057">
        <ele>1473</ele>
        <time>2020-08-05T09:15:58Z</time>
      </trkpt>
      <trkpt lat="45.08168" lon="6.06059">
        <ele>1473.1</ele>
        <time>2020-08-05T09:15:59Z</time>
      </trkpt>
      <trkpt lat="45.08169" lon="6.06064">
        <ele>1473.4</ele>
        <time>2020-08-05T09:16:01Z</time>
      </trkpt>
      <trkpt lat="45.08171" lon="6.0607">
        <ele>1473.7</ele>
        <time>2020-08-05T09:16:03Z</time>
      </trkpt>
      <trkpt lat="45.08173" lon="6.06079">
        <ele>1474.2</ele>
        <time>2020-08-05T09:16:05Z</time>
      </trkpt>
      <trkpt lat="45.08176" lon="6.06087">
        <ele>1474.7</ele>
        <time>2020-08-05T09:16:08Z</time>
      </trkpt>
      <trkpt lat="45.08177" lon="6.06091">
        <ele>1474.9</ele>
        <time>2020-08-05T09:16:09Z</time>
      </trkpt>
      <trkpt lat="45.08177" lon="6.06093">
        <ele>1475</ele>
        <time>2020-08-05T09:16:10Z</time>
      </trkpt>
      <trkpt lat="45.08179" lon="6.06098">
        <ele>1475.3</ele>
        <time>2020-08-05T09:16:12Z</time>
      </trkpt>
      <trkpt lat="45.08179" lon="6.061">
        <ele>1475.4</ele>
        <time>2020-08-05T09:16:13Z</time>
      </trkpt>
      <trkpt lat="45.0818" lon="6.06105">
        <ele>1475.6</ele>
        <time>2020-08-05T09:16:15Z</time>
      </trkpt>
      <trkpt lat="45.08181" lon="6.06106">
        <ele>1475.7</ele>
        <time>2020-08-05T09:16:16Z</time>
      </trkpt>
      <trkpt lat="45.08182" lon="6.06109">
        <ele>1475.9</ele>
        <time>2020-08-05T09:16:17Z</time>
      </trkpt>
      <trkpt lat="45.08184" lon="6.06118">
        <ele>1476.4</ele>
        <time>2020-08-05T09:16:19Z</time>
      </trkpt>
      <trkpt lat="45.08185" lon="6.06121">
        <ele>1476.6</ele>
        <time>2020-08-05T09:16:20Z</time>
      </trkpt>
      <trkpt lat="45.08186" lon="6.06125">
        <ele>1476.8</ele>
        <time>2020-08-05T09:16:22Z</time>
      </trkpt>
      <trkpt lat="45.08187" lon="6.06129">
        <ele>1477</ele>
        <time>2020-08-05T09:16:23Z</time>
      </trkpt>
      <trkpt lat="45.08188" lon="6.06132">
        <ele>1477.2</ele>
        <time>2020-08-05T09:16:24Z</time>
      </trkpt>
      <trkpt lat="45.0819" lon="6.06139">
        <ele>1477.5</ele>
        <time>2020-08-05T09:16:26Z</time>
      </trkpt>
      <trkpt lat="45.08191" lon="6.06142">
        <ele>1477.7</ele>
        <time>2020-08-05T09:16:27Z</time>
      </trkpt>
      <trkpt lat="45.08192" lon="6.06145">
        <ele>1477.9</ele>
        <time>2020-08-05T09:16:29Z</time>
      </trkpt>
      <trkpt lat="45.08193" lon="6.06149">
        <ele>1478.1</ele>
        <time>2020-08-05T09:16:30Z</time>
      </trkpt>
      <trkpt lat="45.08193" lon="6.06153">
        <ele>1478.5</ele>
        <time>2020-08-05T09:16:31Z</time>
      </trkpt>
      <trkpt lat="45.08194" lon="6.06156">
        <ele>1478.8</ele>
        <time>2020-08-05T09:16:32Z</time>
      </trkpt>
      <trkpt lat="45.08195" lon="6.0616">
        <ele>1479.1</ele>
        <time>2020-08-05T09:16:34Z</time>
      </trkpt>
      <trkpt lat="45.08196" lon="6.06163">
        <ele>1479.4</ele>
        <time>2020-08-05T09:16:35Z</time>
      </trkpt>
      <trkpt lat="45.08198" lon="6.06173">
        <ele>1480.2</ele>
        <time>2020-08-05T09:16:37Z</time>
      </trkpt>
      <trkpt lat="45.082" lon="6.06179">
        <ele>1480.7</ele>
        <time>2020-08-05T09:16:38Z</time>
      </trkpt>
      <trkpt lat="45.08202" lon="6.06183">
        <ele>1481</ele>
        <time>2020-08-05T09:16:40Z</time>
      </trkpt>
      <trkpt lat="45.08203" lon="6.06186">
        <ele>1481.3</ele>
        <time>2020-08-05T09:16:41Z</time>
      </trkpt>
      <trkpt lat="45.08204" lon="6.0619">
        <ele>1481.6</ele>
        <time>2020-08-05T09:16:43Z</time>
      </trkpt>
      <trkpt lat="45.08205" lon="6.06194">
        <ele>1481.9</ele>
        <time>2020-08-05T09:16:44Z</time>
      </trkpt>
      <trkpt lat="45.08207" lon="6.06199">
        <ele>1482.3</ele>
        <time>2020-08-05T09:16:45Z</time>
      </trkpt>
      <trkpt lat="45.0821" lon="6.06208">
        <ele>1482.9</ele>
        <time>2020-08-05T09:16:47Z</time>
      </trkpt>
      <trkpt lat="45.08212" lon="6.06215">
        <ele>1483.4</ele>
        <time>2020-08-05T09:16:49Z</time>
      </trkpt>
      <trkpt lat="45.08214" lon="6.06219">
        <ele>1483.7</ele>
        <time>2020-08-05T09:16:50Z</time>
      </trkpt>
      <trkpt lat="45.08219" lon="6.0623">
        <ele>1484.5</ele>
        <time>2020-08-05T09:16:53Z</time>
      </trkpt>
      <trkpt lat="45.08223" lon="6.06234">
        <ele>1484.9</ele>
        <time>2020-08-05T09:16:55Z</time>
      </trkpt>
      <trkpt lat="45.08227" lon="6.06235">
        <ele>1485.1</ele>
        <time>2020-08-05T09:16:57Z</time>
      </trkpt>
      <trkpt lat="45.08231" lon="6.06235">
        <ele>1485.3</ele>
        <time>2020-08-05T09:16:58Z</time>
      </trkpt>
      <trkpt lat="45.08236" lon="6.06231">
        <ele>1485.6</ele>
        <time>2020-08-05T09:16:59Z</time>
      </trkpt>
      <trkpt lat="45.08239" lon="6.06227">
        <ele>1485.8</ele>
        <time>2020-08-05T09:17:00Z</time>
      </trkpt>
      <trkpt lat="45.08239" lon="6.06213">
        <ele>1486.2</ele>
        <time>2020-08-05T09:17:02Z</time>
      </trkpt>
      <trkpt lat="45.08235" lon="6.06203">
        <ele>1486.4</ele>
        <time>2020-08-05T09:17:05Z</time>
      </trkpt>
      <trkpt lat="45.08232" lon="6.06198">
        <ele>1486.6</ele>
        <time>2020-08-05T09:17:06Z</time>
      </trkpt>
      <trkpt lat="45.08229" lon="6.06193">
        <ele>1486.8</ele>
        <time>2020-08-05T09:17:07Z</time>
      </trkpt>
      <trkpt lat="45.08224" lon="6.06183">
        <ele>1487.2</ele>
        <time>2020-08-05T09:17:08Z</time>
      </trkpt>
      <trkpt lat="45.08217" lon="6.06167">
        <ele>1487.9</ele>
        <time>2020-08-05T09:17:11Z</time>
      </trkpt>
      <trkpt lat="45.08215" lon="6.0616">
        <ele>1488.2</ele>
        <time>2020-08-05T09:17:13Z</time>
      </trkpt>
      <trkpt lat="45.08214" lon="6.06153">
        <ele>1488.6</ele>
        <time>2020-08-05T09:17:14Z</time>
      </trkpt>
      <trkpt lat="45.08214" lon="6.06145">
        <ele>1489</ele>
        <time>2020-08-05T09:17:15Z</time>
      </trkpt>
      <trkpt lat="45.08214" lon="6.06138">
        <ele>1489.3</ele>
        <time>2020-08-05T09:17:17Z</time>
      </trkpt>
      <trkpt lat="45.08214" lon="6.06133">
        <ele>1489.6</ele>
        <time>2020-08-05T09:17:18Z</time>
      </trkpt>
      <trkpt lat="45.08215" lon="6.06128">
        <ele>1489.9</ele>
        <time>2020-08-05T09:17:20Z</time>
      </trkpt>
      <trkpt lat="45.08216" lon="6.0612">
        <ele>1490.3</ele>
        <time>2020-08-05T09:17:21Z</time>
      </trkpt>
      <trkpt lat="45.08216" lon="6.06114">
        <ele>1490.7</ele>
        <time>2020-08-05T09:17:23Z</time>
      </trkpt>
      <trkpt lat="45.08216" lon="6.06106">
        <ele>1491.2</ele>
        <time>2020-08-05T09:17:24Z</time>
      </trkpt>
      <trkpt lat="45.08218" lon="6.06095">
        <ele>1491.9</ele>
        <time>2020-08-05T09:17:26Z</time>
      </trkpt>
      <trkpt lat="45.08218" lon="6.06089">
        <ele>1492.3</ele>
        <time>2020-08-05T09:17:28Z</time>
      </trkpt>
      <trkpt lat="45.08219" lon="6.06079">
        <ele>1492.9</ele>
        <time>2020-08-05T09:17:30Z</time>
      </trkpt>
      <trkpt lat="45.08219" lon="6.06074">
        <ele>1493.3</ele>
        <time>2020-08-05T09:17:31Z</time>
      </trkpt>
      <trkpt lat="45.0822" lon="6.06068">
        <ele>1493.6</ele>
        <time>2020-08-05T09:17:33Z</time>
      </trkpt>
      <trkpt lat="45.0822" lon="6.06063">
        <ele>1494</ele>
        <time>2020-08-05T09:17:35Z</time>
      </trkpt>
      <trkpt lat="45.0822" lon="6.06053">
        <ele>1494.6</ele>
        <time>2020-08-05T09:17:36Z</time>
      </trkpt>
      <trkpt lat="45.08221" lon="6.06048">
        <ele>1494.9</ele>
        <time>2020-08-05T09:17:38Z</time>
      </trkpt>
      <trkpt lat="45.08222" lon="6.06044">
        <ele>1495.2</ele>
        <time>2020-08-05T09:17:40Z</time>
      </trkpt>
      <trkpt lat="45.08222" lon="6.0604">
        <ele>1495.5</ele>
        <time>2020-08-05T09:17:41Z</time>
      </trkpt>
      <trkpt lat="45.08223" lon="6.06031">
        <ele>1496</ele>
        <time>2020-08-05T09:17:42Z</time>
      </trkpt>
      <trkpt lat="45.08223" lon="6.06019">
        <ele>1496.9</ele>
        <time>2020-08-05T09:17:45Z</time>
      </trkpt>
      <trkpt lat="45.08224" lon="6.06015">
        <ele>1497.1</ele>
        <time>2020-08-05T09:17:46Z</time>
      </trkpt>
      <trkpt lat="45.08224" lon="6.06009">
        <ele>1497.5</ele>
        <time>2020-08-05T09:17:48Z</time>
      </trkpt>
      <trkpt lat="45.08225" lon="6.06004">
        <ele>1497.8</ele>
        <time>2020-08-05T09:17:49Z</time>
      </trkpt>
      <trkpt lat="45.08225" lon="6.06">
        <ele>1498</ele>
        <time>2020-08-05T09:17:50Z</time>
      </trkpt>
      <trkpt lat="45.08225" lon="6.05995">
        <ele>1498.3</ele>
        <time>2020-08-05T09:17:52Z</time>
      </trkpt>
      <trkpt lat="45.08226" lon="6.05989">
        <ele>1498.6</ele>
        <time>2020-08-05T09:17:53Z</time>
      </trkpt>
      <trkpt lat="45.08226" lon="6.05983">
        <ele>1498.9</ele>
        <time>2020-08-05T09:17:56Z</time>
      </trkpt>
      <trkpt lat="45.08226" lon="6.05978">
        <ele>1499.1</ele>
        <time>2020-08-05T09:17:57Z</time>
      </trkpt>
      <trkpt lat="45.08226" lon="6.05971">
        <ele>1499.4</ele>
        <time>2020-08-05T09:17:58Z</time>
      </trkpt>
      <trkpt lat="45.08227" lon="6.05962">
        <ele>1499.6</ele>
        <time>2020-08-05T09:18:00Z</time>
      </trkpt>
      <trkpt lat="45.08227" lon="6.0595">
        <ele>1499.7</ele>
        <time>2020-08-05T09:18:02Z</time>
      </trkpt>
      <trkpt lat="45.08227" lon="6.05944">
        <ele>1499.8</ele>
        <time>2020-08-05T09:18:04Z</time>
      </trkpt>
      <trkpt lat="45.08227" lon="6.05938">
        <ele>1500</ele>
        <time>2020-08-05T09:18:05Z</time>
      </trkpt>
      <trkpt lat="45.08227" lon="6.05932">
        <ele>1500.1</ele>
        <time>2020-08-05T09:18:06Z</time>
      </trkpt>
      <trkpt lat="45.08227" lon="6.0592">
        <ele>1500.4</ele>
        <time>2020-08-05T09:18:09Z</time>
      </trkpt>
      <trkpt lat="45.08227" lon="6.05915">
        <ele>1500.5</ele>
        <time>2020-08-05T09:18:11Z</time>
      </trkpt>
      <trkpt lat="45.08227" lon="6.05907">
        <ele>1500.6</ele>
        <time>2020-08-05T09:18:13Z</time>
      </trkpt>
      <trkpt lat="45.08227" lon="6.059">
        <ele>1500.8</ele>
        <time>2020-08-05T09:18:14Z</time>
      </trkpt>
      <trkpt lat="45.08228" lon="6.05892">
        <ele>1500.9</ele>
        <time>2020-08-05T09:18:17Z</time>
      </trkpt>
      <trkpt lat="45.08229" lon="6.05878">
        <ele>1501.1</ele>
        <time>2020-08-05T09:18:19Z</time>
      </trkpt>
      <trkpt lat="45.08229" lon="6.05873">
        <ele>1501.1</ele>
        <time>2020-08-05T09:18:21Z</time>
      </trkpt>
      <trkpt lat="45.08228" lon="6.05864">
        <ele>1501.1</ele>
        <time>2020-08-05T09:18:22Z</time>
      </trkpt>
      <trkpt lat="45.08228" lon="6.05859">
        <ele>1501.1</ele>
        <time>2020-08-05T09:18:24Z</time>
      </trkpt>
      <trkpt lat="45.08228" lon="6.05853">
        <ele>1501</ele>
        <time>2020-08-05T09:18:25Z</time>
      </trkpt>
      <trkpt lat="45.08228" lon="6.05843">
        <ele>1500.9</ele>
        <time>2020-08-05T09:18:26Z</time>
      </trkpt>
      <trkpt lat="45.08227" lon="6.05837">
        <ele>1500.7</ele>
        <time>2020-08-05T09:18:28Z</time>
      </trkpt>
      <trkpt lat="45.08228" lon="6.05826">
        <ele>1500.5</ele>
        <time>2020-08-05T09:18:29Z</time>
      </trkpt>
      <trkpt lat="45.0823" lon="6.05816">
        <ele>1500.4</ele>
        <time>2020-08-05T09:18:30Z</time>
      </trkpt>
      <trkpt lat="45.08231" lon="6.05808">
        <ele>1500.3</ele>
        <time>2020-08-05T09:18:32Z</time>
      </trkpt>
      <trkpt lat="45.08233" lon="6.05794">
        <ele>1500.2</ele>
        <time>2020-08-05T09:18:35Z</time>
      </trkpt>
      <trkpt lat="45.08235" lon="6.05789">
        <ele>1500.3</ele>
        <time>2020-08-05T09:18:36Z</time>
      </trkpt>
      <trkpt lat="45.08239" lon="6.05782">
        <ele>1500.6</ele>
        <time>2020-08-05T09:18:37Z</time>
      </trkpt>
      <trkpt lat="45.08244" lon="6.05777">
        <ele>1500.9</ele>
        <time>2020-08-05T09:18:38Z</time>
      </trkpt>
      <trkpt lat="45.08249" lon="6.05772">
        <ele>1501.4</ele>
        <time>2020-08-05T09:18:40Z</time>
      </trkpt>
      <trkpt lat="45.08253" lon="6.0577">
        <ele>1501.7</ele>
        <time>2020-08-05T09:18:42Z</time>
      </trkpt>
      <trkpt lat="45.08256" lon="6.05768">
        <ele>1502</ele>
        <time>2020-08-05T09:18:43Z</time>
      </trkpt>
      <trkpt lat="45.0826" lon="6.05766">
        <ele>1502.4</ele>
        <time>2020-08-05T09:18:44Z</time>
      </trkpt>
      <trkpt lat="45.08263" lon="6.05764">
        <ele>1502.7</ele>
        <time>2020-08-05T09:18:45Z</time>
      </trkpt>
      <trkpt lat="45.08271" lon="6.05764">
        <ele>1503.5</ele>
        <time>2020-08-05T09:18:47Z</time>
      </trkpt>
      <trkpt lat="45.08275" lon="6.05764">
        <ele>1503.9</ele>
        <time>2020-08-05T09:18:49Z</time>
      </trkpt>
      <trkpt lat="45.08281" lon="6.05763">
        <ele>1504.5</ele>
        <time>2020-08-05T09:18:51Z</time>
      </trkpt>
      <trkpt lat="45.08285" lon="6.05763">
        <ele>1504.9</ele>
        <time>2020-08-05T09:18:52Z</time>
      </trkpt>
      <trkpt lat="45.08295" lon="6.05763">
        <ele>1505.8</ele>
        <time>2020-08-05T09:18:55Z</time>
      </trkpt>
      <trkpt lat="45.08303" lon="6.05763">
        <ele>1506.5</ele>
        <time>2020-08-05T09:18:58Z</time>
      </trkpt>
      <trkpt lat="45.08307" lon="6.05763">
        <ele>1506.9</ele>
        <time>2020-08-05T09:19:00Z</time>
      </trkpt>
      <trkpt lat="45.08314" lon="6.05763">
        <ele>1507.5</ele>
        <time>2020-08-05T09:19:02Z</time>
      </trkpt>
      <trkpt lat="45.08318" lon="6.05763">
        <ele>1507.9</ele>
        <time>2020-08-05T09:19:03Z</time>
      </trkpt>
      <trkpt lat="45.08326" lon="6.05762">
        <ele>1508.7</ele>
        <time>2020-08-05T09:19:06Z</time>
      </trkpt>
      <trkpt lat="45.0833" lon="6.05761">
        <ele>1509.1</ele>
        <time>2020-08-05T09:19:07Z</time>
      </trkpt>
      <trkpt lat="45.08333" lon="6.0576">
        <ele>1509.4</ele>
        <time>2020-08-05T09:19:09Z</time>
      </trkpt>
      <trkpt lat="45.08336" lon="6.05759">
        <ele>1509.7</ele>
        <time>2020-08-05T09:19:10Z</time>
      </trkpt>
      <trkpt lat="45.0834" lon="6.05758">
        <ele>1510</ele>
        <time>2020-08-05T09:19:12Z</time>
      </trkpt>
      <trkpt lat="45.08349" lon="6.05757">
        <ele>1510.8</ele>
        <time>2020-08-05T09:19:14Z</time>
      </trkpt>
      <trkpt lat="45.08352" lon="6.05756">
        <ele>1511.1</ele>
        <time>2020-08-05T09:19:15Z</time>
      </trkpt>
      <trkpt lat="45.08356" lon="6.05755">
        <ele>1511.5</ele>
        <time>2020-08-05T09:19:16Z</time>
      </trkpt>
      <trkpt lat="45.08364" lon="6.05755">
        <ele>1512.2</ele>
        <time>2020-08-05T09:19:19Z</time>
      </trkpt>
      <trkpt lat="45.08367" lon="6.05758">
        <ele>1512.5</ele>
        <time>2020-08-05T09:19:21Z</time>
      </trkpt>
      <trkpt lat="45.08367" lon="6.05765">
        <ele>1512.8</ele>
        <time>2020-08-05T09:19:23Z</time>
      </trkpt>
      <trkpt lat="45.08359" lon="6.05772">
        <ele>1513.6</ele>
        <time>2020-08-05T09:19:25Z</time>
      </trkpt>
      <trkpt lat="45.08354" lon="6.05775">
        <ele>1514.1</ele>
        <time>2020-08-05T09:19:27Z</time>
      </trkpt>
      <trkpt lat="45.0835" lon="6.05779">
        <ele>1514.5</ele>
        <time>2020-08-05T09:19:29Z</time>
      </trkpt>
      <trkpt lat="45.08347" lon="6.05783">
        <ele>1514.8</ele>
        <time>2020-08-05T09:19:30Z</time>
      </trkpt>
      <trkpt lat="45.08343" lon="6.05786">
        <ele>1515.2</ele>
        <time>2020-08-05T09:19:31Z</time>
      </trkpt>
      <trkpt lat="45.0834" lon="6.05789">
        <ele>1515.6</ele>
        <time>2020-08-05T09:19:32Z</time>
      </trkpt>
      <trkpt lat="45.08337" lon="6.05792">
        <ele>1516</ele>
        <time>2020-08-05T09:19:34Z</time>
      </trkpt>
      <trkpt lat="45.08332" lon="6.058">
        <ele>1516.7</ele>
        <time>2020-08-05T09:19:36Z</time>
      </trkpt>
      <trkpt lat="45.08329" lon="6.05805">
        <ele>1517.2</ele>
        <time>2020-08-05T09:19:39Z</time>
      </trkpt>
      <trkpt lat="45.08328" lon="6.05808">
        <ele>1517.5</ele>
        <time>2020-08-05T09:19:40Z</time>
      </trkpt>
      <trkpt lat="45.08325" lon="6.05813">
        <ele>1517.9</ele>
        <time>2020-08-05T09:19:41Z</time>
      </trkpt>
      <trkpt lat="45.08324" lon="6.05816">
        <ele>1518.2</ele>
        <time>2020-08-05T09:19:42Z</time>
      </trkpt>
      <trkpt lat="45.08319" lon="6.05825">
        <ele>1518.9</ele>
        <time>2020-08-05T09:19:44Z</time>
      </trkpt>
      <trkpt lat="45.08316" lon="6.05833">
        <ele>1519.6</ele>
        <time>2020-08-05T09:19:47Z</time>
      </trkpt>
      <trkpt lat="45.08314" lon="6.05838">
        <ele>1520</ele>
        <time>2020-08-05T09:19:48Z</time>
      </trkpt>
      <trkpt lat="45.08312" lon="6.05843">
        <ele>1520.4</ele>
        <time>2020-08-05T09:19:50Z</time>
      </trkpt>
      <trkpt lat="45.08312" lon="6.05844">
        <ele>1520.5</ele>
        <time>2020-08-05T09:19:51Z</time>
      </trkpt>
      <trkpt lat="45.0831" lon="6.05849">
        <ele>1521</ele>
        <time>2020-08-05T09:19:52Z</time>
      </trkpt>
      <trkpt lat="45.08309" lon="6.05851">
        <ele>1521.1</ele>
        <time>2020-08-05T09:19:53Z</time>
      </trkpt>
      <trkpt lat="45.08308" lon="6.05856">
        <ele>1521.5</ele>
        <time>2020-08-05T09:19:55Z</time>
      </trkpt>
      <trkpt lat="45.08307" lon="6.05858">
        <ele>1521.6</ele>
        <time>2020-08-05T09:19:56Z</time>
      </trkpt>
      <trkpt lat="45.08305" lon="6.05864">
        <ele>1522.1</ele>
        <time>2020-08-05T09:19:57Z</time>
      </trkpt>
      <trkpt lat="45.08304" lon="6.05868">
        <ele>1522.4</ele>
        <time>2020-08-05T09:19:58Z</time>
      </trkpt>
      <trkpt lat="45.08303" lon="6.05873">
        <ele>1522.8</ele>
        <time>2020-08-05T09:20:01Z</time>
      </trkpt>
      <trkpt lat="45.08301" lon="6.05881">
        <ele>1523.3</ele>
        <time>2020-08-05T09:20:03Z</time>
      </trkpt>
      <trkpt lat="45.08301" lon="6.05887">
        <ele>1524</ele>
        <time>2020-08-05T09:20:04Z</time>
      </trkpt>
      <trkpt lat="45.083" lon="6.05894">
        <ele>1524.8</ele>
        <time>2020-08-05T09:20:06Z</time>
      </trkpt>
      <trkpt lat="45.083" lon="6.05898">
        <ele>1525.2</ele>
        <time>2020-08-05T09:20:07Z</time>
      </trkpt>
      <trkpt lat="45.08301" lon="6.05905">
        <ele>1526</ele>
        <time>2020-08-05T09:20:09Z</time>
      </trkpt>
      <trkpt lat="45.08301" lon="6.05911">
        <ele>1526.6</ele>
        <time>2020-08-05T09:20:10Z</time>
      </trkpt>
      <trkpt lat="45.08301" lon="6.05915">
        <ele>1527.1</ele>
        <time>2020-08-05T09:20:13Z</time>
      </trkpt>
      <trkpt lat="45.08301" lon="6.05926">
        <ele>1528.1</ele>
        <time>2020-08-05T09:20:15Z</time>
      </trkpt>
      <trkpt lat="45.08301" lon="6.05932">
        <ele>1528.7</ele>
        <time>2020-08-05T09:20:18Z</time>
      </trkpt>
      <trkpt lat="45.08301" lon="6.05936">
        <ele>1529.1</ele>
        <time>2020-08-05T09:20:19Z</time>
      </trkpt>
      <trkpt lat="45.08301" lon="6.05946">
        <ele>1530.1</ele>
        <time>2020-08-05T09:20:21Z</time>
      </trkpt>
      <trkpt lat="45.08301" lon="6.0595">
        <ele>1530.5</ele>
        <time>2020-08-05T09:20:22Z</time>
      </trkpt>
      <trkpt lat="45.08302" lon="6.05959">
        <ele>1531.4</ele>
        <time>2020-08-05T09:20:25Z</time>
      </trkpt>
      <trkpt lat="45.08303" lon="6.05966">
        <ele>1532.1</ele>
        <time>2020-08-05T09:20:27Z</time>
      </trkpt>
      <trkpt lat="45.08303" lon="6.05971">
        <ele>1532.6</ele>
        <time>2020-08-05T09:20:28Z</time>
      </trkpt>
      <trkpt lat="45.08304" lon="6.05981">
        <ele>1533.6</ele>
        <time>2020-08-05T09:20:31Z</time>
      </trkpt>
      <trkpt lat="45.08305" lon="6.05985">
        <ele>1534</ele>
        <time>2020-08-05T09:20:32Z</time>
      </trkpt>
      <trkpt lat="45.08305" lon="6.05989">
        <ele>1534.5</ele>
        <time>2020-08-05T09:20:34Z</time>
      </trkpt>
      <trkpt lat="45.08306" lon="6.05993">
        <ele>1534.9</ele>
        <time>2020-08-05T09:20:35Z</time>
      </trkpt>
      <trkpt lat="45.08306" lon="6.05997">
        <ele>1535.3</ele>
        <time>2020-08-05T09:20:36Z</time>
      </trkpt>
      <trkpt lat="45.08307" lon="6.06">
        <ele>1535.6</ele>
        <time>2020-08-05T09:20:37Z</time>
      </trkpt>
      <trkpt lat="45.08308" lon="6.06004">
        <ele>1536</ele>
        <time>2020-08-05T09:20:39Z</time>
      </trkpt>
      <trkpt lat="45.08309" lon="6.06014">
        <ele>1537</ele>
        <time>2020-08-05T09:20:41Z</time>
      </trkpt>
      <trkpt lat="45.0831" lon="6.06018">
        <ele>1537.4</ele>
        <time>2020-08-05T09:20:42Z</time>
      </trkpt>
      <trkpt lat="45.0831" lon="6.06022">
        <ele>1537.7</ele>
        <time>2020-08-05T09:20:44Z</time>
      </trkpt>
      <trkpt lat="45.08311" lon="6.06025">
        <ele>1538</ele>
        <time>2020-08-05T09:20:45Z</time>
      </trkpt>
      <trkpt lat="45.08312" lon="6.06029">
        <ele>1538.3</ele>
        <time>2020-08-05T09:20:47Z</time>
      </trkpt>
      <trkpt lat="45.08314" lon="6.06035">
        <ele>1538.8</ele>
        <time>2020-08-05T09:20:48Z</time>
      </trkpt>
      <trkpt lat="45.08315" lon="6.06041">
        <ele>1539.3</ele>
        <time>2020-08-05T09:20:50Z</time>
      </trkpt>
      <trkpt lat="45.08315" lon="6.06045">
        <ele>1539.5</ele>
        <time>2020-08-05T09:20:51Z</time>
      </trkpt>
      <trkpt lat="45.08316" lon="6.06051">
        <ele>1539.9</ele>
        <time>2020-08-05T09:20:52Z</time>
      </trkpt>
      <trkpt lat="45.08317" lon="6.06053">
        <ele>1540.1</ele>
        <time>2020-08-05T09:20:53Z</time>
      </trkpt>
      <trkpt lat="45.08317" lon="6.06058">
        <ele>1540.4</ele>
        <time>2020-08-05T09:20:54Z</time>
      </trkpt>
      <trkpt lat="45.08318" lon="6.06062">
        <ele>1540.7</ele>
        <time>2020-08-05T09:20:56Z</time>
      </trkpt>
      <trkpt lat="45.08318" lon="6.06065">
        <ele>1540.9</ele>
        <time>2020-08-05T09:20:57Z</time>
      </trkpt>
      <trkpt lat="45.0832" lon="6.06073">
        <ele>1541.4</ele>
        <time>2020-08-05T09:20:59Z</time>
      </trkpt>
      <trkpt lat="45.08321" lon="6.06077">
        <ele>1541.7</ele>
        <time>2020-08-05T09:21:01Z</time>
      </trkpt>
      <trkpt lat="45.08321" lon="6.0608">
        <ele>1541.9</ele>
        <time>2020-08-05T09:21:03Z</time>
      </trkpt>
      <trkpt lat="45.08324" lon="6.06091">
        <ele>1542.7</ele>
        <time>2020-08-05T09:21:05Z</time>
      </trkpt>
      <trkpt lat="45.08325" lon="6.06095">
        <ele>1543</ele>
        <time>2020-08-05T09:21:07Z</time>
      </trkpt>
      <trkpt lat="45.08326" lon="6.06098">
        <ele>1543.2</ele>
        <time>2020-08-05T09:21:08Z</time>
      </trkpt>
      <trkpt lat="45.08326" lon="6.06101">
        <ele>1543.4</ele>
        <time>2020-08-05T09:21:10Z</time>
      </trkpt>
      <trkpt lat="45.08328" lon="6.0611">
        <ele>1544</ele>
        <time>2020-08-05T09:21:11Z</time>
      </trkpt>
      <trkpt lat="45.08329" lon="6.06115">
        <ele>1544.3</ele>
        <time>2020-08-05T09:21:12Z</time>
      </trkpt>
      <trkpt lat="45.08329" lon="6.06116">
        <ele>1544.4</ele>
        <time>2020-08-05T09:21:13Z</time>
      </trkpt>
      <trkpt lat="45.0833" lon="6.06121">
        <ele>1544.8</ele>
        <time>2020-08-05T09:21:15Z</time>
      </trkpt>
      <trkpt lat="45.0833" lon="6.06127">
        <ele>1545.2</ele>
        <time>2020-08-05T09:21:17Z</time>
      </trkpt>
      <trkpt lat="45.08332" lon="6.06132">
        <ele>1545.5</ele>
        <time>2020-08-05T09:21:18Z</time>
      </trkpt>
      <trkpt lat="45.08334" lon="6.06141">
        <ele>1546.2</ele>
        <time>2020-08-05T09:21:20Z</time>
      </trkpt>
      <trkpt lat="45.08335" lon="6.06145">
        <ele>1546.4</ele>
        <time>2020-08-05T09:21:22Z</time>
      </trkpt>
      <trkpt lat="45.08336" lon="6.06149">
        <ele>1546.7</ele>
        <time>2020-08-05T09:21:23Z</time>
      </trkpt>
      <trkpt lat="45.08337" lon="6.06153">
        <ele>1547</ele>
        <time>2020-08-05T09:21:25Z</time>
      </trkpt>
      <trkpt lat="45.08338" lon="6.06156">
        <ele>1547.2</ele>
        <time>2020-08-05T09:21:26Z</time>
      </trkpt>
      <trkpt lat="45.08338" lon="6.0616">
        <ele>1547.5</ele>
        <time>2020-08-05T09:21:28Z</time>
      </trkpt>
      <trkpt lat="45.0834" lon="6.06168">
        <ele>1548.1</ele>
        <time>2020-08-05T09:21:29Z</time>
      </trkpt>
      <trkpt lat="45.08342" lon="6.06173">
        <ele>1548.5</ele>
        <time>2020-08-05T09:21:31Z</time>
      </trkpt>
      <trkpt lat="45.08343" lon="6.06179">
        <ele>1548.8</ele>
        <time>2020-08-05T09:21:32Z</time>
      </trkpt>
      <trkpt lat="45.08344" lon="6.06181">
        <ele>1549</ele>
        <time>2020-08-05T09:21:33Z</time>
      </trkpt>
      <trkpt lat="45.08345" lon="6.06186">
        <ele>1549.3</ele>
        <time>2020-08-05T09:21:35Z</time>
      </trkpt>
      <trkpt lat="45.08347" lon="6.06192">
        <ele>1549.8</ele>
        <time>2020-08-05T09:21:37Z</time>
      </trkpt>
      <trkpt lat="45.08349" lon="6.06201">
        <ele>1550.4</ele>
        <time>2020-08-05T09:21:39Z</time>
      </trkpt>
      <trkpt lat="45.0835" lon="6.06209">
        <ele>1551</ele>
        <time>2020-08-05T09:21:42Z</time>
      </trkpt>
      <trkpt lat="45.0835" lon="6.06214">
        <ele>1551.2</ele>
        <time>2020-08-05T09:21:43Z</time>
      </trkpt>
      <trkpt lat="45.0835" lon="6.06217">
        <ele>1551.5</ele>
        <time>2020-08-05T09:21:44Z</time>
      </trkpt>
      <trkpt lat="45.0835" lon="6.06222">
        <ele>1551.8</ele>
        <time>2020-08-05T09:21:47Z</time>
      </trkpt>
      <trkpt lat="45.0835" lon="6.06236">
        <ele>1552.6</ele>
        <time>2020-08-05T09:21:49Z</time>
      </trkpt>
      <trkpt lat="45.0835" lon="6.06248">
        <ele>1553.3</ele>
        <time>2020-08-05T09:21:52Z</time>
      </trkpt>
      <trkpt lat="45.0835" lon="6.06253">
        <ele>1553.5</ele>
        <time>2020-08-05T09:21:53Z</time>
      </trkpt>
      <trkpt lat="45.08351" lon="6.06258">
        <ele>1553.8</ele>
        <time>2020-08-05T09:21:55Z</time>
      </trkpt>
      <trkpt lat="45.08353" lon="6.06263">
        <ele>1554</ele>
        <time>2020-08-05T09:21:56Z</time>
      </trkpt>
      <trkpt lat="45.08354" lon="6.06266">
        <ele>1554.2</ele>
        <time>2020-08-05T09:21:58Z</time>
      </trkpt>
      <trkpt lat="45.08358" lon="6.06267">
        <ele>1554.4</ele>
        <time>2020-08-05T09:21:59Z</time>
      </trkpt>
      <trkpt lat="45.08365" lon="6.06265">
        <ele>1554.7</ele>
        <time>2020-08-05T09:22:00Z</time>
      </trkpt>
      <trkpt lat="45.0837" lon="6.06259">
        <ele>1555</ele>
        <time>2020-08-05T09:22:02Z</time>
      </trkpt>
      <trkpt lat="45.08372" lon="6.06245">
        <ele>1555.3</ele>
        <time>2020-08-05T09:22:04Z</time>
      </trkpt>
      <trkpt lat="45.08369" lon="6.06231">
        <ele>1555.6</ele>
        <time>2020-08-05T09:22:06Z</time>
      </trkpt>
      <trkpt lat="45.08368" lon="6.06225">
        <ele>1555.8</ele>
        <time>2020-08-05T09:22:07Z</time>
      </trkpt>
      <trkpt lat="45.08366" lon="6.06214">
        <ele>1556.1</ele>
        <time>2020-08-05T09:22:09Z</time>
      </trkpt>
      <trkpt lat="45.08365" lon="6.06196">
        <ele>1556.9</ele>
        <time>2020-08-05T09:22:11Z</time>
      </trkpt>
      <trkpt lat="45.08364" lon="6.06182">
        <ele>1557.6</ele>
        <time>2020-08-05T09:22:14Z</time>
      </trkpt>
      <trkpt lat="45.08365" lon="6.06177">
        <ele>1557.9</ele>
        <time>2020-08-05T09:22:16Z</time>
      </trkpt>
      <trkpt lat="45.08365" lon="6.06173">
        <ele>1558.2</ele>
        <time>2020-08-05T09:22:18Z</time>
      </trkpt>
      <trkpt lat="45.08365" lon="6.06168">
        <ele>1558.4</ele>
        <time>2020-08-05T09:22:19Z</time>
      </trkpt>
      <trkpt lat="45.08365" lon="6.06158">
        <ele>1559.1</ele>
        <time>2020-08-05T09:22:21Z</time>
      </trkpt>
      <trkpt lat="45.08367" lon="6.0615">
        <ele>1559.6</ele>
        <time>2020-08-05T09:22:23Z</time>
      </trkpt>
      <trkpt lat="45.08367" lon="6.06147">
        <ele>1560.1</ele>
        <time>2020-08-05T09:22:24Z</time>
      </trkpt>
      <trkpt lat="45.08368" lon="6.06143">
        <ele>1560.3</ele>
        <time>2020-08-05T09:22:26Z</time>
      </trkpt>
      <trkpt lat="45.08369" lon="6.06139">
        <ele>1560.6</ele>
        <time>2020-08-05T09:22:27Z</time>
      </trkpt>
      <trkpt lat="45.08371" lon="6.0613">
        <ele>1561.2</ele>
        <time>2020-08-05T09:22:28Z</time>
      </trkpt>
      <trkpt lat="45.08373" lon="6.06126">
        <ele>1561.5</ele>
        <time>2020-08-05T09:22:30Z</time>
      </trkpt>
      <trkpt lat="45.08374" lon="6.06122">
        <ele>1561.7</ele>
        <time>2020-08-05T09:22:32Z</time>
      </trkpt>
      <trkpt lat="45.08377" lon="6.06116">
        <ele>1562.2</ele>
        <time>2020-08-05T09:22:33Z</time>
      </trkpt>
      <trkpt lat="45.08378" lon="6.06112">
        <ele>1562.4</ele>
        <time>2020-08-05T09:22:35Z</time>
      </trkpt>
      <trkpt lat="45.08379" lon="6.06109">
        <ele>1562.7</ele>
        <time>2020-08-05T09:22:36Z</time>
      </trkpt>
      <trkpt lat="45.08381" lon="6.06102">
        <ele>1563.1</ele>
        <time>2020-08-05T09:22:38Z</time>
      </trkpt>
      <trkpt lat="45.08385" lon="6.06097">
        <ele>1563.7</ele>
        <time>2020-08-05T09:22:40Z</time>
      </trkpt>
      <trkpt lat="45.08386" lon="6.06093">
        <ele>1564</ele>
        <time>2020-08-05T09:22:41Z</time>
      </trkpt>
      <trkpt lat="45.08387" lon="6.06091">
        <ele>1564.1</ele>
        <time>2020-08-05T09:22:42Z</time>
      </trkpt>
      <trkpt lat="45.08389" lon="6.06085">
        <ele>1564.5</ele>
        <time>2020-08-05T09:22:44Z</time>
      </trkpt>
      <trkpt lat="45.08391" lon="6.06081">
        <ele>1564.9</ele>
        <time>2020-08-05T09:22:45Z</time>
      </trkpt>
      <trkpt lat="45.08392" lon="6.0608">
        <ele>1565</ele>
        <time>2020-08-05T09:22:46Z</time>
      </trkpt>
      <trkpt lat="45.08394" lon="6.06075">
        <ele>1565.4</ele>
        <time>2020-08-05T09:22:47Z</time>
      </trkpt>
      <trkpt lat="45.08397" lon="6.06068">
        <ele>1565.9</ele>
        <time>2020-08-05T09:22:49Z</time>
      </trkpt>
      <trkpt lat="45.08399" lon="6.06065">
        <ele>1566.1</ele>
        <time>2020-08-05T09:22:50Z</time>
      </trkpt>
      <trkpt lat="45.084" lon="6.06061">
        <ele>1566.4</ele>
        <time>2020-08-05T09:22:53Z</time>
      </trkpt>
      <trkpt lat="45.08403" lon="6.06056">
        <ele>1566.8</ele>
        <time>2020-08-05T09:22:55Z</time>
      </trkpt>
      <trkpt lat="45.08407" lon="6.0605">
        <ele>1567.4</ele>
        <time>2020-08-05T09:22:56Z</time>
      </trkpt>
      <trkpt lat="45.08412" lon="6.06046">
        <ele>1567.8</ele>
        <time>2020-08-05T09:22:58Z</time>
      </trkpt>
      <trkpt lat="45.08413" lon="6.06044">
        <ele>1568.1</ele>
        <time>2020-08-05T09:23:00Z</time>
      </trkpt>
      <trkpt lat="45.08415" lon="6.06042">
        <ele>1568.3</ele>
        <time>2020-08-05T09:23:01Z</time>
      </trkpt>
      <trkpt lat="45.08418" lon="6.0604">
        <ele>1568.6</ele>
        <time>2020-08-05T09:23:02Z</time>
      </trkpt>
      <trkpt lat="45.08419" lon="6.06039">
        <ele>1568.7</ele>
        <time>2020-08-05T09:23:03Z</time>
      </trkpt>
      <trkpt lat="45.08424" lon="6.06036">
        <ele>1569.1</ele>
        <time>2020-08-05T09:23:05Z</time>
      </trkpt>
      <trkpt lat="45.08425" lon="6.06035">
        <ele>1569.3</ele>
        <time>2020-08-05T09:23:06Z</time>
      </trkpt>
      <trkpt lat="45.08427" lon="6.06034">
        <ele>1569.4</ele>
        <time>2020-08-05T09:23:07Z</time>
      </trkpt>
      <trkpt lat="45.08429" lon="6.06033">
        <ele>1569.6</ele>
        <time>2020-08-05T09:23:08Z</time>
      </trkpt>
      <trkpt lat="45.08431" lon="6.06032">
        <ele>1569.8</ele>
        <time>2020-08-05T09:23:10Z</time>
      </trkpt>
      <trkpt lat="45.08435" lon="6.06031">
        <ele>1570.2</ele>
        <time>2020-08-05T09:23:11Z</time>
      </trkpt>
      <trkpt lat="45.08436" lon="6.0603">
        <ele>1570.4</ele>
        <time>2020-08-05T09:23:12Z</time>
      </trkpt>
      <trkpt lat="45.0844" lon="6.06028">
        <ele>1570.8</ele>
        <time>2020-08-05T09:23:13Z</time>
      </trkpt>
      <trkpt lat="45.08443" lon="6.06027">
        <ele>1571</ele>
        <time>2020-08-05T09:23:14Z</time>
      </trkpt>
      <trkpt lat="45.08446" lon="6.06026">
        <ele>1571.4</ele>
        <time>2020-08-05T09:23:17Z</time>
      </trkpt>
      <trkpt lat="45.08451" lon="6.06025">
        <ele>1571.8</ele>
        <time>2020-08-05T09:23:18Z</time>
      </trkpt>
      <trkpt lat="45.08453" lon="6.06025">
        <ele>1572</ele>
        <time>2020-08-05T09:23:19Z</time>
      </trkpt>
      <trkpt lat="45.08458" lon="6.06024">
        <ele>1572.5</ele>
        <time>2020-08-05T09:23:21Z</time>
      </trkpt>
      <trkpt lat="45.08462" lon="6.06022">
        <ele>1573.3</ele>
        <time>2020-08-05T09:23:24Z</time>
      </trkpt>
      <trkpt lat="45.08466" lon="6.06021">
        <ele>1573.9</ele>
        <time>2020-08-05T09:23:25Z</time>
      </trkpt>
      <trkpt lat="45.08472" lon="6.06018">
        <ele>1574.8</ele>
        <time>2020-08-05T09:23:27Z</time>
      </trkpt>
      <trkpt lat="45.08475" lon="6.06017">
        <ele>1575.2</ele>
        <time>2020-08-05T09:23:30Z</time>
      </trkpt>
      <trkpt lat="45.08478" lon="6.06016">
        <ele>1575.5</ele>
        <time>2020-08-05T09:23:31Z</time>
      </trkpt>
      <trkpt lat="45.08486" lon="6.06014">
        <ele>1576.7</ele>
        <time>2020-08-05T09:23:33Z</time>
      </trkpt>
      <trkpt lat="45.08492" lon="6.06012">
        <ele>1577.4</ele>
        <time>2020-08-05T09:23:35Z</time>
      </trkpt>
      <trkpt lat="45.08495" lon="6.06012">
        <ele>1577.7</ele>
        <time>2020-08-05T09:23:37Z</time>
      </trkpt>
      <trkpt lat="45.08497" lon="6.06012">
        <ele>1578.1</ele>
        <time>2020-08-05T09:23:38Z</time>
      </trkpt>
      <trkpt lat="45.085" lon="6.06011">
        <ele>1578.5</ele>
        <time>2020-08-05T09:23:40Z</time>
      </trkpt>
      <trkpt lat="45.08503" lon="6.0601">
        <ele>1578.8</ele>
        <time>2020-08-05T09:23:41Z</time>
      </trkpt>
      <trkpt lat="45.08509" lon="6.06008">
        <ele>1579.9</ele>
        <time>2020-08-05T09:23:43Z</time>
      </trkpt>
      <trkpt lat="45.08511" lon="6.06007">
        <ele>1580.2</ele>
        <time>2020-08-05T09:23:44Z</time>
      </trkpt>
      <trkpt lat="45.08514" lon="6.06007">
        <ele>1580.6</ele>
        <time>2020-08-05T09:23:46Z</time>
      </trkpt>
      <trkpt lat="45.08517" lon="6.06006">
        <ele>1581.1</ele>
        <time>2020-08-05T09:23:47Z</time>
      </trkpt>
      <trkpt lat="45.0852" lon="6.06004">
        <ele>1581.5</ele>
        <time>2020-08-05T09:23:48Z</time>
      </trkpt>
      <trkpt lat="45.08523" lon="6.06004">
        <ele>1581.9</ele>
        <time>2020-08-05T09:23:49Z</time>
      </trkpt>
      <trkpt lat="45.08525" lon="6.06003">
        <ele>1582.3</ele>
        <time>2020-08-05T09:23:50Z</time>
      </trkpt>
      <trkpt lat="45.08528" lon="6.06002">
        <ele>1582.7</ele>
        <time>2020-08-05T09:23:51Z</time>
      </trkpt>
      <trkpt lat="45.08531" lon="6.06001">
        <ele>1583.1</ele>
        <time>2020-08-05T09:23:52Z</time>
      </trkpt>
      <trkpt lat="45.08534" lon="6.05999">
        <ele>1583.6</ele>
        <time>2020-08-05T09:23:53Z</time>
      </trkpt>
      <trkpt lat="45.08536" lon="6.05998">
        <ele>1583.8</ele>
        <time>2020-08-05T09:23:54Z</time>
      </trkpt>
      <trkpt lat="45.08539" lon="6.05996">
        <ele>1584.3</ele>
        <time>2020-08-05T09:23:55Z</time>
      </trkpt>
      <trkpt lat="45.0854" lon="6.05996">
        <ele>1584.5</ele>
        <time>2020-08-05T09:23:56Z</time>
      </trkpt>
      <trkpt lat="45.08544" lon="6.05993">
        <ele>1585.1</ele>
        <time>2020-08-05T09:23:58Z</time>
      </trkpt>
      <trkpt lat="45.08547" lon="6.05992">
        <ele>1585.6</ele>
        <time>2020-08-05T09:23:59Z</time>
      </trkpt>
      <trkpt lat="45.0855" lon="6.0599">
        <ele>1586</ele>
        <time>2020-08-05T09:24:01Z</time>
      </trkpt>
      <trkpt lat="45.08553" lon="6.05988">
        <ele>1586.5</ele>
        <time>2020-08-05T09:24:03Z</time>
      </trkpt>
      <trkpt lat="45.08556" lon="6.05986">
        <ele>1586.9</ele>
        <time>2020-08-05T09:24:04Z</time>
      </trkpt>
      <trkpt lat="45.08562" lon="6.05982">
        <ele>1587.4</ele>
        <time>2020-08-05T09:24:05Z</time>
      </trkpt>
      <trkpt lat="45.08565" lon="6.05981">
        <ele>1587.6</ele>
        <time>2020-08-05T09:24:06Z</time>
      </trkpt>
      <trkpt lat="45.08567" lon="6.05979">
        <ele>1587.8</ele>
        <time>2020-08-05T09:24:08Z</time>
      </trkpt>
      <trkpt lat="45.08572" lon="6.05975">
        <ele>1588.2</ele>
        <time>2020-08-05T09:24:10Z</time>
      </trkpt>
      <trkpt lat="45.08575" lon="6.05972">
        <ele>1588.5</ele>
        <time>2020-08-05T09:24:12Z</time>
      </trkpt>
      <trkpt lat="45.08578" lon="6.05969">
        <ele>1588.7</ele>
        <time>2020-08-05T09:24:13Z</time>
      </trkpt>
      <trkpt lat="45.08581" lon="6.05966">
        <ele>1589</ele>
        <time>2020-08-05T09:24:14Z</time>
      </trkpt>
      <trkpt lat="45.08583" lon="6.05963">
        <ele>1589.3</ele>
        <time>2020-08-05T09:24:15Z</time>
      </trkpt>
      <trkpt lat="45.08587" lon="6.05959">
        <ele>1589.6</ele>
        <time>2020-08-05T09:24:17Z</time>
      </trkpt>
      <trkpt lat="45.08588" lon="6.05958">
        <ele>1589.8</ele>
        <time>2020-08-05T09:24:18Z</time>
      </trkpt>
      <trkpt lat="45.08589" lon="6.05956">
        <ele>1589.9</ele>
        <time>2020-08-05T09:24:19Z</time>
      </trkpt>
      <trkpt lat="45.08593" lon="6.05953">
        <ele>1590.2</ele>
        <time>2020-08-05T09:24:21Z</time>
      </trkpt>
      <trkpt lat="45.08595" lon="6.05951">
        <ele>1590.4</ele>
        <time>2020-08-05T09:24:22Z</time>
      </trkpt>
      <trkpt lat="45.08597" lon="6.05948">
        <ele>1590.7</ele>
        <time>2020-08-05T09:24:23Z</time>
      </trkpt>
      <trkpt lat="45.08601" lon="6.05945">
        <ele>1591</ele>
        <time>2020-08-05T09:24:25Z</time>
      </trkpt>
      <trkpt lat="45.08602" lon="6.05943">
        <ele>1591.2</ele>
        <time>2020-08-05T09:24:26Z</time>
      </trkpt>
      <trkpt lat="45.08606" lon="6.05939">
        <ele>1591.5</ele>
        <time>2020-08-05T09:24:28Z</time>
      </trkpt>
      <trkpt lat="45.08607" lon="6.05938">
        <ele>1591.6</ele>
        <time>2020-08-05T09:24:29Z</time>
      </trkpt>
      <trkpt lat="45.08614" lon="6.05931">
        <ele>1592.3</ele>
        <time>2020-08-05T09:24:31Z</time>
      </trkpt>
      <trkpt lat="45.08616" lon="6.05928">
        <ele>1592.6</ele>
        <time>2020-08-05T09:24:32Z</time>
      </trkpt>
      <trkpt lat="45.08622" lon="6.05922">
        <ele>1593.1</ele>
        <time>2020-08-05T09:24:35Z</time>
      </trkpt>
      <trkpt lat="45.08626" lon="6.05916">
        <ele>1593.6</ele>
        <time>2020-08-05T09:24:38Z</time>
      </trkpt>
      <trkpt lat="45.08628" lon="6.05914">
        <ele>1593.8</ele>
        <time>2020-08-05T09:24:39Z</time>
      </trkpt>
      <trkpt lat="45.0863" lon="6.05912">
        <ele>1594</ele>
        <time>2020-08-05T09:24:40Z</time>
      </trkpt>
      <trkpt lat="45.08633" lon="6.05909">
        <ele>1594.2</ele>
        <time>2020-08-05T09:24:41Z</time>
      </trkpt>
      <trkpt lat="45.08635" lon="6.05906">
        <ele>1594.4</ele>
        <time>2020-08-05T09:24:43Z</time>
      </trkpt>
      <trkpt lat="45.08638" lon="6.05903">
        <ele>1594.7</ele>
        <time>2020-08-05T09:24:44Z</time>
      </trkpt>
      <trkpt lat="45.08641" lon="6.059">
        <ele>1594.9</ele>
        <time>2020-08-05T09:24:46Z</time>
      </trkpt>
      <trkpt lat="45.08644" lon="6.05898">
        <ele>1595.1</ele>
        <time>2020-08-05T09:24:48Z</time>
      </trkpt>
      <trkpt lat="45.08647" lon="6.05895">
        <ele>1595.4</ele>
        <time>2020-08-05T09:24:49Z</time>
      </trkpt>
      <trkpt lat="45.08651" lon="6.05892">
        <ele>1595.6</ele>
        <time>2020-08-05T09:24:51Z</time>
      </trkpt>
      <trkpt lat="45.08651" lon="6.05891">
        <ele>1595.7</ele>
        <time>2020-08-05T09:24:52Z</time>
      </trkpt>
      <trkpt lat="45.08659" lon="6.05885">
        <ele>1596.3</ele>
        <time>2020-08-05T09:24:54Z</time>
      </trkpt>
      <trkpt lat="45.08662" lon="6.05882">
        <ele>1596.5</ele>
        <time>2020-08-05T09:24:56Z</time>
      </trkpt>
      <trkpt lat="45.08663" lon="6.05881">
        <ele>1596.6</ele>
        <time>2020-08-05T09:24:57Z</time>
      </trkpt>
      <trkpt lat="45.08666" lon="6.05879">
        <ele>1596.9</ele>
        <time>2020-08-05T09:24:59Z</time>
      </trkpt>
      <trkpt lat="45.08669" lon="6.05876">
        <ele>1597.3</ele>
        <time>2020-08-05T09:25:00Z</time>
      </trkpt>
      <trkpt lat="45.08672" lon="6.05873">
        <ele>1597.6</ele>
        <time>2020-08-05T09:25:01Z</time>
      </trkpt>
      <trkpt lat="45.08672" lon="6.05872">
        <ele>1597.8</ele>
        <time>2020-08-05T09:25:02Z</time>
      </trkpt>
      <trkpt lat="45.08675" lon="6.05869">
        <ele>1598.1</ele>
        <time>2020-08-05T09:25:03Z</time>
      </trkpt>
      <trkpt lat="45.08676" lon="6.05868">
        <ele>1598.3</ele>
        <time>2020-08-05T09:25:04Z</time>
      </trkpt>
      <trkpt lat="45.08678" lon="6.05865">
        <ele>1598.6</ele>
        <time>2020-08-05T09:25:05Z</time>
      </trkpt>
      <trkpt lat="45.08681" lon="6.05863">
        <ele>1598.9</ele>
        <time>2020-08-05T09:25:06Z</time>
      </trkpt>
      <trkpt lat="45.08683" lon="6.05861">
        <ele>1599.2</ele>
        <time>2020-08-05T09:25:08Z</time>
      </trkpt>
      <trkpt lat="45.08688" lon="6.05858">
        <ele>1599.7</ele>
        <time>2020-08-05T09:25:10Z</time>
      </trkpt>
      <trkpt lat="45.0869" lon="6.05856">
        <ele>1599.9</ele>
        <time>2020-08-05T09:25:11Z</time>
      </trkpt>
      <trkpt lat="45.08693" lon="6.05854">
        <ele>1600.3</ele>
        <time>2020-08-05T09:25:12Z</time>
      </trkpt>
      <trkpt lat="45.08694" lon="6.05854">
        <ele>1600.4</ele>
        <time>2020-08-05T09:25:13Z</time>
      </trkpt>
      <trkpt lat="45.08698" lon="6.05851">
        <ele>1600.8</ele>
        <time>2020-08-05T09:25:15Z</time>
      </trkpt>
      <trkpt lat="45.08699" lon="6.0585">
        <ele>1601</ele>
        <time>2020-08-05T09:25:16Z</time>
      </trkpt>
      <trkpt lat="45.08701" lon="6.05849">
        <ele>1601.1</ele>
        <time>2020-08-05T09:25:17Z</time>
      </trkpt>
      <trkpt lat="45.08703" lon="6.05847">
        <ele>1601.4</ele>
        <time>2020-08-05T09:25:18Z</time>
      </trkpt>
      <trkpt lat="45.08706" lon="6.05843">
        <ele>1601.8</ele>
        <time>2020-08-05T09:25:20Z</time>
      </trkpt>
      <trkpt lat="45.08708" lon="6.05841">
        <ele>1602.1</ele>
        <time>2020-08-05T09:25:22Z</time>
      </trkpt>
      <trkpt lat="45.08714" lon="6.05838">
        <ele>1602.7</ele>
        <time>2020-08-05T09:25:23Z</time>
      </trkpt>
      <trkpt lat="45.08719" lon="6.05833">
        <ele>1603.2</ele>
        <time>2020-08-05T09:25:26Z</time>
      </trkpt>
      <trkpt lat="45.08722" lon="6.05832">
        <ele>1603.5</ele>
        <time>2020-08-05T09:25:27Z</time>
      </trkpt>
      <trkpt lat="45.08725" lon="6.0583">
        <ele>1603.8</ele>
        <time>2020-08-05T09:25:29Z</time>
      </trkpt>
      <trkpt lat="45.08728" lon="6.05828">
        <ele>1604.1</ele>
        <time>2020-08-05T09:25:31Z</time>
      </trkpt>
      <trkpt lat="45.08729" lon="6.05827">
        <ele>1604.2</ele>
        <time>2020-08-05T09:25:32Z</time>
      </trkpt>
      <trkpt lat="45.08737" lon="6.05823">
        <ele>1604.9</ele>
        <time>2020-08-05T09:25:34Z</time>
      </trkpt>
      <trkpt lat="45.0874" lon="6.05821">
        <ele>1605.2</ele>
        <time>2020-08-05T09:25:36Z</time>
      </trkpt>
      <trkpt lat="45.08746" lon="6.05817">
        <ele>1605.8</ele>
        <time>2020-08-05T09:25:38Z</time>
      </trkpt>
      <trkpt lat="45.08749" lon="6.05815">
        <ele>1606</ele>
        <time>2020-08-05T09:25:40Z</time>
      </trkpt>
      <trkpt lat="45.08752" lon="6.05811">
        <ele>1606.4</ele>
        <time>2020-08-05T09:25:41Z</time>
      </trkpt>
      <trkpt lat="45.08755" lon="6.05808">
        <ele>1606.7</ele>
        <time>2020-08-05T09:25:43Z</time>
      </trkpt>
      <trkpt lat="45.08761" lon="6.05802">
        <ele>1607.3</ele>
        <time>2020-08-05T09:25:46Z</time>
      </trkpt>
      <trkpt lat="45.08764" lon="6.05799">
        <ele>1607.6</ele>
        <time>2020-08-05T09:25:47Z</time>
      </trkpt>
      <trkpt lat="45.08765" lon="6.05796">
        <ele>1607.9</ele>
        <time>2020-08-05T09:25:48Z</time>
      </trkpt>
      <trkpt lat="45.08767" lon="6.05794">
        <ele>1608.2</ele>
        <time>2020-08-05T09:25:50Z</time>
      </trkpt>
      <trkpt lat="45.08769" lon="6.05791">
        <ele>1608.5</ele>
        <time>2020-08-05T09:25:52Z</time>
      </trkpt>
      <trkpt lat="45.08772" lon="6.05787">
        <ele>1608.9</ele>
        <time>2020-08-05T09:25:54Z</time>
      </trkpt>
      <trkpt lat="45.08776" lon="6.0578">
        <ele>1609.6</ele>
        <time>2020-08-05T09:25:55Z</time>
      </trkpt>
      <trkpt lat="45.0878" lon="6.05775">
        <ele>1610.2</ele>
        <time>2020-08-05T09:25:57Z</time>
      </trkpt>
      <trkpt lat="45.08781" lon="6.05773">
        <ele>1610.4</ele>
        <time>2020-08-05T09:25:59Z</time>
      </trkpt>
      <trkpt lat="45.08783" lon="6.05771">
        <ele>1610.7</ele>
        <time>2020-08-05T09:26:00Z</time>
      </trkpt>
      <trkpt lat="45.08785" lon="6.05769">
        <ele>1611</ele>
        <time>2020-08-05T09:26:01Z</time>
      </trkpt>
      <trkpt lat="45.08787" lon="6.05764">
        <ele>1611.3</ele>
        <time>2020-08-05T09:26:02Z</time>
      </trkpt>
      <trkpt lat="45.0879" lon="6.0576">
        <ele>1611.8</ele>
        <time>2020-08-05T09:26:04Z</time>
      </trkpt>
      <trkpt lat="45.08792" lon="6.05757">
        <ele>1612.1</ele>
        <time>2020-08-05T09:26:05Z</time>
      </trkpt>
      <trkpt lat="45.08794" lon="6.05754">
        <ele>1612.4</ele>
        <time>2020-08-05T09:26:06Z</time>
      </trkpt>
      <trkpt lat="45.08797" lon="6.05748">
        <ele>1612.9</ele>
        <time>2020-08-05T09:26:08Z</time>
      </trkpt>
      <trkpt lat="45.08799" lon="6.05745">
        <ele>1613.2</ele>
        <time>2020-08-05T09:26:10Z</time>
      </trkpt>
      <trkpt lat="45.08802" lon="6.0574">
        <ele>1613.6</ele>
        <time>2020-08-05T09:26:11Z</time>
      </trkpt>
      <trkpt lat="45.08804" lon="6.05737">
        <ele>1614</ele>
        <time>2020-08-05T09:26:13Z</time>
      </trkpt>
      <trkpt lat="45.08805" lon="6.05734">
        <ele>1614.2</ele>
        <time>2020-08-05T09:26:14Z</time>
      </trkpt>
      <trkpt lat="45.08807" lon="6.0573">
        <ele>1614.5</ele>
        <time>2020-08-05T09:26:16Z</time>
      </trkpt>
      <trkpt lat="45.0881" lon="6.05726">
        <ele>1614.9</ele>
        <time>2020-08-05T09:26:17Z</time>
      </trkpt>
      <trkpt lat="45.08811" lon="6.05723">
        <ele>1615.2</ele>
        <time>2020-08-05T09:26:18Z</time>
      </trkpt>
      <trkpt lat="45.08813" lon="6.0572">
        <ele>1615.5</ele>
        <time>2020-08-05T09:26:20Z</time>
      </trkpt>
      <trkpt lat="45.08814" lon="6.05717">
        <ele>1615.8</ele>
        <time>2020-08-05T09:26:21Z</time>
      </trkpt>
      <trkpt lat="45.08817" lon="6.05711">
        <ele>1616.4</ele>
        <time>2020-08-05T09:26:23Z</time>
      </trkpt>
      <trkpt lat="45.08822" lon="6.05702">
        <ele>1617.3</ele>
        <time>2020-08-05T09:26:25Z</time>
      </trkpt>
      <trkpt lat="45.08827" lon="6.05693">
        <ele>1618.4</ele>
        <time>2020-08-05T09:26:28Z</time>
      </trkpt>
      <trkpt lat="45.08829" lon="6.05689">
        <ele>1618.8</ele>
        <time>2020-08-05T09:26:31Z</time>
      </trkpt>
      <trkpt lat="45.08832" lon="6.05684">
        <ele>1619.3</ele>
        <time>2020-08-05T09:26:32Z</time>
      </trkpt>
      <trkpt lat="45.08834" lon="6.05681">
        <ele>1619.6</ele>
        <time>2020-08-05T09:26:34Z</time>
      </trkpt>
      <trkpt lat="45.08835" lon="6.05674">
        <ele>1620.1</ele>
        <time>2020-08-05T09:26:36Z</time>
      </trkpt>
      <trkpt lat="45.08837" lon="6.05668">
        <ele>1620.6</ele>
        <time>2020-08-05T09:26:37Z</time>
      </trkpt>
      <trkpt lat="45.08837" lon="6.05666">
        <ele>1620.8</ele>
        <time>2020-08-05T09:26:38Z</time>
      </trkpt>
      <trkpt lat="45.08838" lon="6.05662">
        <ele>1621.1</ele>
        <time>2020-08-05T09:26:39Z</time>
      </trkpt>
      <trkpt lat="45.08839" lon="6.05655">
        <ele>1621.6</ele>
        <time>2020-08-05T09:26:41Z</time>
      </trkpt>
      <trkpt lat="45.0884" lon="6.05652">
        <ele>1621.8</ele>
        <time>2020-08-05T09:26:42Z</time>
      </trkpt>
      <trkpt lat="45.0884" lon="6.05645">
        <ele>1622.4</ele>
        <time>2020-08-05T09:26:44Z</time>
      </trkpt>
      <trkpt lat="45.08839" lon="6.0564">
        <ele>1622.7</ele>
        <time>2020-08-05T09:26:46Z</time>
      </trkpt>
      <trkpt lat="45.08838" lon="6.05634">
        <ele>1623.2</ele>
        <time>2020-08-05T09:26:48Z</time>
      </trkpt>
      <trkpt lat="45.08837" lon="6.05632">
        <ele>1623.4</ele>
        <time>2020-08-05T09:26:49Z</time>
      </trkpt>
      <trkpt lat="45.08836" lon="6.0563">
        <ele>1623.6</ele>
        <time>2020-08-05T09:26:50Z</time>
      </trkpt>
      <trkpt lat="45.08834" lon="6.05623">
        <ele>1624.1</ele>
        <time>2020-08-05T09:26:51Z</time>
      </trkpt>
      <trkpt lat="45.08832" lon="6.0562">
        <ele>1624.4</ele>
        <time>2020-08-05T09:26:52Z</time>
      </trkpt>
      <trkpt lat="45.0883" lon="6.05616">
        <ele>1624.8</ele>
        <time>2020-08-05T09:26:54Z</time>
      </trkpt>
      <trkpt lat="45.08828" lon="6.05613">
        <ele>1625.1</ele>
        <time>2020-08-05T09:26:55Z</time>
      </trkpt>
      <trkpt lat="45.08825" lon="6.05608">
        <ele>1625.5</ele>
        <time>2020-08-05T09:26:56Z</time>
      </trkpt>
      <trkpt lat="45.08823" lon="6.05605">
        <ele>1625.8</ele>
        <time>2020-08-05T09:26:58Z</time>
      </trkpt>
      <trkpt lat="45.08817" lon="6.05597">
        <ele>1626.7</ele>
        <time>2020-08-05T09:27:00Z</time>
      </trkpt>
      <trkpt lat="45.08816" lon="6.05591">
        <ele>1627.2</ele>
        <time>2020-08-05T09:27:02Z</time>
      </trkpt>
      <trkpt lat="45.08818" lon="6.05583">
        <ele>1627.8</ele>
        <time>2020-08-05T09:27:04Z</time>
      </trkpt>
      <trkpt lat="45.08823" lon="6.05583">
        <ele>1628.3</ele>
        <time>2020-08-05T09:27:05Z</time>
      </trkpt>
      <trkpt lat="45.08826" lon="6.05586">
        <ele>1628.7</ele>
        <time>2020-08-05T09:27:07Z</time>
      </trkpt>
      <trkpt lat="45.08829" lon="6.0559">
        <ele>1629.1</ele>
        <time>2020-08-05T09:27:09Z</time>
      </trkpt>
      <trkpt lat="45.08832" lon="6.05593">
        <ele>1629.5</ele>
        <time>2020-08-05T09:27:10Z</time>
      </trkpt>
      <trkpt lat="45.08834" lon="6.05596">
        <ele>1629.8</ele>
        <time>2020-08-05T09:27:11Z</time>
      </trkpt>
      <trkpt lat="45.08839" lon="6.056">
        <ele>1630.4</ele>
        <time>2020-08-05T09:27:13Z</time>
      </trkpt>
      <trkpt lat="45.08843" lon="6.05603">
        <ele>1630.9</ele>
        <time>2020-08-05T09:27:14Z</time>
      </trkpt>
      <trkpt lat="45.08846" lon="6.05606">
        <ele>1631.3</ele>
        <time>2020-08-05T09:27:15Z</time>
      </trkpt>
      <trkpt lat="45.08849" lon="6.05608">
        <ele>1631.6</ele>
        <time>2020-08-05T09:27:16Z</time>
      </trkpt>
      <trkpt lat="45.08855" lon="6.05612">
        <ele>1632.4</ele>
        <time>2020-08-05T09:27:19Z</time>
      </trkpt>
      <trkpt lat="45.08858" lon="6.05614">
        <ele>1632.8</ele>
        <time>2020-08-05T09:27:21Z</time>
      </trkpt>
      <trkpt lat="45.08864" lon="6.05618">
        <ele>1633.6</ele>
        <time>2020-08-05T09:27:23Z</time>
      </trkpt>
      <trkpt lat="45.0887" lon="6.05622">
        <ele>1634.3</ele>
        <time>2020-08-05T09:27:26Z</time>
      </trkpt>
      <trkpt lat="45.08873" lon="6.05624">
        <ele>1634.8</ele>
        <time>2020-08-05T09:27:28Z</time>
      </trkpt>
      <trkpt lat="45.08877" lon="6.05626">
        <ele>1635.2</ele>
        <time>2020-08-05T09:27:29Z</time>
      </trkpt>
      <trkpt lat="45.0888" lon="6.05628">
        <ele>1635.6</ele>
        <time>2020-08-05T09:27:31Z</time>
      </trkpt>
      <trkpt lat="45.08883" lon="6.05629">
        <ele>1636</ele>
        <time>2020-08-05T09:27:32Z</time>
      </trkpt>
      <trkpt lat="45.08887" lon="6.05632">
        <ele>1636.5</ele>
        <time>2020-08-05T09:27:34Z</time>
      </trkpt>
      <trkpt lat="45.08889" lon="6.05633">
        <ele>1636.7</ele>
        <time>2020-08-05T09:27:35Z</time>
      </trkpt>
      <trkpt lat="45.08891" lon="6.05634">
        <ele>1637.1</ele>
        <time>2020-08-05T09:27:36Z</time>
      </trkpt>
      <trkpt lat="45.08896" lon="6.05638">
        <ele>1637.7</ele>
        <time>2020-08-05T09:27:38Z</time>
      </trkpt>
      <trkpt lat="45.08897" lon="6.0564">
        <ele>1638</ele>
        <time>2020-08-05T09:27:39Z</time>
      </trkpt>
      <trkpt lat="45.08899" lon="6.05642">
        <ele>1638.2</ele>
        <time>2020-08-05T09:27:40Z</time>
      </trkpt>
      <trkpt lat="45.08901" lon="6.05645">
        <ele>1638.6</ele>
        <time>2020-08-05T09:27:41Z</time>
      </trkpt>
      <trkpt lat="45.08903" lon="6.0565">
        <ele>1639.1</ele>
        <time>2020-08-05T09:27:43Z</time>
      </trkpt>
      <trkpt lat="45.08904" lon="6.05653">
        <ele>1639.4</ele>
        <time>2020-08-05T09:27:44Z</time>
      </trkpt>
      <trkpt lat="45.08906" lon="6.05658">
        <ele>1639.8</ele>
        <time>2020-08-05T09:27:46Z</time>
      </trkpt>
      <trkpt lat="45.08906" lon="6.05659">
        <ele>1639.9</ele>
        <time>2020-08-05T09:27:47Z</time>
      </trkpt>
      <trkpt lat="45.08906" lon="6.05663">
        <ele>1640.3</ele>
        <time>2020-08-05T09:27:48Z</time>
      </trkpt>
      <trkpt lat="45.08909" lon="6.05673">
        <ele>1641.1</ele>
        <time>2020-08-05T09:27:50Z</time>
      </trkpt>
      <trkpt lat="45.0891" lon="6.05678">
        <ele>1641.5</ele>
        <time>2020-08-05T09:27:52Z</time>
      </trkpt>
      <trkpt lat="45.08911" lon="6.05686">
        <ele>1642.1</ele>
        <time>2020-08-05T09:27:54Z</time>
      </trkpt>
      <trkpt lat="45.08913" lon="6.05696">
        <ele>1642.9</ele>
        <time>2020-08-05T09:27:57Z</time>
      </trkpt>
      <trkpt lat="45.08913" lon="6.05702">
        <ele>1643.3</ele>
        <time>2020-08-05T09:27:59Z</time>
      </trkpt>
      <trkpt lat="45.08913" lon="6.0571">
        <ele>1644</ele>
        <time>2020-08-05T09:28:01Z</time>
      </trkpt>
      <trkpt lat="45.08914" lon="6.05714">
        <ele>1644.3</ele>
        <time>2020-08-05T09:28:02Z</time>
      </trkpt>
      <trkpt lat="45.08914" lon="6.05724">
        <ele>1645.1</ele>
        <time>2020-08-05T09:28:05Z</time>
      </trkpt>
      <trkpt lat="45.08915" lon="6.05728">
        <ele>1645.4</ele>
        <time>2020-08-05T09:28:06Z</time>
      </trkpt>
      <trkpt lat="45.08914" lon="6.05732">
        <ele>1645.8</ele>
        <time>2020-08-05T09:28:08Z</time>
      </trkpt>
      <trkpt lat="45.08915" lon="6.05739">
        <ele>1646.4</ele>
        <time>2020-08-05T09:28:10Z</time>
      </trkpt>
      <trkpt lat="45.08915" lon="6.05744">
        <ele>1646.8</ele>
        <time>2020-08-05T09:28:11Z</time>
      </trkpt>
      <trkpt lat="45.08915" lon="6.05747">
        <ele>1647</ele>
        <time>2020-08-05T09:28:12Z</time>
      </trkpt>
      <trkpt lat="45.08914" lon="6.05752">
        <ele>1647.4</ele>
        <time>2020-08-05T09:28:14Z</time>
      </trkpt>
      <trkpt lat="45.08915" lon="6.05755">
        <ele>1647.7</ele>
        <time>2020-08-05T09:28:15Z</time>
      </trkpt>
      <trkpt lat="45.08915" lon="6.05763">
        <ele>1648.4</ele>
        <time>2020-08-05T09:28:17Z</time>
      </trkpt>
      <trkpt lat="45.08916" lon="6.05767">
        <ele>1648.7</ele>
        <time>2020-08-05T09:28:19Z</time>
      </trkpt>
      <trkpt lat="45.08916" lon="6.05776">
        <ele>1649.5</ele>
        <time>2020-08-05T09:28:21Z</time>
      </trkpt>
      <trkpt lat="45.08917" lon="6.05781">
        <ele>1649.9</ele>
        <time>2020-08-05T09:28:23Z</time>
      </trkpt>
      <trkpt lat="45.08917" lon="6.05784">
        <ele>1650.2</ele>
        <time>2020-08-05T09:28:24Z</time>
      </trkpt>
      <trkpt lat="45.08917" lon="6.0579">
        <ele>1650.7</ele>
        <time>2020-08-05T09:28:26Z</time>
      </trkpt>
      <trkpt lat="45.08917" lon="6.05794">
        <ele>1651</ele>
        <time>2020-08-05T09:28:28Z</time>
      </trkpt>
      <trkpt lat="45.08917" lon="6.058">
        <ele>1651.5</ele>
        <time>2020-08-05T09:28:29Z</time>
      </trkpt>
      <trkpt lat="45.08917" lon="6.05806">
        <ele>1652</ele>
        <time>2020-08-05T09:28:30Z</time>
      </trkpt>
      <trkpt lat="45.08916" lon="6.05815">
        <ele>1652.8</ele>
        <time>2020-08-05T09:28:33Z</time>
      </trkpt>
      <trkpt lat="45.08916" lon="6.0582">
        <ele>1653.1</ele>
        <time>2020-08-05T09:28:34Z</time>
      </trkpt>
      <trkpt lat="45.08914" lon="6.05826">
        <ele>1653.7</ele>
        <time>2020-08-05T09:28:37Z</time>
      </trkpt>
      <trkpt lat="45.08913" lon="6.05832">
        <ele>1654.2</ele>
        <time>2020-08-05T09:28:38Z</time>
      </trkpt>
      <trkpt lat="45.08912" lon="6.0584">
        <ele>1654.9</ele>
        <time>2020-08-05T09:28:40Z</time>
      </trkpt>
      <trkpt lat="45.08911" lon="6.05846">
        <ele>1655.4</ele>
        <time>2020-08-05T09:28:42Z</time>
      </trkpt>
      <trkpt lat="45.08911" lon="6.05849">
        <ele>1655.5</ele>
        <time>2020-08-05T09:28:43Z</time>
      </trkpt>
      <trkpt lat="45.0891" lon="6.05852">
        <ele>1655.8</ele>
        <time>2020-08-05T09:28:44Z</time>
      </trkpt>
      <trkpt lat="45.08909" lon="6.05858">
        <ele>1656.3</ele>
        <time>2020-08-05T09:28:47Z</time>
      </trkpt>
      <trkpt lat="45.08908" lon="6.05863">
        <ele>1656.7</ele>
        <time>2020-08-05T09:28:48Z</time>
      </trkpt>
      <trkpt lat="45.08908" lon="6.05866">
        <ele>1657</ele>
        <time>2020-08-05T09:28:49Z</time>
      </trkpt>
      <trkpt lat="45.08907" lon="6.0587">
        <ele>1657.3</ele>
        <time>2020-08-05T09:28:51Z</time>
      </trkpt>
      <trkpt lat="45.08906" lon="6.05875">
        <ele>1657.7</ele>
        <time>2020-08-05T09:28:52Z</time>
      </trkpt>
      <trkpt lat="45.08904" lon="6.05885">
        <ele>1658.5</ele>
        <time>2020-08-05T09:28:54Z</time>
      </trkpt>
      <trkpt lat="45.08903" lon="6.0589">
        <ele>1658.9</ele>
        <time>2020-08-05T09:28:56Z</time>
      </trkpt>
      <trkpt lat="45.08903" lon="6.05894">
        <ele>1659.3</ele>
        <time>2020-08-05T09:28:57Z</time>
      </trkpt>
      <trkpt lat="45.08902" lon="6.05899">
        <ele>1659.7</ele>
        <time>2020-08-05T09:28:59Z</time>
      </trkpt>
      <trkpt lat="45.089" lon="6.05908">
        <ele>1660.4</ele>
        <time>2020-08-05T09:29:01Z</time>
      </trkpt>
      <trkpt lat="45.089" lon="6.05912">
        <ele>1660.7</ele>
        <time>2020-08-05T09:29:02Z</time>
      </trkpt>
      <trkpt lat="45.08899" lon="6.05916">
        <ele>1661</ele>
        <time>2020-08-05T09:29:04Z</time>
      </trkpt>
      <trkpt lat="45.08898" lon="6.05921">
        <ele>1661.4</ele>
        <time>2020-08-05T09:29:05Z</time>
      </trkpt>
      <trkpt lat="45.08897" lon="6.05925">
        <ele>1661.7</ele>
        <time>2020-08-05T09:29:06Z</time>
      </trkpt>
      <trkpt lat="45.08895" lon="6.05935">
        <ele>1662.6</ele>
        <time>2020-08-05T09:29:09Z</time>
      </trkpt>
      <trkpt lat="45.08894" lon="6.0594">
        <ele>1663</ele>
        <time>2020-08-05T09:29:11Z</time>
      </trkpt>
      <trkpt lat="45.08893" lon="6.05945">
        <ele>1663.4</ele>
        <time>2020-08-05T09:29:13Z</time>
      </trkpt>
      <trkpt lat="45.08892" lon="6.0595">
        <ele>1663.8</ele>
        <time>2020-08-05T09:29:14Z</time>
      </trkpt>
      <trkpt lat="45.08891" lon="6.05955">
        <ele>1664.1</ele>
        <time>2020-08-05T09:29:16Z</time>
      </trkpt>
      <trkpt lat="45.0889" lon="6.05961">
        <ele>1664.6</ele>
        <time>2020-08-05T09:29:17Z</time>
      </trkpt>
      <trkpt lat="45.08889" lon="6.05967">
        <ele>1665.1</ele>
        <time>2020-08-05T09:29:19Z</time>
      </trkpt>
      <trkpt lat="45.08889" lon="6.0597">
        <ele>1665.3</ele>
        <time>2020-08-05T09:29:20Z</time>
      </trkpt>
      <trkpt lat="45.08888" lon="6.05972">
        <ele>1665.5</ele>
        <time>2020-08-05T09:29:21Z</time>
      </trkpt>
      <trkpt lat="45.08888" lon="6.05977">
        <ele>1665.9</ele>
        <time>2020-08-05T09:29:22Z</time>
      </trkpt>
      <trkpt lat="45.08887" lon="6.05982">
        <ele>1666.3</ele>
        <time>2020-08-05T09:29:25Z</time>
      </trkpt>
      <trkpt lat="45.08886" lon="6.05987">
        <ele>1666.7</ele>
        <time>2020-08-05T09:29:26Z</time>
      </trkpt>
      <trkpt lat="45.08883" lon="6.05997">
        <ele>1667.5</ele>
        <time>2020-08-05T09:29:28Z</time>
      </trkpt>
      <trkpt lat="45.08882" lon="6.06">
        <ele>1667.8</ele>
        <time>2020-08-05T09:29:30Z</time>
      </trkpt>
      <trkpt lat="45.08878" lon="6.06008">
        <ele>1668.5</ele>
        <time>2020-08-05T09:29:32Z</time>
      </trkpt>
      <trkpt lat="45.08877" lon="6.06012">
        <ele>1668.9</ele>
        <time>2020-08-05T09:29:33Z</time>
      </trkpt>
      <trkpt lat="45.08874" lon="6.06017">
        <ele>1669.4</ele>
        <time>2020-08-05T09:29:35Z</time>
      </trkpt>
      <trkpt lat="45.08873" lon="6.06021">
        <ele>1669.7</ele>
        <time>2020-08-05T09:29:37Z</time>
      </trkpt>
      <trkpt lat="45.08872" lon="6.06025">
        <ele>1670.1</ele>
        <time>2020-08-05T09:29:38Z</time>
      </trkpt>
      <trkpt lat="45.0887" lon="6.06029">
        <ele>1670.4</ele>
        <time>2020-08-05T09:29:39Z</time>
      </trkpt>
      <trkpt lat="45.08869" lon="6.06032">
        <ele>1670.7</ele>
        <time>2020-08-05T09:29:40Z</time>
      </trkpt>
      <trkpt lat="45.08868" lon="6.06042">
        <ele>1671.4</ele>
        <time>2020-08-05T09:29:43Z</time>
      </trkpt>
      <trkpt lat="45.08869" lon="6.06048">
        <ele>1671.8</ele>
        <time>2020-08-05T09:29:45Z</time>
      </trkpt>
      <trkpt lat="45.08872" lon="6.0605">
        <ele>1672.2</ele>
        <time>2020-08-05T09:29:46Z</time>
      </trkpt>
      <trkpt lat="45.08874" lon="6.0605">
        <ele>1672.3</ele>
        <time>2020-08-05T09:29:47Z</time>
      </trkpt>
      <trkpt lat="45.0888" lon="6.06047">
        <ele>1672.8</ele>
        <time>2020-08-05T09:29:49Z</time>
      </trkpt>
      <trkpt lat="45.08883" lon="6.06045">
        <ele>1673.1</ele>
        <time>2020-08-05T09:29:50Z</time>
      </trkpt>
      <trkpt lat="45.08887" lon="6.0604">
        <ele>1673.5</ele>
        <time>2020-08-05T09:29:53Z</time>
      </trkpt>
      <trkpt lat="45.08888" lon="6.06037">
        <ele>1673.7</ele>
        <time>2020-08-05T09:29:54Z</time>
      </trkpt>
      <trkpt lat="45.08892" lon="6.06032">
        <ele>1674.1</ele>
        <time>2020-08-05T09:29:56Z</time>
      </trkpt>
      <trkpt lat="45.08894" lon="6.0603">
        <ele>1674.3</ele>
        <time>2020-08-05T09:29:57Z</time>
      </trkpt>
      <trkpt lat="45.08898" lon="6.06024">
        <ele>1674.8</ele>
        <time>2020-08-05T09:29:58Z</time>
      </trkpt>
      <trkpt lat="45.08902" lon="6.0602">
        <ele>1675.2</ele>
        <time>2020-08-05T09:29:59Z</time>
      </trkpt>
      <trkpt lat="45.08906" lon="6.06018">
        <ele>1675.6</ele>
        <time>2020-08-05T09:30:01Z</time>
      </trkpt>
      <trkpt lat="45.08912" lon="6.06013">
        <ele>1676.4</ele>
        <time>2020-08-05T09:30:03Z</time>
      </trkpt>
      <trkpt lat="45.08916" lon="6.0601">
        <ele>1676.8</ele>
        <time>2020-08-05T09:30:05Z</time>
      </trkpt>
      <trkpt lat="45.08919" lon="6.06008">
        <ele>1677.2</ele>
        <time>2020-08-05T09:30:07Z</time>
      </trkpt>
      <trkpt lat="45.08924" lon="6.06003">
        <ele>1677.9</ele>
        <time>2020-08-05T09:30:08Z</time>
      </trkpt>
      <trkpt lat="45.0893" lon="6.05996">
        <ele>1678.8</ele>
        <time>2020-08-05T09:30:11Z</time>
      </trkpt>
      <trkpt lat="45.08933" lon="6.05993">
        <ele>1679.2</ele>
        <time>2020-08-05T09:30:13Z</time>
      </trkpt>
      <trkpt lat="45.0894" lon="6.05987">
        <ele>1680.1</ele>
        <time>2020-08-05T09:30:15Z</time>
      </trkpt>
      <trkpt lat="45.08947" lon="6.05981">
        <ele>1681.1</ele>
        <time>2020-08-05T09:30:18Z</time>
      </trkpt>
      <trkpt lat="45.08953" lon="6.05976">
        <ele>1681.9</ele>
        <time>2020-08-05T09:30:21Z</time>
      </trkpt>
      <trkpt lat="45.08955" lon="6.05974">
        <ele>1682.3</ele>
        <time>2020-08-05T09:30:22Z</time>
      </trkpt>
      <trkpt lat="45.08957" lon="6.05971">
        <ele>1682.6</ele>
        <time>2020-08-05T09:30:23Z</time>
      </trkpt>
      <trkpt lat="45.08963" lon="6.05966">
        <ele>1683.3</ele>
        <time>2020-08-05T09:30:26Z</time>
      </trkpt>
      <trkpt lat="45.08965" lon="6.05964">
        <ele>1683.6</ele>
        <time>2020-08-05T09:30:27Z</time>
      </trkpt>
      <trkpt lat="45.08967" lon="6.05962">
        <ele>1683.9</ele>
        <time>2020-08-05T09:30:28Z</time>
      </trkpt>
      <trkpt lat="45.08969" lon="6.05959">
        <ele>1684.3</ele>
        <time>2020-08-05T09:30:30Z</time>
      </trkpt>
      <trkpt lat="45.08972" lon="6.05955">
        <ele>1684.8</ele>
        <time>2020-08-05T09:30:32Z</time>
      </trkpt>
      <trkpt lat="45.08975" lon="6.05952">
        <ele>1685.2</ele>
        <time>2020-08-05T09:30:34Z</time>
      </trkpt>
      <trkpt lat="45.08977" lon="6.05948">
        <ele>1685.6</ele>
        <time>2020-08-05T09:30:35Z</time>
      </trkpt>
      <trkpt lat="45.08983" lon="6.05941">
        <ele>1686.4</ele>
        <time>2020-08-05T09:30:37Z</time>
      </trkpt>
      <trkpt lat="45.08987" lon="6.05935">
        <ele>1687.1</ele>
        <time>2020-08-05T09:30:40Z</time>
      </trkpt>
      <trkpt lat="45.08989" lon="6.05933">
        <ele>1687.4</ele>
        <time>2020-08-05T09:30:41Z</time>
      </trkpt>
      <trkpt lat="45.08991" lon="6.0593">
        <ele>1687.6</ele>
        <time>2020-08-05T09:30:42Z</time>
      </trkpt>
      <trkpt lat="45.08993" lon="6.05926">
        <ele>1688.1</ele>
        <time>2020-08-05T09:30:45Z</time>
      </trkpt>
      <trkpt lat="45.08996" lon="6.05922">
        <ele>1688.5</ele>
        <time>2020-08-05T09:30:46Z</time>
      </trkpt>
      <trkpt lat="45.09" lon="6.05917">
        <ele>1689.1</ele>
        <time>2020-08-05T09:30:48Z</time>
      </trkpt>
      <trkpt lat="45.09004" lon="6.05913">
        <ele>1689.6</ele>
        <time>2020-08-05T09:30:49Z</time>
      </trkpt>
      <trkpt lat="45.09005" lon="6.05912">
        <ele>1689.7</ele>
        <time>2020-08-05T09:30:50Z</time>
      </trkpt>
      <trkpt lat="45.09009" lon="6.05904">
        <ele>1690.5</ele>
        <time>2020-08-05T09:30:53Z</time>
      </trkpt>
      <trkpt lat="45.09012" lon="6.05901">
        <ele>1690.9</ele>
        <time>2020-08-05T09:30:56Z</time>
      </trkpt>
      <trkpt lat="45.09015" lon="6.05897">
        <ele>1691.4</ele>
        <time>2020-08-05T09:30:57Z</time>
      </trkpt>
      <trkpt lat="45.09019" lon="6.05891">
        <ele>1692.1</ele>
        <time>2020-08-05T09:30:59Z</time>
      </trkpt>
      <trkpt lat="45.09021" lon="6.05888">
        <ele>1692.5</ele>
        <time>2020-08-05T09:31:01Z</time>
      </trkpt>
      <trkpt lat="45.09024" lon="6.05884">
        <ele>1692.9</ele>
        <time>2020-08-05T09:31:02Z</time>
      </trkpt>
      <trkpt lat="45.09026" lon="6.05882">
        <ele>1693.2</ele>
        <time>2020-08-05T09:31:03Z</time>
      </trkpt>
      <trkpt lat="45.09027" lon="6.0588">
        <ele>1693.4</ele>
        <time>2020-08-05T09:31:05Z</time>
      </trkpt>
      <trkpt lat="45.09029" lon="6.05877">
        <ele>1693.7</ele>
        <time>2020-08-05T09:31:06Z</time>
      </trkpt>
      <trkpt lat="45.09034" lon="6.05871">
        <ele>1694.5</ele>
        <time>2020-08-05T09:31:08Z</time>
      </trkpt>
      <trkpt lat="45.09036" lon="6.05867">
        <ele>1694.8</ele>
        <time>2020-08-05T09:31:10Z</time>
      </trkpt>
      <trkpt lat="45.09039" lon="6.05862">
        <ele>1695.4</ele>
        <time>2020-08-05T09:31:12Z</time>
      </trkpt>
      <trkpt lat="45.09041" lon="6.05859">
        <ele>1695.7</ele>
        <time>2020-08-05T09:31:13Z</time>
      </trkpt>
      <trkpt lat="45.09045" lon="6.05853">
        <ele>1696.4</ele>
        <time>2020-08-05T09:31:15Z</time>
      </trkpt>
      <trkpt lat="45.09047" lon="6.0585">
        <ele>1696.7</ele>
        <time>2020-08-05T09:31:17Z</time>
      </trkpt>
      <trkpt lat="45.09049" lon="6.05847">
        <ele>1697</ele>
        <time>2020-08-05T09:31:18Z</time>
      </trkpt>
      <trkpt lat="45.09052" lon="6.05842">
        <ele>1697.5</ele>
        <time>2020-08-05T09:31:20Z</time>
      </trkpt>
      <trkpt lat="45.09054" lon="6.0584">
        <ele>1697.8</ele>
        <time>2020-08-05T09:31:21Z</time>
      </trkpt>
      <trkpt lat="45.09058" lon="6.05834">
        <ele>1698.4</ele>
        <time>2020-08-05T09:31:23Z</time>
      </trkpt>
      <trkpt lat="45.0906" lon="6.05832">
        <ele>1698.7</ele>
        <time>2020-08-05T09:31:24Z</time>
      </trkpt>
      <trkpt lat="45.09064" lon="6.05824">
        <ele>1699.5</ele>
        <time>2020-08-05T09:31:27Z</time>
      </trkpt>
      <trkpt lat="45.09067" lon="6.05821">
        <ele>1699.9</ele>
        <time>2020-08-05T09:31:29Z</time>
      </trkpt>
      <trkpt lat="45.0907" lon="6.05816">
        <ele>1700.4</ele>
        <time>2020-08-05T09:31:32Z</time>
      </trkpt>
      <trkpt lat="45.09073" lon="6.05811">
        <ele>1701</ele>
        <time>2020-08-05T09:31:34Z</time>
      </trkpt>
      <trkpt lat="45.09076" lon="6.05807">
        <ele>1701.4</ele>
        <time>2020-08-05T09:31:35Z</time>
      </trkpt>
      <trkpt lat="45.09077" lon="6.05804">
        <ele>1701.7</ele>
        <time>2020-08-05T09:31:36Z</time>
      </trkpt>
      <trkpt lat="45.09079" lon="6.05799">
        <ele>1702.2</ele>
        <time>2020-08-05T09:31:38Z</time>
      </trkpt>
      <trkpt lat="45.09082" lon="6.05794">
        <ele>1702.7</ele>
        <time>2020-08-05T09:31:40Z</time>
      </trkpt>
      <trkpt lat="45.09085" lon="6.0579">
        <ele>1703.2</ele>
        <time>2020-08-05T09:31:41Z</time>
      </trkpt>
      <trkpt lat="45.09086" lon="6.05789">
        <ele>1703.3</ele>
        <time>2020-08-05T09:31:42Z</time>
      </trkpt>
      <trkpt lat="45.09089" lon="6.05783">
        <ele>1704</ele>
        <time>2020-08-05T09:31:44Z</time>
      </trkpt>
      <trkpt lat="45.0909" lon="6.05779">
        <ele>1704.3</ele>
        <time>2020-08-05T09:31:45Z</time>
      </trkpt>
      <trkpt lat="45.09094" lon="6.05771">
        <ele>1705.1</ele>
        <time>2020-08-05T09:31:48Z</time>
      </trkpt>
      <trkpt lat="45.09097" lon="6.05767">
        <ele>1705.5</ele>
        <time>2020-08-05T09:31:49Z</time>
      </trkpt>
      <trkpt lat="45.09099" lon="6.05764">
        <ele>1705.8</ele>
        <time>2020-08-05T09:31:50Z</time>
      </trkpt>
      <trkpt lat="45.09102" lon="6.05758">
        <ele>1706.4</ele>
        <time>2020-08-05T09:31:53Z</time>
      </trkpt>
      <trkpt lat="45.09104" lon="6.05754">
        <ele>1706.8</ele>
        <time>2020-08-05T09:31:54Z</time>
      </trkpt>
      <trkpt lat="45.09105" lon="6.05751">
        <ele>1707.1</ele>
        <time>2020-08-05T09:31:56Z</time>
      </trkpt>
      <trkpt lat="45.09108" lon="6.05744">
        <ele>1707.8</ele>
        <time>2020-08-05T09:31:58Z</time>
      </trkpt>
      <trkpt lat="45.09112" lon="6.05735">
        <ele>1708.6</ele>
        <time>2020-08-05T09:32:01Z</time>
      </trkpt>
      <trkpt lat="45.09113" lon="6.05733">
        <ele>1708.8</ele>
        <time>2020-08-05T09:32:02Z</time>
      </trkpt>
      <trkpt lat="45.09116" lon="6.05728">
        <ele>1709.4</ele>
        <time>2020-08-05T09:32:04Z</time>
      </trkpt>
      <trkpt lat="45.09117" lon="6.05726">
        <ele>1709.6</ele>
        <time>2020-08-05T09:32:06Z</time>
      </trkpt>
      <trkpt lat="45.09118" lon="6.05725">
        <ele>1709.7</ele>
        <time>2020-08-05T09:32:07Z</time>
      </trkpt>
      <trkpt lat="45.09122" lon="6.05717">
        <ele>1710.5</ele>
        <time>2020-08-05T09:32:08Z</time>
      </trkpt>
      <trkpt lat="45.09123" lon="6.05715">
        <ele>1710.8</ele>
        <time>2020-08-05T09:32:09Z</time>
      </trkpt>
      <trkpt lat="45.09127" lon="6.05706">
        <ele>1711.6</ele>
        <time>2020-08-05T09:32:12Z</time>
      </trkpt>
      <trkpt lat="45.09128" lon="6.05704">
        <ele>1711.8</ele>
        <time>2020-08-05T09:32:13Z</time>
      </trkpt>
      <trkpt lat="45.09129" lon="6.057">
        <ele>1712.1</ele>
        <time>2020-08-05T09:32:15Z</time>
      </trkpt>
      <trkpt lat="45.09131" lon="6.05696">
        <ele>1712.5</ele>
        <time>2020-08-05T09:32:16Z</time>
      </trkpt>
      <trkpt lat="45.09131" lon="6.05694">
        <ele>1712.7</ele>
        <time>2020-08-05T09:32:17Z</time>
      </trkpt>
      <trkpt lat="45.09133" lon="6.05689">
        <ele>1713.2</ele>
        <time>2020-08-05T09:32:19Z</time>
      </trkpt>
      <trkpt lat="45.09134" lon="6.05687">
        <ele>1713.4</ele>
        <time>2020-08-05T09:32:20Z</time>
      </trkpt>
      <trkpt lat="45.09136" lon="6.05681">
        <ele>1713.9</ele>
        <time>2020-08-05T09:32:21Z</time>
      </trkpt>
      <trkpt lat="45.09138" lon="6.05672">
        <ele>1714.6</ele>
        <time>2020-08-05T09:32:24Z</time>
      </trkpt>
      <trkpt lat="45.09139" lon="6.05669">
        <ele>1714.9</ele>
        <time>2020-08-05T09:32:25Z</time>
      </trkpt>
      <trkpt lat="45.09142" lon="6.05661">
        <ele>1715.7</ele>
        <time>2020-08-05T09:32:28Z</time>
      </trkpt>
      <trkpt lat="45.09143" lon="6.05657">
        <ele>1715.7</ele>
        <time>2020-08-05T09:32:29Z</time>
      </trkpt>
      <trkpt lat="45.09143" lon="6.05653">
        <ele>1715.8</ele>
        <time>2020-08-05T09:32:31Z</time>
      </trkpt>
      <trkpt lat="45.09145" lon="6.05644">
        <ele>1716</ele>
        <time>2020-08-05T09:32:33Z</time>
      </trkpt>
      <trkpt lat="45.09145" lon="6.0564">
        <ele>1716.4</ele>
        <time>2020-08-05T09:32:35Z</time>
      </trkpt>
      <trkpt lat="45.09146" lon="6.05636">
        <ele>1716.8</ele>
        <time>2020-08-05T09:32:36Z</time>
      </trkpt>
      <trkpt lat="45.09146" lon="6.05628">
        <ele>1717.5</ele>
        <time>2020-08-05T09:32:38Z</time>
      </trkpt>
      <trkpt lat="45.09146" lon="6.05624">
        <ele>1717.8</ele>
        <time>2020-08-05T09:32:39Z</time>
      </trkpt>
      <trkpt lat="45.09146" lon="6.05613">
        <ele>1718.6</ele>
        <time>2020-08-05T09:32:42Z</time>
      </trkpt>
      <trkpt lat="45.09145" lon="6.05608">
        <ele>1718.9</ele>
        <time>2020-08-05T09:32:45Z</time>
      </trkpt>
      <trkpt lat="45.09146" lon="6.05601">
        <ele>1719.3</ele>
        <time>2020-08-05T09:32:46Z</time>
      </trkpt>
      <trkpt lat="45.09145" lon="6.05596">
        <ele>1719.6</ele>
        <time>2020-08-05T09:32:47Z</time>
      </trkpt>
      <trkpt lat="45.09145" lon="6.05593">
        <ele>1719.9</ele>
        <time>2020-08-05T09:32:48Z</time>
      </trkpt>
      <trkpt lat="45.09144" lon="6.05589">
        <ele>1720.1</ele>
        <time>2020-08-05T09:32:50Z</time>
      </trkpt>
      <trkpt lat="45.09143" lon="6.05581">
        <ele>1720.6</ele>
        <time>2020-08-05T09:32:51Z</time>
      </trkpt>
      <trkpt lat="45.09143" lon="6.05576">
        <ele>1720.9</ele>
        <time>2020-08-05T09:32:52Z</time>
      </trkpt>
      <trkpt lat="45.09142" lon="6.05572">
        <ele>1721.1</ele>
        <time>2020-08-05T09:32:54Z</time>
      </trkpt>
      <trkpt lat="45.09142" lon="6.05568">
        <ele>1721.4</ele>
        <time>2020-08-05T09:32:55Z</time>
      </trkpt>
      <trkpt lat="45.09141" lon="6.0556">
        <ele>1721.8</ele>
        <time>2020-08-05T09:32:57Z</time>
      </trkpt>
      <trkpt lat="45.0914" lon="6.0555">
        <ele>1723.7</ele>
        <time>2020-08-05T09:32:58Z</time>
      </trkpt>
      <trkpt lat="45.09141" lon="6.05545">
        <ele>1724</ele>
        <time>2020-08-05T09:32:59Z</time>
      </trkpt>
      <trkpt lat="45.09144" lon="6.05541">
        <ele>1724.3</ele>
        <time>2020-08-05T09:33:00Z</time>
      </trkpt>
      <trkpt lat="45.09151" lon="6.05547">
        <ele>1724.8</ele>
        <time>2020-08-05T09:33:03Z</time>
      </trkpt>
      <trkpt lat="45.09153" lon="6.05552">
        <ele>1725</ele>
        <time>2020-08-05T09:33:04Z</time>
      </trkpt>
      <trkpt lat="45.09154" lon="6.05556">
        <ele>1725.2</ele>
        <time>2020-08-05T09:33:06Z</time>
      </trkpt>
      <trkpt lat="45.09155" lon="6.05565">
        <ele>1725.6</ele>
        <time>2020-08-05T09:33:08Z</time>
      </trkpt>
      <trkpt lat="45.09157" lon="6.0557">
        <ele>1725.8</ele>
        <time>2020-08-05T09:33:09Z</time>
      </trkpt>
      <trkpt lat="45.09157" lon="6.05573">
        <ele>1726</ele>
        <time>2020-08-05T09:33:10Z</time>
      </trkpt>
      <trkpt lat="45.09158" lon="6.05583">
        <ele>1726.5</ele>
        <time>2020-08-05T09:33:13Z</time>
      </trkpt>
      <trkpt lat="45.09159" lon="6.05586">
        <ele>1726.7</ele>
        <time>2020-08-05T09:33:14Z</time>
      </trkpt>
      <trkpt lat="45.09159" lon="6.05594">
        <ele>1727</ele>
        <time>2020-08-05T09:33:16Z</time>
      </trkpt>
      <trkpt lat="45.0916" lon="6.05597">
        <ele>1727.2</ele>
        <time>2020-08-05T09:33:17Z</time>
      </trkpt>
      <trkpt lat="45.0916" lon="6.05601">
        <ele>1727.4</ele>
        <time>2020-08-05T09:33:18Z</time>
      </trkpt>
      <trkpt lat="45.09161" lon="6.05605">
        <ele>1727.6</ele>
        <time>2020-08-05T09:33:19Z</time>
      </trkpt>
      <trkpt lat="45.09164" lon="6.05618">
        <ele>1728.2</ele>
        <time>2020-08-05T09:33:22Z</time>
      </trkpt>
      <trkpt lat="45.09166" lon="6.05628">
        <ele>1728.7</ele>
        <time>2020-08-05T09:33:25Z</time>
      </trkpt>
      <trkpt lat="45.09167" lon="6.05632">
        <ele>1729</ele>
        <time>2020-08-05T09:33:26Z</time>
      </trkpt>
      <trkpt lat="45.09168" lon="6.05636">
        <ele>1729.2</ele>
        <time>2020-08-05T09:33:27Z</time>
      </trkpt>
      <trkpt lat="45.09169" lon="6.0564">
        <ele>1729.3</ele>
        <time>2020-08-05T09:33:28Z</time>
      </trkpt>
      <trkpt lat="45.0917" lon="6.05643">
        <ele>1729.5</ele>
        <time>2020-08-05T09:33:30Z</time>
      </trkpt>
      <trkpt lat="45.09172" lon="6.05648">
        <ele>1729.8</ele>
        <time>2020-08-05T09:33:31Z</time>
      </trkpt>
      <trkpt lat="45.09172" lon="6.05649">
        <ele>1729.9</ele>
        <time>2020-08-05T09:33:32Z</time>
      </trkpt>
      <trkpt lat="45.09174" lon="6.05655">
        <ele>1730.2</ele>
        <time>2020-08-05T09:33:33Z</time>
      </trkpt>
      <trkpt lat="45.09174" lon="6.05658">
        <ele>1730.3</ele>
        <time>2020-08-05T09:33:34Z</time>
      </trkpt>
      <trkpt lat="45.09175" lon="6.05661">
        <ele>1730.5</ele>
        <time>2020-08-05T09:33:35Z</time>
      </trkpt>
      <trkpt lat="45.09176" lon="6.05665">
        <ele>1730.7</ele>
        <time>2020-08-05T09:33:37Z</time>
      </trkpt>
      <trkpt lat="45.09178" lon="6.05676">
        <ele>1731.2</ele>
        <time>2020-08-05T09:33:39Z</time>
      </trkpt>
      <trkpt lat="45.0918" lon="6.05685">
        <ele>1731.6</ele>
        <time>2020-08-05T09:33:42Z</time>
      </trkpt>
      <trkpt lat="45.0918" lon="6.05688">
        <ele>1731.8</ele>
        <time>2020-08-05T09:33:43Z</time>
      </trkpt>
      <trkpt lat="45.09181" lon="6.05691">
        <ele>1731.9</ele>
        <time>2020-08-05T09:33:44Z</time>
      </trkpt>
      <trkpt lat="45.09182" lon="6.05698">
        <ele>1732.2</ele>
        <time>2020-08-05T09:33:46Z</time>
      </trkpt>
      <trkpt lat="45.09183" lon="6.05702">
        <ele>1732.4</ele>
        <time>2020-08-05T09:33:47Z</time>
      </trkpt>
      <trkpt lat="45.09183" lon="6.05706">
        <ele>1732.5</ele>
        <time>2020-08-05T09:33:49Z</time>
      </trkpt>
      <trkpt lat="45.09184" lon="6.05713">
        <ele>1732.8</ele>
        <time>2020-08-05T09:33:51Z</time>
      </trkpt>
      <trkpt lat="45.09185" lon="6.05721">
        <ele>1733.1</ele>
        <time>2020-08-05T09:33:52Z</time>
      </trkpt>
      <trkpt lat="45.09185" lon="6.05727">
        <ele>1733.3</ele>
        <time>2020-08-05T09:33:53Z</time>
      </trkpt>
      <trkpt lat="45.09185" lon="6.05734">
        <ele>1733.5</ele>
        <time>2020-08-05T09:33:55Z</time>
      </trkpt>
      <trkpt lat="45.09184" lon="6.05738">
        <ele>1733.7</ele>
        <time>2020-08-05T09:33:57Z</time>
      </trkpt>
      <trkpt lat="45.09184" lon="6.05747">
        <ele>1734</ele>
        <time>2020-08-05T09:33:59Z</time>
      </trkpt>
      <trkpt lat="45.09183" lon="6.05751">
        <ele>1734.1</ele>
        <time>2020-08-05T09:34:00Z</time>
      </trkpt>
      <trkpt lat="45.09183" lon="6.05759">
        <ele>1734.4</ele>
        <time>2020-08-05T09:34:02Z</time>
      </trkpt>
      <trkpt lat="45.09182" lon="6.05768">
        <ele>1734.8</ele>
        <time>2020-08-05T09:34:03Z</time>
      </trkpt>
      <trkpt lat="45.09182" lon="6.05772">
        <ele>1735</ele>
        <time>2020-08-05T09:34:04Z</time>
      </trkpt>
      <trkpt lat="45.09181" lon="6.05778">
        <ele>1735.3</ele>
        <time>2020-08-05T09:34:06Z</time>
      </trkpt>
      <trkpt lat="45.0918" lon="6.05787">
        <ele>1735.7</ele>
        <time>2020-08-05T09:34:08Z</time>
      </trkpt>
      <trkpt lat="45.0918" lon="6.05791">
        <ele>1735.9</ele>
        <time>2020-08-05T09:34:09Z</time>
      </trkpt>
      <trkpt lat="45.0918" lon="6.05795">
        <ele>1736.1</ele>
        <time>2020-08-05T09:34:10Z</time>
      </trkpt>
      <trkpt lat="45.09179" lon="6.05799">
        <ele>1736.2</ele>
        <time>2020-08-05T09:34:11Z</time>
      </trkpt>
      <trkpt lat="45.09179" lon="6.05804">
        <ele>1736.5</ele>
        <time>2020-08-05T09:34:13Z</time>
      </trkpt>
      <trkpt lat="45.09179" lon="6.05808">
        <ele>1736.7</ele>
        <time>2020-08-05T09:34:14Z</time>
      </trkpt>
      <trkpt lat="45.09179" lon="6.05817">
        <ele>1737.2</ele>
        <time>2020-08-05T09:34:16Z</time>
      </trkpt>
      <trkpt lat="45.09178" lon="6.05821">
        <ele>1737.3</ele>
        <time>2020-08-05T09:34:17Z</time>
      </trkpt>
      <trkpt lat="45.09178" lon="6.05826">
        <ele>1737.6</ele>
        <time>2020-08-05T09:34:19Z</time>
      </trkpt>
      <trkpt lat="45.09177" lon="6.05832">
        <ele>1737.9</ele>
        <time>2020-08-05T09:34:20Z</time>
      </trkpt>
      <trkpt lat="45.09177" lon="6.05833">
        <ele>1738</ele>
        <time>2020-08-05T09:34:21Z</time>
      </trkpt>
      <trkpt lat="45.09177" lon="6.05842">
        <ele>1738.4</ele>
        <time>2020-08-05T09:34:23Z</time>
      </trkpt>
      <trkpt lat="45.09177" lon="6.05846">
        <ele>1738.6</ele>
        <time>2020-08-05T09:34:24Z</time>
      </trkpt>
      <trkpt lat="45.09177" lon="6.05852">
        <ele>1738.9</ele>
        <time>2020-08-05T09:34:27Z</time>
      </trkpt>
      <trkpt lat="45.09177" lon="6.05856">
        <ele>1739.1</ele>
        <time>2020-08-05T09:34:28Z</time>
      </trkpt>
      <trkpt lat="45.09176" lon="6.05864">
        <ele>1739.5</ele>
        <time>2020-08-05T09:34:30Z</time>
      </trkpt>
      <trkpt lat="45.09175" lon="6.05872">
        <ele>1739.9</ele>
        <time>2020-08-05T09:34:31Z</time>
      </trkpt>
      <trkpt lat="45.09175" lon="6.05877">
        <ele>1740.2</ele>
        <time>2020-08-05T09:34:33Z</time>
      </trkpt>
      <trkpt lat="45.09173" lon="6.05888">
        <ele>1740.8</ele>
        <time>2020-08-05T09:34:35Z</time>
      </trkpt>
      <trkpt lat="45.09172" lon="6.05894">
        <ele>1741</ele>
        <time>2020-08-05T09:34:37Z</time>
      </trkpt>
      <trkpt lat="45.09171" lon="6.05898">
        <ele>1741.3</ele>
        <time>2020-08-05T09:34:38Z</time>
      </trkpt>
      <trkpt lat="45.09169" lon="6.0591">
        <ele>1741.9</ele>
        <time>2020-08-05T09:34:41Z</time>
      </trkpt>
      <trkpt lat="45.09168" lon="6.05922">
        <ele>1742.5</ele>
        <time>2020-08-05T09:34:44Z</time>
      </trkpt>
      <trkpt lat="45.09167" lon="6.05926">
        <ele>1742.7</ele>
        <time>2020-08-05T09:34:46Z</time>
      </trkpt>
      <trkpt lat="45.09166" lon="6.0593">
        <ele>1742.9</ele>
        <time>2020-08-05T09:34:47Z</time>
      </trkpt>
      <trkpt lat="45.09165" lon="6.05936">
        <ele>1743.2</ele>
        <time>2020-08-05T09:34:48Z</time>
      </trkpt>
      <trkpt lat="45.09164" lon="6.05941">
        <ele>1743.4</ele>
        <time>2020-08-05T09:34:50Z</time>
      </trkpt>
      <trkpt lat="45.09163" lon="6.05946">
        <ele>1743.7</ele>
        <time>2020-08-05T09:34:52Z</time>
      </trkpt>
      <trkpt lat="45.09162" lon="6.0595">
        <ele>1744.1</ele>
        <time>2020-08-05T09:34:53Z</time>
      </trkpt>
      <trkpt lat="45.09162" lon="6.05957">
        <ele>1744.7</ele>
        <time>2020-08-05T09:34:54Z</time>
      </trkpt>
      <trkpt lat="45.0916" lon="6.05967">
        <ele>1745.5</ele>
        <time>2020-08-05T09:34:56Z</time>
      </trkpt>
      <trkpt lat="45.09159" lon="6.05973">
        <ele>1746</ele>
        <time>2020-08-05T09:34:58Z</time>
      </trkpt>
      <trkpt lat="45.09158" lon="6.05976">
        <ele>1746.3</ele>
        <time>2020-08-05T09:35:00Z</time>
      </trkpt>
      <trkpt lat="45.09157" lon="6.05983">
        <ele>1746.9</ele>
        <time>2020-08-05T09:35:01Z</time>
      </trkpt>
      <trkpt lat="45.09156" lon="6.05988">
        <ele>1747.2</ele>
        <time>2020-08-05T09:35:02Z</time>
      </trkpt>
      <trkpt lat="45.09155" lon="6.05994">
        <ele>1747.7</ele>
        <time>2020-08-05T09:35:04Z</time>
      </trkpt>
      <trkpt lat="45.09154" lon="6.05998">
        <ele>1748.1</ele>
        <time>2020-08-05T09:35:06Z</time>
      </trkpt>
      <trkpt lat="45.09152" lon="6.0601">
        <ele>1749</ele>
        <time>2020-08-05T09:35:08Z</time>
      </trkpt>
      <trkpt lat="45.0915" lon="6.06017">
        <ele>1749.5</ele>
        <time>2020-08-05T09:35:11Z</time>
      </trkpt>
      <trkpt lat="45.09148" lon="6.06028">
        <ele>1750.4</ele>
        <time>2020-08-05T09:35:13Z</time>
      </trkpt>
      <trkpt lat="45.09147" lon="6.06032">
        <ele>1750.8</ele>
        <time>2020-08-05T09:35:15Z</time>
      </trkpt>
      <trkpt lat="45.09145" lon="6.06042">
        <ele>1751.6</ele>
        <time>2020-08-05T09:35:17Z</time>
      </trkpt>
      <trkpt lat="45.09144" lon="6.06048">
        <ele>1752</ele>
        <time>2020-08-05T09:35:18Z</time>
      </trkpt>
      <trkpt lat="45.09144" lon="6.06049">
        <ele>1752.2</ele>
        <time>2020-08-05T09:35:19Z</time>
      </trkpt>
      <trkpt lat="45.09144" lon="6.06055">
        <ele>1752.6</ele>
        <time>2020-08-05T09:35:20Z</time>
      </trkpt>
      <trkpt lat="45.09143" lon="6.06057">
        <ele>1752.7</ele>
        <time>2020-08-05T09:35:21Z</time>
      </trkpt>
      <trkpt lat="45.09142" lon="6.06061">
        <ele>1753.1</ele>
        <time>2020-08-05T09:35:23Z</time>
      </trkpt>
      <trkpt lat="45.09142" lon="6.06064">
        <ele>1753.4</ele>
        <time>2020-08-05T09:35:24Z</time>
      </trkpt>
      <trkpt lat="45.0914" lon="6.06069">
        <ele>1753.8</ele>
        <time>2020-08-05T09:35:26Z</time>
      </trkpt>
      <trkpt lat="45.09139" lon="6.06072">
        <ele>1754.1</ele>
        <time>2020-08-05T09:35:27Z</time>
      </trkpt>
      <trkpt lat="45.09137" lon="6.06078">
        <ele>1754.6</ele>
        <time>2020-08-05T09:35:28Z</time>
      </trkpt>
      <trkpt lat="45.09136" lon="6.06081">
        <ele>1754.8</ele>
        <time>2020-08-05T09:35:29Z</time>
      </trkpt>
      <trkpt lat="45.09135" lon="6.06086">
        <ele>1755.2</ele>
        <time>2020-08-05T09:35:30Z</time>
      </trkpt>
      <trkpt lat="45.09134" lon="6.0609">
        <ele>1755.6</ele>
        <time>2020-08-05T09:35:31Z</time>
      </trkpt>
      <trkpt lat="45.09131" lon="6.06097">
        <ele>1756.2</ele>
        <time>2020-08-05T09:35:34Z</time>
      </trkpt>
      <trkpt lat="45.0913" lon="6.06102">
        <ele>1756.6</ele>
        <time>2020-08-05T09:35:36Z</time>
      </trkpt>
      <trkpt lat="45.09128" lon="6.06108">
        <ele>1757.1</ele>
        <time>2020-08-05T09:35:38Z</time>
      </trkpt>
      <trkpt lat="45.09127" lon="6.06112">
        <ele>1757.5</ele>
        <time>2020-08-05T09:35:40Z</time>
      </trkpt>
      <trkpt lat="45.09126" lon="6.06117">
        <ele>1757.9</ele>
        <time>2020-08-05T09:35:41Z</time>
      </trkpt>
      <trkpt lat="45.09125" lon="6.06123">
        <ele>1758.1</ele>
        <time>2020-08-05T09:35:43Z</time>
      </trkpt>
      <trkpt lat="45.09124" lon="6.06126">
        <ele>1758.2</ele>
        <time>2020-08-05T09:35:44Z</time>
      </trkpt>
      <trkpt lat="45.09124" lon="6.06129">
        <ele>1758.3</ele>
        <time>2020-08-05T09:35:45Z</time>
      </trkpt>
      <trkpt lat="45.09123" lon="6.06134">
        <ele>1758.5</ele>
        <time>2020-08-05T09:35:47Z</time>
      </trkpt>
      <trkpt lat="45.09121" lon="6.06144">
        <ele>1759.1</ele>
        <time>2020-08-05T09:35:48Z</time>
      </trkpt>
      <trkpt lat="45.0912" lon="6.06148">
        <ele>1759.5</ele>
        <time>2020-08-05T09:35:50Z</time>
      </trkpt>
      <trkpt lat="45.09118" lon="6.06153">
        <ele>1759.8</ele>
        <time>2020-08-05T09:35:51Z</time>
      </trkpt>
      <trkpt lat="45.09117" lon="6.06158">
        <ele>1760.1</ele>
        <time>2020-08-05T09:35:53Z</time>
      </trkpt>
      <trkpt lat="45.09116" lon="6.06162">
        <ele>1760.4</ele>
        <time>2020-08-05T09:35:54Z</time>
      </trkpt>
      <trkpt lat="45.09114" lon="6.06166">
        <ele>1760.7</ele>
        <time>2020-08-05T09:35:56Z</time>
      </trkpt>
      <trkpt lat="45.09113" lon="6.06171">
        <ele>1761.1</ele>
        <time>2020-08-05T09:35:58Z</time>
      </trkpt>
      <trkpt lat="45.0911" lon="6.0618">
        <ele>1761.7</ele>
        <time>2020-08-05T09:36:00Z</time>
      </trkpt>
      <trkpt lat="45.09108" lon="6.06185">
        <ele>1762.1</ele>
        <time>2020-08-05T09:36:02Z</time>
      </trkpt>
      <trkpt lat="45.09107" lon="6.06188">
        <ele>1762.3</ele>
        <time>2020-08-05T09:36:04Z</time>
      </trkpt>
      <trkpt lat="45.09105" lon="6.06192">
        <ele>1762.6</ele>
        <time>2020-08-05T09:36:05Z</time>
      </trkpt>
      <trkpt lat="45.09103" lon="6.06198">
        <ele>1763</ele>
        <time>2020-08-05T09:36:06Z</time>
      </trkpt>
      <trkpt lat="45.09102" lon="6.06204">
        <ele>1763.5</ele>
        <time>2020-08-05T09:36:08Z</time>
      </trkpt>
      <trkpt lat="45.091" lon="6.06213">
        <ele>1764.1</ele>
        <time>2020-08-05T09:36:10Z</time>
      </trkpt>
      <trkpt lat="45.09098" lon="6.06217">
        <ele>1764.4</ele>
        <time>2020-08-05T09:36:11Z</time>
      </trkpt>
      <trkpt lat="45.09097" lon="6.06222">
        <ele>1764.7</ele>
        <time>2020-08-05T09:36:13Z</time>
      </trkpt>
      <trkpt lat="45.09094" lon="6.0623">
        <ele>1765.3</ele>
        <time>2020-08-05T09:36:15Z</time>
      </trkpt>
      <trkpt lat="45.09093" lon="6.06235">
        <ele>1765.6</ele>
        <time>2020-08-05T09:36:16Z</time>
      </trkpt>
      <trkpt lat="45.0909" lon="6.06244">
        <ele>1766.3</ele>
        <time>2020-08-05T09:36:19Z</time>
      </trkpt>
      <trkpt lat="45.09089" lon="6.06248">
        <ele>1766.5</ele>
        <time>2020-08-05T09:36:20Z</time>
      </trkpt>
      <trkpt lat="45.09088" lon="6.06253">
        <ele>1766.9</ele>
        <time>2020-08-05T09:36:21Z</time>
      </trkpt>
      <trkpt lat="45.09086" lon="6.06264">
        <ele>1767.7</ele>
        <time>2020-08-05T09:36:24Z</time>
      </trkpt>
      <trkpt lat="45.09084" lon="6.06269">
        <ele>1768.2</ele>
        <time>2020-08-05T09:36:26Z</time>
      </trkpt>
      <trkpt lat="45.09083" lon="6.06273">
        <ele>1768.5</ele>
        <time>2020-08-05T09:36:27Z</time>
      </trkpt>
      <trkpt lat="45.09082" lon="6.06277">
        <ele>1768.9</ele>
        <time>2020-08-05T09:36:28Z</time>
      </trkpt>
      <trkpt lat="45.09081" lon="6.0628">
        <ele>1769.2</ele>
        <time>2020-08-05T09:36:29Z</time>
      </trkpt>
      <trkpt lat="45.0908" lon="6.06284">
        <ele>1769.6</ele>
        <time>2020-08-05T09:36:30Z</time>
      </trkpt>
      <trkpt lat="45.0908" lon="6.06288">
        <ele>1769.9</ele>
        <time>2020-08-05T09:36:31Z</time>
      </trkpt>
      <trkpt lat="45.09078" lon="6.06295">
        <ele>1770.5</ele>
        <time>2020-08-05T09:36:33Z</time>
      </trkpt>
      <trkpt lat="45.09078" lon="6.06298">
        <ele>1770.7</ele>
        <time>2020-08-05T09:36:34Z</time>
      </trkpt>
      <trkpt lat="45.09077" lon="6.063">
        <ele>1771</ele>
        <time>2020-08-05T09:36:35Z</time>
      </trkpt>
      <trkpt lat="45.09077" lon="6.06307">
        <ele>1771.5</ele>
        <time>2020-08-05T09:36:36Z</time>
      </trkpt>
      <trkpt lat="45.09076" lon="6.06312">
        <ele>1771.9</ele>
        <time>2020-08-05T09:36:38Z</time>
      </trkpt>
      <trkpt lat="45.09076" lon="6.06322">
        <ele>1772.7</ele>
        <time>2020-08-05T09:36:40Z</time>
      </trkpt>
      <trkpt lat="45.09076" lon="6.06328">
        <ele>1773.2</ele>
        <time>2020-08-05T09:36:43Z</time>
      </trkpt>
      <trkpt lat="45.09075" lon="6.06332">
        <ele>1773.5</ele>
        <time>2020-08-05T09:36:44Z</time>
      </trkpt>
      <trkpt lat="45.09075" lon="6.06336">
        <ele>1773.8</ele>
        <time>2020-08-05T09:36:45Z</time>
      </trkpt>
      <trkpt lat="45.09074" lon="6.06344">
        <ele>1774.3</ele>
        <time>2020-08-05T09:36:46Z</time>
      </trkpt>
      <trkpt lat="45.09074" lon="6.06353">
        <ele>1774.9</ele>
        <time>2020-08-05T09:36:48Z</time>
      </trkpt>
      <trkpt lat="45.09074" lon="6.06359">
        <ele>1775.2</ele>
        <time>2020-08-05T09:36:50Z</time>
      </trkpt>
      <trkpt lat="45.09073" lon="6.06369">
        <ele>1775.7</ele>
        <time>2020-08-05T09:36:51Z</time>
      </trkpt>
      <trkpt lat="45.09072" lon="6.06381">
        <ele>1776.1</ele>
        <time>2020-08-05T09:36:53Z</time>
      </trkpt>
      <trkpt lat="45.09068" lon="6.06397">
        <ele>1776.6</ele>
        <time>2020-08-05T09:36:55Z</time>
      </trkpt>
      <trkpt lat="45.09064" lon="6.06405">
        <ele>1776.8</ele>
        <time>2020-08-05T09:36:56Z</time>
      </trkpt>
      <trkpt lat="45.09058" lon="6.06424">
        <ele>1777.5</ele>
        <time>2020-08-05T09:36:58Z</time>
      </trkpt>
      <trkpt lat="45.09054" lon="6.06444">
        <ele>1778</ele>
        <time>2020-08-05T09:37:00Z</time>
      </trkpt>
      <trkpt lat="45.09052" lon="6.06453">
        <ele>1778.2</ele>
        <time>2020-08-05T09:37:01Z</time>
      </trkpt>
      <trkpt lat="45.09049" lon="6.06473">
        <ele>1779.2</ele>
        <time>2020-08-05T09:37:03Z</time>
      </trkpt>
      <trkpt lat="45.09048" lon="6.06483">
        <ele>1779.7</ele>
        <time>2020-08-05T09:37:04Z</time>
      </trkpt>
      <trkpt lat="45.09047" lon="6.06495">
        <ele>1780.1</ele>
        <time>2020-08-05T09:37:05Z</time>
      </trkpt>
      <trkpt lat="45.09046" lon="6.06517">
        <ele>1781</ele>
        <time>2020-08-05T09:37:07Z</time>
      </trkpt>
      <trkpt lat="45.0905" lon="6.06537">
        <ele>1782.4</ele>
        <time>2020-08-05T09:37:09Z</time>
      </trkpt>
      <trkpt lat="45.09058" lon="6.0655">
        <ele>1783.6</ele>
        <time>2020-08-05T09:37:11Z</time>
      </trkpt>
      <trkpt lat="45.09063" lon="6.06555">
        <ele>1784.2</ele>
        <time>2020-08-05T09:37:12Z</time>
      </trkpt>
      <trkpt lat="45.09067" lon="6.0656">
        <ele>1784.4</ele>
        <time>2020-08-05T09:37:13Z</time>
      </trkpt>
      <trkpt lat="45.09073" lon="6.06566">
        <ele>1784.7</ele>
        <time>2020-08-05T09:37:15Z</time>
      </trkpt>
      <trkpt lat="45.09075" lon="6.06572">
        <ele>1784.9</ele>
        <time>2020-08-05T09:37:17Z</time>
      </trkpt>
      <trkpt lat="45.09076" lon="6.06576">
        <ele>1785</ele>
        <time>2020-08-05T09:37:19Z</time>
      </trkpt>
      <trkpt lat="45.09081" lon="6.06572">
        <ele>1785.2</ele>
        <time>2020-08-05T09:37:21Z</time>
      </trkpt>
      <trkpt lat="45.09086" lon="6.06559">
        <ele>1785.6</ele>
        <time>2020-08-05T09:37:23Z</time>
      </trkpt>
      <trkpt lat="45.09093" lon="6.06545">
        <ele>1785.9</ele>
        <time>2020-08-05T09:37:25Z</time>
      </trkpt>
      <trkpt lat="45.09099" lon="6.06529">
        <ele>1786</ele>
        <time>2020-08-05T09:37:26Z</time>
      </trkpt>
      <trkpt lat="45.09103" lon="6.06518">
        <ele>1786.1</ele>
        <time>2020-08-05T09:37:27Z</time>
      </trkpt>
      <trkpt lat="45.09104" lon="6.06507">
        <ele>1786.1</ele>
        <time>2020-08-05T09:37:28Z</time>
      </trkpt>
      <trkpt lat="45.09104" lon="6.065">
        <ele>1786.2</ele>
        <time>2020-08-05T09:37:30Z</time>
      </trkpt>
      <trkpt lat="45.09104" lon="6.06492">
        <ele>1786.3</ele>
        <time>2020-08-05T09:37:31Z</time>
      </trkpt>
      <trkpt lat="45.09104" lon="6.06486">
        <ele>1786.4</ele>
        <time>2020-08-05T09:37:33Z</time>
      </trkpt>
      <trkpt lat="45.09105" lon="6.06476">
        <ele>1786.5</ele>
        <time>2020-08-05T09:37:34Z</time>
      </trkpt>
      <trkpt lat="45.09105" lon="6.06468">
        <ele>1786.5</ele>
        <time>2020-08-05T09:37:36Z</time>
      </trkpt>
      <trkpt lat="45.09107" lon="6.06456">
        <ele>1786.5</ele>
        <time>2020-08-05T09:37:37Z</time>
      </trkpt>
      <trkpt lat="45.09109" lon="6.06448">
        <ele>1786.5</ele>
        <time>2020-08-05T09:37:40Z</time>
      </trkpt>
      <trkpt lat="45.09111" lon="6.0644">
        <ele>1786.4</ele>
        <time>2020-08-05T09:37:41Z</time>
      </trkpt>
      <trkpt lat="45.09116" lon="6.06425">
        <ele>1786.6</ele>
        <time>2020-08-05T09:37:43Z</time>
      </trkpt>
      <trkpt lat="45.0912" lon="6.06413">
        <ele>1787</ele>
        <time>2020-08-05T09:37:45Z</time>
      </trkpt>
      <trkpt lat="45.09125" lon="6.06401">
        <ele>1787.6</ele>
        <time>2020-08-05T09:37:47Z</time>
      </trkpt>
      <trkpt lat="45.0913" lon="6.06393">
        <ele>1788.1</ele>
        <time>2020-08-05T09:37:48Z</time>
      </trkpt>
      <trkpt lat="45.09133" lon="6.06389">
        <ele>1788.4</ele>
        <time>2020-08-05T09:37:49Z</time>
      </trkpt>
      <trkpt lat="45.09136" lon="6.06384">
        <ele>1788.7</ele>
        <time>2020-08-05T09:37:50Z</time>
      </trkpt>
      <trkpt lat="45.09141" lon="6.06375">
        <ele>1789.4</ele>
        <time>2020-08-05T09:37:53Z</time>
      </trkpt>
      <trkpt lat="45.09145" lon="6.0637">
        <ele>1789.8</ele>
        <time>2020-08-05T09:37:54Z</time>
      </trkpt>
      <trkpt lat="45.09152" lon="6.06359">
        <ele>1790.8</ele>
        <time>2020-08-05T09:37:57Z</time>
      </trkpt>
      <trkpt lat="45.09155" lon="6.06354">
        <ele>1791.2</ele>
        <time>2020-08-05T09:37:59Z</time>
      </trkpt>
      <trkpt lat="45.09159" lon="6.0635">
        <ele>1791.5</ele>
        <time>2020-08-05T09:38:01Z</time>
      </trkpt>
      <trkpt lat="45.09163" lon="6.06344">
        <ele>1792</ele>
        <time>2020-08-05T09:38:02Z</time>
      </trkpt>
      <trkpt lat="45.09166" lon="6.06341">
        <ele>1792.3</ele>
        <time>2020-08-05T09:38:03Z</time>
      </trkpt>
      <trkpt lat="45.09169" lon="6.06335">
        <ele>1792.6</ele>
        <time>2020-08-05T09:38:04Z</time>
      </trkpt>
      <trkpt lat="45.09172" lon="6.0633">
        <ele>1792.9</ele>
        <time>2020-08-05T09:38:07Z</time>
      </trkpt>
      <trkpt lat="45.09173" lon="6.06326">
        <ele>1793.2</ele>
        <time>2020-08-05T09:38:08Z</time>
      </trkpt>
      <trkpt lat="45.09177" lon="6.06319">
        <ele>1793.5</ele>
        <time>2020-08-05T09:38:09Z</time>
      </trkpt>
      <trkpt lat="45.0918" lon="6.06314">
        <ele>1793.8</ele>
        <time>2020-08-05T09:38:11Z</time>
      </trkpt>
      <trkpt lat="45.09182" lon="6.06309">
        <ele>1794.1</ele>
        <time>2020-08-05T09:38:12Z</time>
      </trkpt>
      <trkpt lat="45.09187" lon="6.06302">
        <ele>1794.5</ele>
        <time>2020-08-05T09:38:14Z</time>
      </trkpt>
      <trkpt lat="45.09191" lon="6.06294">
        <ele>1794.8</ele>
        <time>2020-08-05T09:38:15Z</time>
      </trkpt>
      <trkpt lat="45.09197" lon="6.06281">
        <ele>1795.2</ele>
        <time>2020-08-05T09:38:17Z</time>
      </trkpt>
      <trkpt lat="45.09199" lon="6.06276">
        <ele>1795.3</ele>
        <time>2020-08-05T09:38:19Z</time>
      </trkpt>
      <trkpt lat="45.09205" lon="6.06266">
        <ele>1795.6</ele>
        <time>2020-08-05T09:38:21Z</time>
      </trkpt>
      <trkpt lat="45.09208" lon="6.0626">
        <ele>1795.7</ele>
        <time>2020-08-05T09:38:22Z</time>
      </trkpt>
      <trkpt lat="45.09213" lon="6.06249">
        <ele>1796.1</ele>
        <time>2020-08-05T09:38:24Z</time>
      </trkpt>
      <trkpt lat="45.09217" lon="6.06244">
        <ele>1796.3</ele>
        <time>2020-08-05T09:38:25Z</time>
      </trkpt>
      <trkpt lat="45.09223" lon="6.06235">
        <ele>1796.8</ele>
        <time>2020-08-05T09:38:27Z</time>
      </trkpt>
      <trkpt lat="45.09226" lon="6.06231">
        <ele>1797.1</ele>
        <time>2020-08-05T09:38:28Z</time>
      </trkpt>
      <trkpt lat="45.09227" lon="6.06232">
        <ele>1797.2</ele>
        <time>2020-08-05T09:38:29Z</time>
      </trkpt>
      <trkpt lat="45.09235" lon="6.06221">
        <ele>1798.1</ele>
        <time>2020-08-05T09:38:31Z</time>
      </trkpt>
      <trkpt lat="45.09239" lon="6.06216">
        <ele>1798.5</ele>
        <time>2020-08-05T09:38:32Z</time>
      </trkpt>
      <trkpt lat="45.09242" lon="6.06212">
        <ele>1798.8</ele>
        <time>2020-08-05T09:38:33Z</time>
      </trkpt>
      <trkpt lat="45.09246" lon="6.06207">
        <ele>1799.3</ele>
        <time>2020-08-05T09:38:35Z</time>
      </trkpt>
      <trkpt lat="45.0925" lon="6.06201">
        <ele>1799.7</ele>
        <time>2020-08-05T09:38:37Z</time>
      </trkpt>
      <trkpt lat="45.09256" lon="6.06193">
        <ele>1800.2</ele>
        <time>2020-08-05T09:38:39Z</time>
      </trkpt>
      <trkpt lat="45.09258" lon="6.06189">
        <ele>1800.5</ele>
        <time>2020-08-05T09:38:40Z</time>
      </trkpt>
      <trkpt lat="45.0926" lon="6.06184">
        <ele>1800.7</ele>
        <time>2020-08-05T09:38:42Z</time>
      </trkpt>
      <trkpt lat="45.09262" lon="6.0618">
        <ele>1800.8</ele>
        <time>2020-08-05T09:38:43Z</time>
      </trkpt>
      <trkpt lat="45.09264" lon="6.06175">
        <ele>1801.1</ele>
        <time>2020-08-05T09:38:44Z</time>
      </trkpt>
      <trkpt lat="45.09268" lon="6.06164">
        <ele>1801.4</ele>
        <time>2020-08-05T09:38:46Z</time>
      </trkpt>
      <trkpt lat="45.09269" lon="6.06159">
        <ele>1801.6</ele>
        <time>2020-08-05T09:38:47Z</time>
      </trkpt>
      <trkpt lat="45.0927" lon="6.06155">
        <ele>1801.8</ele>
        <time>2020-08-05T09:38:48Z</time>
      </trkpt>
      <trkpt lat="45.09271" lon="6.0615">
        <ele>1802</ele>
        <time>2020-08-05T09:38:50Z</time>
      </trkpt>
      <trkpt lat="45.09271" lon="6.06144">
        <ele>1802.1</ele>
        <time>2020-08-05T09:38:51Z</time>
      </trkpt>
      <trkpt lat="45.09274" lon="6.0613">
        <ele>1802.7</ele>
        <time>2020-08-05T09:38:53Z</time>
      </trkpt>
      <trkpt lat="45.09277" lon="6.06124">
        <ele>1803.2</ele>
        <time>2020-08-05T09:38:55Z</time>
      </trkpt>
      <trkpt lat="45.09282" lon="6.06125">
        <ele>1803.5</ele>
        <time>2020-08-05T09:38:57Z</time>
      </trkpt>
      <trkpt lat="45.09282" lon="6.0614">
        <ele>1804.2</ele>
        <time>2020-08-05T09:38:59Z</time>
      </trkpt>
      <trkpt lat="45.09281" lon="6.06148">
        <ele>1804.5</ele>
        <time>2020-08-05T09:39:01Z</time>
      </trkpt>
      <trkpt lat="45.09278" lon="6.06155">
        <ele>1804.9</ele>
        <time>2020-08-05T09:39:03Z</time>
      </trkpt>
      <trkpt lat="45.09276" lon="6.06166">
        <ele>1805.4</ele>
        <time>2020-08-05T09:39:04Z</time>
      </trkpt>
      <trkpt lat="45.09275" lon="6.06172">
        <ele>1805.6</ele>
        <time>2020-08-05T09:39:05Z</time>
      </trkpt>
      <trkpt lat="45.09274" lon="6.06183">
        <ele>1806.2</ele>
        <time>2020-08-05T09:39:06Z</time>
      </trkpt>
      <trkpt lat="45.09273" lon="6.06188">
        <ele>1806.5</ele>
        <time>2020-08-05T09:39:07Z</time>
      </trkpt>
      <trkpt lat="45.09273" lon="6.06195">
        <ele>1806.9</ele>
        <time>2020-08-05T09:39:09Z</time>
      </trkpt>
      <trkpt lat="45.09272" lon="6.06201">
        <ele>1807.2</ele>
        <time>2020-08-05T09:39:10Z</time>
      </trkpt>
      <trkpt lat="45.09271" lon="6.06209">
        <ele>1807.7</ele>
        <time>2020-08-05T09:39:11Z</time>
      </trkpt>
      <trkpt lat="45.0927" lon="6.06217">
        <ele>1808.2</ele>
        <time>2020-08-05T09:39:14Z</time>
      </trkpt>
      <trkpt lat="45.09269" lon="6.06225">
        <ele>1808.7</ele>
        <time>2020-08-05T09:39:15Z</time>
      </trkpt>
      <trkpt lat="45.09268" lon="6.0623">
        <ele>1809</ele>
        <time>2020-08-05T09:39:16Z</time>
      </trkpt>
      <trkpt lat="45.09266" lon="6.06243">
        <ele>1809.8</ele>
        <time>2020-08-05T09:39:18Z</time>
      </trkpt>
      <trkpt lat="45.09265" lon="6.0625">
        <ele>1810.2</ele>
        <time>2020-08-05T09:39:19Z</time>
      </trkpt>
      <trkpt lat="45.09265" lon="6.06257">
        <ele>1810.6</ele>
        <time>2020-08-05T09:39:21Z</time>
      </trkpt>
      <trkpt lat="45.09264" lon="6.06267">
        <ele>1811.2</ele>
        <time>2020-08-05T09:39:23Z</time>
      </trkpt>
      <trkpt lat="45.09263" lon="6.06274">
        <ele>1811.6</ele>
        <time>2020-08-05T09:39:25Z</time>
      </trkpt>
      <trkpt lat="45.09263" lon="6.06279">
        <ele>1812</ele>
        <time>2020-08-05T09:39:26Z</time>
      </trkpt>
      <trkpt lat="45.09262" lon="6.06289">
        <ele>1812.5</ele>
        <time>2020-08-05T09:39:27Z</time>
      </trkpt>
      <trkpt lat="45.09262" lon="6.06298">
        <ele>1813.1</ele>
        <time>2020-08-05T09:39:28Z</time>
      </trkpt>
      <trkpt lat="45.09261" lon="6.06304">
        <ele>1813.4</ele>
        <time>2020-08-05T09:39:29Z</time>
      </trkpt>
      <trkpt lat="45.0926" lon="6.06312">
        <ele>1813.9</ele>
        <time>2020-08-05T09:39:31Z</time>
      </trkpt>
      <trkpt lat="45.09259" lon="6.06321">
        <ele>1814.5</ele>
        <time>2020-08-05T09:39:33Z</time>
      </trkpt>
      <trkpt lat="45.09259" lon="6.06329">
        <ele>1814.9</ele>
        <time>2020-08-05T09:39:35Z</time>
      </trkpt>
      <trkpt lat="45.09259" lon="6.0634">
        <ele>1815.4</ele>
        <time>2020-08-05T09:39:36Z</time>
      </trkpt>
      <trkpt lat="45.0926" lon="6.06346">
        <ele>1815.7</ele>
        <time>2020-08-05T09:39:37Z</time>
      </trkpt>
      <trkpt lat="45.0926" lon="6.06354">
        <ele>1816.1</ele>
        <time>2020-08-05T09:39:39Z</time>
      </trkpt>
      <trkpt lat="45.0926" lon="6.06367">
        <ele>1816.6</ele>
        <time>2020-08-05T09:39:41Z</time>
      </trkpt>
      <trkpt lat="45.09261" lon="6.06375">
        <ele>1816.9</ele>
        <time>2020-08-05T09:39:44Z</time>
      </trkpt>
      <trkpt lat="45.09261" lon="6.06383">
        <ele>1817.2</ele>
        <time>2020-08-05T09:39:45Z</time>
      </trkpt>
      <trkpt lat="45.09261" lon="6.0639">
        <ele>1817.5</ele>
        <time>2020-08-05T09:39:47Z</time>
      </trkpt>
      <trkpt lat="45.09262" lon="6.06399">
        <ele>1817.8</ele>
        <time>2020-08-05T09:39:48Z</time>
      </trkpt>
      <trkpt lat="45.09263" lon="6.06411">
        <ele>1818.3</ele>
        <time>2020-08-05T09:39:50Z</time>
      </trkpt>
      <trkpt lat="45.09264" lon="6.06419">
        <ele>1818.6</ele>
        <time>2020-08-05T09:39:51Z</time>
      </trkpt>
      <trkpt lat="45.09266" lon="6.06434">
        <ele>1819.2</ele>
        <time>2020-08-05T09:39:54Z</time>
      </trkpt>
      <trkpt lat="45.09266" lon="6.06443">
        <ele>1819.5</ele>
        <time>2020-08-05T09:39:55Z</time>
      </trkpt>
      <trkpt lat="45.09267" lon="6.0645">
        <ele>1819.8</ele>
        <time>2020-08-05T09:39:57Z</time>
      </trkpt>
      <trkpt lat="45.09268" lon="6.0646">
        <ele>1820.2</ele>
        <time>2020-08-05T09:39:58Z</time>
      </trkpt>
      <trkpt lat="45.09269" lon="6.0647">
        <ele>1820.6</ele>
        <time>2020-08-05T09:40:00Z</time>
      </trkpt>
      <trkpt lat="45.0927" lon="6.06481">
        <ele>1821.1</ele>
        <time>2020-08-05T09:40:03Z</time>
      </trkpt>
      <trkpt lat="45.09272" lon="6.06492">
        <ele>1821.5</ele>
        <time>2020-08-05T09:40:04Z</time>
      </trkpt>
      <trkpt lat="45.09273" lon="6.06502">
        <ele>1821.9</ele>
        <time>2020-08-05T09:40:06Z</time>
      </trkpt>
      <trkpt lat="45.09275" lon="6.06509">
        <ele>1822.2</ele>
        <time>2020-08-05T09:40:07Z</time>
      </trkpt>
      <trkpt lat="45.09277" lon="6.06521">
        <ele>1822.7</ele>
        <time>2020-08-05T09:40:09Z</time>
      </trkpt>
      <trkpt lat="45.0928" lon="6.06534">
        <ele>1823.2</ele>
        <time>2020-08-05T09:40:11Z</time>
      </trkpt>
      <trkpt lat="45.09281" lon="6.0654">
        <ele>1823.4</ele>
        <time>2020-08-05T09:40:12Z</time>
      </trkpt>
      <trkpt lat="45.09282" lon="6.06546">
        <ele>1823.7</ele>
        <time>2020-08-05T09:40:13Z</time>
      </trkpt>
      <trkpt lat="45.09285" lon="6.06558">
        <ele>1824.2</ele>
        <time>2020-08-05T09:40:15Z</time>
      </trkpt>
      <trkpt lat="45.09286" lon="6.06565">
        <ele>1824.4</ele>
        <time>2020-08-05T09:40:16Z</time>
      </trkpt>
      <trkpt lat="45.09287" lon="6.06572">
        <ele>1824.7</ele>
        <time>2020-08-05T09:40:17Z</time>
      </trkpt>
      <trkpt lat="45.0929" lon="6.06584">
        <ele>1825.2</ele>
        <time>2020-08-05T09:40:19Z</time>
      </trkpt>
      <trkpt lat="45.09291" lon="6.0659">
        <ele>1825.4</ele>
        <time>2020-08-05T09:40:20Z</time>
      </trkpt>
      <trkpt lat="45.09293" lon="6.06603">
        <ele>1825.9</ele>
        <time>2020-08-05T09:40:22Z</time>
      </trkpt>
      <trkpt lat="45.09294" lon="6.0661">
        <ele>1826.1</ele>
        <time>2020-08-05T09:40:23Z</time>
      </trkpt>
      <trkpt lat="45.09295" lon="6.06624">
        <ele>1826.6</ele>
        <time>2020-08-05T09:40:25Z</time>
      </trkpt>
      <trkpt lat="45.09297" lon="6.06636">
        <ele>1827.1</ele>
        <time>2020-08-05T09:40:27Z</time>
      </trkpt>
      <trkpt lat="45.09297" lon="6.06643">
        <ele>1827.3</ele>
        <time>2020-08-05T09:40:28Z</time>
      </trkpt>
      <trkpt lat="45.09298" lon="6.06655">
        <ele>1827.7</ele>
        <time>2020-08-05T09:40:30Z</time>
      </trkpt>
      <trkpt lat="45.09299" lon="6.06659">
        <ele>1827.9</ele>
        <time>2020-08-05T09:40:31Z</time>
      </trkpt>
      <trkpt lat="45.09299" lon="6.06673">
        <ele>1828.4</ele>
        <time>2020-08-05T09:40:33Z</time>
      </trkpt>
      <trkpt lat="45.093" lon="6.06679">
        <ele>1828.6</ele>
        <time>2020-08-05T09:40:34Z</time>
      </trkpt>
      <trkpt lat="45.09303" lon="6.06692">
        <ele>1829</ele>
        <time>2020-08-05T09:40:36Z</time>
      </trkpt>
      <trkpt lat="45.09305" lon="6.06698">
        <ele>1829.1</ele>
        <time>2020-08-05T09:40:37Z</time>
      </trkpt>
      <trkpt lat="45.0931" lon="6.0671">
        <ele>1829.7</ele>
        <time>2020-08-05T09:40:39Z</time>
      </trkpt>
      <trkpt lat="45.09313" lon="6.06716">
        <ele>1830.1</ele>
        <time>2020-08-05T09:40:40Z</time>
      </trkpt>
      <trkpt lat="45.09316" lon="6.06722">
        <ele>1830.5</ele>
        <time>2020-08-05T09:40:41Z</time>
      </trkpt>
      <trkpt lat="45.09321" lon="6.06734">
        <ele>1831.2</ele>
        <time>2020-08-05T09:40:43Z</time>
      </trkpt>
      <trkpt lat="45.09327" lon="6.06745">
        <ele>1831.9</ele>
        <time>2020-08-05T09:40:45Z</time>
      </trkpt>
      <trkpt lat="45.0933" lon="6.0675">
        <ele>1832.3</ele>
        <time>2020-08-05T09:40:46Z</time>
      </trkpt>
      <trkpt lat="45.09336" lon="6.0676">
        <ele>1832.9</ele>
        <time>2020-08-05T09:40:48Z</time>
      </trkpt>
      <trkpt lat="45.0934" lon="6.06764">
        <ele>1833.2</ele>
        <time>2020-08-05T09:40:49Z</time>
      </trkpt>
      <trkpt lat="45.09344" lon="6.06768">
        <ele>1833.6</ele>
        <time>2020-08-05T09:40:50Z</time>
      </trkpt>
      <trkpt lat="45.09348" lon="6.06773">
        <ele>1834.2</ele>
        <time>2020-08-05T09:40:52Z</time>
      </trkpt>
      <trkpt lat="45.09354" lon="6.06779">
        <ele>1834.8</ele>
        <time>2020-08-05T09:40:54Z</time>
      </trkpt>
      <trkpt lat="45.0936" lon="6.06785">
        <ele>1835.5</ele>
        <time>2020-08-05T09:40:55Z</time>
      </trkpt>
      <trkpt lat="45.09361" lon="6.06783">
        <ele>1835.6</ele>
        <time>2020-08-05T09:40:56Z</time>
      </trkpt>
      <trkpt lat="45.09366" lon="6.06789">
        <ele>1836.2</ele>
        <time>2020-08-05T09:40:58Z</time>
      </trkpt>
      <trkpt lat="45.09371" lon="6.06794">
        <ele>1836.7</ele>
        <time>2020-08-05T09:41:00Z</time>
      </trkpt>
      <trkpt lat="45.09374" lon="6.06797">
        <ele>1837.1</ele>
        <time>2020-08-05T09:41:02Z</time>
      </trkpt>
      <trkpt lat="45.09379" lon="6.06801">
        <ele>1837.5</ele>
        <time>2020-08-05T09:41:03Z</time>
      </trkpt>
      <trkpt lat="45.09385" lon="6.06805">
        <ele>1838.1</ele>
        <time>2020-08-05T09:41:06Z</time>
      </trkpt>
      <trkpt lat="45.09391" lon="6.0681">
        <ele>1838.7</ele>
        <time>2020-08-05T09:41:07Z</time>
      </trkpt>
      <trkpt lat="45.09394" lon="6.06812">
        <ele>1839</ele>
        <time>2020-08-05T09:41:09Z</time>
      </trkpt>
      <trkpt lat="45.09399" lon="6.06816">
        <ele>1839.5</ele>
        <time>2020-08-05T09:41:10Z</time>
      </trkpt>
      <trkpt lat="45.09403" lon="6.06819">
        <ele>1839.8</ele>
        <time>2020-08-05T09:41:11Z</time>
      </trkpt>
      <trkpt lat="45.09406" lon="6.06823">
        <ele>1840.2</ele>
        <time>2020-08-05T09:41:12Z</time>
      </trkpt>
      <trkpt lat="45.09409" lon="6.06825">
        <ele>1840.4</ele>
        <time>2020-08-05T09:41:13Z</time>
      </trkpt>
      <trkpt lat="45.09415" lon="6.06835">
        <ele>1841.3</ele>
        <time>2020-08-05T09:41:16Z</time>
      </trkpt>
      <trkpt lat="45.09418" lon="6.06839">
        <ele>1841.6</ele>
        <time>2020-08-05T09:41:17Z</time>
      </trkpt>
      <trkpt lat="45.0942" lon="6.06843">
        <ele>1841.9</ele>
        <time>2020-08-05T09:41:19Z</time>
      </trkpt>
      <trkpt lat="45.09423" lon="6.06847">
        <ele>1842.3</ele>
        <time>2020-08-05T09:41:21Z</time>
      </trkpt>
      <trkpt lat="45.09426" lon="6.06853">
        <ele>1842.7</ele>
        <time>2020-08-05T09:41:22Z</time>
      </trkpt>
      <trkpt lat="45.09428" lon="6.06858">
        <ele>1843</ele>
        <time>2020-08-05T09:41:23Z</time>
      </trkpt>
      <trkpt lat="45.0943" lon="6.06862">
        <ele>1843.3</ele>
        <time>2020-08-05T09:41:25Z</time>
      </trkpt>
      <trkpt lat="45.09433" lon="6.06867">
        <ele>1843.6</ele>
        <time>2020-08-05T09:41:27Z</time>
      </trkpt>
      <trkpt lat="45.09434" lon="6.06869">
        <ele>1843.7</ele>
        <time>2020-08-05T09:41:28Z</time>
      </trkpt>
      <trkpt lat="45.09436" lon="6.06873">
        <ele>1844.1</ele>
        <time>2020-08-05T09:41:29Z</time>
      </trkpt>
      <trkpt lat="45.09438" lon="6.06875">
        <ele>1844.4</ele>
        <time>2020-08-05T09:41:30Z</time>
      </trkpt>
      <trkpt lat="45.0944" lon="6.06877">
        <ele>1844.6</ele>
        <time>2020-08-05T09:41:31Z</time>
      </trkpt>
      <trkpt lat="45.09445" lon="6.06881">
        <ele>1845.2</ele>
        <time>2020-08-05T09:41:32Z</time>
      </trkpt>
      <trkpt lat="45.09447" lon="6.06884">
        <ele>1845.5</ele>
        <time>2020-08-05T09:41:33Z</time>
      </trkpt>
      <trkpt lat="45.09449" lon="6.06887">
        <ele>1845.7</ele>
        <time>2020-08-05T09:41:34Z</time>
      </trkpt>
      <trkpt lat="45.09453" lon="6.06891">
        <ele>1846.3</ele>
        <time>2020-08-05T09:41:36Z</time>
      </trkpt>
      <trkpt lat="45.09455" lon="6.06893">
        <ele>1846.5</ele>
        <time>2020-08-05T09:41:37Z</time>
      </trkpt>
      <trkpt lat="45.09458" lon="6.06896">
        <ele>1846.8</ele>
        <time>2020-08-05T09:41:38Z</time>
      </trkpt>
      <trkpt lat="45.09461" lon="6.06899">
        <ele>1847.2</ele>
        <time>2020-08-05T09:41:39Z</time>
      </trkpt>
      <trkpt lat="45.09463" lon="6.06902">
        <ele>1847.4</ele>
        <time>2020-08-05T09:41:40Z</time>
      </trkpt>
      <trkpt lat="45.0947" lon="6.06907">
        <ele>1848.2</ele>
        <time>2020-08-05T09:41:43Z</time>
      </trkpt>
      <trkpt lat="45.09473" lon="6.06909">
        <ele>1848.5</ele>
        <time>2020-08-05T09:41:44Z</time>
      </trkpt>
      <trkpt lat="45.09475" lon="6.06911">
        <ele>1848.8</ele>
        <time>2020-08-05T09:41:46Z</time>
      </trkpt>
      <trkpt lat="45.09478" lon="6.06913">
        <ele>1849</ele>
        <time>2020-08-05T09:41:47Z</time>
      </trkpt>
      <trkpt lat="45.09481" lon="6.06915">
        <ele>1849.3</ele>
        <time>2020-08-05T09:41:48Z</time>
      </trkpt>
      <trkpt lat="45.09486" lon="6.06918">
        <ele>1849.7</ele>
        <time>2020-08-05T09:41:50Z</time>
      </trkpt>
      <trkpt lat="45.09488" lon="6.0692">
        <ele>1849.9</ele>
        <time>2020-08-05T09:41:51Z</time>
      </trkpt>
      <trkpt lat="45.0949" lon="6.06922">
        <ele>1850</ele>
        <time>2020-08-05T09:41:52Z</time>
      </trkpt>
      <trkpt lat="45.09495" lon="6.06926">
        <ele>1850.5</ele>
        <time>2020-08-05T09:41:54Z</time>
      </trkpt>
      <trkpt lat="45.09497" lon="6.06928">
        <ele>1850.7</ele>
        <time>2020-08-05T09:41:55Z</time>
      </trkpt>
      <trkpt lat="45.095" lon="6.06931">
        <ele>1850.9</ele>
        <time>2020-08-05T09:41:57Z</time>
      </trkpt>
      <trkpt lat="45.09505" lon="6.06934">
        <ele>1851.2</ele>
        <time>2020-08-05T09:41:58Z</time>
      </trkpt>
      <trkpt lat="45.09508" lon="6.06935">
        <ele>1851.3</ele>
        <time>2020-08-05T09:41:59Z</time>
      </trkpt>
      <trkpt lat="45.09511" lon="6.06936">
        <ele>1851.4</ele>
        <time>2020-08-05T09:42:00Z</time>
      </trkpt>
      <trkpt lat="45.09515" lon="6.06935">
        <ele>1851.6</ele>
        <time>2020-08-05T09:42:01Z</time>
      </trkpt>
      <trkpt lat="45.09524" lon="6.06936">
        <ele>1852</ele>
        <time>2020-08-05T09:42:03Z</time>
      </trkpt>
      <trkpt lat="45.09529" lon="6.06935">
        <ele>1852.3</ele>
        <time>2020-08-05T09:42:05Z</time>
      </trkpt>
      <trkpt lat="45.09536" lon="6.06936">
        <ele>1852.6</ele>
        <time>2020-08-05T09:42:07Z</time>
      </trkpt>
      <trkpt lat="45.09549" lon="6.06943">
        <ele>1853.2</ele>
        <time>2020-08-05T09:42:09Z</time>
      </trkpt>
      <trkpt lat="45.09554" lon="6.06943">
        <ele>1853.3</ele>
        <time>2020-08-05T09:42:11Z</time>
      </trkpt>
      <trkpt lat="45.09559" lon="6.06944">
        <ele>1853.4</ele>
        <time>2020-08-05T09:42:13Z</time>
      </trkpt>
      <trkpt lat="45.09563" lon="6.06944">
        <ele>1853.4</ele>
        <time>2020-08-05T09:42:14Z</time>
      </trkpt>
      <trkpt lat="45.09567" lon="6.06945">
        <ele>1853.5</ele>
        <time>2020-08-05T09:42:15Z</time>
      </trkpt>
      <trkpt lat="45.09574" lon="6.06947">
        <ele>1853.6</ele>
        <time>2020-08-05T09:42:16Z</time>
      </trkpt>
      <trkpt lat="45.09579" lon="6.06955">
        <ele>1853.7</ele>
        <time>2020-08-05T09:42:18Z</time>
      </trkpt>
      <trkpt lat="45.09578" lon="6.06971">
        <ele>1853.7</ele>
        <time>2020-08-05T09:42:20Z</time>
      </trkpt>
      <trkpt lat="45.09578" lon="6.06979">
        <ele>1853.6</ele>
        <time>2020-08-05T09:42:21Z</time>
      </trkpt>
      <trkpt lat="45.09579" lon="6.06993">
        <ele>1853.5</ele>
        <time>2020-08-05T09:42:23Z</time>
      </trkpt>
      <trkpt lat="45.09582" lon="6.07006">
        <ele>1853</ele>
        <time>2020-08-05T09:42:25Z</time>
      </trkpt>
      <trkpt lat="45.09583" lon="6.07012">
        <ele>1852.7</ele>
        <time>2020-08-05T09:42:26Z</time>
      </trkpt>
      <trkpt lat="45.09584" lon="6.07018">
        <ele>1852.5</ele>
        <time>2020-08-05T09:42:28Z</time>
      </trkpt>
    </trkseg>
  </trk>
  <trk>
    <name><![CDATA[Alpes d'Huez_2]]></name>
    <trkseg>
      <trkpt lat="45.09584" lon="6.07015">
        <ele>1851.7</ele>
        <time>2020-08-05T10:04:52Z</time>
      </trkpt>
      <trkpt lat="45.09581" lon="6.07017">
        <ele>1851.6</ele>
        <time>2020-08-05T10:04:53Z</time>
      </trkpt>
      <trkpt lat="45.09574" lon="6.07021">
        <ele>1851.1</ele>
        <time>2020-08-05T10:04:55Z</time>
      </trkpt>
      <trkpt lat="45.09569" lon="6.07028">
        <ele>1850.8</ele>
        <time>2020-08-05T10:04:56Z</time>
      </trkpt>
      <trkpt lat="45.09559" lon="6.07038">
        <ele>1850.1</ele>
        <time>2020-08-05T10:04:58Z</time>
      </trkpt>
      <trkpt lat="45.09552" lon="6.07044">
        <ele>1849.7</ele>
        <time>2020-08-05T10:05:01Z</time>
      </trkpt>
      <trkpt lat="45.09549" lon="6.07046">
        <ele>1849.5</ele>
        <time>2020-08-05T10:05:02Z</time>
      </trkpt>
      <trkpt lat="45.09541" lon="6.07054">
        <ele>1849</ele>
        <time>2020-08-05T10:05:05Z</time>
      </trkpt>
      <trkpt lat="45.09537" lon="6.07057">
        <ele>1848.8</ele>
        <time>2020-08-05T10:05:07Z</time>
      </trkpt>
      <trkpt lat="45.0953" lon="6.0706">
        <ele>1848.4</ele>
        <time>2020-08-05T10:05:09Z</time>
      </trkpt>
      <trkpt lat="45.09524" lon="6.07062">
        <ele>1848</ele>
        <time>2020-08-05T10:05:12Z</time>
      </trkpt>
      <trkpt lat="45.0952" lon="6.07064">
        <ele>1847.8</ele>
        <time>2020-08-05T10:05:13Z</time>
      </trkpt>
      <trkpt lat="45.09507" lon="6.07069">
        <ele>1847.1</ele>
        <time>2020-08-05T10:05:15Z</time>
      </trkpt>
      <trkpt lat="45.09501" lon="6.07071">
        <ele>1846.8</ele>
        <time>2020-08-05T10:05:17Z</time>
      </trkpt>
      <trkpt lat="45.09497" lon="6.07073">
        <ele>1846.6</ele>
        <time>2020-08-05T10:05:18Z</time>
      </trkpt>
      <trkpt lat="45.09492" lon="6.07075">
        <ele>1846.3</ele>
        <time>2020-08-05T10:05:21Z</time>
      </trkpt>
      <trkpt lat="45.09487" lon="6.07076">
        <ele>1846.1</ele>
        <time>2020-08-05T10:05:23Z</time>
      </trkpt>
      <trkpt lat="45.09485" lon="6.07076">
        <ele>1846</ele>
        <time>2020-08-05T10:05:24Z</time>
      </trkpt>
      <trkpt lat="45.09484" lon="6.07076">
        <ele>1845.9</ele>
        <time>2020-08-05T10:05:26Z</time>
      </trkpt>
      <trkpt lat="45.09484" lon="6.07075">
        <ele>1845.9</ele>
        <time>2020-08-05T10:05:27Z</time>
      </trkpt>
      <trkpt lat="45.09484" lon="6.07075">
        <ele>1845.9</ele>
        <time>2020-08-05T10:05:30Z</time>
      </trkpt>
      <trkpt lat="45.09484" lon="6.07075">
        <ele>1845.9</ele>
        <time>2020-08-05T10:05:31Z</time>
      </trkpt>
      <trkpt lat="45.09484" lon="6.07075">
        <ele>1845.9</ele>
        <time>2020-08-05T10:05:32Z</time>
      </trkpt>
      <trkpt lat="45.09484" lon="6.07076">
        <ele>1845.8</ele>
        <time>2020-08-05T10:05:34Z</time>
      </trkpt>
      <trkpt lat="45.09481" lon="6.07077">
        <ele>1845.7</ele>
        <time>2020-08-05T10:10:01Z</time>
      </trkpt>
      <trkpt lat="45.09479" lon="6.07078">
        <ele>1845.6</ele>
        <time>2020-08-05T10:10:02Z</time>
      </trkpt>
      <trkpt lat="45.09475" lon="6.0708">
        <ele>1845.3</ele>
        <time>2020-08-05T10:10:04Z</time>
      </trkpt>
      <trkpt lat="45.09472" lon="6.0708">
        <ele>1845.1</ele>
        <time>2020-08-05T10:10:06Z</time>
      </trkpt>
      <trkpt lat="45.09473" lon="6.07078">
        <ele>1845</ele>
        <time>2020-08-05T10:10:09Z</time>
      </trkpt>
      <trkpt lat="45.09472" lon="6.07076">
        <ele>1844.9</ele>
        <time>2020-08-05T10:10:11Z</time>
      </trkpt>
      <trkpt lat="45.09466" lon="6.07067">
        <ele>1844.4</ele>
        <time>2020-08-05T10:10:13Z</time>
      </trkpt>
      <trkpt lat="45.09463" lon="6.07064">
        <ele>1844.2</ele>
        <time>2020-08-05T10:10:14Z</time>
      </trkpt>
      <trkpt lat="45.0946" lon="6.07062">
        <ele>1844</ele>
        <time>2020-08-05T10:10:15Z</time>
      </trkpt>
      <trkpt lat="45.09459" lon="6.07062">
        <ele>1843.9</ele>
        <time>2020-08-05T10:10:16Z</time>
      </trkpt>
      <trkpt lat="45.09459" lon="6.07065">
        <ele>1843.7</ele>
        <time>2020-08-05T10:10:17Z</time>
      </trkpt>
      <trkpt lat="45.09459" lon="6.07066">
        <ele>1843.6</ele>
        <time>2020-08-05T10:10:19Z</time>
      </trkpt>
      <trkpt lat="45.0946" lon="6.0707">
        <ele>1843.5</ele>
        <time>2020-08-05T10:10:21Z</time>
      </trkpt>
      <trkpt lat="45.09463" lon="6.07072">
        <ele>1843.3</ele>
        <time>2020-08-05T10:10:22Z</time>
      </trkpt>
      <trkpt lat="45.09465" lon="6.07076">
        <ele>1843.1</ele>
        <time>2020-08-05T10:10:23Z</time>
      </trkpt>
      <trkpt lat="45.09466" lon="6.07078">
        <ele>1842.9</ele>
        <time>2020-08-05T10:10:25Z</time>
      </trkpt>
      <trkpt lat="45.09468" lon="6.0708">
        <ele>1842.8</ele>
        <time>2020-08-05T10:10:27Z</time>
      </trkpt>
      <trkpt lat="45.09469" lon="6.07083">
        <ele>1842.7</ele>
        <time>2020-08-05T10:10:28Z</time>
      </trkpt>
      <trkpt lat="45.0947" lon="6.07085">
        <ele>1842.6</ele>
        <time>2020-08-05T10:10:29Z</time>
      </trkpt>
      <trkpt lat="45.09471" lon="6.07087">
        <ele>1842.4</ele>
        <time>2020-08-05T10:10:32Z</time>
      </trkpt>
      <trkpt lat="45.09473" lon="6.07089">
        <ele>1842.3</ele>
        <time>2020-08-05T10:10:33Z</time>
      </trkpt>
      <trkpt lat="45.09474" lon="6.07091">
        <ele>1842.2</ele>
        <time>2020-08-05T10:10:34Z</time>
      </trkpt>
      <trkpt lat="45.09475" lon="6.07094">
        <ele>1842</ele>
        <time>2020-08-05T10:35:55Z</time>
      </trkpt>
      <trkpt lat="45.09476" lon="6.07096">
        <ele>1841.9</ele>
        <time>2020-08-05T10:35:56Z</time>
      </trkpt>
      <trkpt lat="45.09476" lon="6.07095">
        <ele>1841.8</ele>
        <time>2020-08-05T10:35:58Z</time>
      </trkpt>
      <trkpt lat="45.09475" lon="6.07095">
        <ele>1841.8</ele>
        <time>2020-08-05T10:35:59Z</time>
      </trkpt>
      <trkpt lat="45.09475" lon="6.07094">
        <ele>1841.8</ele>
        <time>2020-08-05T10:36:00Z</time>
      </trkpt>
      <trkpt lat="45.09475" lon="6.07093">
        <ele>1841.7</ele>
        <time>2020-08-05T10:36:01Z</time>
      </trkpt>
      <trkpt lat="45.09475" lon="6.07092">
        <ele>1841.6</ele>
        <time>2020-08-05T10:36:04Z</time>
      </trkpt>
      <trkpt lat="45.09475" lon="6.07091">
        <ele>1841.6</ele>
        <time>2020-08-05T10:36:06Z</time>
      </trkpt>
      <trkpt lat="45.09475" lon="6.07091">
        <ele>1841.6</ele>
        <time>2020-08-05T10:36:08Z</time>
      </trkpt>
      <trkpt lat="45.09469" lon="6.07098">
        <ele>1841</ele>
        <time>2020-08-05T10:36:24Z</time>
      </trkpt>
      <trkpt lat="45.09458" lon="6.07102">
        <ele>1840.1</ele>
        <time>2020-08-05T10:36:26Z</time>
      </trkpt>
      <trkpt lat="45.09453" lon="6.07104">
        <ele>1839.7</ele>
        <time>2020-08-05T10:36:27Z</time>
      </trkpt>
      <trkpt lat="45.09442" lon="6.07108">
        <ele>1838.8</ele>
        <time>2020-08-05T10:36:29Z</time>
      </trkpt>
      <trkpt lat="45.09437" lon="6.07111">
        <ele>1838.3</ele>
        <time>2020-08-05T10:36:30Z</time>
      </trkpt>
      <trkpt lat="45.09434" lon="6.07113">
        <ele>1838.1</ele>
        <time>2020-08-05T10:36:31Z</time>
      </trkpt>
      <trkpt lat="45.09428" lon="6.07116">
        <ele>1837.5</ele>
        <time>2020-08-05T10:36:33Z</time>
      </trkpt>
      <trkpt lat="45.09425" lon="6.07117">
        <ele>1837.2</ele>
        <time>2020-08-05T10:36:34Z</time>
      </trkpt>
      <trkpt lat="45.09423" lon="6.07118">
        <ele>1837.1</ele>
        <time>2020-08-05T10:36:35Z</time>
      </trkpt>
      <trkpt lat="45.09422" lon="6.07119">
        <ele>1836.9</ele>
        <time>2020-08-05T10:36:36Z</time>
      </trkpt>
      <trkpt lat="45.09421" lon="6.0712">
        <ele>1836.8</ele>
        <time>2020-08-05T10:36:38Z</time>
      </trkpt>
      <trkpt lat="45.09422" lon="6.07119">
        <ele>1836.7</ele>
        <time>2020-08-05T10:36:40Z</time>
      </trkpt>
      <trkpt lat="45.09422" lon="6.07119">
        <ele>1836.7</ele>
        <time>2020-08-05T10:36:41Z</time>
      </trkpt>
      <trkpt lat="45.09422" lon="6.07119">
        <ele>1836.7</ele>
        <time>2020-08-05T10:36:43Z</time>
      </trkpt>
      <trkpt lat="45.09422" lon="6.07119">
        <ele>1836.7</ele>
        <time>2020-08-05T10:36:44Z</time>
      </trkpt>
      <trkpt lat="45.09422" lon="6.07119">
        <ele>1836.7</ele>
        <time>2020-08-05T10:36:46Z</time>
      </trkpt>
      <trkpt lat="45.09419" lon="6.07121">
        <ele>1836.3</ele>
        <time>2020-08-05T10:40:07Z</time>
      </trkpt>
      <trkpt lat="45.09417" lon="6.07122">
        <ele>1836.1</ele>
        <time>2020-08-05T10:40:08Z</time>
      </trkpt>
      <trkpt lat="45.09412" lon="6.07124">
        <ele>1835.5</ele>
        <time>2020-08-05T10:40:10Z</time>
      </trkpt>
      <trkpt lat="45.0941" lon="6.07125">
        <ele>1835.2</ele>
        <time>2020-08-05T10:40:11Z</time>
      </trkpt>
      <trkpt lat="45.09403" lon="6.07131">
        <ele>1834.5</ele>
        <time>2020-08-05T10:40:13Z</time>
      </trkpt>
      <trkpt lat="45.09403" lon="6.07134">
        <ele>1834.4</ele>
        <time>2020-08-05T10:40:14Z</time>
      </trkpt>
      <trkpt lat="45.09404" lon="6.07135">
        <ele>1834.3</ele>
        <time>2020-08-05T10:40:15Z</time>
      </trkpt>
      <trkpt lat="45.09403" lon="6.07137">
        <ele>1834.1</ele>
        <time>2020-08-05T10:40:17Z</time>
      </trkpt>
      <trkpt lat="45.09401" lon="6.07138">
        <ele>1833.9</ele>
        <time>2020-08-05T10:40:19Z</time>
      </trkpt>
      <trkpt lat="45.094" lon="6.07139">
        <ele>1833.9</ele>
        <time>2020-08-05T10:40:20Z</time>
      </trkpt>
      <trkpt lat="45.09394" lon="6.07142">
        <ele>1833.4</ele>
        <time>2020-08-05T10:40:22Z</time>
      </trkpt>
      <trkpt lat="45.09391" lon="6.07144">
        <ele>1833</ele>
        <time>2020-08-05T10:40:23Z</time>
      </trkpt>
      <trkpt lat="45.09385" lon="6.07147">
        <ele>1832.5</ele>
        <time>2020-08-05T10:40:26Z</time>
      </trkpt>
      <trkpt lat="45.09382" lon="6.07149">
        <ele>1832.2</ele>
        <time>2020-08-05T10:40:27Z</time>
      </trkpt>
      <trkpt lat="45.09377" lon="6.07151">
        <ele>1831.8</ele>
        <time>2020-08-05T10:40:29Z</time>
      </trkpt>
      <trkpt lat="45.09374" lon="6.07152">
        <ele>1831.5</ele>
        <time>2020-08-05T10:40:30Z</time>
      </trkpt>
      <trkpt lat="45.09368" lon="6.07153">
        <ele>1831.1</ele>
        <time>2020-08-05T10:40:31Z</time>
      </trkpt>
      <trkpt lat="45.09365" lon="6.07153">
        <ele>1831.1</ele>
        <time>2020-08-05T10:40:32Z</time>
      </trkpt>
      <trkpt lat="45.09361" lon="6.07155">
        <ele>1831</ele>
        <time>2020-08-05T10:40:33Z</time>
      </trkpt>
      <trkpt lat="45.09356" lon="6.07162">
        <ele>1830.9</ele>
        <time>2020-08-05T10:40:36Z</time>
      </trkpt>
      <trkpt lat="45.09357" lon="6.07166">
        <ele>1830.9</ele>
        <time>2020-08-05T10:40:37Z</time>
      </trkpt>
      <trkpt lat="45.0936" lon="6.07169">
        <ele>1830.8</ele>
        <time>2020-08-05T10:40:39Z</time>
      </trkpt>
      <trkpt lat="45.09362" lon="6.07168">
        <ele>1830.8</ele>
        <time>2020-08-05T10:40:41Z</time>
      </trkpt>
      <trkpt lat="45.09364" lon="6.07163">
        <ele>1830.7</ele>
        <time>2020-08-05T10:40:42Z</time>
      </trkpt>
      <trkpt lat="45.09366" lon="6.07162">
        <ele>1830.8</ele>
        <time>2020-08-05T10:40:43Z</time>
      </trkpt>
      <trkpt lat="45.09371" lon="6.07159">
        <ele>1831.2</ele>
        <time>2020-08-05T10:40:45Z</time>
      </trkpt>
      <trkpt lat="45.09374" lon="6.07158">
        <ele>1831.4</ele>
        <time>2020-08-05T10:40:47Z</time>
      </trkpt>
      <trkpt lat="45.09375" lon="6.07158">
        <ele>1831.5</ele>
        <time>2020-08-05T10:40:48Z</time>
      </trkpt>
      <trkpt lat="45.09379" lon="6.07157">
        <ele>1831.9</ele>
        <time>2020-08-05T10:40:50Z</time>
      </trkpt>
      <trkpt lat="45.09382" lon="6.07157">
        <ele>1832.2</ele>
        <time>2020-08-05T10:40:52Z</time>
      </trkpt>
      <trkpt lat="45.09383" lon="6.07156">
        <ele>1832.3</ele>
        <time>2020-08-05T10:40:53Z</time>
      </trkpt>
      <trkpt lat="45.09387" lon="6.07155">
        <ele>1832.6</ele>
        <time>2020-08-05T10:40:55Z</time>
      </trkpt>
      <trkpt lat="45.09393" lon="6.07152">
        <ele>1833.2</ele>
        <time>2020-08-05T10:40:58Z</time>
      </trkpt>
      <trkpt lat="45.09394" lon="6.07151">
        <ele>1833.1</ele>
        <time>2020-08-05T10:41:00Z</time>
      </trkpt>
      <trkpt lat="45.09396" lon="6.07151">
        <ele>1833.1</ele>
        <time>2020-08-05T10:41:01Z</time>
      </trkpt>
      <trkpt lat="45.09398" lon="6.0715">
        <ele>1833</ele>
        <time>2020-08-05T10:41:02Z</time>
      </trkpt>
      <trkpt lat="45.09399" lon="6.07149">
        <ele>1833</ele>
        <time>2020-08-05T10:41:03Z</time>
      </trkpt>
      <trkpt lat="45.09403" lon="6.07149">
        <ele>1832.9</ele>
        <time>2020-08-05T10:41:05Z</time>
      </trkpt>
      <trkpt lat="45.09404" lon="6.07148">
        <ele>1832.9</ele>
        <time>2020-08-05T10:41:06Z</time>
      </trkpt>
      <trkpt lat="45.09406" lon="6.07148">
        <ele>1832.8</ele>
        <time>2020-08-05T10:41:09Z</time>
      </trkpt>
      <trkpt lat="45.09406" lon="6.07147">
        <ele>1832.8</ele>
        <time>2020-08-05T10:41:11Z</time>
      </trkpt>
      <trkpt lat="45.09406" lon="6.07147">
        <ele>1832.8</ele>
        <time>2020-08-05T10:41:12Z</time>
      </trkpt>
      <trkpt lat="45.09406" lon="6.07147">
        <ele>1832.8</ele>
        <time>2020-08-05T10:41:14Z</time>
      </trkpt>
      <trkpt lat="45.09406" lon="6.07148">
        <ele>1832.8</ele>
        <time>2020-08-05T10:41:16Z</time>
      </trkpt>
      <trkpt lat="45.09406" lon="6.0715">
        <ele>1832.7</ele>
        <time>2020-08-05T10:41:18Z</time>
      </trkpt>
      <trkpt lat="45.09406" lon="6.07151">
        <ele>1832.7</ele>
        <time>2020-08-05T10:41:20Z</time>
      </trkpt>
      <trkpt lat="45.09405" lon="6.07152">
        <ele>1832.7</ele>
        <time>2020-08-05T10:41:22Z</time>
      </trkpt>
      <trkpt lat="45.09405" lon="6.07152">
        <ele>1832.7</ele>
        <time>2020-08-05T10:41:25Z</time>
      </trkpt>
      <trkpt lat="45.09405" lon="6.07152">
        <ele>1832.7</ele>
        <time>2020-08-05T10:41:27Z</time>
      </trkpt>
      <trkpt lat="45.09405" lon="6.07152">
        <ele>1832.7</ele>
        <time>2020-08-05T10:41:29Z</time>
      </trkpt>
      <trkpt lat="45.09405" lon="6.07152">
        <ele>1832.7</ele>
        <time>2020-08-05T10:41:30Z</time>
      </trkpt>
      <trkpt lat="45.09405" lon="6.07152">
        <ele>1832.7</ele>
        <time>2020-08-05T10:41:31Z</time>
      </trkpt>
      <trkpt lat="45.09405" lon="6.07152">
        <ele>1832.6</ele>
        <time>2020-08-05T10:41:33Z</time>
      </trkpt>
      <trkpt lat="45.09405" lon="6.07151">
        <ele>1832.6</ele>
        <time>2020-08-05T10:41:36Z</time>
      </trkpt>
      <trkpt lat="45.09405" lon="6.07152">
        <ele>1832.6</ele>
        <time>2020-08-05T10:41:37Z</time>
      </trkpt>
      <trkpt lat="45.09404" lon="6.07152">
        <ele>1832.6</ele>
        <time>2020-08-05T10:41:38Z</time>
      </trkpt>
      <trkpt lat="45.09404" lon="6.07152">
        <ele>1832.6</ele>
        <time>2020-08-05T10:41:39Z</time>
      </trkpt>
      <trkpt lat="45.09404" lon="6.07152">
        <ele>1832.6</ele>
        <time>2020-08-05T10:41:42Z</time>
      </trkpt>
      <trkpt lat="45.09404" lon="6.07152">
        <ele>1832.6</ele>
        <time>2020-08-05T10:41:44Z</time>
      </trkpt>
      <trkpt lat="45.09404" lon="6.07152">
        <ele>1832.6</ele>
        <time>2020-08-05T10:41:45Z</time>
      </trkpt>
      <trkpt lat="45.09404" lon="6.07152">
        <ele>1832.6</ele>
        <time>2020-08-05T10:41:47Z</time>
      </trkpt>
      <trkpt lat="45.09404" lon="6.07151">
        <ele>1832.6</ele>
        <time>2020-08-05T10:41:49Z</time>
      </trkpt>
      <trkpt lat="45.09396" lon="6.07147">
        <ele>1832.3</ele>
        <time>2020-08-05T10:44:33Z</time>
      </trkpt>
      <trkpt lat="45.09385" lon="6.07147">
        <ele>1832</ele>
        <time>2020-08-05T10:44:36Z</time>
      </trkpt>
      <trkpt lat="45.09387" lon="6.07145">
        <ele>1832</ele>
        <time>2020-08-05T10:44:38Z</time>
      </trkpt>
      <trkpt lat="45.09384" lon="6.07143">
        <ele>1831.9</ele>
        <time>2020-08-05T10:44:39Z</time>
      </trkpt>
      <trkpt lat="45.09376" lon="6.0714">
        <ele>1831.6</ele>
        <time>2020-08-05T10:44:40Z</time>
      </trkpt>
      <trkpt lat="45.0937" lon="6.07139">
        <ele>1831.5</ele>
        <time>2020-08-05T10:44:41Z</time>
      </trkpt>
      <trkpt lat="45.09358" lon="6.07141">
        <ele>1830.7</ele>
        <time>2020-08-05T10:44:44Z</time>
      </trkpt>
      <trkpt lat="45.09346" lon="6.07147">
        <ele>1829.7</ele>
        <time>2020-08-05T10:44:46Z</time>
      </trkpt>
      <trkpt lat="45.09339" lon="6.0715">
        <ele>1829.1</ele>
        <time>2020-08-05T10:44:47Z</time>
      </trkpt>
      <trkpt lat="45.09325" lon="6.07159">
        <ele>1828</ele>
        <time>2020-08-05T10:44:49Z</time>
      </trkpt>
      <trkpt lat="45.0931" lon="6.07168">
        <ele>1826.9</ele>
        <time>2020-08-05T10:44:51Z</time>
      </trkpt>
      <trkpt lat="45.09297" lon="6.07175">
        <ele>1826</ele>
        <time>2020-08-05T10:44:53Z</time>
      </trkpt>
      <trkpt lat="45.09287" lon="6.0718">
        <ele>1825.3</ele>
        <time>2020-08-05T10:44:55Z</time>
      </trkpt>
      <trkpt lat="45.09276" lon="6.07184">
        <ele>1824.9</ele>
        <time>2020-08-05T10:44:57Z</time>
      </trkpt>
      <trkpt lat="45.09264" lon="6.07187">
        <ele>1824.8</ele>
        <time>2020-08-05T10:44:59Z</time>
      </trkpt>
      <trkpt lat="45.09258" lon="6.07188">
        <ele>1824.8</ele>
        <time>2020-08-05T10:45:00Z</time>
      </trkpt>
      <trkpt lat="45.09249" lon="6.07197">
        <ele>1823.3</ele>
        <time>2020-08-05T10:45:02Z</time>
      </trkpt>
      <trkpt lat="45.09245" lon="6.07203">
        <ele>1822.9</ele>
        <time>2020-08-05T10:45:03Z</time>
      </trkpt>
      <trkpt lat="45.09237" lon="6.07218">
        <ele>1821.8</ele>
        <time>2020-08-05T10:45:05Z</time>
      </trkpt>
      <trkpt lat="45.09226" lon="6.07232">
        <ele>1820.7</ele>
        <time>2020-08-05T10:45:07Z</time>
      </trkpt>
      <trkpt lat="45.0922" lon="6.07237">
        <ele>1820.1</ele>
        <time>2020-08-05T10:45:08Z</time>
      </trkpt>
      <trkpt lat="45.09208" lon="6.0725">
        <ele>1818.8</ele>
        <time>2020-08-05T10:45:10Z</time>
      </trkpt>
      <trkpt lat="45.09196" lon="6.07263">
        <ele>1817.5</ele>
        <time>2020-08-05T10:45:12Z</time>
      </trkpt>
      <trkpt lat="45.09183" lon="6.07276">
        <ele>1816.2</ele>
        <time>2020-08-05T10:45:14Z</time>
      </trkpt>
      <trkpt lat="45.09169" lon="6.07289">
        <ele>1814.9</ele>
        <time>2020-08-05T10:45:16Z</time>
      </trkpt>
      <trkpt lat="45.09162" lon="6.07296">
        <ele>1814.2</ele>
        <time>2020-08-05T10:45:17Z</time>
      </trkpt>
      <trkpt lat="45.09155" lon="6.07303">
        <ele>1813.5</ele>
        <time>2020-08-05T10:45:18Z</time>
      </trkpt>
      <trkpt lat="45.09149" lon="6.0731">
        <ele>1812.9</ele>
        <time>2020-08-05T10:45:19Z</time>
      </trkpt>
      <trkpt lat="45.09136" lon="6.07323">
        <ele>1811.4</ele>
        <time>2020-08-05T10:45:21Z</time>
      </trkpt>
      <trkpt lat="45.09129" lon="6.0733">
        <ele>1810.5</ele>
        <time>2020-08-05T10:45:22Z</time>
      </trkpt>
      <trkpt lat="45.09116" lon="6.07344">
        <ele>1809.2</ele>
        <time>2020-08-05T10:45:24Z</time>
      </trkpt>
      <trkpt lat="45.09101" lon="6.07359">
        <ele>1807.7</ele>
        <time>2020-08-05T10:45:26Z</time>
      </trkpt>
      <trkpt lat="45.09094" lon="6.07367">
        <ele>1807.2</ele>
        <time>2020-08-05T10:45:27Z</time>
      </trkpt>
      <trkpt lat="45.0908" lon="6.07379">
        <ele>1806.5</ele>
        <time>2020-08-05T10:45:29Z</time>
      </trkpt>
      <trkpt lat="45.09064" lon="6.07385">
        <ele>1806.2</ele>
        <time>2020-08-05T10:45:31Z</time>
      </trkpt>
      <trkpt lat="45.09057" lon="6.07385">
        <ele>1806.2</ele>
        <time>2020-08-05T10:45:32Z</time>
      </trkpt>
      <trkpt lat="45.09044" lon="6.07382">
        <ele>1806.2</ele>
        <time>2020-08-05T10:45:34Z</time>
      </trkpt>
      <trkpt lat="45.09038" lon="6.07379">
        <ele>1806.3</ele>
        <time>2020-08-05T10:45:35Z</time>
      </trkpt>
      <trkpt lat="45.09027" lon="6.07373">
        <ele>1805.7</ele>
        <time>2020-08-05T10:45:37Z</time>
      </trkpt>
      <trkpt lat="45.09021" lon="6.07372">
        <ele>1805.2</ele>
        <time>2020-08-05T10:45:38Z</time>
      </trkpt>
      <trkpt lat="45.0901" lon="6.07374">
        <ele>1804.5</ele>
        <time>2020-08-05T10:45:40Z</time>
      </trkpt>
      <trkpt lat="45.08999" lon="6.07378">
        <ele>1803.7</ele>
        <time>2020-08-05T10:45:42Z</time>
      </trkpt>
      <trkpt lat="45.08989" lon="6.07382">
        <ele>1802.9</ele>
        <time>2020-08-05T10:45:44Z</time>
      </trkpt>
      <trkpt lat="45.08984" lon="6.07385">
        <ele>1802.4</ele>
        <time>2020-08-05T10:45:45Z</time>
      </trkpt>
      <trkpt lat="45.08973" lon="6.07393">
        <ele>1801.3</ele>
        <time>2020-08-05T10:45:47Z</time>
      </trkpt>
      <trkpt lat="45.08969" lon="6.07397">
        <ele>1800.8</ele>
        <time>2020-08-05T10:45:48Z</time>
      </trkpt>
      <trkpt lat="45.08966" lon="6.074">
        <ele>1800.4</ele>
        <time>2020-08-05T10:45:49Z</time>
      </trkpt>
      <trkpt lat="45.08962" lon="6.07403">
        <ele>1799.9</ele>
        <time>2020-08-05T10:45:50Z</time>
      </trkpt>
      <trkpt lat="45.08954" lon="6.07414">
        <ele>1799.2</ele>
        <time>2020-08-05T10:45:52Z</time>
      </trkpt>
      <trkpt lat="45.08951" lon="6.07421">
        <ele>1798.7</ele>
        <time>2020-08-05T10:45:53Z</time>
      </trkpt>
      <trkpt lat="45.08947" lon="6.07429">
        <ele>1798.2</ele>
        <time>2020-08-05T10:45:54Z</time>
      </trkpt>
      <trkpt lat="45.0894" lon="6.07447">
        <ele>1797.2</ele>
        <time>2020-08-05T10:45:56Z</time>
      </trkpt>
      <trkpt lat="45.08937" lon="6.07456">
        <ele>1796.6</ele>
        <time>2020-08-05T10:45:57Z</time>
      </trkpt>
      <trkpt lat="45.08933" lon="6.07465">
        <ele>1796.1</ele>
        <time>2020-08-05T10:45:58Z</time>
      </trkpt>
      <trkpt lat="45.08926" lon="6.0748">
        <ele>1795.1</ele>
        <time>2020-08-05T10:46:00Z</time>
      </trkpt>
      <trkpt lat="45.08921" lon="6.07486">
        <ele>1794.5</ele>
        <time>2020-08-05T10:46:01Z</time>
      </trkpt>
      <trkpt lat="45.0891" lon="6.07494">
        <ele>1793.9</ele>
        <time>2020-08-05T10:46:03Z</time>
      </trkpt>
      <trkpt lat="45.08904" lon="6.07495">
        <ele>1793.7</ele>
        <time>2020-08-05T10:46:04Z</time>
      </trkpt>
      <trkpt lat="45.08893" lon="6.07496">
        <ele>1793</ele>
        <time>2020-08-05T10:46:06Z</time>
      </trkpt>
      <trkpt lat="45.08884" lon="6.07495">
        <ele>1792.2</ele>
        <time>2020-08-05T10:46:08Z</time>
      </trkpt>
      <trkpt lat="45.08879" lon="6.07492">
        <ele>1791.8</ele>
        <time>2020-08-05T10:46:09Z</time>
      </trkpt>
      <trkpt lat="45.08871" lon="6.07483">
        <ele>1791</ele>
        <time>2020-08-05T10:46:11Z</time>
      </trkpt>
      <trkpt lat="45.08867" lon="6.07478">
        <ele>1790.6</ele>
        <time>2020-08-05T10:46:12Z</time>
      </trkpt>
      <trkpt lat="45.08863" lon="6.07471">
        <ele>1790</ele>
        <time>2020-08-05T10:46:14Z</time>
      </trkpt>
      <trkpt lat="45.0886" lon="6.07466">
        <ele>1789.6</ele>
        <time>2020-08-05T10:46:15Z</time>
      </trkpt>
      <trkpt lat="45.08855" lon="6.07455">
        <ele>1788.8</ele>
        <time>2020-08-05T10:46:17Z</time>
      </trkpt>
      <trkpt lat="45.0885" lon="6.07442">
        <ele>1787.8</ele>
        <time>2020-08-05T10:46:19Z</time>
      </trkpt>
      <trkpt lat="45.08844" lon="6.07429">
        <ele>1786.7</ele>
        <time>2020-08-05T10:46:21Z</time>
      </trkpt>
      <trkpt lat="45.08837" lon="6.07417">
        <ele>1785.5</ele>
        <time>2020-08-05T10:46:23Z</time>
      </trkpt>
      <trkpt lat="45.08833" lon="6.0741">
        <ele>1785</ele>
        <time>2020-08-05T10:46:24Z</time>
      </trkpt>
      <trkpt lat="45.0883" lon="6.07404">
        <ele>1784.5</ele>
        <time>2020-08-05T10:46:25Z</time>
      </trkpt>
      <trkpt lat="45.08823" lon="6.07392">
        <ele>1783.4</ele>
        <time>2020-08-05T10:46:27Z</time>
      </trkpt>
      <trkpt lat="45.08819" lon="6.07386">
        <ele>1782.8</ele>
        <time>2020-08-05T10:46:28Z</time>
      </trkpt>
      <trkpt lat="45.0881" lon="6.07374">
        <ele>1781.5</ele>
        <time>2020-08-05T10:46:30Z</time>
      </trkpt>
      <trkpt lat="45.088" lon="6.07363">
        <ele>1780</ele>
        <time>2020-08-05T10:46:32Z</time>
      </trkpt>
      <trkpt lat="45.08791" lon="6.07353">
        <ele>1778.7</ele>
        <time>2020-08-05T10:46:34Z</time>
      </trkpt>
      <trkpt lat="45.08779" lon="6.07343">
        <ele>1777.2</ele>
        <time>2020-08-05T10:46:36Z</time>
      </trkpt>
      <trkpt lat="45.08773" lon="6.07338">
        <ele>1776.4</ele>
        <time>2020-08-05T10:46:37Z</time>
      </trkpt>
      <trkpt lat="45.08758" lon="6.07328">
        <ele>1774.7</ele>
        <time>2020-08-05T10:46:39Z</time>
      </trkpt>
      <trkpt lat="45.0875" lon="6.07323">
        <ele>1773.8</ele>
        <time>2020-08-05T10:46:40Z</time>
      </trkpt>
      <trkpt lat="45.08733" lon="6.07309">
        <ele>1771.9</ele>
        <time>2020-08-05T10:46:42Z</time>
      </trkpt>
      <trkpt lat="45.08715" lon="6.07294">
        <ele>1770</ele>
        <time>2020-08-05T10:46:44Z</time>
      </trkpt>
      <trkpt lat="45.08704" lon="6.07287">
        <ele>1769</ele>
        <time>2020-08-05T10:46:45Z</time>
      </trkpt>
      <trkpt lat="45.08693" lon="6.0728">
        <ele>1768</ele>
        <time>2020-08-05T10:46:46Z</time>
      </trkpt>
      <trkpt lat="45.08673" lon="6.07265">
        <ele>1765.8</ele>
        <time>2020-08-05T10:46:48Z</time>
      </trkpt>
      <trkpt lat="45.08665" lon="6.07253">
        <ele>1764.5</ele>
        <time>2020-08-05T10:46:49Z</time>
      </trkpt>
      <trkpt lat="45.08658" lon="6.07239">
        <ele>1763.3</ele>
        <time>2020-08-05T10:46:50Z</time>
      </trkpt>
      <trkpt lat="45.08645" lon="6.07211">
        <ele>1761.1</ele>
        <time>2020-08-05T10:46:52Z</time>
      </trkpt>
      <trkpt lat="45.08638" lon="6.072">
        <ele>1760.3</ele>
        <time>2020-08-05T10:46:53Z</time>
      </trkpt>
      <trkpt lat="45.08623" lon="6.07184">
        <ele>1759</ele>
        <time>2020-08-05T10:46:55Z</time>
      </trkpt>
      <trkpt lat="45.08604" lon="6.07175">
        <ele>1758.1</ele>
        <time>2020-08-05T10:46:57Z</time>
      </trkpt>
      <trkpt lat="45.08588" lon="6.07171">
        <ele>1757.5</ele>
        <time>2020-08-05T10:46:59Z</time>
      </trkpt>
      <trkpt lat="45.08583" lon="6.07168">
        <ele>1757.2</ele>
        <time>2020-08-05T10:47:00Z</time>
      </trkpt>
      <trkpt lat="45.08578" lon="6.07162">
        <ele>1756.8</ele>
        <time>2020-08-05T10:47:01Z</time>
      </trkpt>
      <trkpt lat="45.08576" lon="6.07144">
        <ele>1755.5</ele>
        <time>2020-08-05T10:47:03Z</time>
      </trkpt>
      <trkpt lat="45.08584" lon="6.07124">
        <ele>1753.6</ele>
        <time>2020-08-05T10:47:05Z</time>
      </trkpt>
      <trkpt lat="45.08589" lon="6.07113">
        <ele>1752.6</ele>
        <time>2020-08-05T10:47:06Z</time>
      </trkpt>
      <trkpt lat="45.08592" lon="6.07102">
        <ele>1751.6</ele>
        <time>2020-08-05T10:47:07Z</time>
      </trkpt>
      <trkpt lat="45.08594" lon="6.07076">
        <ele>1749.7</ele>
        <time>2020-08-05T10:47:09Z</time>
      </trkpt>
      <trkpt lat="45.08592" lon="6.07048">
        <ele>1747.9</ele>
        <time>2020-08-05T10:47:11Z</time>
      </trkpt>
      <trkpt lat="45.08587" lon="6.0702">
        <ele>1746.1</ele>
        <time>2020-08-05T10:47:13Z</time>
      </trkpt>
      <trkpt lat="45.08579" lon="6.06993">
        <ele>1744.1</ele>
        <time>2020-08-05T10:47:15Z</time>
      </trkpt>
      <trkpt lat="45.08574" lon="6.06979">
        <ele>1743.2</ele>
        <time>2020-08-05T10:47:16Z</time>
      </trkpt>
      <trkpt lat="45.08562" lon="6.06952">
        <ele>1741.3</ele>
        <time>2020-08-05T10:47:18Z</time>
      </trkpt>
      <trkpt lat="45.08545" lon="6.0693">
        <ele>1739.4</ele>
        <time>2020-08-05T10:47:20Z</time>
      </trkpt>
      <trkpt lat="45.08536" lon="6.06919">
        <ele>1738.4</ele>
        <time>2020-08-05T10:47:21Z</time>
      </trkpt>
      <trkpt lat="45.08517" lon="6.06896">
        <ele>1736.4</ele>
        <time>2020-08-05T10:47:23Z</time>
      </trkpt>
      <trkpt lat="45.08506" lon="6.06886">
        <ele>1735.4</ele>
        <time>2020-08-05T10:47:24Z</time>
      </trkpt>
      <trkpt lat="45.08496" lon="6.06877">
        <ele>1734.4</ele>
        <time>2020-08-05T10:47:25Z</time>
      </trkpt>
      <trkpt lat="45.08477" lon="6.06855">
        <ele>1732.6</ele>
        <time>2020-08-05T10:47:27Z</time>
      </trkpt>
      <trkpt lat="45.08469" lon="6.06843">
        <ele>1731.9</ele>
        <time>2020-08-05T10:47:28Z</time>
      </trkpt>
      <trkpt lat="45.08458" lon="6.06815">
        <ele>1730.5</ele>
        <time>2020-08-05T10:47:30Z</time>
      </trkpt>
      <trkpt lat="45.08456" lon="6.06799">
        <ele>1729.5</ele>
        <time>2020-08-05T10:47:31Z</time>
      </trkpt>
      <trkpt lat="45.08457" lon="6.06781">
        <ele>1728.3</ele>
        <time>2020-08-05T10:47:32Z</time>
      </trkpt>
      <trkpt lat="45.08467" lon="6.06747">
        <ele>1725.5</ele>
        <time>2020-08-05T10:47:34Z</time>
      </trkpt>
      <trkpt lat="45.08483" lon="6.06719">
        <ele>1722.9</ele>
        <time>2020-08-05T10:47:36Z</time>
      </trkpt>
      <trkpt lat="45.08494" lon="6.06708">
        <ele>1721.6</ele>
        <time>2020-08-05T10:47:37Z</time>
      </trkpt>
      <trkpt lat="45.08519" lon="6.06692">
        <ele>1719</ele>
        <time>2020-08-05T10:47:39Z</time>
      </trkpt>
      <trkpt lat="45.08539" lon="6.06665">
        <ele>1716.7</ele>
        <time>2020-08-05T10:47:41Z</time>
      </trkpt>
      <trkpt lat="45.08544" lon="6.06647">
        <ele>1715.4</ele>
        <time>2020-08-05T10:47:42Z</time>
      </trkpt>
      <trkpt lat="45.08551" lon="6.06609">
        <ele>1713</ele>
        <time>2020-08-05T10:47:44Z</time>
      </trkpt>
      <trkpt lat="45.08555" lon="6.0659">
        <ele>1712</ele>
        <time>2020-08-05T10:47:45Z</time>
      </trkpt>
      <trkpt lat="45.08565" lon="6.06551">
        <ele>1709.8</ele>
        <time>2020-08-05T10:47:47Z</time>
      </trkpt>
      <trkpt lat="45.08577" lon="6.06513">
        <ele>1707.2</ele>
        <time>2020-08-05T10:47:49Z</time>
      </trkpt>
      <trkpt lat="45.08583" lon="6.06494">
        <ele>1706.1</ele>
        <time>2020-08-05T10:47:50Z</time>
      </trkpt>
      <trkpt lat="45.08588" lon="6.06456">
        <ele>1703.6</ele>
        <time>2020-08-05T10:47:52Z</time>
      </trkpt>
      <trkpt lat="45.08588" lon="6.06417">
        <ele>1701</ele>
        <time>2020-08-05T10:47:54Z</time>
      </trkpt>
      <trkpt lat="45.08592" lon="6.06397">
        <ele>1699.7</ele>
        <time>2020-08-05T10:47:55Z</time>
      </trkpt>
      <trkpt lat="45.08598" lon="6.06379">
        <ele>1698.3</ele>
        <time>2020-08-05T10:47:56Z</time>
      </trkpt>
      <trkpt lat="45.08605" lon="6.06361">
        <ele>1696.9</ele>
        <time>2020-08-05T10:47:57Z</time>
      </trkpt>
      <trkpt lat="45.0862" lon="6.06326">
        <ele>1694.5</ele>
        <time>2020-08-05T10:47:59Z</time>
      </trkpt>
      <trkpt lat="45.08639" lon="6.06294">
        <ele>1691.5</ele>
        <time>2020-08-05T10:48:01Z</time>
      </trkpt>
      <trkpt lat="45.08662" lon="6.06267">
        <ele>1689</ele>
        <time>2020-08-05T10:48:03Z</time>
      </trkpt>
      <trkpt lat="45.08687" lon="6.06242">
        <ele>1687.2</ele>
        <time>2020-08-05T10:48:05Z</time>
      </trkpt>
      <trkpt lat="45.08699" lon="6.06234">
        <ele>1686.5</ele>
        <time>2020-08-05T10:48:06Z</time>
      </trkpt>
      <trkpt lat="45.08723" lon="6.06229">
        <ele>1685.4</ele>
        <time>2020-08-05T10:48:08Z</time>
      </trkpt>
      <trkpt lat="45.08733" lon="6.06228">
        <ele>1685.2</ele>
        <time>2020-08-05T10:48:09Z</time>
      </trkpt>
      <trkpt lat="45.08742" lon="6.06226">
        <ele>1685</ele>
        <time>2020-08-05T10:48:10Z</time>
      </trkpt>
      <trkpt lat="45.08752" lon="6.0621">
        <ele>1684.4</ele>
        <time>2020-08-05T10:48:12Z</time>
      </trkpt>
      <trkpt lat="45.08751" lon="6.06197">
        <ele>1684</ele>
        <time>2020-08-05T10:48:13Z</time>
      </trkpt>
      <trkpt lat="45.08745" lon="6.06188">
        <ele>1683.4</ele>
        <time>2020-08-05T10:48:14Z</time>
      </trkpt>
      <trkpt lat="45.08737" lon="6.06182">
        <ele>1682.6</ele>
        <time>2020-08-05T10:48:15Z</time>
      </trkpt>
      <trkpt lat="45.08718" lon="6.06189">
        <ele>1681.1</ele>
        <time>2020-08-05T10:48:17Z</time>
      </trkpt>
      <trkpt lat="45.08701" lon="6.062">
        <ele>1679.6</ele>
        <time>2020-08-05T10:48:19Z</time>
      </trkpt>
      <trkpt lat="45.08692" lon="6.06205">
        <ele>1678.7</ele>
        <time>2020-08-05T10:48:20Z</time>
      </trkpt>
      <trkpt lat="45.08683" lon="6.06211">
        <ele>1677.9</ele>
        <time>2020-08-05T10:48:21Z</time>
      </trkpt>
      <trkpt lat="45.08662" lon="6.06221">
        <ele>1676</ele>
        <time>2020-08-05T10:48:23Z</time>
      </trkpt>
      <trkpt lat="45.0865" lon="6.06226">
        <ele>1675</ele>
        <time>2020-08-05T10:48:24Z</time>
      </trkpt>
      <trkpt lat="45.08627" lon="6.06237">
        <ele>1672.9</ele>
        <time>2020-08-05T10:48:26Z</time>
      </trkpt>
      <trkpt lat="45.08603" lon="6.0625">
        <ele>1670.6</ele>
        <time>2020-08-05T10:48:28Z</time>
      </trkpt>
      <trkpt lat="45.08592" lon="6.0626">
        <ele>1669.4</ele>
        <time>2020-08-05T10:48:29Z</time>
      </trkpt>
      <trkpt lat="45.08571" lon="6.06283">
        <ele>1667</ele>
        <time>2020-08-05T10:48:31Z</time>
      </trkpt>
      <trkpt lat="45.08551" lon="6.06311">
        <ele>1664.6</ele>
        <time>2020-08-05T10:48:33Z</time>
      </trkpt>
      <trkpt lat="45.08533" lon="6.06342">
        <ele>1662</ele>
        <time>2020-08-05T10:48:35Z</time>
      </trkpt>
      <trkpt lat="45.08522" lon="6.06381">
        <ele>1659</ele>
        <time>2020-08-05T10:48:37Z</time>
      </trkpt>
      <trkpt lat="45.08516" lon="6.064">
        <ele>1657.6</ele>
        <time>2020-08-05T10:48:38Z</time>
      </trkpt>
      <trkpt lat="45.08501" lon="6.06437">
        <ele>1654.9</ele>
        <time>2020-08-05T10:48:40Z</time>
      </trkpt>
      <trkpt lat="45.08492" lon="6.06455">
        <ele>1653.8</ele>
        <time>2020-08-05T10:48:41Z</time>
      </trkpt>
      <trkpt lat="45.08484" lon="6.06473">
        <ele>1652.7</ele>
        <time>2020-08-05T10:48:42Z</time>
      </trkpt>
      <trkpt lat="45.08468" lon="6.0651">
        <ele>1651</ele>
        <time>2020-08-05T10:48:44Z</time>
      </trkpt>
      <trkpt lat="45.08459" lon="6.06544">
        <ele>1650.2</ele>
        <time>2020-08-05T10:48:46Z</time>
      </trkpt>
      <trkpt lat="45.08456" lon="6.06561">
        <ele>1650</ele>
        <time>2020-08-05T10:48:47Z</time>
      </trkpt>
      <trkpt lat="45.08449" lon="6.06586">
        <ele>1649.8</ele>
        <time>2020-08-05T10:48:49Z</time>
      </trkpt>
      <trkpt lat="45.08434" lon="6.0659">
        <ele>1649.2</ele>
        <time>2020-08-05T10:48:51Z</time>
      </trkpt>
      <trkpt lat="45.08427" lon="6.06581">
        <ele>1648.6</ele>
        <time>2020-08-05T10:48:52Z</time>
      </trkpt>
      <trkpt lat="45.08427" lon="6.06558">
        <ele>1647.3</ele>
        <time>2020-08-05T10:48:54Z</time>
      </trkpt>
      <trkpt lat="45.08439" lon="6.06538">
        <ele>1645.6</ele>
        <time>2020-08-05T10:48:56Z</time>
      </trkpt>
      <trkpt lat="45.08451" lon="6.06514">
        <ele>1643.8</ele>
        <time>2020-08-05T10:48:58Z</time>
      </trkpt>
      <trkpt lat="45.0846" lon="6.06487">
        <ele>1641.8</ele>
        <time>2020-08-05T10:49:00Z</time>
      </trkpt>
      <trkpt lat="45.08466" lon="6.06454">
        <ele>1639.6</ele>
        <time>2020-08-05T10:49:02Z</time>
      </trkpt>
      <trkpt lat="45.08469" lon="6.06437">
        <ele>1638.4</ele>
        <time>2020-08-05T10:49:03Z</time>
      </trkpt>
      <trkpt lat="45.08476" lon="6.06402">
        <ele>1635.8</ele>
        <time>2020-08-05T10:49:05Z</time>
      </trkpt>
      <trkpt lat="45.08478" lon="6.06383">
        <ele>1634.4</ele>
        <time>2020-08-05T10:49:06Z</time>
      </trkpt>
      <trkpt lat="45.0848" lon="6.06363">
        <ele>1632.9</ele>
        <time>2020-08-05T10:49:07Z</time>
      </trkpt>
      <trkpt lat="45.08482" lon="6.06323">
        <ele>1630.1</ele>
        <time>2020-08-05T10:49:09Z</time>
      </trkpt>
      <trkpt lat="45.08488" lon="6.06283">
        <ele>1628.2</ele>
        <time>2020-08-05T10:49:11Z</time>
      </trkpt>
      <trkpt lat="45.08493" lon="6.06262">
        <ele>1627</ele>
        <time>2020-08-05T10:49:12Z</time>
      </trkpt>
      <trkpt lat="45.08497" lon="6.06242">
        <ele>1625.5</ele>
        <time>2020-08-05T10:49:13Z</time>
      </trkpt>
      <trkpt lat="45.085" lon="6.06221">
        <ele>1624</ele>
        <time>2020-08-05T10:49:14Z</time>
      </trkpt>
      <trkpt lat="45.08508" lon="6.06181">
        <ele>1621.4</ele>
        <time>2020-08-05T10:49:16Z</time>
      </trkpt>
      <trkpt lat="45.08516" lon="6.06163">
        <ele>1619.9</ele>
        <time>2020-08-05T10:49:17Z</time>
      </trkpt>
      <trkpt lat="45.08525" lon="6.06147">
        <ele>1618.3</ele>
        <time>2020-08-05T10:49:18Z</time>
      </trkpt>
      <trkpt lat="45.08547" lon="6.06115">
        <ele>1615.1</ele>
        <time>2020-08-05T10:49:20Z</time>
      </trkpt>
      <trkpt lat="45.08558" lon="6.06098">
        <ele>1613.6</ele>
        <time>2020-08-05T10:49:21Z</time>
      </trkpt>
      <trkpt lat="45.08568" lon="6.06081">
        <ele>1612</ele>
        <time>2020-08-05T10:49:22Z</time>
      </trkpt>
      <trkpt lat="45.08586" lon="6.06045">
        <ele>1609.5</ele>
        <time>2020-08-05T10:49:24Z</time>
      </trkpt>
      <trkpt lat="45.08602" lon="6.0601">
        <ele>1608.5</ele>
        <time>2020-08-05T10:49:26Z</time>
      </trkpt>
      <trkpt lat="45.08616" lon="6.05981">
        <ele>1605.9</ele>
        <time>2020-08-05T10:49:28Z</time>
      </trkpt>
      <trkpt lat="45.08623" lon="6.05969">
        <ele>1604.6</ele>
        <time>2020-08-05T10:49:29Z</time>
      </trkpt>
      <trkpt lat="45.0864" lon="6.0595">
        <ele>1602.4</ele>
        <time>2020-08-05T10:49:31Z</time>
      </trkpt>
      <trkpt lat="45.08649" lon="6.05942">
        <ele>1601.4</ele>
        <time>2020-08-05T10:49:32Z</time>
      </trkpt>
      <trkpt lat="45.08664" lon="6.05929">
        <ele>1600</ele>
        <time>2020-08-05T10:49:34Z</time>
      </trkpt>
      <trkpt lat="45.08669" lon="6.05922">
        <ele>1599.5</ele>
        <time>2020-08-05T10:49:35Z</time>
      </trkpt>
      <trkpt lat="45.08672" lon="6.05913">
        <ele>1599</ele>
        <time>2020-08-05T10:49:36Z</time>
      </trkpt>
      <trkpt lat="45.0867" lon="6.05894">
        <ele>1598.1</ele>
        <time>2020-08-05T10:49:38Z</time>
      </trkpt>
      <trkpt lat="45.08667" lon="6.05887">
        <ele>1597.6</ele>
        <time>2020-08-05T10:49:39Z</time>
      </trkpt>
      <trkpt lat="45.08664" lon="6.05881">
        <ele>1597.2</ele>
        <time>2020-08-05T10:49:40Z</time>
      </trkpt>
      <trkpt lat="45.0866" lon="6.05877">
        <ele>1596.4</ele>
        <time>2020-08-05T10:49:41Z</time>
      </trkpt>
      <trkpt lat="45.0865" lon="6.05875">
        <ele>1592.2</ele>
        <time>2020-08-05T10:49:43Z</time>
      </trkpt>
      <trkpt lat="45.08638" lon="6.05882">
        <ele>1591.9</ele>
        <time>2020-08-05T10:49:45Z</time>
      </trkpt>
      <trkpt lat="45.08624" lon="6.05896">
        <ele>1589.7</ele>
        <time>2020-08-05T10:49:47Z</time>
      </trkpt>
      <trkpt lat="45.0861" lon="6.05913">
        <ele>1587.6</ele>
        <time>2020-08-05T10:49:49Z</time>
      </trkpt>
      <trkpt lat="45.08594" lon="6.0593">
        <ele>1585.5</ele>
        <time>2020-08-05T10:49:51Z</time>
      </trkpt>
      <trkpt lat="45.08577" lon="6.05948">
        <ele>1583.8</ele>
        <time>2020-08-05T10:49:53Z</time>
      </trkpt>
      <trkpt lat="45.0857" lon="6.05956">
        <ele>1583.2</ele>
        <time>2020-08-05T10:49:54Z</time>
      </trkpt>
      <trkpt lat="45.08564" lon="6.05962">
        <ele>1582.8</ele>
        <time>2020-08-05T10:49:55Z</time>
      </trkpt>
      <trkpt lat="45.08554" lon="6.0597">
        <ele>1582.2</ele>
        <time>2020-08-05T10:49:57Z</time>
      </trkpt>
      <trkpt lat="45.08549" lon="6.05973">
        <ele>1581.8</ele>
        <time>2020-08-05T10:49:58Z</time>
      </trkpt>
      <trkpt lat="45.08539" lon="6.05979">
        <ele>1581</ele>
        <time>2020-08-05T10:50:00Z</time>
      </trkpt>
      <trkpt lat="45.08534" lon="6.05982">
        <ele>1580.6</ele>
        <time>2020-08-05T10:50:01Z</time>
      </trkpt>
      <trkpt lat="45.08522" lon="6.0599">
        <ele>1580</ele>
        <time>2020-08-05T10:50:03Z</time>
      </trkpt>
      <trkpt lat="45.08508" lon="6.05998">
        <ele>1579.5</ele>
        <time>2020-08-05T10:50:05Z</time>
      </trkpt>
      <trkpt lat="45.08502" lon="6.06001">
        <ele>1578.9</ele>
        <time>2020-08-05T10:50:06Z</time>
      </trkpt>
      <trkpt lat="45.08488" lon="6.06008">
        <ele>1577.1</ele>
        <time>2020-08-05T10:50:08Z</time>
      </trkpt>
      <trkpt lat="45.08481" lon="6.0601">
        <ele>1576.1</ele>
        <time>2020-08-05T10:50:09Z</time>
      </trkpt>
      <trkpt lat="45.08473" lon="6.06013">
        <ele>1575</ele>
        <time>2020-08-05T10:50:10Z</time>
      </trkpt>
      <trkpt lat="45.08456" lon="6.06017">
        <ele>1572.3</ele>
        <time>2020-08-05T10:50:12Z</time>
      </trkpt>
      <trkpt lat="45.08446" lon="6.06019">
        <ele>1571.4</ele>
        <time>2020-08-05T10:50:13Z</time>
      </trkpt>
      <trkpt lat="45.08426" lon="6.06027">
        <ele>1569.5</ele>
        <time>2020-08-05T10:50:15Z</time>
      </trkpt>
      <trkpt lat="45.08416" lon="6.06033">
        <ele>1568.5</ele>
        <time>2020-08-05T10:50:16Z</time>
      </trkpt>
      <trkpt lat="45.08397" lon="6.06051">
        <ele>1566.6</ele>
        <time>2020-08-05T10:50:18Z</time>
      </trkpt>
      <trkpt lat="45.08384" lon="6.06075">
        <ele>1564.7</ele>
        <time>2020-08-05T10:50:20Z</time>
      </trkpt>
      <trkpt lat="45.08373" lon="6.06102">
        <ele>1562.6</ele>
        <time>2020-08-05T10:50:22Z</time>
      </trkpt>
      <trkpt lat="45.08362" lon="6.06131">
        <ele>1560.7</ele>
        <time>2020-08-05T10:50:24Z</time>
      </trkpt>
      <trkpt lat="45.08357" lon="6.06158">
        <ele>1559</ele>
        <time>2020-08-05T10:50:26Z</time>
      </trkpt>
      <trkpt lat="45.08356" lon="6.06184">
        <ele>1557.3</ele>
        <time>2020-08-05T10:50:28Z</time>
      </trkpt>
      <trkpt lat="45.08356" lon="6.06196">
        <ele>1556.7</ele>
        <time>2020-08-05T10:50:29Z</time>
      </trkpt>
      <trkpt lat="45.08357" lon="6.06206">
        <ele>1556.3</ele>
        <time>2020-08-05T10:50:30Z</time>
      </trkpt>
      <trkpt lat="45.08357" lon="6.06214">
        <ele>1555.9</ele>
        <time>2020-08-05T10:50:31Z</time>
      </trkpt>
      <trkpt lat="45.08358" lon="6.06224">
        <ele>1555.6</ele>
        <time>2020-08-05T10:50:33Z</time>
      </trkpt>
      <trkpt lat="45.08361" lon="6.06234">
        <ele>1555.3</ele>
        <time>2020-08-05T10:50:35Z</time>
      </trkpt>
      <trkpt lat="45.08363" lon="6.0624">
        <ele>1555.2</ele>
        <time>2020-08-05T10:50:36Z</time>
      </trkpt>
      <trkpt lat="45.08364" lon="6.06251">
        <ele>1555</ele>
        <time>2020-08-05T10:50:38Z</time>
      </trkpt>
      <trkpt lat="45.08363" lon="6.06256">
        <ele>1554.8</ele>
        <time>2020-08-05T10:50:40Z</time>
      </trkpt>
      <trkpt lat="45.08361" lon="6.06257">
        <ele>1554.7</ele>
        <time>2020-08-05T10:50:41Z</time>
      </trkpt>
      <trkpt lat="45.0836" lon="6.06258">
        <ele>1554.7</ele>
        <time>2020-08-05T10:50:44Z</time>
      </trkpt>
      <trkpt lat="45.08361" lon="6.06258">
        <ele>1554.7</ele>
        <time>2020-08-05T10:50:46Z</time>
      </trkpt>
      <trkpt lat="45.08361" lon="6.06258">
        <ele>1554.7</ele>
        <time>2020-08-05T10:50:47Z</time>
      </trkpt>
      <trkpt lat="45.08361" lon="6.06258">
        <ele>1554.7</ele>
        <time>2020-08-05T10:50:49Z</time>
      </trkpt>
      <trkpt lat="45.0836" lon="6.06258">
        <ele>1554.7</ele>
        <time>2020-08-05T10:50:51Z</time>
      </trkpt>
      <trkpt lat="45.08354" lon="6.06254">
        <ele>1554.3</ele>
        <time>2020-08-05T10:53:06Z</time>
      </trkpt>
      <trkpt lat="45.08353" lon="6.06252">
        <ele>1554.2</ele>
        <time>2020-08-05T10:53:07Z</time>
      </trkpt>
      <trkpt lat="45.08352" lon="6.06244">
        <ele>1553.9</ele>
        <time>2020-08-05T10:53:09Z</time>
      </trkpt>
      <trkpt lat="45.08352" lon="6.0624">
        <ele>1553.6</ele>
        <time>2020-08-05T10:53:10Z</time>
      </trkpt>
      <trkpt lat="45.08352" lon="6.06233">
        <ele>1553.3</ele>
        <time>2020-08-05T10:53:11Z</time>
      </trkpt>
      <trkpt lat="45.08351" lon="6.06227">
        <ele>1552.9</ele>
        <time>2020-08-05T10:53:12Z</time>
      </trkpt>
      <trkpt lat="45.0835" lon="6.0621">
        <ele>1551.8</ele>
        <time>2020-08-05T10:53:14Z</time>
      </trkpt>
      <trkpt lat="45.08346" lon="6.0619">
        <ele>1550.4</ele>
        <time>2020-08-05T10:53:16Z</time>
      </trkpt>
      <trkpt lat="45.08341" lon="6.06167">
        <ele>1548.7</ele>
        <time>2020-08-05T10:53:18Z</time>
      </trkpt>
      <trkpt lat="45.08338" lon="6.06154">
        <ele>1547.8</ele>
        <time>2020-08-05T10:53:19Z</time>
      </trkpt>
      <trkpt lat="45.08332" lon="6.06127">
        <ele>1545.8</ele>
        <time>2020-08-05T10:53:21Z</time>
      </trkpt>
      <trkpt lat="45.0833" lon="6.06112">
        <ele>1544.6</ele>
        <time>2020-08-05T10:53:22Z</time>
      </trkpt>
      <trkpt lat="45.08323" lon="6.06081">
        <ele>1542.4</ele>
        <time>2020-08-05T10:53:24Z</time>
      </trkpt>
      <trkpt lat="45.0832" lon="6.06064">
        <ele>1541.2</ele>
        <time>2020-08-05T10:53:25Z</time>
      </trkpt>
      <trkpt lat="45.08314" lon="6.06033">
        <ele>1538.8</ele>
        <time>2020-08-05T10:53:27Z</time>
      </trkpt>
      <trkpt lat="45.08308" lon="6.06003">
        <ele>1535.9</ele>
        <time>2020-08-05T10:53:29Z</time>
      </trkpt>
      <trkpt lat="45.08305" lon="6.05971">
        <ele>1532.6</ele>
        <time>2020-08-05T10:53:31Z</time>
      </trkpt>
      <trkpt lat="45.08303" lon="6.05937">
        <ele>1529.2</ele>
        <time>2020-08-05T10:53:33Z</time>
      </trkpt>
      <trkpt lat="45.08302" lon="6.0592">
        <ele>1527.5</ele>
        <time>2020-08-05T10:53:34Z</time>
      </trkpt>
      <trkpt lat="45.08303" lon="6.05887">
        <ele>1523.9</ele>
        <time>2020-08-05T10:53:36Z</time>
      </trkpt>
      <trkpt lat="45.08305" lon="6.0587">
        <ele>1522.6</ele>
        <time>2020-08-05T10:53:37Z</time>
      </trkpt>
      <trkpt lat="45.08309" lon="6.05853">
        <ele>1521.4</ele>
        <time>2020-08-05T10:53:38Z</time>
      </trkpt>
      <trkpt lat="45.08321" lon="6.05823">
        <ele>1519</ele>
        <time>2020-08-05T10:53:40Z</time>
      </trkpt>
      <trkpt lat="45.08328" lon="6.05811">
        <ele>1517.9</ele>
        <time>2020-08-05T10:53:41Z</time>
      </trkpt>
      <trkpt lat="45.08342" lon="6.05793">
        <ele>1516.1</ele>
        <time>2020-08-05T10:53:43Z</time>
      </trkpt>
      <trkpt lat="45.08355" lon="6.05783">
        <ele>1514.7</ele>
        <time>2020-08-05T10:53:45Z</time>
      </trkpt>
      <trkpt lat="45.08361" lon="6.05779">
        <ele>1514.1</ele>
        <time>2020-08-05T10:53:46Z</time>
      </trkpt>
      <trkpt lat="45.08368" lon="6.05769">
        <ele>1513.4</ele>
        <time>2020-08-05T10:53:48Z</time>
      </trkpt>
      <trkpt lat="45.0837" lon="6.05762">
        <ele>1513</ele>
        <time>2020-08-05T10:53:49Z</time>
      </trkpt>
      <trkpt lat="45.08368" lon="6.05755">
        <ele>1512.6</ele>
        <time>2020-08-05T10:53:50Z</time>
      </trkpt>
      <trkpt lat="45.08357" lon="6.05747">
        <ele>1511.6</ele>
        <time>2020-08-05T10:53:52Z</time>
      </trkpt>
      <trkpt lat="45.08351" lon="6.05747">
        <ele>1511.1</ele>
        <time>2020-08-05T10:53:53Z</time>
      </trkpt>
      <trkpt lat="45.08337" lon="6.0575">
        <ele>1509.9</ele>
        <time>2020-08-05T10:53:55Z</time>
      </trkpt>
      <trkpt lat="45.0833" lon="6.05752">
        <ele>1509.2</ele>
        <time>2020-08-05T10:53:56Z</time>
      </trkpt>
      <trkpt lat="45.08322" lon="6.05754">
        <ele>1508.5</ele>
        <time>2020-08-05T10:53:57Z</time>
      </trkpt>
      <trkpt lat="45.08305" lon="6.05757">
        <ele>1506.9</ele>
        <time>2020-08-05T10:53:59Z</time>
      </trkpt>
      <trkpt lat="45.08295" lon="6.05757">
        <ele>1506.1</ele>
        <time>2020-08-05T10:54:00Z</time>
      </trkpt>
      <trkpt lat="45.08275" lon="6.05759">
        <ele>1504.3</ele>
        <time>2020-08-05T10:54:02Z</time>
      </trkpt>
      <trkpt lat="45.08265" lon="6.0576">
        <ele>1503.3</ele>
        <time>2020-08-05T10:54:03Z</time>
      </trkpt>
      <trkpt lat="45.08244" lon="6.05767">
        <ele>1501.3</ele>
        <time>2020-08-05T10:54:05Z</time>
      </trkpt>
      <trkpt lat="45.08228" lon="6.05785">
        <ele>1500.2</ele>
        <time>2020-08-05T10:54:07Z</time>
      </trkpt>
      <trkpt lat="45.08221" lon="6.0581">
        <ele>1500.4</ele>
        <time>2020-08-05T10:54:09Z</time>
      </trkpt>
      <trkpt lat="45.08219" lon="6.05824">
        <ele>1500.5</ele>
        <time>2020-08-05T10:54:10Z</time>
      </trkpt>
      <trkpt lat="45.08219" lon="6.05851">
        <ele>1501</ele>
        <time>2020-08-05T10:54:12Z</time>
      </trkpt>
      <trkpt lat="45.08219" lon="6.05877">
        <ele>1501.1</ele>
        <time>2020-08-05T10:54:14Z</time>
      </trkpt>
      <trkpt lat="45.08218" lon="6.059">
        <ele>1500.8</ele>
        <time>2020-08-05T10:54:16Z</time>
      </trkpt>
      <trkpt lat="45.08218" lon="6.05922">
        <ele>1500.3</ele>
        <time>2020-08-05T10:54:18Z</time>
      </trkpt>
      <trkpt lat="45.08218" lon="6.05932">
        <ele>1500.1</ele>
        <time>2020-08-05T10:54:19Z</time>
      </trkpt>
      <trkpt lat="45.08218" lon="6.0595">
        <ele>1499.7</ele>
        <time>2020-08-05T10:54:21Z</time>
      </trkpt>
      <trkpt lat="45.08217" lon="6.05957">
        <ele>1499.6</ele>
        <time>2020-08-05T10:54:22Z</time>
      </trkpt>
      <trkpt lat="45.08217" lon="6.05964">
        <ele>1499.5</ele>
        <time>2020-08-05T10:54:23Z</time>
      </trkpt>
      <trkpt lat="45.08214" lon="6.0597">
        <ele>1498.6</ele>
        <time>2020-08-05T10:54:25Z</time>
      </trkpt>
      <trkpt lat="45.08212" lon="6.0597">
        <ele>1498.5</ele>
        <time>2020-08-05T10:54:26Z</time>
      </trkpt>
      <trkpt lat="45.08209" lon="6.05965">
        <ele>1498.2</ele>
        <time>2020-08-05T10:54:28Z</time>
      </trkpt>
      <trkpt lat="45.08205" lon="6.05962">
        <ele>1497.9</ele>
        <time>2020-08-05T10:54:30Z</time>
      </trkpt>
      <trkpt lat="45.08204" lon="6.05963">
        <ele>1497.8</ele>
        <time>2020-08-05T10:54:31Z</time>
      </trkpt>
      <trkpt lat="45.08205" lon="6.05966">
        <ele>1497.6</ele>
        <time>2020-08-05T10:54:33Z</time>
      </trkpt>
      <trkpt lat="45.08205" lon="6.05965">
        <ele>1497.5</ele>
        <time>2020-08-05T10:54:35Z</time>
      </trkpt>
      <trkpt lat="45.08206" lon="6.05966">
        <ele>1497.5</ele>
        <time>2020-08-05T10:54:36Z</time>
      </trkpt>
      <trkpt lat="45.08206" lon="6.05966">
        <ele>1497.5</ele>
        <time>2020-08-05T10:54:37Z</time>
      </trkpt>
      <trkpt lat="45.08206" lon="6.05967">
        <ele>1497.4</ele>
        <time>2020-08-05T10:54:39Z</time>
      </trkpt>
      <trkpt lat="45.08207" lon="6.05969">
        <ele>1497.3</ele>
        <time>2020-08-05T10:54:40Z</time>
      </trkpt>
      <trkpt lat="45.08208" lon="6.0597">
        <ele>1497.3</ele>
        <time>2020-08-05T10:54:43Z</time>
      </trkpt>
      <trkpt lat="45.08209" lon="6.0597">
        <ele>1497.2</ele>
        <time>2020-08-05T10:54:45Z</time>
      </trkpt>
      <trkpt lat="45.08211" lon="6.05971">
        <ele>1497.1</ele>
        <time>2020-08-05T10:54:47Z</time>
      </trkpt>
      <trkpt lat="45.08211" lon="6.05971">
        <ele>1497.1</ele>
        <time>2020-08-05T10:54:50Z</time>
      </trkpt>
      <trkpt lat="45.08211" lon="6.05971">
        <ele>1497.1</ele>
        <time>2020-08-05T10:54:51Z</time>
      </trkpt>
      <trkpt lat="45.08212" lon="6.05971">
        <ele>1497.1</ele>
        <time>2020-08-05T10:54:53Z</time>
      </trkpt>
      <trkpt lat="45.0821" lon="6.05964">
        <ele>1496.8</ele>
        <time>2020-08-05T10:54:59Z</time>
      </trkpt>
      <trkpt lat="45.08207" lon="6.05946">
        <ele>1496.1</ele>
        <time>2020-08-05T10:55:02Z</time>
      </trkpt>
      <trkpt lat="45.08206" lon="6.05936">
        <ele>1495.7</ele>
        <time>2020-08-05T10:55:03Z</time>
      </trkpt>
      <trkpt lat="45.08203" lon="6.05926">
        <ele>1495.3</ele>
        <time>2020-08-05T10:55:04Z</time>
      </trkpt>
      <trkpt lat="45.08201" lon="6.05916">
        <ele>1495</ele>
        <time>2020-08-05T10:55:05Z</time>
      </trkpt>
      <trkpt lat="45.08196" lon="6.05894">
        <ele>1494.2</ele>
        <time>2020-08-05T10:55:07Z</time>
      </trkpt>
      <trkpt lat="45.08194" lon="6.05883">
        <ele>1493.8</ele>
        <time>2020-08-05T10:55:08Z</time>
      </trkpt>
      <trkpt lat="45.08186" lon="6.0586">
        <ele>1491.4</ele>
        <time>2020-08-05T10:55:10Z</time>
      </trkpt>
      <trkpt lat="45.08178" lon="6.05843">
        <ele>1489</ele>
        <time>2020-08-05T10:55:12Z</time>
      </trkpt>
      <trkpt lat="45.08174" lon="6.05834">
        <ele>1487.8</ele>
        <time>2020-08-05T10:55:13Z</time>
      </trkpt>
      <trkpt lat="45.0817" lon="6.05824">
        <ele>1486.6</ele>
        <time>2020-08-05T10:55:14Z</time>
      </trkpt>
      <trkpt lat="45.08164" lon="6.05804">
        <ele>1484.4</ele>
        <time>2020-08-05T10:55:16Z</time>
      </trkpt>
      <trkpt lat="45.08163" lon="6.05794">
        <ele>1483.9</ele>
        <time>2020-08-05T10:55:17Z</time>
      </trkpt>
      <trkpt lat="45.08163" lon="6.05784">
        <ele>1483.4</ele>
        <time>2020-08-05T10:55:18Z</time>
      </trkpt>
      <trkpt lat="45.08163" lon="6.05767">
        <ele>1481.8</ele>
        <time>2020-08-05T10:55:20Z</time>
      </trkpt>
      <trkpt lat="45.08163" lon="6.05761">
        <ele>1481.1</ele>
        <time>2020-08-05T10:55:21Z</time>
      </trkpt>
      <trkpt lat="45.08161" lon="6.0575">
        <ele>1479.8</ele>
        <time>2020-08-05T10:55:23Z</time>
      </trkpt>
      <trkpt lat="45.0816" lon="6.05741">
        <ele>1479</ele>
        <time>2020-08-05T10:55:25Z</time>
      </trkpt>
      <trkpt lat="45.08161" lon="6.05735">
        <ele>1478.7</ele>
        <time>2020-08-05T10:55:26Z</time>
      </trkpt>
      <trkpt lat="45.0817" lon="6.05717">
        <ele>1478.2</ele>
        <time>2020-08-05T10:55:28Z</time>
      </trkpt>
      <trkpt lat="45.08172" lon="6.05724">
        <ele>1478.3</ele>
        <time>2020-08-05T10:55:31Z</time>
      </trkpt>
      <trkpt lat="45.08177" lon="6.05705">
        <ele>1477.8</ele>
        <time>2020-08-05T10:55:34Z</time>
      </trkpt>
      <trkpt lat="45.08181" lon="6.05682">
        <ele>1477.2</ele>
        <time>2020-08-05T10:55:36Z</time>
      </trkpt>
      <trkpt lat="45.08185" lon="6.05674">
        <ele>1477</ele>
        <time>2020-08-05T10:55:38Z</time>
      </trkpt>
      <trkpt lat="45.08188" lon="6.05671">
        <ele>1476.8</ele>
        <time>2020-08-05T10:55:40Z</time>
      </trkpt>
      <trkpt lat="45.0819" lon="6.05669">
        <ele>1476.7</ele>
        <time>2020-08-05T10:55:41Z</time>
      </trkpt>
      <trkpt lat="45.08196" lon="6.05665">
        <ele>1476.3</ele>
        <time>2020-08-05T10:55:43Z</time>
      </trkpt>
      <trkpt lat="45.08198" lon="6.05662">
        <ele>1476.2</ele>
        <time>2020-08-05T10:55:44Z</time>
      </trkpt>
      <trkpt lat="45.08199" lon="6.05653">
        <ele>1475.9</ele>
        <time>2020-08-05T10:55:45Z</time>
      </trkpt>
      <trkpt lat="45.08201" lon="6.05642">
        <ele>1475.5</ele>
        <time>2020-08-05T10:55:46Z</time>
      </trkpt>
      <trkpt lat="45.08203" lon="6.0564">
        <ele>1475.8</ele>
        <time>2020-08-05T10:55:48Z</time>
      </trkpt>
      <trkpt lat="45.08204" lon="6.05639">
        <ele>1475.9</ele>
        <time>2020-08-05T10:55:49Z</time>
      </trkpt>
      <trkpt lat="45.08207" lon="6.05638">
        <ele>1476.3</ele>
        <time>2020-08-05T10:55:51Z</time>
      </trkpt>
      <trkpt lat="45.08209" lon="6.05637">
        <ele>1476.5</ele>
        <time>2020-08-05T10:55:52Z</time>
      </trkpt>
      <trkpt lat="45.08213" lon="6.05637">
        <ele>1477.1</ele>
        <time>2020-08-05T10:55:54Z</time>
      </trkpt>
      <trkpt lat="45.08216" lon="6.05638">
        <ele>1477.5</ele>
        <time>2020-08-05T10:55:55Z</time>
      </trkpt>
      <trkpt lat="45.08231" lon="6.05636">
        <ele>1479.3</ele>
        <time>2020-08-05T10:55:57Z</time>
      </trkpt>
      <trkpt lat="45.08241" lon="6.05633">
        <ele>1480.6</ele>
        <time>2020-08-05T10:56:00Z</time>
      </trkpt>
      <trkpt lat="45.08247" lon="6.05631">
        <ele>1481.5</ele>
        <time>2020-08-05T10:56:01Z</time>
      </trkpt>
      <trkpt lat="45.08254" lon="6.0563">
        <ele>1482.5</ele>
        <time>2020-08-05T10:56:04Z</time>
      </trkpt>
      <trkpt lat="45.08262" lon="6.05629">
        <ele>1483.8</ele>
        <time>2020-08-05T10:56:06Z</time>
      </trkpt>
      <trkpt lat="45.08273" lon="6.05632">
        <ele>1485.4</ele>
        <time>2020-08-05T10:56:07Z</time>
      </trkpt>
      <trkpt lat="45.08278" lon="6.0563">
        <ele>1486.3</ele>
        <time>2020-08-05T10:56:09Z</time>
      </trkpt>
      <trkpt lat="45.08282" lon="6.05627">
        <ele>1486.9</ele>
        <time>2020-08-05T10:56:10Z</time>
      </trkpt>
      <trkpt lat="45.08286" lon="6.0561">
        <ele>1488.5</ele>
        <time>2020-08-05T10:56:12Z</time>
      </trkpt>
      <trkpt lat="45.08286" lon="6.05601">
        <ele>1488.7</ele>
        <time>2020-08-05T10:56:15Z</time>
      </trkpt>
      <trkpt lat="45.08283" lon="6.05584">
        <ele>1489.2</ele>
        <time>2020-08-05T10:56:17Z</time>
      </trkpt>
      <trkpt lat="45.08281" lon="6.05574">
        <ele>1489.4</ele>
        <time>2020-08-05T10:56:20Z</time>
      </trkpt>
      <trkpt lat="45.08281" lon="6.0557">
        <ele>1489.5</ele>
        <time>2020-08-05T10:56:21Z</time>
      </trkpt>
      <trkpt lat="45.0828" lon="6.05566">
        <ele>1489.7</ele>
        <time>2020-08-05T10:56:23Z</time>
      </trkpt>
      <trkpt lat="45.08278" lon="6.05558">
        <ele>1489.9</ele>
        <time>2020-08-05T10:56:25Z</time>
      </trkpt>
      <trkpt lat="45.08277" lon="6.05554">
        <ele>1490</ele>
        <time>2020-08-05T10:56:26Z</time>
      </trkpt>
      <trkpt lat="45.08276" lon="6.05549">
        <ele>1490.2</ele>
        <time>2020-08-05T10:56:27Z</time>
      </trkpt>
      <trkpt lat="45.08271" lon="6.05537">
        <ele>1490.7</ele>
        <time>2020-08-05T10:56:29Z</time>
      </trkpt>
      <trkpt lat="45.0827" lon="6.05532">
        <ele>1490.9</ele>
        <time>2020-08-05T10:56:32Z</time>
      </trkpt>
      <trkpt lat="45.08268" lon="6.05526">
        <ele>1491.1</ele>
        <time>2020-08-05T10:56:34Z</time>
      </trkpt>
      <trkpt lat="45.08267" lon="6.05522">
        <ele>1491.3</ele>
        <time>2020-08-05T10:56:35Z</time>
      </trkpt>
      <trkpt lat="45.08265" lon="6.05517">
        <ele>1491.5</ele>
        <time>2020-08-05T10:56:37Z</time>
      </trkpt>
      <trkpt lat="45.08263" lon="6.05513">
        <ele>1491.7</ele>
        <time>2020-08-05T10:56:38Z</time>
      </trkpt>
      <trkpt lat="45.08262" lon="6.05512">
        <ele>1491.8</ele>
        <time>2020-08-05T10:56:39Z</time>
      </trkpt>
      <trkpt lat="45.08259" lon="6.05505">
        <ele>1492.1</ele>
        <time>2020-08-05T10:56:41Z</time>
      </trkpt>
      <trkpt lat="45.08257" lon="6.05498">
        <ele>1492.4</ele>
        <time>2020-08-05T10:56:43Z</time>
      </trkpt>
      <trkpt lat="45.08254" lon="6.05494">
        <ele>1492.6</ele>
        <time>2020-08-05T10:56:45Z</time>
      </trkpt>
      <trkpt lat="45.08252" lon="6.05491">
        <ele>1492.8</ele>
        <time>2020-08-05T10:56:47Z</time>
      </trkpt>
      <trkpt lat="45.08249" lon="6.05487">
        <ele>1493</ele>
        <time>2020-08-05T10:56:49Z</time>
      </trkpt>
      <trkpt lat="45.08246" lon="6.05484">
        <ele>1493.1</ele>
        <time>2020-08-05T10:56:51Z</time>
      </trkpt>
      <trkpt lat="45.08243" lon="6.05481">
        <ele>1493.3</ele>
        <time>2020-08-05T10:56:53Z</time>
      </trkpt>
      <trkpt lat="45.08239" lon="6.05477">
        <ele>1493.5</ele>
        <time>2020-08-05T10:56:55Z</time>
      </trkpt>
      <trkpt lat="45.08239" lon="6.05478">
        <ele>1493.5</ele>
        <time>2020-08-05T10:56:56Z</time>
      </trkpt>
      <trkpt lat="45.08237" lon="6.05476">
        <ele>1493.6</ele>
        <time>2020-08-05T10:56:58Z</time>
      </trkpt>
      <trkpt lat="45.08239" lon="6.05478">
        <ele>1493.7</ele>
        <time>2020-08-05T10:57:01Z</time>
      </trkpt>
      <trkpt lat="45.08235" lon="6.05471">
        <ele>1493.9</ele>
        <time>2020-08-05T10:57:03Z</time>
      </trkpt>
      <trkpt lat="45.08231" lon="6.05465">
        <ele>1494</ele>
        <time>2020-08-05T10:57:05Z</time>
      </trkpt>
      <trkpt lat="45.08223" lon="6.05449">
        <ele>1494.3</ele>
        <time>2020-08-05T10:57:07Z</time>
      </trkpt>
      <trkpt lat="45.08216" lon="6.05435">
        <ele>1494.5</ele>
        <time>2020-08-05T10:57:08Z</time>
      </trkpt>
      <trkpt lat="45.08214" lon="6.05429">
        <ele>1494.6</ele>
        <time>2020-08-05T10:57:10Z</time>
      </trkpt>
      <trkpt lat="45.08211" lon="6.05424">
        <ele>1494.7</ele>
        <time>2020-08-05T10:57:11Z</time>
      </trkpt>
      <trkpt lat="45.08208" lon="6.05416">
        <ele>1494.7</ele>
        <time>2020-08-05T10:57:13Z</time>
      </trkpt>
      <trkpt lat="45.08206" lon="6.0541">
        <ele>1494.8</ele>
        <time>2020-08-05T10:57:15Z</time>
      </trkpt>
      <trkpt lat="45.08203" lon="6.05404">
        <ele>1494.9</ele>
        <time>2020-08-05T10:57:17Z</time>
      </trkpt>
      <trkpt lat="45.082" lon="6.05397">
        <ele>1495</ele>
        <time>2020-08-05T10:57:19Z</time>
      </trkpt>
      <trkpt lat="45.08197" lon="6.05392">
        <ele>1495.1</ele>
        <time>2020-08-05T10:57:21Z</time>
      </trkpt>
      <trkpt lat="45.08194" lon="6.05383">
        <ele>1495.3</ele>
        <time>2020-08-05T10:57:23Z</time>
      </trkpt>
      <trkpt lat="45.08191" lon="6.05369">
        <ele>1495.4</ele>
        <time>2020-08-05T10:57:25Z</time>
      </trkpt>
      <trkpt lat="45.0819" lon="6.05363">
        <ele>1495.5</ele>
        <time>2020-08-05T10:57:28Z</time>
      </trkpt>
      <trkpt lat="45.0819" lon="6.05358">
        <ele>1495.5</ele>
        <time>2020-08-05T10:57:29Z</time>
      </trkpt>
      <trkpt lat="45.0819" lon="6.05348">
        <ele>1495.7</ele>
        <time>2020-08-05T10:57:31Z</time>
      </trkpt>
      <trkpt lat="45.0819" lon="6.05338">
        <ele>1495.8</ele>
        <time>2020-08-05T10:57:33Z</time>
      </trkpt>
      <trkpt lat="45.08192" lon="6.0532">
        <ele>1496</ele>
        <time>2020-08-05T10:57:35Z</time>
      </trkpt>
      <trkpt lat="45.08193" lon="6.05314">
        <ele>1496.1</ele>
        <time>2020-08-05T10:57:36Z</time>
      </trkpt>
      <trkpt lat="45.08193" lon="6.05303">
        <ele>1496.2</ele>
        <time>2020-08-05T10:57:39Z</time>
      </trkpt>
      <trkpt lat="45.08194" lon="6.05299">
        <ele>1496.3</ele>
        <time>2020-08-05T10:57:40Z</time>
      </trkpt>
      <trkpt lat="45.08195" lon="6.05292">
        <ele>1496.3</ele>
        <time>2020-08-05T10:57:41Z</time>
      </trkpt>
      <trkpt lat="45.08196" lon="6.05284">
        <ele>1496.4</ele>
        <time>2020-08-05T10:57:44Z</time>
      </trkpt>
      <trkpt lat="45.08196" lon="6.05273">
        <ele>1496.4</ele>
        <time>2020-08-05T10:57:45Z</time>
      </trkpt>
      <trkpt lat="45.08195" lon="6.05265">
        <ele>1496.4</ele>
        <time>2020-08-05T10:57:48Z</time>
      </trkpt>
      <trkpt lat="45.08191" lon="6.05256">
        <ele>1496.4</ele>
        <time>2020-08-05T10:57:50Z</time>
      </trkpt>
      <trkpt lat="45.08185" lon="6.05251">
        <ele>1496.4</ele>
        <time>2020-08-05T10:57:52Z</time>
      </trkpt>
      <trkpt lat="45.08176" lon="6.05256">
        <ele>1496.2</ele>
        <time>2020-08-05T10:57:53Z</time>
      </trkpt>
      <trkpt lat="45.08171" lon="6.0526">
        <ele>1496.1</ele>
        <time>2020-08-05T10:57:55Z</time>
      </trkpt>
      <trkpt lat="45.08167" lon="6.05263">
        <ele>1495.9</ele>
        <time>2020-08-05T10:57:56Z</time>
      </trkpt>
      <trkpt lat="45.08162" lon="6.05264">
        <ele>1495.8</ele>
        <time>2020-08-05T10:57:57Z</time>
      </trkpt>
      <trkpt lat="45.08147" lon="6.05266">
        <ele>1495.3</ele>
        <time>2020-08-05T10:58:00Z</time>
      </trkpt>
      <trkpt lat="45.08137" lon="6.05267">
        <ele>1494.9</ele>
        <time>2020-08-05T10:58:03Z</time>
      </trkpt>
      <trkpt lat="45.08126" lon="6.05269">
        <ele>1494.6</ele>
        <time>2020-08-05T10:58:05Z</time>
      </trkpt>
      <trkpt lat="45.08117" lon="6.05271">
        <ele>1494.3</ele>
        <time>2020-08-05T10:58:07Z</time>
      </trkpt>
      <trkpt lat="45.08106" lon="6.05273">
        <ele>1494.1</ele>
        <time>2020-08-05T10:58:09Z</time>
      </trkpt>
      <trkpt lat="45.08101" lon="6.05274">
        <ele>1494</ele>
        <time>2020-08-05T10:58:10Z</time>
      </trkpt>
      <trkpt lat="45.0809" lon="6.05275">
        <ele>1493.9</ele>
        <time>2020-08-05T10:58:12Z</time>
      </trkpt>
      <trkpt lat="45.08084" lon="6.05276">
        <ele>1493.9</ele>
        <time>2020-08-05T10:58:13Z</time>
      </trkpt>
      <trkpt lat="45.08074" lon="6.05274">
        <ele>1493.9</ele>
        <time>2020-08-05T10:58:15Z</time>
      </trkpt>
      <trkpt lat="45.08064" lon="6.05272">
        <ele>1494</ele>
        <time>2020-08-05T10:58:17Z</time>
      </trkpt>
      <trkpt lat="45.08056" lon="6.05271">
        <ele>1494.1</ele>
        <time>2020-08-05T10:58:19Z</time>
      </trkpt>
      <trkpt lat="45.08048" lon="6.0527">
        <ele>1494.2</ele>
        <time>2020-08-05T10:58:21Z</time>
      </trkpt>
      <trkpt lat="45.0804" lon="6.05268">
        <ele>1494.4</ele>
        <time>2020-08-05T10:58:23Z</time>
      </trkpt>
      <trkpt lat="45.08036" lon="6.0527">
        <ele>1494.5</ele>
        <time>2020-08-05T10:58:24Z</time>
      </trkpt>
      <trkpt lat="45.08033" lon="6.05272">
        <ele>1494.6</ele>
        <time>2020-08-05T10:58:25Z</time>
      </trkpt>
      <trkpt lat="45.08028" lon="6.05269">
        <ele>1494.7</ele>
        <time>2020-08-05T10:58:27Z</time>
      </trkpt>
      <trkpt lat="45.0802" lon="6.05264">
        <ele>1494.9</ele>
        <time>2020-08-05T10:58:28Z</time>
      </trkpt>
      <trkpt lat="45.08014" lon="6.0526">
        <ele>1495</ele>
        <time>2020-08-05T10:58:30Z</time>
      </trkpt>
      <trkpt lat="45.08009" lon="6.05258">
        <ele>1495.2</ele>
        <time>2020-08-05T10:58:31Z</time>
      </trkpt>
      <trkpt lat="45.08005" lon="6.05256">
        <ele>1495.3</ele>
        <time>2020-08-05T10:58:32Z</time>
      </trkpt>
      <trkpt lat="45.07996" lon="6.05249">
        <ele>1495.6</ele>
        <time>2020-08-05T10:58:33Z</time>
      </trkpt>
      <trkpt lat="45.07993" lon="6.05244">
        <ele>1495.7</ele>
        <time>2020-08-05T10:58:35Z</time>
      </trkpt>
      <trkpt lat="45.07991" lon="6.05239">
        <ele>1495.7</ele>
        <time>2020-08-05T10:58:37Z</time>
      </trkpt>
      <trkpt lat="45.07989" lon="6.05229">
        <ele>1495.8</ele>
        <time>2020-08-05T10:58:38Z</time>
      </trkpt>
      <trkpt lat="45.07988" lon="6.05223">
        <ele>1495.9</ele>
        <time>2020-08-05T10:58:39Z</time>
      </trkpt>
      <trkpt lat="45.07988" lon="6.05207">
        <ele>1496.1</ele>
        <time>2020-08-05T10:58:41Z</time>
      </trkpt>
      <trkpt lat="45.07988" lon="6.05199">
        <ele>1496.2</ele>
        <time>2020-08-05T10:58:43Z</time>
      </trkpt>
      <trkpt lat="45.07989" lon="6.05193">
        <ele>1496.2</ele>
        <time>2020-08-05T10:58:45Z</time>
      </trkpt>
      <trkpt lat="45.07989" lon="6.05188">
        <ele>1496.2</ele>
        <time>2020-08-05T10:58:46Z</time>
      </trkpt>
      <trkpt lat="45.0799" lon="6.05179">
        <ele>1496.4</ele>
        <time>2020-08-05T10:58:47Z</time>
      </trkpt>
      <trkpt lat="45.07995" lon="6.05163">
        <ele>1496.7</ele>
        <time>2020-08-05T10:58:50Z</time>
      </trkpt>
      <trkpt lat="45.07997" lon="6.05156">
        <ele>1496.8</ele>
        <time>2020-08-05T10:58:52Z</time>
      </trkpt>
      <trkpt lat="45.08001" lon="6.05145">
        <ele>1496.9</ele>
        <time>2020-08-05T10:58:54Z</time>
      </trkpt>
      <trkpt lat="45.08003" lon="6.0514">
        <ele>1497</ele>
        <time>2020-08-05T10:58:56Z</time>
      </trkpt>
      <trkpt lat="45.08005" lon="6.05133">
        <ele>1497</ele>
        <time>2020-08-05T10:58:57Z</time>
      </trkpt>
      <trkpt lat="45.08007" lon="6.05129">
        <ele>1497.1</ele>
        <time>2020-08-05T10:58:58Z</time>
      </trkpt>
      <trkpt lat="45.08009" lon="6.05122">
        <ele>1497.2</ele>
        <time>2020-08-05T10:59:00Z</time>
      </trkpt>
      <trkpt lat="45.08011" lon="6.05116">
        <ele>1497.3</ele>
        <time>2020-08-05T10:59:02Z</time>
      </trkpt>
      <trkpt lat="45.08015" lon="6.05107">
        <ele>1497.5</ele>
        <time>2020-08-05T10:59:03Z</time>
      </trkpt>
      <trkpt lat="45.08017" lon="6.05099">
        <ele>1497.7</ele>
        <time>2020-08-05T10:59:06Z</time>
      </trkpt>
      <trkpt lat="45.0802" lon="6.05087">
        <ele>1497.9</ele>
        <time>2020-08-05T10:59:07Z</time>
      </trkpt>
      <trkpt lat="45.08021" lon="6.05082">
        <ele>1498</ele>
        <time>2020-08-05T10:59:08Z</time>
      </trkpt>
      <trkpt lat="45.08024" lon="6.05068">
        <ele>1498.2</ele>
        <time>2020-08-05T10:59:11Z</time>
      </trkpt>
      <trkpt lat="45.08026" lon="6.05063">
        <ele>1498.3</ele>
        <time>2020-08-05T10:59:13Z</time>
      </trkpt>
      <trkpt lat="45.08027" lon="6.05058">
        <ele>1498.4</ele>
        <time>2020-08-05T10:59:15Z</time>
      </trkpt>
      <trkpt lat="45.0803" lon="6.05049">
        <ele>1498.6</ele>
        <time>2020-08-05T10:59:17Z</time>
      </trkpt>
      <trkpt lat="45.08032" lon="6.05045">
        <ele>1498.8</ele>
        <time>2020-08-05T10:59:18Z</time>
      </trkpt>
      <trkpt lat="45.08037" lon="6.05031">
        <ele>1499.2</ele>
        <time>2020-08-05T10:59:20Z</time>
      </trkpt>
      <trkpt lat="45.08038" lon="6.05026">
        <ele>1499.3</ele>
        <time>2020-08-05T10:59:22Z</time>
      </trkpt>
      <trkpt lat="45.08042" lon="6.05013">
        <ele>1499.5</ele>
        <time>2020-08-05T10:59:24Z</time>
      </trkpt>
      <trkpt lat="45.08047" lon="6.05001">
        <ele>1499.7</ele>
        <time>2020-08-05T10:59:27Z</time>
      </trkpt>
      <trkpt lat="45.08049" lon="6.04995">
        <ele>1499.9</ele>
        <time>2020-08-05T10:59:28Z</time>
      </trkpt>
      <trkpt lat="45.08052" lon="6.04989">
        <ele>1500</ele>
        <time>2020-08-05T10:59:31Z</time>
      </trkpt>
      <trkpt lat="45.08055" lon="6.04981">
        <ele>1500.3</ele>
        <time>2020-08-05T10:59:33Z</time>
      </trkpt>
      <trkpt lat="45.08057" lon="6.04976">
        <ele>1500.4</ele>
        <time>2020-08-05T10:59:34Z</time>
      </trkpt>
      <trkpt lat="45.0806" lon="6.04966">
        <ele>1500.6</ele>
        <time>2020-08-05T10:59:36Z</time>
      </trkpt>
      <trkpt lat="45.08064" lon="6.04953">
        <ele>1500.7</ele>
        <time>2020-08-05T10:59:37Z</time>
      </trkpt>
      <trkpt lat="45.08065" lon="6.04946">
        <ele>1500.8</ele>
        <time>2020-08-05T10:59:39Z</time>
      </trkpt>
      <trkpt lat="45.08065" lon="6.04933">
        <ele>1500.9</ele>
        <time>2020-08-05T10:59:41Z</time>
      </trkpt>
      <trkpt lat="45.08065" lon="6.04924">
        <ele>1500.9</ele>
        <time>2020-08-05T10:59:44Z</time>
      </trkpt>
      <trkpt lat="45.08066" lon="6.04914">
        <ele>1501</ele>
        <time>2020-08-05T10:59:46Z</time>
      </trkpt>
      <trkpt lat="45.08068" lon="6.049">
        <ele>1501.1</ele>
        <time>2020-08-05T10:59:48Z</time>
      </trkpt>
      <trkpt lat="45.0807" lon="6.04888">
        <ele>1501.3</ele>
        <time>2020-08-05T10:59:49Z</time>
      </trkpt>
      <trkpt lat="45.0807" lon="6.04878">
        <ele>1501.4</ele>
        <time>2020-08-05T10:59:51Z</time>
      </trkpt>
      <trkpt lat="45.08065" lon="6.04862">
        <ele>1501.5</ele>
        <time>2020-08-05T10:59:53Z</time>
      </trkpt>
      <trkpt lat="45.08062" lon="6.04856">
        <ele>1501.5</ele>
        <time>2020-08-05T10:59:55Z</time>
      </trkpt>
      <trkpt lat="45.0806" lon="6.04849">
        <ele>1501.5</ele>
        <time>2020-08-05T10:59:57Z</time>
      </trkpt>
      <trkpt lat="45.08058" lon="6.04845">
        <ele>1501.5</ele>
        <time>2020-08-05T10:59:58Z</time>
      </trkpt>
      <trkpt lat="45.08056" lon="6.04841">
        <ele>1501.6</ele>
        <time>2020-08-05T10:59:59Z</time>
      </trkpt>
      <trkpt lat="45.08053" lon="6.04836">
        <ele>1501.6</ele>
        <time>2020-08-05T11:00:00Z</time>
      </trkpt>
      <trkpt lat="45.08049" lon="6.04827">
        <ele>1501.6</ele>
        <time>2020-08-05T11:00:02Z</time>
      </trkpt>
      <trkpt lat="45.08047" lon="6.04817">
        <ele>1501.6</ele>
        <time>2020-08-05T11:00:03Z</time>
      </trkpt>
      <trkpt lat="45.08045" lon="6.04803">
        <ele>1501.7</ele>
        <time>2020-08-05T11:00:05Z</time>
      </trkpt>
      <trkpt lat="45.0804" lon="6.04792">
        <ele>1501.7</ele>
        <time>2020-08-05T11:00:07Z</time>
      </trkpt>
      <trkpt lat="45.0804" lon="6.04786">
        <ele>1501.7</ele>
        <time>2020-08-05T11:00:09Z</time>
      </trkpt>
      <trkpt lat="45.08036" lon="6.04782">
        <ele>1501.8</ele>
        <time>2020-08-05T11:00:10Z</time>
      </trkpt>
      <trkpt lat="45.08029" lon="6.04773">
        <ele>1501.8</ele>
        <time>2020-08-05T11:00:12Z</time>
      </trkpt>
      <trkpt lat="45.08022" lon="6.04765">
        <ele>1502</ele>
        <time>2020-08-05T11:00:13Z</time>
      </trkpt>
      <trkpt lat="45.08022" lon="6.0476">
        <ele>1502</ele>
        <time>2020-08-05T11:00:15Z</time>
      </trkpt>
      <trkpt lat="45.08021" lon="6.04759">
        <ele>1502.1</ele>
        <time>2020-08-05T11:00:17Z</time>
      </trkpt>
      <trkpt lat="45.0802" lon="6.04759">
        <ele>1502.1</ele>
        <time>2020-08-05T11:00:18Z</time>
      </trkpt>
      <trkpt lat="45.08021" lon="6.04759">
        <ele>1502.1</ele>
        <time>2020-08-05T11:00:20Z</time>
      </trkpt>
      <trkpt lat="45.08021" lon="6.0476">
        <ele>1502.1</ele>
        <time>2020-08-05T11:00:22Z</time>
      </trkpt>
      <trkpt lat="45.08021" lon="6.0476">
        <ele>1502.1</ele>
        <time>2020-08-05T11:00:23Z</time>
      </trkpt>
      <trkpt lat="45.08021" lon="6.0476">
        <ele>1502.1</ele>
        <time>2020-08-05T11:00:24Z</time>
      </trkpt>
      <trkpt lat="45.08021" lon="6.0476">
        <ele>1502.1</ele>
        <time>2020-08-05T11:00:26Z</time>
      </trkpt>
      <trkpt lat="45.08021" lon="6.04763">
        <ele>1502.1</ele>
        <time>2020-08-05T11:00:27Z</time>
      </trkpt>
      <trkpt lat="45.08021" lon="6.04763">
        <ele>1502.2</ele>
        <time>2020-08-05T11:00:30Z</time>
      </trkpt>
      <trkpt lat="45.08021" lon="6.04763">
        <ele>1502.2</ele>
        <time>2020-08-05T11:00:31Z</time>
      </trkpt>
      <trkpt lat="45.08021" lon="6.04764">
        <ele>1502.2</ele>
        <time>2020-08-05T11:00:33Z</time>
      </trkpt>
      <trkpt lat="45.08021" lon="6.04764">
        <ele>1502.2</ele>
        <time>2020-08-05T11:00:35Z</time>
      </trkpt>
      <trkpt lat="45.08021" lon="6.04764">
        <ele>1502.2</ele>
        <time>2020-08-05T11:00:36Z</time>
      </trkpt>
      <trkpt lat="45.08021" lon="6.04764">
        <ele>1502.2</ele>
        <time>2020-08-05T11:00:38Z</time>
      </trkpt>
      <trkpt lat="45.08023" lon="6.04764">
        <ele>1502.2</ele>
        <time>2020-08-05T11:01:03Z</time>
      </trkpt>
      <trkpt lat="45.08025" lon="6.0476">
        <ele>1502.3</ele>
        <time>2020-08-05T11:01:05Z</time>
      </trkpt>
      <trkpt lat="45.08023" lon="6.04757">
        <ele>1502.3</ele>
        <time>2020-08-05T11:01:07Z</time>
      </trkpt>
      <trkpt lat="45.08023" lon="6.04757">
        <ele>1502.3</ele>
        <time>2020-08-05T11:01:10Z</time>
      </trkpt>
      <trkpt lat="45.08023" lon="6.04757">
        <ele>1502.3</ele>
        <time>2020-08-05T11:01:12Z</time>
      </trkpt>
      <trkpt lat="45.08023" lon="6.04757">
        <ele>1502.3</ele>
        <time>2020-08-05T11:01:14Z</time>
      </trkpt>
      <trkpt lat="45.08023" lon="6.04757">
        <ele>1502.3</ele>
        <time>2020-08-05T11:01:16Z</time>
      </trkpt>
      <trkpt lat="45.08023" lon="6.04757">
        <ele>1502.3</ele>
        <time>2020-08-05T11:01:18Z</time>
      </trkpt>
      <trkpt lat="45.08023" lon="6.04755">
        <ele>1502.4</ele>
        <time>2020-08-05T11:04:04Z</time>
      </trkpt>
      <trkpt lat="45.08025" lon="6.04753">
        <ele>1502.4</ele>
        <time>2020-08-05T11:04:05Z</time>
      </trkpt>
      <trkpt lat="45.08026" lon="6.04751">
        <ele>1502.4</ele>
        <time>2020-08-05T11:04:07Z</time>
      </trkpt>
      <trkpt lat="45.08028" lon="6.04747">
        <ele>1502.5</ele>
        <time>2020-08-05T11:04:09Z</time>
      </trkpt>
      <trkpt lat="45.08029" lon="6.04743">
        <ele>1502.5</ele>
        <time>2020-08-05T11:04:11Z</time>
      </trkpt>
      <trkpt lat="45.08032" lon="6.04738">
        <ele>1502.6</ele>
        <time>2020-08-05T11:04:13Z</time>
      </trkpt>
      <trkpt lat="45.08038" lon="6.04728">
        <ele>1502.7</ele>
        <time>2020-08-05T11:04:15Z</time>
      </trkpt>
      <trkpt lat="45.08043" lon="6.04719">
        <ele>1502.8</ele>
        <time>2020-08-05T11:04:17Z</time>
      </trkpt>
      <trkpt lat="45.08048" lon="6.04713">
        <ele>1502.9</ele>
        <time>2020-08-05T11:04:19Z</time>
      </trkpt>
      <trkpt lat="45.08052" lon="6.04705">
        <ele>1503</ele>
        <time>2020-08-05T11:04:21Z</time>
      </trkpt>
      <trkpt lat="45.08054" lon="6.047">
        <ele>1503.1</ele>
        <time>2020-08-05T11:04:22Z</time>
      </trkpt>
      <trkpt lat="45.08056" lon="6.0469">
        <ele>1503.2</ele>
        <time>2020-08-05T11:04:24Z</time>
      </trkpt>
      <trkpt lat="45.08058" lon="6.04683">
        <ele>1503.4</ele>
        <time>2020-08-05T11:04:26Z</time>
      </trkpt>
      <trkpt lat="45.08061" lon="6.04675">
        <ele>1503.6</ele>
        <time>2020-08-05T11:04:28Z</time>
      </trkpt>
      <trkpt lat="45.08064" lon="6.04669">
        <ele>1503.8</ele>
        <time>2020-08-05T11:04:30Z</time>
      </trkpt>
      <trkpt lat="45.08066" lon="6.04665">
        <ele>1504</ele>
        <time>2020-08-05T11:04:31Z</time>
      </trkpt>
      <trkpt lat="45.08069" lon="6.04658">
        <ele>1504.2</ele>
        <time>2020-08-05T11:04:33Z</time>
      </trkpt>
      <trkpt lat="45.08071" lon="6.04655">
        <ele>1504.3</ele>
        <time>2020-08-05T11:04:34Z</time>
      </trkpt>
      <trkpt lat="45.08073" lon="6.04652">
        <ele>1504.5</ele>
        <time>2020-08-05T11:04:35Z</time>
      </trkpt>
      <trkpt lat="45.08077" lon="6.04646">
        <ele>1504.7</ele>
        <time>2020-08-05T11:04:37Z</time>
      </trkpt>
      <trkpt lat="45.08079" lon="6.04642">
        <ele>1504.7</ele>
        <time>2020-08-05T11:04:38Z</time>
      </trkpt>
      <trkpt lat="45.0808" lon="6.04638">
        <ele>1504.8</ele>
        <time>2020-08-05T11:04:39Z</time>
      </trkpt>
      <trkpt lat="45.08081" lon="6.04629">
        <ele>1504.9</ele>
        <time>2020-08-05T11:04:41Z</time>
      </trkpt>
      <trkpt lat="45.08079" lon="6.0462">
        <ele>1505.1</ele>
        <time>2020-08-05T11:04:43Z</time>
      </trkpt>
      <trkpt lat="45.08077" lon="6.04616">
        <ele>1505.1</ele>
        <time>2020-08-05T11:04:44Z</time>
      </trkpt>
      <trkpt lat="45.08072" lon="6.04606">
        <ele>1505.3</ele>
        <time>2020-08-05T11:04:46Z</time>
      </trkpt>
      <trkpt lat="45.08078" lon="6.04592">
        <ele>1505.5</ele>
        <time>2020-08-05T11:04:48Z</time>
      </trkpt>
      <trkpt lat="45.08086" lon="6.04583">
        <ele>1505.6</ele>
        <time>2020-08-05T11:04:50Z</time>
      </trkpt>
      <trkpt lat="45.0809" lon="6.04579">
        <ele>1505.6</ele>
        <time>2020-08-05T11:04:51Z</time>
      </trkpt>
      <trkpt lat="45.08094" lon="6.04576">
        <ele>1505.6</ele>
        <time>2020-08-05T11:04:52Z</time>
      </trkpt>
      <trkpt lat="45.08099" lon="6.04571">
        <ele>1505.6</ele>
        <time>2020-08-05T11:04:54Z</time>
      </trkpt>
      <trkpt lat="45.08102" lon="6.04569">
        <ele>1505.6</ele>
        <time>2020-08-05T11:04:55Z</time>
      </trkpt>
      <trkpt lat="45.08102" lon="6.04575">
        <ele>1505.6</ele>
        <time>2020-08-05T11:04:56Z</time>
      </trkpt>
      <trkpt lat="45.08096" lon="6.04592">
        <ele>1505.7</ele>
        <time>2020-08-05T11:04:58Z</time>
      </trkpt>
      <trkpt lat="45.08099" lon="6.04583">
        <ele>1505.9</ele>
        <time>2020-08-05T11:05:00Z</time>
      </trkpt>
      <trkpt lat="45.08102" lon="6.04573">
        <ele>1506</ele>
        <time>2020-08-05T11:05:01Z</time>
      </trkpt>
      <trkpt lat="45.08105" lon="6.04556">
        <ele>1506</ele>
        <time>2020-08-05T11:05:02Z</time>
      </trkpt>
      <trkpt lat="45.08108" lon="6.04538">
        <ele>1506.1</ele>
        <time>2020-08-05T11:05:04Z</time>
      </trkpt>
      <trkpt lat="45.08108" lon="6.04531">
        <ele>1506.1</ele>
        <time>2020-08-05T11:05:05Z</time>
      </trkpt>
      <trkpt lat="45.08109" lon="6.04522">
        <ele>1506.1</ele>
        <time>2020-08-05T11:05:07Z</time>
      </trkpt>
      <trkpt lat="45.08109" lon="6.0451">
        <ele>1506.2</ele>
        <time>2020-08-05T11:05:08Z</time>
      </trkpt>
      <trkpt lat="45.0811" lon="6.045">
        <ele>1506.3</ele>
        <time>2020-08-05T11:05:09Z</time>
      </trkpt>
      <trkpt lat="45.08111" lon="6.04493">
        <ele>1506.3</ele>
        <time>2020-08-05T11:05:11Z</time>
      </trkpt>
      <trkpt lat="45.08112" lon="6.04484">
        <ele>1506.4</ele>
        <time>2020-08-05T11:05:12Z</time>
      </trkpt>
      <trkpt lat="45.08111" lon="6.04477">
        <ele>1506.5</ele>
        <time>2020-08-05T11:05:14Z</time>
      </trkpt>
      <trkpt lat="45.08106" lon="6.04468">
        <ele>1506.6</ele>
        <time>2020-08-05T11:05:15Z</time>
      </trkpt>
      <trkpt lat="45.08103" lon="6.04464">
        <ele>1506.6</ele>
        <time>2020-08-05T11:05:16Z</time>
      </trkpt>
      <trkpt lat="45.08099" lon="6.04459">
        <ele>1506.7</ele>
        <time>2020-08-05T11:05:17Z</time>
      </trkpt>
      <trkpt lat="45.08095" lon="6.04453">
        <ele>1506.7</ele>
        <time>2020-08-05T11:05:20Z</time>
      </trkpt>
      <trkpt lat="45.08092" lon="6.04449">
        <ele>1506.7</ele>
        <time>2020-08-05T11:05:21Z</time>
      </trkpt>
      <trkpt lat="45.0809" lon="6.04445">
        <ele>1506.8</ele>
        <time>2020-08-05T11:05:22Z</time>
      </trkpt>
      <trkpt lat="45.08086" lon="6.04427">
        <ele>1506.8</ele>
        <time>2020-08-05T11:05:24Z</time>
      </trkpt>
      <trkpt lat="45.08086" lon="6.04419">
        <ele>1506.9</ele>
        <time>2020-08-05T11:05:27Z</time>
      </trkpt>
      <trkpt lat="45.08088" lon="6.04408">
        <ele>1506.9</ele>
        <time>2020-08-05T11:05:28Z</time>
      </trkpt>
      <trkpt lat="45.08089" lon="6.04402">
        <ele>1506.9</ele>
        <time>2020-08-05T11:05:29Z</time>
      </trkpt>
      <trkpt lat="45.08091" lon="6.04394">
        <ele>1507</ele>
        <time>2020-08-05T11:05:31Z</time>
      </trkpt>
      <trkpt lat="45.08092" lon="6.04388">
        <ele>1507.1</ele>
        <time>2020-08-05T11:05:32Z</time>
      </trkpt>
      <trkpt lat="45.08091" lon="6.04382">
        <ele>1507.1</ele>
        <time>2020-08-05T11:05:33Z</time>
      </trkpt>
      <trkpt lat="45.08087" lon="6.04372">
        <ele>1507.2</ele>
        <time>2020-08-05T11:05:34Z</time>
      </trkpt>
      <trkpt lat="45.08081" lon="6.04361">
        <ele>1507.3</ele>
        <time>2020-08-05T11:05:36Z</time>
      </trkpt>
      <trkpt lat="45.08076" lon="6.04355">
        <ele>1507.3</ele>
        <time>2020-08-05T11:05:39Z</time>
      </trkpt>
      <trkpt lat="45.08072" lon="6.04349">
        <ele>1507.4</ele>
        <time>2020-08-05T11:05:40Z</time>
      </trkpt>
      <trkpt lat="45.08068" lon="6.04339">
        <ele>1507.4</ele>
        <time>2020-08-05T11:05:42Z</time>
      </trkpt>
      <trkpt lat="45.08068" lon="6.04335">
        <ele>1507.4</ele>
        <time>2020-08-05T11:05:44Z</time>
      </trkpt>
      <trkpt lat="45.08068" lon="6.0433">
        <ele>1507.3</ele>
        <time>2020-08-05T11:05:46Z</time>
      </trkpt>
      <trkpt lat="45.08069" lon="6.04326">
        <ele>1507.3</ele>
        <time>2020-08-05T11:05:47Z</time>
      </trkpt>
      <trkpt lat="45.08069" lon="6.0431">
        <ele>1507.2</ele>
        <time>2020-08-05T11:05:49Z</time>
      </trkpt>
      <trkpt lat="45.08069" lon="6.04304">
        <ele>1507.2</ele>
        <time>2020-08-05T11:05:52Z</time>
      </trkpt>
      <trkpt lat="45.08069" lon="6.043">
        <ele>1507.2</ele>
        <time>2020-08-05T11:05:53Z</time>
      </trkpt>
      <trkpt lat="45.08064" lon="6.04292">
        <ele>1507.2</ele>
        <time>2020-08-05T11:05:54Z</time>
      </trkpt>
      <trkpt lat="45.08059" lon="6.04285">
        <ele>1507.2</ele>
        <time>2020-08-05T11:05:57Z</time>
      </trkpt>
      <trkpt lat="45.08056" lon="6.04281">
        <ele>1507.2</ele>
        <time>2020-08-05T11:05:58Z</time>
      </trkpt>
      <trkpt lat="45.08053" lon="6.04277">
        <ele>1507.2</ele>
        <time>2020-08-05T11:05:59Z</time>
      </trkpt>
      <trkpt lat="45.08051" lon="6.04272">
        <ele>1507.3</ele>
        <time>2020-08-05T11:06:00Z</time>
      </trkpt>
      <trkpt lat="45.08047" lon="6.04264">
        <ele>1507.3</ele>
        <time>2020-08-05T11:06:02Z</time>
      </trkpt>
      <trkpt lat="45.08045" lon="6.04258">
        <ele>1507.4</ele>
        <time>2020-08-05T11:06:04Z</time>
      </trkpt>
      <trkpt lat="45.08045" lon="6.04257">
        <ele>1507.4</ele>
        <time>2020-08-05T11:06:05Z</time>
      </trkpt>
      <trkpt lat="45.08044" lon="6.04256">
        <ele>1507.4</ele>
        <time>2020-08-05T11:06:06Z</time>
      </trkpt>
      <trkpt lat="45.08045" lon="6.04257">
        <ele>1507.4</ele>
        <time>2020-08-05T11:06:08Z</time>
      </trkpt>
      <trkpt lat="45.08045" lon="6.04254">
        <ele>1507.4</ele>
        <time>2020-08-05T11:06:09Z</time>
      </trkpt>
      <trkpt lat="45.08046" lon="6.04247">
        <ele>1507.5</ele>
        <time>2020-08-05T11:06:11Z</time>
      </trkpt>
      <trkpt lat="45.08045" lon="6.04244">
        <ele>1507.5</ele>
        <time>2020-08-05T11:06:12Z</time>
      </trkpt>
      <trkpt lat="45.08044" lon="6.04237">
        <ele>1507.5</ele>
        <time>2020-08-05T11:06:14Z</time>
      </trkpt>
      <trkpt lat="45.08039" lon="6.04221">
        <ele>1507.5</ele>
        <time>2020-08-05T11:06:16Z</time>
      </trkpt>
      <trkpt lat="45.08036" lon="6.04214">
        <ele>1507.5</ele>
        <time>2020-08-05T11:06:17Z</time>
      </trkpt>
      <trkpt lat="45.08033" lon="6.0421">
        <ele>1507.5</ele>
        <time>2020-08-05T11:06:18Z</time>
      </trkpt>
      <trkpt lat="45.08031" lon="6.042">
        <ele>1507.5</ele>
        <time>2020-08-05T11:06:19Z</time>
      </trkpt>
      <trkpt lat="45.08029" lon="6.0419">
        <ele>1507.5</ele>
        <time>2020-08-05T11:06:21Z</time>
      </trkpt>
      <trkpt lat="45.08028" lon="6.04184">
        <ele>1507.5</ele>
        <time>2020-08-05T11:06:22Z</time>
      </trkpt>
      <trkpt lat="45.08026" lon="6.04178">
        <ele>1507.5</ele>
        <time>2020-08-05T11:06:24Z</time>
      </trkpt>
      <trkpt lat="45.08024" lon="6.04175">
        <ele>1507.5</ele>
        <time>2020-08-05T11:06:25Z</time>
      </trkpt>
      <trkpt lat="45.08023" lon="6.04171">
        <ele>1507.4</ele>
        <time>2020-08-05T11:06:26Z</time>
      </trkpt>
      <trkpt lat="45.08021" lon="6.04167">
        <ele>1507.4</ele>
        <time>2020-08-05T11:06:27Z</time>
      </trkpt>
      <trkpt lat="45.08021" lon="6.04167">
        <ele>1507.4</ele>
        <time>2020-08-05T11:06:29Z</time>
      </trkpt>
      <trkpt lat="45.08021" lon="6.04167">
        <ele>1507.4</ele>
        <time>2020-08-05T11:06:31Z</time>
      </trkpt>
      <trkpt lat="45.08021" lon="6.04167">
        <ele>1507.4</ele>
        <time>2020-08-05T11:06:32Z</time>
      </trkpt>
      <trkpt lat="45.0802" lon="6.04166">
        <ele>1507.4</ele>
        <time>2020-08-05T11:06:35Z</time>
      </trkpt>
      <trkpt lat="45.08021" lon="6.04163">
        <ele>1507.4</ele>
        <time>2020-08-05T11:06:37Z</time>
      </trkpt>
      <trkpt lat="45.08021" lon="6.04162">
        <ele>1507.4</ele>
        <time>2020-08-05T11:06:39Z</time>
      </trkpt>
      <trkpt lat="45.08021" lon="6.04162">
        <ele>1507.4</ele>
        <time>2020-08-05T11:06:41Z</time>
      </trkpt>
      <trkpt lat="45.0802" lon="6.04163">
        <ele>1507.4</ele>
        <time>2020-08-05T11:06:43Z</time>
      </trkpt>
      <trkpt lat="45.08019" lon="6.04163">
        <ele>1507.4</ele>
        <time>2020-08-05T11:06:45Z</time>
      </trkpt>
      <trkpt lat="45.08019" lon="6.04163">
        <ele>1507.4</ele>
        <time>2020-08-05T11:06:47Z</time>
      </trkpt>
      <trkpt lat="45.08019" lon="6.04163">
        <ele>1507.4</ele>
        <time>2020-08-05T11:06:48Z</time>
      </trkpt>
      <trkpt lat="45.08019" lon="6.04162">
        <ele>1507.4</ele>
        <time>2020-08-05T11:06:49Z</time>
      </trkpt>
      <trkpt lat="45.08019" lon="6.04162">
        <ele>1507.4</ele>
        <time>2020-08-05T11:06:50Z</time>
      </trkpt>
      <trkpt lat="45.08019" lon="6.04162">
        <ele>1507.4</ele>
        <time>2020-08-05T11:06:52Z</time>
      </trkpt>
      <trkpt lat="45.08018" lon="6.04162">
        <ele>1507.5</ele>
        <time>2020-08-05T11:06:53Z</time>
      </trkpt>
      <trkpt lat="45.0802" lon="6.04163">
        <ele>1507.5</ele>
        <time>2020-08-05T11:07:06Z</time>
      </trkpt>
      <trkpt lat="45.08021" lon="6.04164">
        <ele>1507.5</ele>
        <time>2020-08-05T11:07:07Z</time>
      </trkpt>
      <trkpt lat="45.08022" lon="6.04164">
        <ele>1507.5</ele>
        <time>2020-08-05T11:07:09Z</time>
      </trkpt>
      <trkpt lat="45.08022" lon="6.04161">
        <ele>1507.5</ele>
        <time>2020-08-05T11:07:11Z</time>
      </trkpt>
      <trkpt lat="45.08022" lon="6.0416">
        <ele>1507.5</ele>
        <time>2020-08-05T11:07:14Z</time>
      </trkpt>
      <trkpt lat="45.08022" lon="6.04159">
        <ele>1507.5</ele>
        <time>2020-08-05T11:07:16Z</time>
      </trkpt>
      <trkpt lat="45.08021" lon="6.04159">
        <ele>1507.5</ele>
        <time>2020-08-05T11:07:17Z</time>
      </trkpt>
      <trkpt lat="45.08021" lon="6.04159">
        <ele>1507.5</ele>
        <time>2020-08-05T11:07:19Z</time>
      </trkpt>
      <trkpt lat="45.08021" lon="6.04158">
        <ele>1507.5</ele>
        <time>2020-08-05T11:07:21Z</time>
      </trkpt>
      <trkpt lat="45.08024" lon="6.04157">
        <ele>1507.5</ele>
        <time>2020-08-05T11:08:47Z</time>
      </trkpt>
      <trkpt lat="45.08025" lon="6.04155">
        <ele>1507.5</ele>
        <time>2020-08-05T11:08:48Z</time>
      </trkpt>
      <trkpt lat="45.08026" lon="6.04154">
        <ele>1507.5</ele>
        <time>2020-08-05T11:08:49Z</time>
      </trkpt>
      <trkpt lat="45.08024" lon="6.04155">
        <ele>1507.5</ele>
        <time>2020-08-05T11:08:51Z</time>
      </trkpt>
      <trkpt lat="45.08024" lon="6.04156">
        <ele>1507.5</ele>
        <time>2020-08-05T11:08:52Z</time>
      </trkpt>
      <trkpt lat="45.08024" lon="6.04156">
        <ele>1507.5</ele>
        <time>2020-08-05T11:08:55Z</time>
      </trkpt>
      <trkpt lat="45.08025" lon="6.04155">
        <ele>1507.5</ele>
        <time>2020-08-05T11:08:57Z</time>
      </trkpt>
      <trkpt lat="45.08025" lon="6.04155">
        <ele>1507.5</ele>
        <time>2020-08-05T11:08:59Z</time>
      </trkpt>
      <trkpt lat="45.08025" lon="6.04154">
        <ele>1507.5</ele>
        <time>2020-08-05T11:09:00Z</time>
      </trkpt>
      <trkpt lat="45.08025" lon="6.04154">
        <ele>1507.5</ele>
        <time>2020-08-05T11:09:01Z</time>
      </trkpt>
      <trkpt lat="45.08032" lon="6.04148">
        <ele>1507.4</ele>
        <time>2020-08-05T11:09:03Z</time>
      </trkpt>
      <trkpt lat="45.08036" lon="6.04145">
        <ele>1507.4</ele>
        <time>2020-08-05T11:09:05Z</time>
      </trkpt>
      <trkpt lat="45.08043" lon="6.04139">
        <ele>1507.4</ele>
        <time>2020-08-05T11:09:07Z</time>
      </trkpt>
      <trkpt lat="45.08048" lon="6.04137">
        <ele>1507.4</ele>
        <time>2020-08-05T11:09:08Z</time>
      </trkpt>
      <trkpt lat="45.08053" lon="6.04135">
        <ele>1507.4</ele>
        <time>2020-08-05T11:09:09Z</time>
      </trkpt>
      <trkpt lat="45.08064" lon="6.04131">
        <ele>1507.4</ele>
        <time>2020-08-05T11:09:11Z</time>
      </trkpt>
      <trkpt lat="45.0807" lon="6.0413">
        <ele>1507.4</ele>
        <time>2020-08-05T11:09:12Z</time>
      </trkpt>
      <trkpt lat="45.08082" lon="6.04127">
        <ele>1507.2</ele>
        <time>2020-08-05T11:09:14Z</time>
      </trkpt>
      <trkpt lat="45.08094" lon="6.04122">
        <ele>1507.1</ele>
        <time>2020-08-05T11:09:16Z</time>
      </trkpt>
      <trkpt lat="45.08106" lon="6.04116">
        <ele>1506.9</ele>
        <time>2020-08-05T11:09:18Z</time>
      </trkpt>
      <trkpt lat="45.08112" lon="6.04113">
        <ele>1506.8</ele>
        <time>2020-08-05T11:09:19Z</time>
      </trkpt>
      <trkpt lat="45.08118" lon="6.04109">
        <ele>1506.6</ele>
        <time>2020-08-05T11:09:20Z</time>
      </trkpt>
      <trkpt lat="45.08131" lon="6.04102">
        <ele>1506.4</ele>
        <time>2020-08-05T11:09:22Z</time>
      </trkpt>
      <trkpt lat="45.08147" lon="6.04096">
        <ele>1506</ele>
        <time>2020-08-05T11:09:24Z</time>
      </trkpt>
      <trkpt lat="45.08156" lon="6.04094">
        <ele>1505.8</ele>
        <time>2020-08-05T11:09:25Z</time>
      </trkpt>
      <trkpt lat="45.08173" lon="6.0409">
        <ele>1505.5</ele>
        <time>2020-08-05T11:09:27Z</time>
      </trkpt>
      <trkpt lat="45.08182" lon="6.04087">
        <ele>1505.4</ele>
        <time>2020-08-05T11:09:28Z</time>
      </trkpt>
      <trkpt lat="45.082" lon="6.04081">
        <ele>1505.2</ele>
        <time>2020-08-05T11:09:30Z</time>
      </trkpt>
      <trkpt lat="45.08217" lon="6.04074">
        <ele>1505</ele>
        <time>2020-08-05T11:09:32Z</time>
      </trkpt>
      <trkpt lat="45.08233" lon="6.04068">
        <ele>1504.8</ele>
        <time>2020-08-05T11:09:34Z</time>
      </trkpt>
      <trkpt lat="45.08241" lon="6.04064">
        <ele>1504.7</ele>
        <time>2020-08-05T11:09:35Z</time>
      </trkpt>
      <trkpt lat="45.08248" lon="6.04057">
        <ele>1504.6</ele>
        <time>2020-08-05T11:09:36Z</time>
      </trkpt>
      <trkpt lat="45.08263" lon="6.04043">
        <ele>1504.5</ele>
        <time>2020-08-05T11:09:38Z</time>
      </trkpt>
      <trkpt lat="45.0827" lon="6.04037">
        <ele>1504.5</ele>
        <time>2020-08-05T11:09:39Z</time>
      </trkpt>
      <trkpt lat="45.08286" lon="6.04028">
        <ele>1504.5</ele>
        <time>2020-08-05T11:09:41Z</time>
      </trkpt>
      <trkpt lat="45.08302" lon="6.04023">
        <ele>1504.7</ele>
        <time>2020-08-05T11:09:43Z</time>
      </trkpt>
      <trkpt lat="45.08318" lon="6.04015">
        <ele>1504.9</ele>
        <time>2020-08-05T11:09:45Z</time>
      </trkpt>
      <trkpt lat="45.0833" lon="6.04">
        <ele>1505.1</ele>
        <time>2020-08-05T11:09:47Z</time>
      </trkpt>
      <trkpt lat="45.08335" lon="6.03991">
        <ele>1505.2</ele>
        <time>2020-08-05T11:09:48Z</time>
      </trkpt>
      <trkpt lat="45.0834" lon="6.03981">
        <ele>1505.3</ele>
        <time>2020-08-05T11:09:49Z</time>
      </trkpt>
      <trkpt lat="45.08349" lon="6.03967">
        <ele>1505.4</ele>
        <time>2020-08-05T11:09:51Z</time>
      </trkpt>
      <trkpt lat="45.08363" lon="6.03964">
        <ele>1505.3</ele>
        <time>2020-08-05T11:09:53Z</time>
      </trkpt>
      <trkpt lat="45.08377" lon="6.03963">
        <ele>1505.1</ele>
        <time>2020-08-05T11:09:55Z</time>
      </trkpt>
      <trkpt lat="45.08383" lon="6.03958">
        <ele>1505</ele>
        <time>2020-08-05T11:09:56Z</time>
      </trkpt>
      <trkpt lat="45.08387" lon="6.03935">
        <ele>1504.7</ele>
        <time>2020-08-05T11:09:58Z</time>
      </trkpt>
      <trkpt lat="45.08385" lon="6.03922">
        <ele>1504.6</ele>
        <time>2020-08-05T11:09:59Z</time>
      </trkpt>
      <trkpt lat="45.08383" lon="6.0391">
        <ele>1504.5</ele>
        <time>2020-08-05T11:10:00Z</time>
      </trkpt>
      <trkpt lat="45.08385" lon="6.03898">
        <ele>1504.5</ele>
        <time>2020-08-05T11:10:01Z</time>
      </trkpt>
      <trkpt lat="45.08389" lon="6.03888">
        <ele>1504.5</ele>
        <time>2020-08-05T11:10:02Z</time>
      </trkpt>
      <trkpt lat="45.08402" lon="6.03871">
        <ele>1504.5</ele>
        <time>2020-08-05T11:10:04Z</time>
      </trkpt>
      <trkpt lat="45.08408" lon="6.03862">
        <ele>1504.6</ele>
        <time>2020-08-05T11:10:05Z</time>
      </trkpt>
      <trkpt lat="45.08419" lon="6.03842">
        <ele>1504.7</ele>
        <time>2020-08-05T11:10:07Z</time>
      </trkpt>
      <trkpt lat="45.08422" lon="6.0383">
        <ele>1504.7</ele>
        <time>2020-08-05T11:10:08Z</time>
      </trkpt>
      <trkpt lat="45.08426" lon="6.03805">
        <ele>1504.8</ele>
        <time>2020-08-05T11:10:10Z</time>
      </trkpt>
      <trkpt lat="45.08428" lon="6.0378">
        <ele>1504.7</ele>
        <time>2020-08-05T11:10:12Z</time>
      </trkpt>
      <trkpt lat="45.08428" lon="6.03767">
        <ele>1504.6</ele>
        <time>2020-08-05T11:10:13Z</time>
      </trkpt>
      <trkpt lat="45.08433" lon="6.03743">
        <ele>1504.2</ele>
        <time>2020-08-05T11:10:15Z</time>
      </trkpt>
      <trkpt lat="45.08443" lon="6.03723">
        <ele>1503.7</ele>
        <time>2020-08-05T11:10:17Z</time>
      </trkpt>
      <trkpt lat="45.08453" lon="6.03706">
        <ele>1502.8</ele>
        <time>2020-08-05T11:10:19Z</time>
      </trkpt>
      <trkpt lat="45.08456" lon="6.03695">
        <ele>1502.3</ele>
        <time>2020-08-05T11:10:20Z</time>
      </trkpt>
      <trkpt lat="45.08463" lon="6.03673">
        <ele>1501.1</ele>
        <time>2020-08-05T11:10:22Z</time>
      </trkpt>
      <trkpt lat="45.08469" lon="6.03664">
        <ele>1500.5</ele>
        <time>2020-08-05T11:10:23Z</time>
      </trkpt>
      <trkpt lat="45.08475" lon="6.03655">
        <ele>1499.9</ele>
        <time>2020-08-05T11:10:24Z</time>
      </trkpt>
      <trkpt lat="45.08488" lon="6.03636">
        <ele>1498.5</ele>
        <time>2020-08-05T11:10:26Z</time>
      </trkpt>
      <trkpt lat="45.08506" lon="6.03627">
        <ele>1496.8</ele>
        <time>2020-08-05T11:10:28Z</time>
      </trkpt>
      <trkpt lat="45.08528" lon="6.03625">
        <ele>1494.9</ele>
        <time>2020-08-05T11:10:30Z</time>
      </trkpt>
      <trkpt lat="45.08539" lon="6.03622">
        <ele>1494</ele>
        <time>2020-08-05T11:10:31Z</time>
      </trkpt>
      <trkpt lat="45.08559" lon="6.03604">
        <ele>1492.4</ele>
        <time>2020-08-05T11:10:33Z</time>
      </trkpt>
      <trkpt lat="45.08566" lon="6.03592">
        <ele>1491.5</ele>
        <time>2020-08-05T11:10:34Z</time>
      </trkpt>
      <trkpt lat="45.08579" lon="6.03575">
        <ele>1490</ele>
        <time>2020-08-05T11:10:36Z</time>
      </trkpt>
      <trkpt lat="45.08595" lon="6.03576">
        <ele>1488.4</ele>
        <time>2020-08-05T11:10:38Z</time>
      </trkpt>
      <trkpt lat="45.08614" lon="6.03589">
        <ele>1486.2</ele>
        <time>2020-08-05T11:10:40Z</time>
      </trkpt>
      <trkpt lat="45.08623" lon="6.03594">
        <ele>1485.1</ele>
        <time>2020-08-05T11:10:41Z</time>
      </trkpt>
      <trkpt lat="45.08644" lon="6.03605">
        <ele>1482.7</ele>
        <time>2020-08-05T11:10:43Z</time>
      </trkpt>
      <trkpt lat="45.08656" lon="6.03611">
        <ele>1481.5</ele>
        <time>2020-08-05T11:10:44Z</time>
      </trkpt>
      <trkpt lat="45.08681" lon="6.03617">
        <ele>1479.4</ele>
        <time>2020-08-05T11:10:46Z</time>
      </trkpt>
      <trkpt lat="45.08693" lon="6.03617">
        <ele>1478.4</ele>
        <time>2020-08-05T11:10:47Z</time>
      </trkpt>
      <trkpt lat="45.08718" lon="6.03614">
        <ele>1476.3</ele>
        <time>2020-08-05T11:10:49Z</time>
      </trkpt>
      <trkpt lat="45.08743" lon="6.03613">
        <ele>1474</ele>
        <time>2020-08-05T11:10:51Z</time>
      </trkpt>
      <trkpt lat="45.08768" lon="6.03614">
        <ele>1471.7</ele>
        <time>2020-08-05T11:10:53Z</time>
      </trkpt>
      <trkpt lat="45.08791" lon="6.03605">
        <ele>1469.6</ele>
        <time>2020-08-05T11:10:55Z</time>
      </trkpt>
      <trkpt lat="45.08809" lon="6.03579">
        <ele>1467.4</ele>
        <time>2020-08-05T11:10:57Z</time>
      </trkpt>
      <trkpt lat="45.08827" lon="6.03555">
        <ele>1465.1</ele>
        <time>2020-08-05T11:10:59Z</time>
      </trkpt>
      <trkpt lat="45.08839" lon="6.03548">
        <ele>1463.8</ele>
        <time>2020-08-05T11:11:00Z</time>
      </trkpt>
      <trkpt lat="45.08863" lon="6.03532">
        <ele>1461.4</ele>
        <time>2020-08-05T11:11:02Z</time>
      </trkpt>
      <trkpt lat="45.0888" lon="6.03502">
        <ele>1459.3</ele>
        <time>2020-08-05T11:11:04Z</time>
      </trkpt>
      <trkpt lat="45.08887" lon="6.03466">
        <ele>1457.4</ele>
        <time>2020-08-05T11:11:06Z</time>
      </trkpt>
      <trkpt lat="45.0889" lon="6.03449">
        <ele>1456.4</ele>
        <time>2020-08-05T11:11:07Z</time>
      </trkpt>
      <trkpt lat="45.08901" lon="6.03421">
        <ele>1454.7</ele>
        <time>2020-08-05T11:11:09Z</time>
      </trkpt>
      <trkpt lat="45.08909" lon="6.03408">
        <ele>1453.8</ele>
        <time>2020-08-05T11:11:10Z</time>
      </trkpt>
      <trkpt lat="45.08929" lon="6.03388">
        <ele>1452.2</ele>
        <time>2020-08-05T11:11:12Z</time>
      </trkpt>
      <trkpt lat="45.08951" lon="6.03374">
        <ele>1450.6</ele>
        <time>2020-08-05T11:11:14Z</time>
      </trkpt>
      <trkpt lat="45.08972" lon="6.03364">
        <ele>1448.7</ele>
        <time>2020-08-05T11:11:16Z</time>
      </trkpt>
      <trkpt lat="45.08994" lon="6.03356">
        <ele>1446.8</ele>
        <time>2020-08-05T11:11:18Z</time>
      </trkpt>
      <trkpt lat="45.09015" lon="6.03353">
        <ele>1445.1</ele>
        <time>2020-08-05T11:11:20Z</time>
      </trkpt>
      <trkpt lat="45.09027" lon="6.03351">
        <ele>1444.1</ele>
        <time>2020-08-05T11:11:21Z</time>
      </trkpt>
      <trkpt lat="45.09039" lon="6.03349">
        <ele>1445.3</ele>
        <time>2020-08-05T11:11:22Z</time>
      </trkpt>
      <trkpt lat="45.09051" lon="6.03347">
        <ele>1446.3</ele>
        <time>2020-08-05T11:11:23Z</time>
      </trkpt>
      <trkpt lat="45.09076" lon="6.03347">
        <ele>1448.1</ele>
        <time>2020-08-05T11:11:25Z</time>
      </trkpt>
      <trkpt lat="45.09089" lon="6.03349">
        <ele>1449</ele>
        <time>2020-08-05T11:11:26Z</time>
      </trkpt>
      <trkpt lat="45.0911" lon="6.03355">
        <ele>1450.6</ele>
        <time>2020-08-05T11:11:28Z</time>
      </trkpt>
      <trkpt lat="45.09124" lon="6.03366">
        <ele>1451.5</ele>
        <time>2020-08-05T11:11:30Z</time>
      </trkpt>
      <trkpt lat="45.0913" lon="6.03371">
        <ele>1450.4</ele>
        <time>2020-08-05T11:11:31Z</time>
      </trkpt>
      <trkpt lat="45.09136" lon="6.03373">
        <ele>1449.7</ele>
        <time>2020-08-05T11:11:32Z</time>
      </trkpt>
      <trkpt lat="45.09148" lon="6.03361">
        <ele>1448.2</ele>
        <time>2020-08-05T11:11:34Z</time>
      </trkpt>
      <trkpt lat="45.09153" lon="6.03342">
        <ele>1447</ele>
        <time>2020-08-05T11:11:36Z</time>
      </trkpt>
      <trkpt lat="45.09155" lon="6.03332">
        <ele>1446.6</ele>
        <time>2020-08-05T11:11:37Z</time>
      </trkpt>
      <trkpt lat="45.09157" lon="6.03322">
        <ele>1446.1</ele>
        <time>2020-08-05T11:11:38Z</time>
      </trkpt>
      <trkpt lat="45.09158" lon="6.03301">
        <ele>1445.3</ele>
        <time>2020-08-05T11:11:40Z</time>
      </trkpt>
      <trkpt lat="45.09158" lon="6.03279">
        <ele>1444.4</ele>
        <time>2020-08-05T11:11:42Z</time>
      </trkpt>
      <trkpt lat="45.09158" lon="6.03256">
        <ele>1443.8</ele>
        <time>2020-08-05T11:11:44Z</time>
      </trkpt>
      <trkpt lat="45.0916" lon="6.03245">
        <ele>1443.6</ele>
        <time>2020-08-05T11:11:45Z</time>
      </trkpt>
      <trkpt lat="45.09163" lon="6.03223">
        <ele>1443.3</ele>
        <time>2020-08-05T11:11:47Z</time>
      </trkpt>
      <trkpt lat="45.09169" lon="6.03203">
        <ele>1443</ele>
        <time>2020-08-05T11:11:49Z</time>
      </trkpt>
      <trkpt lat="45.09174" lon="6.03182">
        <ele>1443.3</ele>
        <time>2020-08-05T11:11:51Z</time>
      </trkpt>
      <trkpt lat="45.09174" lon="6.03171">
        <ele>1443.6</ele>
        <time>2020-08-05T11:11:52Z</time>
      </trkpt>
      <trkpt lat="45.0917" lon="6.03153">
        <ele>1444</ele>
        <time>2020-08-05T11:11:54Z</time>
      </trkpt>
      <trkpt lat="45.09166" lon="6.03146">
        <ele>1444.1</ele>
        <time>2020-08-05T11:11:55Z</time>
      </trkpt>
      <trkpt lat="45.0916" lon="6.03134">
        <ele>1442.3</ele>
        <time>2020-08-05T11:11:57Z</time>
      </trkpt>
      <trkpt lat="45.09159" lon="6.03128">
        <ele>1441.5</ele>
        <time>2020-08-05T11:11:58Z</time>
      </trkpt>
      <trkpt lat="45.0916" lon="6.0311">
        <ele>1440.3</ele>
        <time>2020-08-05T11:12:00Z</time>
      </trkpt>
      <trkpt lat="45.09165" lon="6.031">
        <ele>1439.9</ele>
        <time>2020-08-05T11:12:01Z</time>
      </trkpt>
      <trkpt lat="45.09178" lon="6.03085">
        <ele>1439.4</ele>
        <time>2020-08-05T11:12:03Z</time>
      </trkpt>
      <trkpt lat="45.09189" lon="6.03072">
        <ele>1439.1</ele>
        <time>2020-08-05T11:12:05Z</time>
      </trkpt>
      <trkpt lat="45.09193" lon="6.03065">
        <ele>1439.1</ele>
        <time>2020-08-05T11:12:06Z</time>
      </trkpt>
      <trkpt lat="45.09195" lon="6.03058">
        <ele>1439</ele>
        <time>2020-08-05T11:12:07Z</time>
      </trkpt>
      <trkpt lat="45.09202" lon="6.03044">
        <ele>1438.7</ele>
        <time>2020-08-05T11:12:09Z</time>
      </trkpt>
      <trkpt lat="45.0921" lon="6.03038">
        <ele>1438.2</ele>
        <time>2020-08-05T11:12:11Z</time>
      </trkpt>
      <trkpt lat="45.09215" lon="6.03037">
        <ele>1438</ele>
        <time>2020-08-05T11:12:12Z</time>
      </trkpt>
      <trkpt lat="45.09222" lon="6.03038">
        <ele>1438.7</ele>
        <time>2020-08-05T11:12:14Z</time>
      </trkpt>
      <trkpt lat="45.09225" lon="6.03039">
        <ele>1439.2</ele>
        <time>2020-08-05T11:12:15Z</time>
      </trkpt>
      <trkpt lat="45.09228" lon="6.03039">
        <ele>1439.6</ele>
        <time>2020-08-05T11:12:16Z</time>
      </trkpt>
      <trkpt lat="45.09233" lon="6.0304">
        <ele>1440.3</ele>
        <time>2020-08-05T11:12:17Z</time>
      </trkpt>
      <trkpt lat="45.09236" lon="6.03041">
        <ele>1440.6</ele>
        <time>2020-08-05T11:12:18Z</time>
      </trkpt>
      <trkpt lat="45.09239" lon="6.03043">
        <ele>1441</ele>
        <time>2020-08-05T11:12:21Z</time>
      </trkpt>
      <trkpt lat="45.09242" lon="6.03045">
        <ele>1441.4</ele>
        <time>2020-08-05T11:12:22Z</time>
      </trkpt>
      <trkpt lat="45.09242" lon="6.03047">
        <ele>1441.6</ele>
        <time>2020-08-05T11:12:24Z</time>
      </trkpt>
      <trkpt lat="45.09241" lon="6.03049">
        <ele>1441.8</ele>
        <time>2020-08-05T11:12:26Z</time>
      </trkpt>
      <trkpt lat="45.09243" lon="6.03049">
        <ele>1442</ele>
        <time>2020-08-05T11:12:27Z</time>
      </trkpt>
      <trkpt lat="45.09246" lon="6.03049">
        <ele>1442.4</ele>
        <time>2020-08-05T11:12:29Z</time>
      </trkpt>
      <trkpt lat="45.09253" lon="6.03049">
        <ele>1443.2</ele>
        <time>2020-08-05T11:12:31Z</time>
      </trkpt>
      <trkpt lat="45.09259" lon="6.0305">
        <ele>1443.9</ele>
        <time>2020-08-05T11:12:33Z</time>
      </trkpt>
      <trkpt lat="45.09265" lon="6.03053">
        <ele>1444.5</ele>
        <time>2020-08-05T11:12:34Z</time>
      </trkpt>
      <trkpt lat="45.09268" lon="6.03053">
        <ele>1444.9</ele>
        <time>2020-08-05T11:12:35Z</time>
      </trkpt>
      <trkpt lat="45.09272" lon="6.03054">
        <ele>1445.3</ele>
        <time>2020-08-05T11:12:38Z</time>
      </trkpt>
      <trkpt lat="45.09276" lon="6.03055">
        <ele>1445.8</ele>
        <time>2020-08-05T11:12:39Z</time>
      </trkpt>
      <trkpt lat="45.0928" lon="6.03055">
        <ele>1446.2</ele>
        <time>2020-08-05T11:12:40Z</time>
      </trkpt>
      <trkpt lat="45.09282" lon="6.03056">
        <ele>1446.5</ele>
        <time>2020-08-05T11:12:42Z</time>
      </trkpt>
      <trkpt lat="45.09285" lon="6.03061">
        <ele>1447</ele>
        <time>2020-08-05T11:12:44Z</time>
      </trkpt>
      <trkpt lat="45.09288" lon="6.03064">
        <ele>1447.5</ele>
        <time>2020-08-05T11:12:46Z</time>
      </trkpt>
      <trkpt lat="45.0929" lon="6.03064">
        <ele>1447.6</ele>
        <time>2020-08-05T11:12:47Z</time>
      </trkpt>
      <trkpt lat="45.09291" lon="6.03065">
        <ele>1447.8</ele>
        <time>2020-08-05T11:12:48Z</time>
      </trkpt>
      <trkpt lat="45.09295" lon="6.03062">
        <ele>1448.3</ele>
        <time>2020-08-05T11:12:50Z</time>
      </trkpt>
      <trkpt lat="45.09302" lon="6.03059">
        <ele>1448.9</ele>
        <time>2020-08-05T11:12:52Z</time>
      </trkpt>
      <trkpt lat="45.09305" lon="6.03058">
        <ele>1449.2</ele>
        <time>2020-08-05T11:12:55Z</time>
      </trkpt>
      <trkpt lat="45.0931" lon="6.03067">
        <ele>1449.9</ele>
        <time>2020-08-05T11:12:57Z</time>
      </trkpt>
      <trkpt lat="45.09313" lon="6.03065">
        <ele>1450.2</ele>
        <time>2020-08-05T11:12:58Z</time>
      </trkpt>
      <trkpt lat="45.09316" lon="6.03064">
        <ele>1450.5</ele>
        <time>2020-08-05T11:12:59Z</time>
      </trkpt>
      <trkpt lat="45.09322" lon="6.03064">
        <ele>1451.1</ele>
        <time>2020-08-05T11:13:02Z</time>
      </trkpt>
      <trkpt lat="45.09325" lon="6.03064">
        <ele>1451.4</ele>
        <time>2020-08-05T11:13:03Z</time>
      </trkpt>
      <trkpt lat="45.09329" lon="6.03065">
        <ele>1451.7</ele>
        <time>2020-08-05T11:13:05Z</time>
      </trkpt>
      <trkpt lat="45.0933" lon="6.03065">
        <ele>1451.8</ele>
        <time>2020-08-05T11:13:06Z</time>
      </trkpt>
      <trkpt lat="45.09335" lon="6.03068">
        <ele>1452.4</ele>
        <time>2020-08-05T11:13:08Z</time>
      </trkpt>
      <trkpt lat="45.09337" lon="6.03068">
        <ele>1452.6</ele>
        <time>2020-08-05T11:13:10Z</time>
      </trkpt>
      <trkpt lat="45.09346" lon="6.03071">
        <ele>1453.4</ele>
        <time>2020-08-05T11:13:13Z</time>
      </trkpt>
      <trkpt lat="45.09349" lon="6.03072">
        <ele>1453.7</ele>
        <time>2020-08-05T11:13:16Z</time>
      </trkpt>
      <trkpt lat="45.09357" lon="6.03072">
        <ele>1454.5</ele>
        <time>2020-08-05T11:13:18Z</time>
      </trkpt>
      <trkpt lat="45.09362" lon="6.03072">
        <ele>1454.9</ele>
        <time>2020-08-05T11:13:21Z</time>
      </trkpt>
      <trkpt lat="45.09364" lon="6.03073">
        <ele>1455.1</ele>
        <time>2020-08-05T11:13:23Z</time>
      </trkpt>
      <trkpt lat="45.09368" lon="6.03073">
        <ele>1455.5</ele>
        <time>2020-08-05T11:13:25Z</time>
      </trkpt>
      <trkpt lat="45.09373" lon="6.03075">
        <ele>1455.9</ele>
        <time>2020-08-05T11:13:26Z</time>
      </trkpt>
      <trkpt lat="45.09375" lon="6.03076">
        <ele>1456.1</ele>
        <time>2020-08-05T11:13:27Z</time>
      </trkpt>
      <trkpt lat="45.09379" lon="6.03078">
        <ele>1456.3</ele>
        <time>2020-08-05T11:13:28Z</time>
      </trkpt>
      <trkpt lat="45.0938" lon="6.03079">
        <ele>1456.4</ele>
        <time>2020-08-05T11:13:29Z</time>
      </trkpt>
      <trkpt lat="45.09382" lon="6.03081">
        <ele>1456.6</ele>
        <time>2020-08-05T11:13:30Z</time>
      </trkpt>
      <trkpt lat="45.09385" lon="6.03083">
        <ele>1456.7</ele>
        <time>2020-08-05T11:13:33Z</time>
      </trkpt>
      <trkpt lat="45.09388" lon="6.03084">
        <ele>1456.8</ele>
        <time>2020-08-05T11:13:34Z</time>
      </trkpt>
      <trkpt lat="45.09389" lon="6.03085">
        <ele>1456.8</ele>
        <time>2020-08-05T11:13:35Z</time>
      </trkpt>
      <trkpt lat="45.09394" lon="6.03085">
        <ele>1456.7</ele>
        <time>2020-08-05T11:13:37Z</time>
      </trkpt>
      <trkpt lat="45.09397" lon="6.03084">
        <ele>1456.7</ele>
        <time>2020-08-05T11:13:38Z</time>
      </trkpt>
      <trkpt lat="45.09402" lon="6.03081">
        <ele>1456.5</ele>
        <time>2020-08-05T11:13:39Z</time>
      </trkpt>
      <trkpt lat="45.09408" lon="6.0308">
        <ele>1456.3</ele>
        <time>2020-08-05T11:13:41Z</time>
      </trkpt>
      <trkpt lat="45.09414" lon="6.03078">
        <ele>1456</ele>
        <time>2020-08-05T11:13:42Z</time>
      </trkpt>
      <trkpt lat="45.09418" lon="6.03077">
        <ele>1455.7</ele>
        <time>2020-08-05T11:13:44Z</time>
      </trkpt>
      <trkpt lat="45.09424" lon="6.03077">
        <ele>1455.4</ele>
        <time>2020-08-05T11:13:45Z</time>
      </trkpt>
      <trkpt lat="45.0943" lon="6.03077">
        <ele>1455</ele>
        <time>2020-08-05T11:13:46Z</time>
      </trkpt>
      <trkpt lat="45.09436" lon="6.03078">
        <ele>1454.7</ele>
        <time>2020-08-05T11:13:47Z</time>
      </trkpt>
      <trkpt lat="45.09446" lon="6.03081">
        <ele>1454.1</ele>
        <time>2020-08-05T11:13:49Z</time>
      </trkpt>
      <trkpt lat="45.09458" lon="6.03085">
        <ele>1453.5</ele>
        <time>2020-08-05T11:13:51Z</time>
      </trkpt>
      <trkpt lat="45.0947" lon="6.03088">
        <ele>1452.8</ele>
        <time>2020-08-05T11:13:53Z</time>
      </trkpt>
      <trkpt lat="45.09475" lon="6.0309">
        <ele>1452.5</ele>
        <time>2020-08-05T11:13:54Z</time>
      </trkpt>
      <trkpt lat="45.09487" lon="6.03094">
        <ele>1451.8</ele>
        <time>2020-08-05T11:13:56Z</time>
      </trkpt>
      <trkpt lat="45.09493" lon="6.03096">
        <ele>1451.4</ele>
        <time>2020-08-05T11:13:57Z</time>
      </trkpt>
      <trkpt lat="45.09504" lon="6.031">
        <ele>1450.5</ele>
        <time>2020-08-05T11:13:59Z</time>
      </trkpt>
      <trkpt lat="45.0951" lon="6.03103">
        <ele>1450.1</ele>
        <time>2020-08-05T11:14:00Z</time>
      </trkpt>
      <trkpt lat="45.09523" lon="6.03109">
        <ele>1449</ele>
        <time>2020-08-05T11:14:02Z</time>
      </trkpt>
      <trkpt lat="45.09538" lon="6.03116">
        <ele>1447.7</ele>
        <time>2020-08-05T11:14:04Z</time>
      </trkpt>
      <trkpt lat="45.09546" lon="6.03119">
        <ele>1447</ele>
        <time>2020-08-05T11:14:05Z</time>
      </trkpt>
      <trkpt lat="45.09562" lon="6.03126">
        <ele>1445.5</ele>
        <time>2020-08-05T11:14:07Z</time>
      </trkpt>
      <trkpt lat="45.0957" lon="6.03131">
        <ele>1444.6</ele>
        <time>2020-08-05T11:14:08Z</time>
      </trkpt>
      <trkpt lat="45.09587" lon="6.03141">
        <ele>1442.9</ele>
        <time>2020-08-05T11:14:10Z</time>
      </trkpt>
      <trkpt lat="45.09604" lon="6.03154">
        <ele>1441.1</ele>
        <time>2020-08-05T11:14:12Z</time>
      </trkpt>
      <trkpt lat="45.09613" lon="6.03161">
        <ele>1440.2</ele>
        <time>2020-08-05T11:14:13Z</time>
      </trkpt>
      <trkpt lat="45.09622" lon="6.03167">
        <ele>1439.4</ele>
        <time>2020-08-05T11:14:14Z</time>
      </trkpt>
      <trkpt lat="45.0964" lon="6.03183">
        <ele>1438</ele>
        <time>2020-08-05T11:14:16Z</time>
      </trkpt>
      <trkpt lat="45.09649" lon="6.03191">
        <ele>1437.3</ele>
        <time>2020-08-05T11:14:17Z</time>
      </trkpt>
      <trkpt lat="45.09657" lon="6.032">
        <ele>1436.7</ele>
        <time>2020-08-05T11:14:18Z</time>
      </trkpt>
      <trkpt lat="45.09674" lon="6.03218">
        <ele>1435.3</ele>
        <time>2020-08-05T11:14:20Z</time>
      </trkpt>
      <trkpt lat="45.09682" lon="6.03227">
        <ele>1434.7</ele>
        <time>2020-08-05T11:14:21Z</time>
      </trkpt>
      <trkpt lat="45.09699" lon="6.03247">
        <ele>1433.2</ele>
        <time>2020-08-05T11:14:23Z</time>
      </trkpt>
      <trkpt lat="45.09708" lon="6.03257">
        <ele>1432.4</ele>
        <time>2020-08-05T11:14:24Z</time>
      </trkpt>
      <trkpt lat="45.09717" lon="6.03267">
        <ele>1431.6</ele>
        <time>2020-08-05T11:14:25Z</time>
      </trkpt>
      <trkpt lat="45.09734" lon="6.03287">
        <ele>1429.9</ele>
        <time>2020-08-05T11:14:27Z</time>
      </trkpt>
      <trkpt lat="45.09753" lon="6.03307">
        <ele>1428.2</ele>
        <time>2020-08-05T11:14:29Z</time>
      </trkpt>
      <trkpt lat="45.09773" lon="6.03325">
        <ele>1426.4</ele>
        <time>2020-08-05T11:14:31Z</time>
      </trkpt>
      <trkpt lat="45.09798" lon="6.03332">
        <ele>1424.6</ele>
        <time>2020-08-05T11:14:33Z</time>
      </trkpt>
      <trkpt lat="45.0981" lon="6.0333">
        <ele>1423.8</ele>
        <time>2020-08-05T11:14:34Z</time>
      </trkpt>
      <trkpt lat="45.09835" lon="6.03327">
        <ele>1422.2</ele>
        <time>2020-08-05T11:14:36Z</time>
      </trkpt>
      <trkpt lat="45.09859" lon="6.03333">
        <ele>1420.5</ele>
        <time>2020-08-05T11:14:38Z</time>
      </trkpt>
      <trkpt lat="45.09871" lon="6.03339">
        <ele>1419.7</ele>
        <time>2020-08-05T11:14:39Z</time>
      </trkpt>
      <trkpt lat="45.09891" lon="6.03358">
        <ele>1418.1</ele>
        <time>2020-08-05T11:14:41Z</time>
      </trkpt>
      <trkpt lat="45.099" lon="6.03369">
        <ele>1417.2</ele>
        <time>2020-08-05T11:14:42Z</time>
      </trkpt>
      <trkpt lat="45.0991" lon="6.0338">
        <ele>1416.2</ele>
        <time>2020-08-05T11:14:43Z</time>
      </trkpt>
      <trkpt lat="45.0993" lon="6.03397">
        <ele>1414.4</ele>
        <time>2020-08-05T11:14:45Z</time>
      </trkpt>
      <trkpt lat="45.0995" lon="6.03415">
        <ele>1412.7</ele>
        <time>2020-08-05T11:14:47Z</time>
      </trkpt>
      <trkpt lat="45.09968" lon="6.03437">
        <ele>1410.9</ele>
        <time>2020-08-05T11:14:49Z</time>
      </trkpt>
      <trkpt lat="45.09976" lon="6.03449">
        <ele>1409.8</ele>
        <time>2020-08-05T11:14:50Z</time>
      </trkpt>
      <trkpt lat="45.09984" lon="6.03461">
        <ele>1408.7</ele>
        <time>2020-08-05T11:14:51Z</time>
      </trkpt>
      <trkpt lat="45.10001" lon="6.03485">
        <ele>1406.9</ele>
        <time>2020-08-05T11:14:53Z</time>
      </trkpt>
      <trkpt lat="45.10019" lon="6.03505">
        <ele>1405.4</ele>
        <time>2020-08-05T11:14:55Z</time>
      </trkpt>
      <trkpt lat="45.10038" lon="6.03523">
        <ele>1404.1</ele>
        <time>2020-08-05T11:14:57Z</time>
      </trkpt>
      <trkpt lat="45.10048" lon="6.03532">
        <ele>1403.4</ele>
        <time>2020-08-05T11:14:58Z</time>
      </trkpt>
      <trkpt lat="45.10067" lon="6.03552">
        <ele>1402.2</ele>
        <time>2020-08-05T11:15:00Z</time>
      </trkpt>
      <trkpt lat="45.10079" lon="6.0358">
        <ele>1401</ele>
        <time>2020-08-05T11:15:02Z</time>
      </trkpt>
      <trkpt lat="45.10094" lon="6.03606">
        <ele>1399.7</ele>
        <time>2020-08-05T11:15:04Z</time>
      </trkpt>
      <trkpt lat="45.10104" lon="6.03617">
        <ele>1398.9</ele>
        <time>2020-08-05T11:15:05Z</time>
      </trkpt>
      <trkpt lat="45.10127" lon="6.03632">
        <ele>1397.3</ele>
        <time>2020-08-05T11:15:07Z</time>
      </trkpt>
      <trkpt lat="45.1014" lon="6.03637">
        <ele>1396.6</ele>
        <time>2020-08-05T11:15:08Z</time>
      </trkpt>
      <trkpt lat="45.10152" lon="6.03642">
        <ele>1395.8</ele>
        <time>2020-08-05T11:15:09Z</time>
      </trkpt>
      <trkpt lat="45.10164" lon="6.03647">
        <ele>1395</ele>
        <time>2020-08-05T11:15:10Z</time>
      </trkpt>
      <trkpt lat="45.10188" lon="6.03656">
        <ele>1393.5</ele>
        <time>2020-08-05T11:15:12Z</time>
      </trkpt>
      <trkpt lat="45.102" lon="6.0366">
        <ele>1392.7</ele>
        <time>2020-08-05T11:15:13Z</time>
      </trkpt>
      <trkpt lat="45.10212" lon="6.03665">
        <ele>1391.9</ele>
        <time>2020-08-05T11:15:14Z</time>
      </trkpt>
      <trkpt lat="45.10236" lon="6.03681">
        <ele>1390</ele>
        <time>2020-08-05T11:15:16Z</time>
      </trkpt>
      <trkpt lat="45.10246" lon="6.03694">
        <ele>1388.9</ele>
        <time>2020-08-05T11:15:17Z</time>
      </trkpt>
      <trkpt lat="45.10264" lon="6.03724">
        <ele>1386.9</ele>
        <time>2020-08-05T11:15:19Z</time>
      </trkpt>
      <trkpt lat="45.10272" lon="6.03739">
        <ele>1386.1</ele>
        <time>2020-08-05T11:15:20Z</time>
      </trkpt>
      <trkpt lat="45.10289" lon="6.03769">
        <ele>1384.7</ele>
        <time>2020-08-05T11:15:22Z</time>
      </trkpt>
      <trkpt lat="45.10309" lon="6.03793">
        <ele>1383.4</ele>
        <time>2020-08-05T11:15:24Z</time>
      </trkpt>
      <trkpt lat="45.10329" lon="6.03814">
        <ele>1382.1</ele>
        <time>2020-08-05T11:15:26Z</time>
      </trkpt>
      <trkpt lat="45.10338" lon="6.03827">
        <ele>1381.4</ele>
        <time>2020-08-05T11:15:27Z</time>
      </trkpt>
      <trkpt lat="45.10351" lon="6.03857">
        <ele>1380.3</ele>
        <time>2020-08-05T11:15:29Z</time>
      </trkpt>
      <trkpt lat="45.10365" lon="6.03883">
        <ele>1379.6</ele>
        <time>2020-08-05T11:15:31Z</time>
      </trkpt>
      <trkpt lat="45.10388" lon="6.0389">
        <ele>1378.7</ele>
        <time>2020-08-05T11:15:33Z</time>
      </trkpt>
      <trkpt lat="45.10412" lon="6.03884">
        <ele>1377.7</ele>
        <time>2020-08-05T11:15:35Z</time>
      </trkpt>
      <trkpt lat="45.10423" lon="6.03878">
        <ele>1377.3</ele>
        <time>2020-08-05T11:15:36Z</time>
      </trkpt>
      <trkpt lat="45.10445" lon="6.03878">
        <ele>1376.2</ele>
        <time>2020-08-05T11:15:38Z</time>
      </trkpt>
      <trkpt lat="45.10457" lon="6.03884">
        <ele>1375.4</ele>
        <time>2020-08-05T11:15:39Z</time>
      </trkpt>
      <trkpt lat="45.10479" lon="6.03905">
        <ele>1373.8</ele>
        <time>2020-08-05T11:15:41Z</time>
      </trkpt>
      <trkpt lat="45.10502" lon="6.0392">
        <ele>1372.1</ele>
        <time>2020-08-05T11:15:43Z</time>
      </trkpt>
      <trkpt lat="45.10515" lon="6.03921">
        <ele>1371.3</ele>
        <time>2020-08-05T11:15:44Z</time>
      </trkpt>
      <trkpt lat="45.1054" lon="6.03912">
        <ele>1369.5</ele>
        <time>2020-08-05T11:15:46Z</time>
      </trkpt>
      <trkpt lat="45.10565" lon="6.03897">
        <ele>1367.5</ele>
        <time>2020-08-05T11:15:48Z</time>
      </trkpt>
      <trkpt lat="45.10578" lon="6.0389">
        <ele>1366.5</ele>
        <time>2020-08-05T11:15:49Z</time>
      </trkpt>
      <trkpt lat="45.10603" lon="6.03876">
        <ele>1364.6</ele>
        <time>2020-08-05T11:15:51Z</time>
      </trkpt>
      <trkpt lat="45.10628" lon="6.0386">
        <ele>1362.8</ele>
        <time>2020-08-05T11:15:53Z</time>
      </trkpt>
      <trkpt lat="45.10649" lon="6.03834">
        <ele>1361.2</ele>
        <time>2020-08-05T11:15:55Z</time>
      </trkpt>
      <trkpt lat="45.10665" lon="6.03807">
        <ele>1359.2</ele>
        <time>2020-08-05T11:15:57Z</time>
      </trkpt>
      <trkpt lat="45.10685" lon="6.03796">
        <ele>1357.5</ele>
        <time>2020-08-05T11:15:59Z</time>
      </trkpt>
      <trkpt lat="45.10698" lon="6.03799">
        <ele>1356.3</ele>
        <time>2020-08-05T11:16:00Z</time>
      </trkpt>
      <trkpt lat="45.10722" lon="6.03807">
        <ele>1354.1</ele>
        <time>2020-08-05T11:16:02Z</time>
      </trkpt>
      <trkpt lat="45.10746" lon="6.03821">
        <ele>1351.9</ele>
        <time>2020-08-05T11:16:04Z</time>
      </trkpt>
      <trkpt lat="45.10758" lon="6.03832">
        <ele>1350.7</ele>
        <time>2020-08-05T11:16:05Z</time>
      </trkpt>
      <trkpt lat="45.10782" lon="6.03855">
        <ele>1348.7</ele>
        <time>2020-08-05T11:16:07Z</time>
      </trkpt>
      <trkpt lat="45.10794" lon="6.03864">
        <ele>1347.8</ele>
        <time>2020-08-05T11:16:08Z</time>
      </trkpt>
      <trkpt lat="45.10821" lon="6.03865">
        <ele>1346.1</ele>
        <time>2020-08-05T11:16:10Z</time>
      </trkpt>
      <trkpt lat="45.10834" lon="6.03858">
        <ele>1345.1</ele>
        <time>2020-08-05T11:16:11Z</time>
      </trkpt>
      <trkpt lat="45.10856" lon="6.0384">
        <ele>1343.3</ele>
        <time>2020-08-05T11:16:13Z</time>
      </trkpt>
      <trkpt lat="45.1088" lon="6.0383">
        <ele>1341.5</ele>
        <time>2020-08-05T11:16:15Z</time>
      </trkpt>
      <trkpt lat="45.10905" lon="6.03813">
        <ele>1338.6</ele>
        <time>2020-08-05T11:16:17Z</time>
      </trkpt>
      <trkpt lat="45.10917" lon="6.03799">
        <ele>1336.9</ele>
        <time>2020-08-05T11:16:18Z</time>
      </trkpt>
      <trkpt lat="45.10927" lon="6.03785">
        <ele>1335.5</ele>
        <time>2020-08-05T11:16:19Z</time>
      </trkpt>
      <trkpt lat="45.10949" lon="6.03759">
        <ele>1333.2</ele>
        <time>2020-08-05T11:16:21Z</time>
      </trkpt>
      <trkpt lat="45.10963" lon="6.03752">
        <ele>1332.1</ele>
        <time>2020-08-05T11:16:22Z</time>
      </trkpt>
      <trkpt lat="45.10978" lon="6.03744">
        <ele>1331</ele>
        <time>2020-08-05T11:16:23Z</time>
      </trkpt>
      <trkpt lat="45.11005" lon="6.0372">
        <ele>1328.4</ele>
        <time>2020-08-05T11:16:25Z</time>
      </trkpt>
      <trkpt lat="45.11017" lon="6.03705">
        <ele>1327.4</ele>
        <time>2020-08-05T11:16:26Z</time>
      </trkpt>
      <trkpt lat="45.11027" lon="6.03692">
        <ele>1326.7</ele>
        <time>2020-08-05T11:16:27Z</time>
      </trkpt>
      <trkpt lat="45.11037" lon="6.03684">
        <ele>1326.1</ele>
        <time>2020-08-05T11:16:28Z</time>
      </trkpt>
      <trkpt lat="45.11061" lon="6.03687">
        <ele>1324.3</ele>
        <time>2020-08-05T11:16:30Z</time>
      </trkpt>
      <trkpt lat="45.11074" lon="6.03693">
        <ele>1323</ele>
        <time>2020-08-05T11:16:31Z</time>
      </trkpt>
      <trkpt lat="45.11102" lon="6.03698">
        <ele>1321</ele>
        <time>2020-08-05T11:16:33Z</time>
      </trkpt>
      <trkpt lat="45.11116" lon="6.03697">
        <ele>1320.2</ele>
        <time>2020-08-05T11:16:34Z</time>
      </trkpt>
      <trkpt lat="45.11143" lon="6.03695">
        <ele>1319</ele>
        <time>2020-08-05T11:16:36Z</time>
      </trkpt>
      <trkpt lat="45.1117" lon="6.03693">
        <ele>1318.2</ele>
        <time>2020-08-05T11:16:38Z</time>
      </trkpt>
      <trkpt lat="45.11198" lon="6.03691">
        <ele>1317.3</ele>
        <time>2020-08-05T11:16:40Z</time>
      </trkpt>
      <trkpt lat="45.11225" lon="6.03692">
        <ele>1316.4</ele>
        <time>2020-08-05T11:16:42Z</time>
      </trkpt>
      <trkpt lat="45.11238" lon="6.03691">
        <ele>1316</ele>
        <time>2020-08-05T11:16:43Z</time>
      </trkpt>
      <trkpt lat="45.11265" lon="6.03683">
        <ele>1314.9</ele>
        <time>2020-08-05T11:16:45Z</time>
      </trkpt>
      <trkpt lat="45.11278" lon="6.03673">
        <ele>1314.2</ele>
        <time>2020-08-05T11:16:46Z</time>
      </trkpt>
      <trkpt lat="45.11299" lon="6.03648">
        <ele>1313.3</ele>
        <time>2020-08-05T11:16:48Z</time>
      </trkpt>
      <trkpt lat="45.11308" lon="6.03636">
        <ele>1313</ele>
        <time>2020-08-05T11:16:49Z</time>
      </trkpt>
      <trkpt lat="45.11321" lon="6.03622">
        <ele>1312.5</ele>
        <time>2020-08-05T11:16:51Z</time>
      </trkpt>
      <trkpt lat="45.11328" lon="6.03622">
        <ele>1311.2</ele>
        <time>2020-08-05T11:16:52Z</time>
      </trkpt>
      <trkpt lat="45.11334" lon="6.03628">
        <ele>1310</ele>
        <time>2020-08-05T11:16:53Z</time>
      </trkpt>
      <trkpt lat="45.11338" lon="6.03654">
        <ele>1307.4</ele>
        <time>2020-08-05T11:16:55Z</time>
      </trkpt>
      <trkpt lat="45.11336" lon="6.03684">
        <ele>1305</ele>
        <time>2020-08-05T11:16:57Z</time>
      </trkpt>
      <trkpt lat="45.11335" lon="6.037">
        <ele>1303.9</ele>
        <time>2020-08-05T11:16:58Z</time>
      </trkpt>
      <trkpt lat="45.11331" lon="6.03732">
        <ele>1301.6</ele>
        <time>2020-08-05T11:17:00Z</time>
      </trkpt>
      <trkpt lat="45.11327" lon="6.03749">
        <ele>1300.4</ele>
        <time>2020-08-05T11:17:01Z</time>
      </trkpt>
      <trkpt lat="45.11323" lon="6.03768">
        <ele>1299</ele>
        <time>2020-08-05T11:17:02Z</time>
      </trkpt>
      <trkpt lat="45.11315" lon="6.03805">
        <ele>1296.3</ele>
        <time>2020-08-05T11:17:04Z</time>
      </trkpt>
      <trkpt lat="45.1131" lon="6.03824">
        <ele>1295</ele>
        <time>2020-08-05T11:17:05Z</time>
      </trkpt>
      <trkpt lat="45.11306" lon="6.03843">
        <ele>1293.6</ele>
        <time>2020-08-05T11:17:06Z</time>
      </trkpt>
      <trkpt lat="45.11296" lon="6.03882">
        <ele>1291</ele>
        <time>2020-08-05T11:17:08Z</time>
      </trkpt>
      <trkpt lat="45.11291" lon="6.03902">
        <ele>1289.7</ele>
        <time>2020-08-05T11:17:09Z</time>
      </trkpt>
      <trkpt lat="45.11282" lon="6.03941">
        <ele>1287.2</ele>
        <time>2020-08-05T11:17:11Z</time>
      </trkpt>
      <trkpt lat="45.11274" lon="6.03982">
        <ele>1284.7</ele>
        <time>2020-08-05T11:17:13Z</time>
      </trkpt>
      <trkpt lat="45.11268" lon="6.04024">
        <ele>1282.1</ele>
        <time>2020-08-05T11:17:15Z</time>
      </trkpt>
      <trkpt lat="45.11263" lon="6.04066">
        <ele>1279.5</ele>
        <time>2020-08-05T11:17:17Z</time>
      </trkpt>
      <trkpt lat="45.11259" lon="6.04108">
        <ele>1277</ele>
        <time>2020-08-05T11:17:19Z</time>
      </trkpt>
      <trkpt lat="45.11256" lon="6.0413">
        <ele>1275.6</ele>
        <time>2020-08-05T11:17:20Z</time>
      </trkpt>
      <trkpt lat="45.11254" lon="6.04151">
        <ele>1274.4</ele>
        <time>2020-08-05T11:17:21Z</time>
      </trkpt>
      <trkpt lat="45.11247" lon="6.04194">
        <ele>1272.2</ele>
        <time>2020-08-05T11:17:23Z</time>
      </trkpt>
      <trkpt lat="45.1124" lon="6.04236">
        <ele>1270.5</ele>
        <time>2020-08-05T11:17:25Z</time>
      </trkpt>
      <trkpt lat="45.11237" lon="6.04257">
        <ele>1269.8</ele>
        <time>2020-08-05T11:17:26Z</time>
      </trkpt>
      <trkpt lat="45.11228" lon="6.04297">
        <ele>1268.6</ele>
        <time>2020-08-05T11:17:28Z</time>
      </trkpt>
      <trkpt lat="45.11223" lon="6.04316">
        <ele>1268.2</ele>
        <time>2020-08-05T11:17:29Z</time>
      </trkpt>
      <trkpt lat="45.11213" lon="6.04347">
        <ele>1267.9</ele>
        <time>2020-08-05T11:17:31Z</time>
      </trkpt>
      <trkpt lat="45.11209" lon="6.0436">
        <ele>1267.8</ele>
        <time>2020-08-05T11:17:32Z</time>
      </trkpt>
      <trkpt lat="45.1121" lon="6.04382">
        <ele>1267.4</ele>
        <time>2020-08-05T11:17:34Z</time>
      </trkpt>
      <trkpt lat="45.11218" lon="6.04389">
        <ele>1266.6</ele>
        <time>2020-08-05T11:17:35Z</time>
      </trkpt>
      <trkpt lat="45.11237" lon="6.04375">
        <ele>1264.3</ele>
        <time>2020-08-05T11:17:37Z</time>
      </trkpt>
      <trkpt lat="45.11247" lon="6.04346">
        <ele>1261.6</ele>
        <time>2020-08-05T11:17:39Z</time>
      </trkpt>
      <trkpt lat="45.11254" lon="6.04313">
        <ele>1259.1</ele>
        <time>2020-08-05T11:17:41Z</time>
      </trkpt>
      <trkpt lat="45.11264" lon="6.04276">
        <ele>1256.6</ele>
        <time>2020-08-05T11:17:43Z</time>
      </trkpt>
      <trkpt lat="45.11274" lon="6.04237">
        <ele>1253.9</ele>
        <time>2020-08-05T11:17:45Z</time>
      </trkpt>
      <trkpt lat="45.1128" lon="6.04217">
        <ele>1252.5</ele>
        <time>2020-08-05T11:17:46Z</time>
      </trkpt>
      <trkpt lat="45.11285" lon="6.04196">
        <ele>1251</ele>
        <time>2020-08-05T11:17:47Z</time>
      </trkpt>
      <trkpt lat="45.11297" lon="6.04156">
        <ele>1248.5</ele>
        <time>2020-08-05T11:17:49Z</time>
      </trkpt>
      <trkpt lat="45.11302" lon="6.04136">
        <ele>1247.3</ele>
        <time>2020-08-05T11:17:50Z</time>
      </trkpt>
      <trkpt lat="45.11308" lon="6.04115">
        <ele>1246.1</ele>
        <time>2020-08-05T11:17:51Z</time>
      </trkpt>
      <trkpt lat="45.11318" lon="6.04076">
        <ele>1243.8</ele>
        <time>2020-08-05T11:17:53Z</time>
      </trkpt>
      <trkpt lat="45.11329" lon="6.04038">
        <ele>1241.8</ele>
        <time>2020-08-05T11:17:55Z</time>
      </trkpt>
      <trkpt lat="45.11336" lon="6.0402">
        <ele>1240.9</ele>
        <time>2020-08-05T11:17:56Z</time>
      </trkpt>
      <trkpt lat="45.11349" lon="6.03983">
        <ele>1239.6</ele>
        <time>2020-08-05T11:17:58Z</time>
      </trkpt>
      <trkpt lat="45.11362" lon="6.03948">
        <ele>1240</ele>
        <time>2020-08-05T11:18:00Z</time>
      </trkpt>
      <trkpt lat="45.11369" lon="6.0393">
        <ele>1239.2</ele>
        <time>2020-08-05T11:18:01Z</time>
      </trkpt>
      <trkpt lat="45.11377" lon="6.03912">
        <ele>1238</ele>
        <time>2020-08-05T11:18:02Z</time>
      </trkpt>
      <trkpt lat="45.11393" lon="6.03876">
        <ele>1235.4</ele>
        <time>2020-08-05T11:18:04Z</time>
      </trkpt>
      <trkpt lat="45.11401" lon="6.03857">
        <ele>1234.2</ele>
        <time>2020-08-05T11:18:05Z</time>
      </trkpt>
      <trkpt lat="45.11413" lon="6.03819">
        <ele>1231.8</ele>
        <time>2020-08-05T11:18:07Z</time>
      </trkpt>
      <trkpt lat="45.11424" lon="6.03778">
        <ele>1229.1</ele>
        <time>2020-08-05T11:18:09Z</time>
      </trkpt>
      <trkpt lat="45.11428" lon="6.03756">
        <ele>1227.7</ele>
        <time>2020-08-05T11:18:10Z</time>
      </trkpt>
      <trkpt lat="45.11433" lon="6.03735">
        <ele>1226.2</ele>
        <time>2020-08-05T11:18:11Z</time>
      </trkpt>
      <trkpt lat="45.1144" lon="6.0369">
        <ele>1223.8</ele>
        <time>2020-08-05T11:18:13Z</time>
      </trkpt>
      <trkpt lat="45.11445" lon="6.03646">
        <ele>1222.3</ele>
        <time>2020-08-05T11:18:15Z</time>
      </trkpt>
      <trkpt lat="45.11447" lon="6.03606">
        <ele>1221.7</ele>
        <time>2020-08-05T11:18:17Z</time>
      </trkpt>
      <trkpt lat="45.11446" lon="6.03572">
        <ele>1221.8</ele>
        <time>2020-08-05T11:18:19Z</time>
      </trkpt>
      <trkpt lat="45.11445" lon="6.03557">
        <ele>1222</ele>
        <time>2020-08-05T11:18:20Z</time>
      </trkpt>
      <trkpt lat="45.11443" lon="6.03544">
        <ele>1222.2</ele>
        <time>2020-08-05T11:18:21Z</time>
      </trkpt>
      <trkpt lat="45.11438" lon="6.03525">
        <ele>1222.6</ele>
        <time>2020-08-05T11:18:23Z</time>
      </trkpt>
      <trkpt lat="45.1144" lon="6.03512">
        <ele>1222.8</ele>
        <time>2020-08-05T11:18:25Z</time>
      </trkpt>
      <trkpt lat="45.11451" lon="6.03518">
        <ele>1222.4</ele>
        <time>2020-08-05T11:18:27Z</time>
      </trkpt>
      <trkpt lat="45.11455" lon="6.03531">
        <ele>1221.3</ele>
        <time>2020-08-05T11:18:28Z</time>
      </trkpt>
      <trkpt lat="45.11457" lon="6.03557">
        <ele>1218.7</ele>
        <time>2020-08-05T11:18:30Z</time>
      </trkpt>
      <trkpt lat="45.11459" lon="6.03584">
        <ele>1216.2</ele>
        <time>2020-08-05T11:18:32Z</time>
      </trkpt>
      <trkpt lat="45.11461" lon="6.03613">
        <ele>1213.5</ele>
        <time>2020-08-05T11:18:34Z</time>
      </trkpt>
      <trkpt lat="45.11462" lon="6.03629">
        <ele>1212.1</ele>
        <time>2020-08-05T11:18:35Z</time>
      </trkpt>
      <trkpt lat="45.11463" lon="6.03645">
        <ele>1210.6</ele>
        <time>2020-08-05T11:18:36Z</time>
      </trkpt>
      <trkpt lat="45.11464" lon="6.03662">
        <ele>1209.1</ele>
        <time>2020-08-05T11:18:37Z</time>
      </trkpt>
      <trkpt lat="45.11465" lon="6.03679">
        <ele>1207.5</ele>
        <time>2020-08-05T11:18:38Z</time>
      </trkpt>
      <trkpt lat="45.11468" lon="6.03715">
        <ele>1204.2</ele>
        <time>2020-08-05T11:18:40Z</time>
      </trkpt>
      <trkpt lat="45.11469" lon="6.03735">
        <ele>1202.5</ele>
        <time>2020-08-05T11:18:41Z</time>
      </trkpt>
      <trkpt lat="45.11469" lon="6.03754">
        <ele>1200.9</ele>
        <time>2020-08-05T11:18:42Z</time>
      </trkpt>
      <trkpt lat="45.1147" lon="6.03773">
        <ele>1199.4</ele>
        <time>2020-08-05T11:18:43Z</time>
      </trkpt>
      <trkpt lat="45.11469" lon="6.0381">
        <ele>1196.9</ele>
        <time>2020-08-05T11:18:45Z</time>
      </trkpt>
      <trkpt lat="45.11467" lon="6.03847">
        <ele>1194</ele>
        <time>2020-08-05T11:18:47Z</time>
      </trkpt>
      <trkpt lat="45.11461" lon="6.03884">
        <ele>1191.3</ele>
        <time>2020-08-05T11:18:49Z</time>
      </trkpt>
      <trkpt lat="45.11459" lon="6.03904">
        <ele>1190.1</ele>
        <time>2020-08-05T11:18:50Z</time>
      </trkpt>
      <trkpt lat="45.11456" lon="6.03924">
        <ele>1188.8</ele>
        <time>2020-08-05T11:18:51Z</time>
      </trkpt>
      <trkpt lat="45.11451" lon="6.03964">
        <ele>1186.4</ele>
        <time>2020-08-05T11:18:53Z</time>
      </trkpt>
      <trkpt lat="45.11445" lon="6.04003">
        <ele>1184.1</ele>
        <time>2020-08-05T11:18:55Z</time>
      </trkpt>
      <trkpt lat="45.11439" lon="6.04042">
        <ele>1181.9</ele>
        <time>2020-08-05T11:18:57Z</time>
      </trkpt>
      <trkpt lat="45.11434" lon="6.04082">
        <ele>1180.2</ele>
        <time>2020-08-05T11:18:59Z</time>
      </trkpt>
      <trkpt lat="45.11429" lon="6.04122">
        <ele>1179.2</ele>
        <time>2020-08-05T11:19:01Z</time>
      </trkpt>
      <trkpt lat="45.11424" lon="6.04159">
        <ele>1179.3</ele>
        <time>2020-08-05T11:19:03Z</time>
      </trkpt>
      <trkpt lat="45.11422" lon="6.04188">
        <ele>1180.1</ele>
        <time>2020-08-05T11:19:05Z</time>
      </trkpt>
      <trkpt lat="45.11425" lon="6.042">
        <ele>1180.6</ele>
        <time>2020-08-05T11:19:06Z</time>
      </trkpt>
      <trkpt lat="45.11439" lon="6.04207">
        <ele>1180.7</ele>
        <time>2020-08-05T11:19:08Z</time>
      </trkpt>
      <trkpt lat="45.11447" lon="6.04198">
        <ele>1179.9</ele>
        <time>2020-08-05T11:19:09Z</time>
      </trkpt>
      <trkpt lat="45.11452" lon="6.04185">
        <ele>1177.7</ele>
        <time>2020-08-05T11:19:10Z</time>
      </trkpt>
      <trkpt lat="45.11455" lon="6.04155">
        <ele>1174.4</ele>
        <time>2020-08-05T11:19:12Z</time>
      </trkpt>
      <trkpt lat="45.11456" lon="6.0414">
        <ele>1173.4</ele>
        <time>2020-08-05T11:19:13Z</time>
      </trkpt>
      <trkpt lat="45.11459" lon="6.04108">
        <ele>1171.3</ele>
        <time>2020-08-05T11:19:15Z</time>
      </trkpt>
      <trkpt lat="45.11466" lon="6.04074">
        <ele>1168.9</ele>
        <time>2020-08-05T11:19:17Z</time>
      </trkpt>
      <trkpt lat="45.11476" lon="6.04038">
        <ele>1166.5</ele>
        <time>2020-08-05T11:19:19Z</time>
      </trkpt>
      <trkpt lat="45.11487" lon="6.04002">
        <ele>1163.9</ele>
        <time>2020-08-05T11:19:21Z</time>
      </trkpt>
      <trkpt lat="45.11499" lon="6.03964">
        <ele>1161.1</ele>
        <time>2020-08-05T11:19:23Z</time>
      </trkpt>
      <trkpt lat="45.11511" lon="6.03926">
        <ele>1158.2</ele>
        <time>2020-08-05T11:19:25Z</time>
      </trkpt>
      <trkpt lat="45.11517" lon="6.03906">
        <ele>1156.7</ele>
        <time>2020-08-05T11:19:26Z</time>
      </trkpt>
      <trkpt lat="45.11522" lon="6.03885">
        <ele>1155.2</ele>
        <time>2020-08-05T11:19:27Z</time>
      </trkpt>
      <trkpt lat="45.11532" lon="6.03843">
        <ele>1152.1</ele>
        <time>2020-08-05T11:19:29Z</time>
      </trkpt>
      <trkpt lat="45.11541" lon="6.03799">
        <ele>1149.3</ele>
        <time>2020-08-05T11:19:31Z</time>
      </trkpt>
      <trkpt lat="45.11546" lon="6.03777">
        <ele>1147.8</ele>
        <time>2020-08-05T11:19:32Z</time>
      </trkpt>
      <trkpt lat="45.11557" lon="6.03731">
        <ele>1144.7</ele>
        <time>2020-08-05T11:19:34Z</time>
      </trkpt>
      <trkpt lat="45.11566" lon="6.03684">
        <ele>1142.1</ele>
        <time>2020-08-05T11:19:36Z</time>
      </trkpt>
      <trkpt lat="45.11569" lon="6.0366">
        <ele>1141</ele>
        <time>2020-08-05T11:19:37Z</time>
      </trkpt>
      <trkpt lat="45.1157" lon="6.03636">
        <ele>1140.3</ele>
        <time>2020-08-05T11:19:38Z</time>
      </trkpt>
      <trkpt lat="45.11564" lon="6.03596">
        <ele>1139.5</ele>
        <time>2020-08-05T11:19:40Z</time>
      </trkpt>
      <trkpt lat="45.11556" lon="6.03579">
        <ele>1139.2</ele>
        <time>2020-08-05T11:19:41Z</time>
      </trkpt>
      <trkpt lat="45.11549" lon="6.03566">
        <ele>1138.9</ele>
        <time>2020-08-05T11:19:42Z</time>
      </trkpt>
      <trkpt lat="45.1154" lon="6.03545">
        <ele>1138.3</ele>
        <time>2020-08-05T11:19:44Z</time>
      </trkpt>
      <trkpt lat="45.11538" lon="6.03536">
        <ele>1137.8</ele>
        <time>2020-08-05T11:19:45Z</time>
      </trkpt>
      <trkpt lat="45.11539" lon="6.03528">
        <ele>1137.3</ele>
        <time>2020-08-05T11:19:46Z</time>
      </trkpt>
      <trkpt lat="45.11553" lon="6.03529">
        <ele>1135.2</ele>
        <time>2020-08-05T11:19:48Z</time>
      </trkpt>
      <trkpt lat="45.11562" lon="6.0356">
        <ele>1131.2</ele>
        <time>2020-08-05T11:19:50Z</time>
      </trkpt>
      <trkpt lat="45.11569" lon="6.0359">
        <ele>1128.2</ele>
        <time>2020-08-05T11:19:52Z</time>
      </trkpt>
      <trkpt lat="45.11574" lon="6.03605">
        <ele>1126.7</ele>
        <time>2020-08-05T11:19:53Z</time>
      </trkpt>
      <trkpt lat="45.11583" lon="6.03638">
        <ele>1123.6</ele>
        <time>2020-08-05T11:19:55Z</time>
      </trkpt>
      <trkpt lat="45.1159" lon="6.03676">
        <ele>1120.4</ele>
        <time>2020-08-05T11:19:57Z</time>
      </trkpt>
      <trkpt lat="45.11593" lon="6.03696">
        <ele>1118.7</ele>
        <time>2020-08-05T11:19:58Z</time>
      </trkpt>
      <trkpt lat="45.11595" lon="6.03717">
        <ele>1117</ele>
        <time>2020-08-05T11:19:59Z</time>
      </trkpt>
      <trkpt lat="45.11598" lon="6.03759">
        <ele>1113.5</ele>
        <time>2020-08-05T11:20:01Z</time>
      </trkpt>
      <trkpt lat="45.116" lon="6.03802">
        <ele>1110</ele>
        <time>2020-08-05T11:20:03Z</time>
      </trkpt>
      <trkpt lat="45.11601" lon="6.03847">
        <ele>1106.4</ele>
        <time>2020-08-05T11:20:05Z</time>
      </trkpt>
      <trkpt lat="45.116" lon="6.03892">
        <ele>1102.9</ele>
        <time>2020-08-05T11:20:07Z</time>
      </trkpt>
      <trkpt lat="45.11599" lon="6.03937">
        <ele>1099.7</ele>
        <time>2020-08-05T11:20:09Z</time>
      </trkpt>
      <trkpt lat="45.11599" lon="6.03961">
        <ele>1098.1</ele>
        <time>2020-08-05T11:20:10Z</time>
      </trkpt>
      <trkpt lat="45.11599" lon="6.03985">
        <ele>1096.7</ele>
        <time>2020-08-05T11:20:11Z</time>
      </trkpt>
      <trkpt lat="45.11602" lon="6.04033">
        <ele>1094</ele>
        <time>2020-08-05T11:20:13Z</time>
      </trkpt>
      <trkpt lat="45.11605" lon="6.04078">
        <ele>1092</ele>
        <time>2020-08-05T11:20:15Z</time>
      </trkpt>
      <trkpt lat="45.11607" lon="6.041">
        <ele>1091.5</ele>
        <time>2020-08-05T11:20:16Z</time>
      </trkpt>
      <trkpt lat="45.1161" lon="6.0412">
        <ele>1091.6</ele>
        <time>2020-08-05T11:20:17Z</time>
      </trkpt>
      <trkpt lat="45.11619" lon="6.04153">
        <ele>1090.2</ele>
        <time>2020-08-05T11:20:19Z</time>
      </trkpt>
      <trkpt lat="45.11624" lon="6.04167">
        <ele>1089.7</ele>
        <time>2020-08-05T11:20:20Z</time>
      </trkpt>
      <trkpt lat="45.1163" lon="6.04189">
        <ele>1088.9</ele>
        <time>2020-08-05T11:20:22Z</time>
      </trkpt>
      <trkpt lat="45.1164" lon="6.04199">
        <ele>1088</ele>
        <time>2020-08-05T11:20:24Z</time>
      </trkpt>
      <trkpt lat="45.11646" lon="6.04196">
        <ele>1087.2</ele>
        <time>2020-08-05T11:20:25Z</time>
      </trkpt>
      <trkpt lat="45.1165" lon="6.04186">
        <ele>1086.1</ele>
        <time>2020-08-05T11:20:26Z</time>
      </trkpt>
      <trkpt lat="45.11648" lon="6.04162">
        <ele>1083.8</ele>
        <time>2020-08-05T11:20:28Z</time>
      </trkpt>
      <trkpt lat="45.11643" lon="6.04138">
        <ele>1081.7</ele>
        <time>2020-08-05T11:20:30Z</time>
      </trkpt>
      <trkpt lat="45.1164" lon="6.04124">
        <ele>1080.7</ele>
        <time>2020-08-05T11:20:31Z</time>
      </trkpt>
      <trkpt lat="45.11638" lon="6.0411">
        <ele>1079.7</ele>
        <time>2020-08-05T11:20:32Z</time>
      </trkpt>
      <trkpt lat="45.11637" lon="6.04094">
        <ele>1078.7</ele>
        <time>2020-08-05T11:20:33Z</time>
      </trkpt>
      <trkpt lat="45.11639" lon="6.04061">
        <ele>1076.7</ele>
        <time>2020-08-05T11:20:35Z</time>
      </trkpt>
      <trkpt lat="45.11642" lon="6.04028">
        <ele>1074.7</ele>
        <time>2020-08-05T11:20:37Z</time>
      </trkpt>
      <trkpt lat="45.11647" lon="6.03992">
        <ele>1072.5</ele>
        <time>2020-08-05T11:20:39Z</time>
      </trkpt>
      <trkpt lat="45.11652" lon="6.03955">
        <ele>1070.1</ele>
        <time>2020-08-05T11:20:41Z</time>
      </trkpt>
      <trkpt lat="45.11657" lon="6.03915">
        <ele>1067.6</ele>
        <time>2020-08-05T11:20:43Z</time>
      </trkpt>
      <trkpt lat="45.11662" lon="6.03875">
        <ele>1065.3</ele>
        <time>2020-08-05T11:20:45Z</time>
      </trkpt>
      <trkpt lat="45.11664" lon="6.03855">
        <ele>1064.2</ele>
        <time>2020-08-05T11:20:46Z</time>
      </trkpt>
      <trkpt lat="45.11671" lon="6.03816">
        <ele>1062</ele>
        <time>2020-08-05T11:20:48Z</time>
      </trkpt>
      <trkpt lat="45.11677" lon="6.03778">
        <ele>1059.9</ele>
        <time>2020-08-05T11:20:50Z</time>
      </trkpt>
      <trkpt lat="45.11681" lon="6.03759">
        <ele>1058.8</ele>
        <time>2020-08-05T11:20:51Z</time>
      </trkpt>
      <trkpt lat="45.11687" lon="6.0372">
        <ele>1057</ele>
        <time>2020-08-05T11:20:53Z</time>
      </trkpt>
      <trkpt lat="45.11689" lon="6.0368">
        <ele>1055.2</ele>
        <time>2020-08-05T11:20:55Z</time>
      </trkpt>
      <trkpt lat="45.11686" lon="6.0366">
        <ele>1054.4</ele>
        <time>2020-08-05T11:20:56Z</time>
      </trkpt>
      <trkpt lat="45.11677" lon="6.03625">
        <ele>1053.7</ele>
        <time>2020-08-05T11:20:58Z</time>
      </trkpt>
      <trkpt lat="45.1167" lon="6.03598">
        <ele>1053.8</ele>
        <time>2020-08-05T11:21:00Z</time>
      </trkpt>
      <trkpt lat="45.11667" lon="6.03588">
        <ele>1054</ele>
        <time>2020-08-05T11:21:01Z</time>
      </trkpt>
      <trkpt lat="45.11664" lon="6.03578">
        <ele>1054.1</ele>
        <time>2020-08-05T11:21:02Z</time>
      </trkpt>
      <trkpt lat="45.1166" lon="6.03564">
        <ele>1054</ele>
        <time>2020-08-05T11:21:04Z</time>
      </trkpt>
      <trkpt lat="45.11661" lon="6.03558">
        <ele>1053.8</ele>
        <time>2020-08-05T11:21:05Z</time>
      </trkpt>
      <trkpt lat="45.11671" lon="6.03557">
        <ele>1052.8</ele>
        <time>2020-08-05T11:21:07Z</time>
      </trkpt>
      <trkpt lat="45.11679" lon="6.03582">
        <ele>1049.8</ele>
        <time>2020-08-05T11:21:09Z</time>
      </trkpt>
      <trkpt lat="45.11685" lon="6.03609">
        <ele>1047.1</ele>
        <time>2020-08-05T11:21:11Z</time>
      </trkpt>
      <trkpt lat="45.11695" lon="6.03638">
        <ele>1044.2</ele>
        <time>2020-08-05T11:21:13Z</time>
      </trkpt>
      <trkpt lat="45.11706" lon="6.03673">
        <ele>1040.9</ele>
        <time>2020-08-05T11:21:15Z</time>
      </trkpt>
      <trkpt lat="45.1171" lon="6.03692">
        <ele>1039.1</ele>
        <time>2020-08-05T11:21:16Z</time>
      </trkpt>
      <trkpt lat="45.11717" lon="6.03734">
        <ele>1035.1</ele>
        <time>2020-08-05T11:21:18Z</time>
      </trkpt>
      <trkpt lat="45.11723" lon="6.03777">
        <ele>1030.9</ele>
        <time>2020-08-05T11:21:20Z</time>
      </trkpt>
      <trkpt lat="45.11726" lon="6.03799">
        <ele>1028.6</ele>
        <time>2020-08-05T11:21:21Z</time>
      </trkpt>
      <trkpt lat="45.11734" lon="6.03844">
        <ele>1024.6</ele>
        <time>2020-08-05T11:21:23Z</time>
      </trkpt>
      <trkpt lat="45.11741" lon="6.03889">
        <ele>1020.8</ele>
        <time>2020-08-05T11:21:25Z</time>
      </trkpt>
      <trkpt lat="45.11751" lon="6.03934">
        <ele>1017.4</ele>
        <time>2020-08-05T11:21:27Z</time>
      </trkpt>
      <trkpt lat="45.11757" lon="6.03955">
        <ele>1016.1</ele>
        <time>2020-08-05T11:21:28Z</time>
      </trkpt>
      <trkpt lat="45.1177" lon="6.03997">
        <ele>1013.8</ele>
        <time>2020-08-05T11:21:30Z</time>
      </trkpt>
      <trkpt lat="45.11777" lon="6.04017">
        <ele>1012.3</ele>
        <time>2020-08-05T11:21:31Z</time>
      </trkpt>
      <trkpt lat="45.11789" lon="6.04059">
        <ele>1009.2</ele>
        <time>2020-08-05T11:21:33Z</time>
      </trkpt>
      <trkpt lat="45.11794" lon="6.04081">
        <ele>1007.8</ele>
        <time>2020-08-05T11:21:34Z</time>
      </trkpt>
      <trkpt lat="45.11805" lon="6.04115">
        <ele>1005.4</ele>
        <time>2020-08-05T11:21:36Z</time>
      </trkpt>
      <trkpt lat="45.11824" lon="6.04138">
        <ele>1002.9</ele>
        <time>2020-08-05T11:21:38Z</time>
      </trkpt>
      <trkpt lat="45.11835" lon="6.04147">
        <ele>1001.6</ele>
        <time>2020-08-05T11:21:39Z</time>
      </trkpt>
      <trkpt lat="45.11859" lon="6.04157">
        <ele>999.3</ele>
        <time>2020-08-05T11:21:41Z</time>
      </trkpt>
      <trkpt lat="45.11885" lon="6.04156">
        <ele>998.1</ele>
        <time>2020-08-05T11:21:43Z</time>
      </trkpt>
      <trkpt lat="45.11897" lon="6.0415">
        <ele>997.4</ele>
        <time>2020-08-05T11:21:44Z</time>
      </trkpt>
      <trkpt lat="45.11918" lon="6.04135">
        <ele>995</ele>
        <time>2020-08-05T11:21:46Z</time>
      </trkpt>
      <trkpt lat="45.11929" lon="6.04124">
        <ele>993.6</ele>
        <time>2020-08-05T11:21:47Z</time>
      </trkpt>
      <trkpt lat="45.11949" lon="6.04102">
        <ele>990.8</ele>
        <time>2020-08-05T11:21:49Z</time>
      </trkpt>
      <trkpt lat="45.11969" lon="6.04086">
        <ele>988.2</ele>
        <time>2020-08-05T11:21:51Z</time>
      </trkpt>
      <trkpt lat="45.1198" lon="6.0408">
        <ele>987</ele>
        <time>2020-08-05T11:21:52Z</time>
      </trkpt>
      <trkpt lat="45.12003" lon="6.04075">
        <ele>984.7</ele>
        <time>2020-08-05T11:21:54Z</time>
      </trkpt>
      <trkpt lat="45.12028" lon="6.04079">
        <ele>982.4</ele>
        <time>2020-08-05T11:21:56Z</time>
      </trkpt>
      <trkpt lat="45.12055" lon="6.04096">
        <ele>978.5</ele>
        <time>2020-08-05T11:21:58Z</time>
      </trkpt>
      <trkpt lat="45.12081" lon="6.04114">
        <ele>975.3</ele>
        <time>2020-08-05T11:22:00Z</time>
      </trkpt>
      <trkpt lat="45.12109" lon="6.04121">
        <ele>972.1</ele>
        <time>2020-08-05T11:22:02Z</time>
      </trkpt>
      <trkpt lat="45.12138" lon="6.04121">
        <ele>969.3</ele>
        <time>2020-08-05T11:22:04Z</time>
      </trkpt>
      <trkpt lat="45.12154" lon="6.04122">
        <ele>968.2</ele>
        <time>2020-08-05T11:22:05Z</time>
      </trkpt>
      <trkpt lat="45.12184" lon="6.04128">
        <ele>966</ele>
        <time>2020-08-05T11:22:07Z</time>
      </trkpt>
      <trkpt lat="45.12198" lon="6.04136">
        <ele>964.5</ele>
        <time>2020-08-05T11:22:08Z</time>
      </trkpt>
      <trkpt lat="45.12226" lon="6.04159">
        <ele>960.9</ele>
        <time>2020-08-05T11:22:10Z</time>
      </trkpt>
      <trkpt lat="45.12251" lon="6.0419">
        <ele>957.6</ele>
        <time>2020-08-05T11:22:12Z</time>
      </trkpt>
      <trkpt lat="45.12275" lon="6.04223">
        <ele>954.9</ele>
        <time>2020-08-05T11:22:14Z</time>
      </trkpt>
      <trkpt lat="45.12288" lon="6.0424">
        <ele>953.6</ele>
        <time>2020-08-05T11:22:15Z</time>
      </trkpt>
      <trkpt lat="45.12312" lon="6.04273">
        <ele>951.1</ele>
        <time>2020-08-05T11:22:17Z</time>
      </trkpt>
      <trkpt lat="45.12324" lon="6.04289">
        <ele>950.1</ele>
        <time>2020-08-05T11:22:18Z</time>
      </trkpt>
      <trkpt lat="45.1235" lon="6.04317">
        <ele>948.3</ele>
        <time>2020-08-05T11:22:20Z</time>
      </trkpt>
      <trkpt lat="45.12372" lon="6.04343">
        <ele>947.1</ele>
        <time>2020-08-05T11:22:22Z</time>
      </trkpt>
      <trkpt lat="45.12381" lon="6.04356">
        <ele>946.8</ele>
        <time>2020-08-05T11:22:23Z</time>
      </trkpt>
      <trkpt lat="45.12393" lon="6.04382">
        <ele>946.7</ele>
        <time>2020-08-05T11:22:25Z</time>
      </trkpt>
      <trkpt lat="45.12395" lon="6.04392">
        <ele>946.8</ele>
        <time>2020-08-05T11:22:26Z</time>
      </trkpt>
      <trkpt lat="45.12403" lon="6.04393">
        <ele>946.7</ele>
        <time>2020-08-05T11:22:28Z</time>
      </trkpt>
      <trkpt lat="45.12412" lon="6.04374">
        <ele>945.4</ele>
        <time>2020-08-05T11:22:30Z</time>
      </trkpt>
      <trkpt lat="45.12411" lon="6.04363">
        <ele>944.4</ele>
        <time>2020-08-05T11:22:31Z</time>
      </trkpt>
      <trkpt lat="45.12402" lon="6.0434">
        <ele>941.8</ele>
        <time>2020-08-05T11:22:33Z</time>
      </trkpt>
      <trkpt lat="45.12389" lon="6.04313">
        <ele>938.7</ele>
        <time>2020-08-05T11:22:35Z</time>
      </trkpt>
      <trkpt lat="45.12382" lon="6.04297">
        <ele>937.1</ele>
        <time>2020-08-05T11:22:36Z</time>
      </trkpt>
      <trkpt lat="45.12375" lon="6.0428">
        <ele>935.6</ele>
        <time>2020-08-05T11:22:37Z</time>
      </trkpt>
      <trkpt lat="45.12367" lon="6.04242">
        <ele>932.7</ele>
        <time>2020-08-05T11:22:39Z</time>
      </trkpt>
      <trkpt lat="45.12367" lon="6.04222">
        <ele>931.4</ele>
        <time>2020-08-05T11:22:40Z</time>
      </trkpt>
      <trkpt lat="45.12363" lon="6.04183">
        <ele>928.7</ele>
        <time>2020-08-05T11:22:42Z</time>
      </trkpt>
      <trkpt lat="45.12352" lon="6.04143">
        <ele>925.8</ele>
        <time>2020-08-05T11:22:44Z</time>
      </trkpt>
      <trkpt lat="45.12336" lon="6.04107">
        <ele>922.8</ele>
        <time>2020-08-05T11:22:46Z</time>
      </trkpt>
      <trkpt lat="45.12325" lon="6.04091">
        <ele>921.2</ele>
        <time>2020-08-05T11:22:47Z</time>
      </trkpt>
      <trkpt lat="45.12314" lon="6.04076">
        <ele>919.8</ele>
        <time>2020-08-05T11:22:48Z</time>
      </trkpt>
      <trkpt lat="45.12289" lon="6.04047">
        <ele>916.6</ele>
        <time>2020-08-05T11:22:50Z</time>
      </trkpt>
      <trkpt lat="45.12263" lon="6.04017">
        <ele>913.9</ele>
        <time>2020-08-05T11:22:52Z</time>
      </trkpt>
      <trkpt lat="45.1224" lon="6.03986">
        <ele>912.1</ele>
        <time>2020-08-05T11:22:54Z</time>
      </trkpt>
      <trkpt lat="45.12231" lon="6.03969">
        <ele>911.3</ele>
        <time>2020-08-05T11:22:55Z</time>
      </trkpt>
      <trkpt lat="45.12216" lon="6.03937">
        <ele>910.1</ele>
        <time>2020-08-05T11:22:57Z</time>
      </trkpt>
      <trkpt lat="45.12208" lon="6.03924">
        <ele>909.7</ele>
        <time>2020-08-05T11:22:58Z</time>
      </trkpt>
      <trkpt lat="45.12185" lon="6.0391">
        <ele>909.2</ele>
        <time>2020-08-05T11:23:00Z</time>
      </trkpt>
      <trkpt lat="45.12174" lon="6.03906">
        <ele>909.2</ele>
        <time>2020-08-05T11:23:01Z</time>
      </trkpt>
      <trkpt lat="45.12163" lon="6.03901">
        <ele>909.4</ele>
        <time>2020-08-05T11:23:02Z</time>
      </trkpt>
      <trkpt lat="45.12153" lon="6.03885">
        <ele>908.8</ele>
        <time>2020-08-05T11:23:04Z</time>
      </trkpt>
      <trkpt lat="45.12158" lon="6.03877">
        <ele>908.1</ele>
        <time>2020-08-05T11:23:05Z</time>
      </trkpt>
      <trkpt lat="45.12179" lon="6.03877">
        <ele>906.2</ele>
        <time>2020-08-05T11:23:07Z</time>
      </trkpt>
      <trkpt lat="45.12189" lon="6.03886">
        <ele>905.2</ele>
        <time>2020-08-05T11:23:08Z</time>
      </trkpt>
      <trkpt lat="45.12204" lon="6.03904">
        <ele>903.7</ele>
        <time>2020-08-05T11:23:10Z</time>
      </trkpt>
      <trkpt lat="45.12222" lon="6.03923">
        <ele>901.7</ele>
        <time>2020-08-05T11:23:12Z</time>
      </trkpt>
      <trkpt lat="45.12232" lon="6.03932">
        <ele>900.6</ele>
        <time>2020-08-05T11:23:13Z</time>
      </trkpt>
      <trkpt lat="45.12252" lon="6.03952">
        <ele>898.1</ele>
        <time>2020-08-05T11:23:15Z</time>
      </trkpt>
      <trkpt lat="45.12274" lon="6.0397">
        <ele>895.5</ele>
        <time>2020-08-05T11:23:17Z</time>
      </trkpt>
      <trkpt lat="45.12297" lon="6.03991">
        <ele>893.1</ele>
        <time>2020-08-05T11:23:19Z</time>
      </trkpt>
      <trkpt lat="45.12309" lon="6.04003">
        <ele>891.9</ele>
        <time>2020-08-05T11:23:20Z</time>
      </trkpt>
      <trkpt lat="45.12334" lon="6.04025">
        <ele>889.3</ele>
        <time>2020-08-05T11:23:22Z</time>
      </trkpt>
      <trkpt lat="45.12359" lon="6.04051">
        <ele>886.4</ele>
        <time>2020-08-05T11:23:24Z</time>
      </trkpt>
      <trkpt lat="45.12382" lon="6.04083">
        <ele>883.7</ele>
        <time>2020-08-05T11:23:26Z</time>
      </trkpt>
      <trkpt lat="45.12394" lon="6.04102">
        <ele>882.3</ele>
        <time>2020-08-05T11:23:27Z</time>
      </trkpt>
      <trkpt lat="45.12416" lon="6.04136">
        <ele>879.5</ele>
        <time>2020-08-05T11:23:29Z</time>
      </trkpt>
      <trkpt lat="45.12438" lon="6.04171">
        <ele>876.2</ele>
        <time>2020-08-05T11:23:31Z</time>
      </trkpt>
      <trkpt lat="45.12449" lon="6.0419">
        <ele>874.7</ele>
        <time>2020-08-05T11:23:32Z</time>
      </trkpt>
      <trkpt lat="45.1246" lon="6.0421">
        <ele>873.3</ele>
        <time>2020-08-05T11:23:33Z</time>
      </trkpt>
      <trkpt lat="45.12477" lon="6.0425">
        <ele>870.7</ele>
        <time>2020-08-05T11:23:35Z</time>
      </trkpt>
      <trkpt lat="45.12485" lon="6.04271">
        <ele>869.6</ele>
        <time>2020-08-05T11:23:36Z</time>
      </trkpt>
      <trkpt lat="45.12499" lon="6.04314">
        <ele>867.9</ele>
        <time>2020-08-05T11:23:38Z</time>
      </trkpt>
      <trkpt lat="45.12512" lon="6.04354">
        <ele>866.5</ele>
        <time>2020-08-05T11:23:40Z</time>
      </trkpt>
      <trkpt lat="45.1252" lon="6.0439">
        <ele>865.3</ele>
        <time>2020-08-05T11:23:42Z</time>
      </trkpt>
      <trkpt lat="45.12526" lon="6.0442">
        <ele>863.9</ele>
        <time>2020-08-05T11:23:44Z</time>
      </trkpt>
      <trkpt lat="45.12542" lon="6.04441">
        <ele>862.5</ele>
        <time>2020-08-05T11:23:46Z</time>
      </trkpt>
      <trkpt lat="45.12561" lon="6.04456">
        <ele>861.1</ele>
        <time>2020-08-05T11:23:48Z</time>
      </trkpt>
      <trkpt lat="45.12569" lon="6.04466">
        <ele>860.4</ele>
        <time>2020-08-05T11:23:49Z</time>
      </trkpt>
      <trkpt lat="45.12583" lon="6.0449">
        <ele>859.2</ele>
        <time>2020-08-05T11:23:51Z</time>
      </trkpt>
      <trkpt lat="45.12597" lon="6.04516">
        <ele>857.9</ele>
        <time>2020-08-05T11:23:53Z</time>
      </trkpt>
      <trkpt lat="45.12614" lon="6.04543">
        <ele>856</ele>
        <time>2020-08-05T11:23:55Z</time>
      </trkpt>
      <trkpt lat="45.1263" lon="6.0457">
        <ele>854</ele>
        <time>2020-08-05T11:23:57Z</time>
      </trkpt>
      <trkpt lat="45.12637" lon="6.04585">
        <ele>853</ele>
        <time>2020-08-05T11:23:58Z</time>
      </trkpt>
      <trkpt lat="45.12643" lon="6.046">
        <ele>852</ele>
        <time>2020-08-05T11:23:59Z</time>
      </trkpt>
      <trkpt lat="45.12658" lon="6.04631">
        <ele>849.9</ele>
        <time>2020-08-05T11:24:01Z</time>
      </trkpt>
      <trkpt lat="45.12667" lon="6.04646">
        <ele>848.8</ele>
        <time>2020-08-05T11:24:02Z</time>
      </trkpt>
      <trkpt lat="45.12686" lon="6.04676">
        <ele>846.9</ele>
        <time>2020-08-05T11:24:04Z</time>
      </trkpt>
      <trkpt lat="45.12695" lon="6.04692">
        <ele>846.2</ele>
        <time>2020-08-05T11:24:05Z</time>
      </trkpt>
      <trkpt lat="45.12705" lon="6.04708">
        <ele>845.7</ele>
        <time>2020-08-05T11:24:06Z</time>
      </trkpt>
      <trkpt lat="45.12721" lon="6.04739">
        <ele>845.2</ele>
        <time>2020-08-05T11:24:08Z</time>
      </trkpt>
      <trkpt lat="45.12726" lon="6.04751">
        <ele>845.1</ele>
        <time>2020-08-05T11:24:09Z</time>
      </trkpt>
      <trkpt lat="45.12736" lon="6.04764">
        <ele>844.8</ele>
        <time>2020-08-05T11:24:11Z</time>
      </trkpt>
      <trkpt lat="45.12749" lon="6.04755">
        <ele>844.3</ele>
        <time>2020-08-05T11:24:13Z</time>
      </trkpt>
      <trkpt lat="45.12751" lon="6.04744">
        <ele>843.9</ele>
        <time>2020-08-05T11:24:14Z</time>
      </trkpt>
      <trkpt lat="45.12744" lon="6.04721">
        <ele>842.3</ele>
        <time>2020-08-05T11:24:16Z</time>
      </trkpt>
      <trkpt lat="45.12739" lon="6.0471">
        <ele>841.2</ele>
        <time>2020-08-05T11:24:17Z</time>
      </trkpt>
      <trkpt lat="45.12731" lon="6.04686">
        <ele>839.1</ele>
        <time>2020-08-05T11:24:19Z</time>
      </trkpt>
      <trkpt lat="45.12726" lon="6.04672">
        <ele>837.9</ele>
        <time>2020-08-05T11:24:20Z</time>
      </trkpt>
      <trkpt lat="45.12716" lon="6.04641">
        <ele>835.1</ele>
        <time>2020-08-05T11:24:22Z</time>
      </trkpt>
      <trkpt lat="45.1271" lon="6.04625">
        <ele>833.7</ele>
        <time>2020-08-05T11:24:23Z</time>
      </trkpt>
      <trkpt lat="45.12701" lon="6.04591">
        <ele>830.7</ele>
        <time>2020-08-05T11:24:25Z</time>
      </trkpt>
      <trkpt lat="45.12696" lon="6.04572">
        <ele>829</ele>
        <time>2020-08-05T11:24:26Z</time>
      </trkpt>
      <trkpt lat="45.12685" lon="6.04536">
        <ele>826.1</ele>
        <time>2020-08-05T11:24:28Z</time>
      </trkpt>
      <trkpt lat="45.12678" lon="6.04518">
        <ele>824.8</ele>
        <time>2020-08-05T11:24:29Z</time>
      </trkpt>
      <trkpt lat="45.1266" lon="6.04484">
        <ele>822.2</ele>
        <time>2020-08-05T11:24:31Z</time>
      </trkpt>
      <trkpt lat="45.12642" lon="6.0445">
        <ele>820.4</ele>
        <time>2020-08-05T11:24:33Z</time>
      </trkpt>
      <trkpt lat="45.12629" lon="6.04416">
        <ele>818.8</ele>
        <time>2020-08-05T11:24:35Z</time>
      </trkpt>
      <trkpt lat="45.12623" lon="6.044">
        <ele>818.2</ele>
        <time>2020-08-05T11:24:36Z</time>
      </trkpt>
      <trkpt lat="45.1261" lon="6.04375">
        <ele>817.4</ele>
        <time>2020-08-05T11:24:38Z</time>
      </trkpt>
      <trkpt lat="45.12589" lon="6.04371">
        <ele>816.9</ele>
        <time>2020-08-05T11:24:40Z</time>
      </trkpt>
      <trkpt lat="45.12572" lon="6.04371">
        <ele>816.7</ele>
        <time>2020-08-05T11:24:42Z</time>
      </trkpt>
      <trkpt lat="45.12566" lon="6.04363">
        <ele>816.5</ele>
        <time>2020-08-05T11:24:43Z</time>
      </trkpt>
      <trkpt lat="45.12569" lon="6.04334">
        <ele>815.8</ele>
        <time>2020-08-05T11:24:45Z</time>
      </trkpt>
      <trkpt lat="45.12579" lon="6.04307">
        <ele>815.2</ele>
        <time>2020-08-05T11:24:47Z</time>
      </trkpt>
      <trkpt lat="45.12575" lon="6.04279">
        <ele>814.7</ele>
        <time>2020-08-05T11:24:49Z</time>
      </trkpt>
      <trkpt lat="45.1257" lon="6.04266">
        <ele>814.4</ele>
        <time>2020-08-05T11:24:50Z</time>
      </trkpt>
      <trkpt lat="45.12566" lon="6.04252">
        <ele>814.1</ele>
        <time>2020-08-05T11:24:51Z</time>
      </trkpt>
      <trkpt lat="45.12561" lon="6.04239">
        <ele>813.9</ele>
        <time>2020-08-05T11:24:52Z</time>
      </trkpt>
      <trkpt lat="45.12552" lon="6.04211">
        <ele>813.2</ele>
        <time>2020-08-05T11:24:54Z</time>
      </trkpt>
      <trkpt lat="45.12545" lon="6.04183">
        <ele>812.4</ele>
        <time>2020-08-05T11:24:56Z</time>
      </trkpt>
      <trkpt lat="45.12542" lon="6.04169">
        <ele>812.1</ele>
        <time>2020-08-05T11:24:57Z</time>
      </trkpt>
      <trkpt lat="45.1254" lon="6.04155">
        <ele>811.7</ele>
        <time>2020-08-05T11:24:58Z</time>
      </trkpt>
      <trkpt lat="45.12533" lon="6.04129">
        <ele>811.1</ele>
        <time>2020-08-05T11:25:00Z</time>
      </trkpt>
      <trkpt lat="45.12523" lon="6.04104">
        <ele>810.6</ele>
        <time>2020-08-05T11:25:02Z</time>
      </trkpt>
      <trkpt lat="45.12519" lon="6.04092">
        <ele>810.4</ele>
        <time>2020-08-05T11:25:03Z</time>
      </trkpt>
      <trkpt lat="45.12515" lon="6.04081">
        <ele>810.1</ele>
        <time>2020-08-05T11:25:04Z</time>
      </trkpt>
      <trkpt lat="45.12507" lon="6.04058">
        <ele>809.7</ele>
        <time>2020-08-05T11:25:06Z</time>
      </trkpt>
      <trkpt lat="45.12503" lon="6.04048">
        <ele>809.5</ele>
        <time>2020-08-05T11:25:07Z</time>
      </trkpt>
      <trkpt lat="45.12497" lon="6.04031">
        <ele>809.2</ele>
        <time>2020-08-05T11:25:09Z</time>
      </trkpt>
      <trkpt lat="45.12496" lon="6.04025">
        <ele>809.1</ele>
        <time>2020-08-05T11:25:10Z</time>
      </trkpt>
      <trkpt lat="45.12494" lon="6.0402">
        <ele>809</ele>
        <time>2020-08-05T11:25:11Z</time>
      </trkpt>
      <trkpt lat="45.12494" lon="6.04018">
        <ele>808.9</ele>
        <time>2020-08-05T11:25:12Z</time>
      </trkpt>
      <trkpt lat="45.12496" lon="6.04013">
        <ele>807.7</ele>
        <time>2020-08-05T11:25:14Z</time>
      </trkpt>
      <trkpt lat="45.12498" lon="6.04013">
        <ele>807.6</ele>
        <time>2020-08-05T11:25:15Z</time>
      </trkpt>
      <trkpt lat="45.125" lon="6.04017">
        <ele>807.5</ele>
        <time>2020-08-05T11:25:17Z</time>
      </trkpt>
      <trkpt lat="45.125" lon="6.04018">
        <ele>807.5</ele>
        <time>2020-08-05T11:25:19Z</time>
      </trkpt>
      <trkpt lat="45.125" lon="6.04018">
        <ele>807.4</ele>
        <time>2020-08-05T11:25:20Z</time>
      </trkpt>
      <trkpt lat="45.125" lon="6.04018">
        <ele>807.4</ele>
        <time>2020-08-05T11:25:21Z</time>
      </trkpt>
      <trkpt lat="45.125" lon="6.04018">
        <ele>807.4</ele>
        <time>2020-08-05T11:25:23Z</time>
      </trkpt>
      <trkpt lat="45.125" lon="6.04018">
        <ele>807.4</ele>
        <time>2020-08-05T11:25:24Z</time>
      </trkpt>
      <trkpt lat="45.125" lon="6.04017">
        <ele>807.4</ele>
        <time>2020-08-05T11:25:25Z</time>
      </trkpt>
      <trkpt lat="45.125" lon="6.04017">
        <ele>807.4</ele>
        <time>2020-08-05T11:25:27Z</time>
      </trkpt>
      <trkpt lat="45.12501" lon="6.04012">
        <ele>807.2</ele>
        <time>2020-08-05T11:26:47Z</time>
      </trkpt>
      <trkpt lat="45.12501" lon="6.04013">
        <ele>807.2</ele>
        <time>2020-08-05T11:26:49Z</time>
      </trkpt>
      <trkpt lat="45.12501" lon="6.04013">
        <ele>807.2</ele>
        <time>2020-08-05T11:26:51Z</time>
      </trkpt>
      <trkpt lat="45.12501" lon="6.04014">
        <ele>807.2</ele>
        <time>2020-08-05T11:26:53Z</time>
      </trkpt>
      <trkpt lat="45.12501" lon="6.04015">
        <ele>807.1</ele>
        <time>2020-08-05T11:26:54Z</time>
      </trkpt>
      <trkpt lat="45.12501" lon="6.04015">
        <ele>807.1</ele>
        <time>2020-08-05T11:26:57Z</time>
      </trkpt>
      <trkpt lat="45.12501" lon="6.04016">
        <ele>807.1</ele>
        <time>2020-08-05T11:26:59Z</time>
      </trkpt>
      <trkpt lat="45.12501" lon="6.04016">
        <ele>807.1</ele>
        <time>2020-08-05T11:27:00Z</time>
      </trkpt>
      <trkpt lat="45.12503" lon="6.04017">
        <ele>807</ele>
        <time>2020-08-05T11:27:01Z</time>
      </trkpt>
      <trkpt lat="45.12504" lon="6.04017">
        <ele>807</ele>
        <time>2020-08-05T11:27:03Z</time>
      </trkpt>
      <trkpt lat="45.12505" lon="6.04018">
        <ele>806.9</ele>
        <time>2020-08-05T11:27:04Z</time>
      </trkpt>
      <trkpt lat="45.12509" lon="6.0403">
        <ele>806.3</ele>
        <time>2020-08-05T11:27:05Z</time>
      </trkpt>
      <trkpt lat="45.12512" lon="6.04039">
        <ele>805.8</ele>
        <time>2020-08-05T11:27:07Z</time>
      </trkpt>
      <trkpt lat="45.12514" lon="6.04049">
        <ele>805.3</ele>
        <time>2020-08-05T11:27:08Z</time>
      </trkpt>
      <trkpt lat="45.12517" lon="6.04058">
        <ele>804.8</ele>
        <time>2020-08-05T11:27:09Z</time>
      </trkpt>
      <trkpt lat="45.1252" lon="6.04067">
        <ele>804.2</ele>
        <time>2020-08-05T11:27:10Z</time>
      </trkpt>
      <trkpt lat="45.12528" lon="6.04086">
        <ele>802.9</ele>
        <time>2020-08-05T11:27:12Z</time>
      </trkpt>
      <trkpt lat="45.12539" lon="6.04105">
        <ele>801.4</ele>
        <time>2020-08-05T11:27:14Z</time>
      </trkpt>
      <trkpt lat="45.12544" lon="6.04117">
        <ele>800.5</ele>
        <time>2020-08-05T11:27:15Z</time>
      </trkpt>
      <trkpt lat="45.12556" lon="6.04142">
        <ele>798.5</ele>
        <time>2020-08-05T11:27:17Z</time>
      </trkpt>
      <trkpt lat="45.12563" lon="6.04156">
        <ele>797.4</ele>
        <time>2020-08-05T11:27:18Z</time>
      </trkpt>
      <trkpt lat="45.12575" lon="6.04186">
        <ele>795.1</ele>
        <time>2020-08-05T11:27:20Z</time>
      </trkpt>
      <trkpt lat="45.12587" lon="6.04217">
        <ele>792.9</ele>
        <time>2020-08-05T11:27:22Z</time>
      </trkpt>
      <trkpt lat="45.12593" lon="6.04232">
        <ele>791.8</ele>
        <time>2020-08-05T11:27:23Z</time>
      </trkpt>
      <trkpt lat="45.12604" lon="6.04263">
        <ele>789.8</ele>
        <time>2020-08-05T11:27:25Z</time>
      </trkpt>
      <trkpt lat="45.12612" lon="6.04294">
        <ele>787.8</ele>
        <time>2020-08-05T11:27:27Z</time>
      </trkpt>
      <trkpt lat="45.12617" lon="6.04308">
        <ele>786.9</ele>
        <time>2020-08-05T11:27:28Z</time>
      </trkpt>
      <trkpt lat="45.12632" lon="6.0433">
        <ele>785</ele>
        <time>2020-08-05T11:27:30Z</time>
      </trkpt>
      <trkpt lat="45.12644" lon="6.04337">
        <ele>783.9</ele>
        <time>2020-08-05T11:27:31Z</time>
      </trkpt>
      <trkpt lat="45.12655" lon="6.04343">
        <ele>782.7</ele>
        <time>2020-08-05T11:27:32Z</time>
      </trkpt>
      <trkpt lat="45.12678" lon="6.04361">
        <ele>780.1</ele>
        <time>2020-08-05T11:27:34Z</time>
      </trkpt>
      <trkpt lat="45.1269" lon="6.04374">
        <ele>778.6</ele>
        <time>2020-08-05T11:27:35Z</time>
      </trkpt>
      <trkpt lat="45.1271" lon="6.044">
        <ele>776</ele>
        <time>2020-08-05T11:27:37Z</time>
      </trkpt>
      <trkpt lat="45.1273" lon="6.04419">
        <ele>774.1</ele>
        <time>2020-08-05T11:27:39Z</time>
      </trkpt>
      <trkpt lat="45.12748" lon="6.0444">
        <ele>772.7</ele>
        <time>2020-08-05T11:27:41Z</time>
      </trkpt>
      <trkpt lat="45.12762" lon="6.04467">
        <ele>771.8</ele>
        <time>2020-08-05T11:27:43Z</time>
      </trkpt>
      <trkpt lat="45.12768" lon="6.04479">
        <ele>771.7</ele>
        <time>2020-08-05T11:27:44Z</time>
      </trkpt>
      <trkpt lat="45.1278" lon="6.04503">
        <ele>771.5</ele>
        <time>2020-08-05T11:27:46Z</time>
      </trkpt>
      <trkpt lat="45.12786" lon="6.04514">
        <ele>771.5</ele>
        <time>2020-08-05T11:27:47Z</time>
      </trkpt>
      <trkpt lat="45.12794" lon="6.04532">
        <ele>771.7</ele>
        <time>2020-08-05T11:27:49Z</time>
      </trkpt>
      <trkpt lat="45.12803" lon="6.04541">
        <ele>772</ele>
        <time>2020-08-05T11:27:51Z</time>
      </trkpt>
      <trkpt lat="45.12815" lon="6.04535">
        <ele>771.9</ele>
        <time>2020-08-05T11:27:53Z</time>
      </trkpt>
      <trkpt lat="45.1282" lon="6.04528">
        <ele>771.8</ele>
        <time>2020-08-05T11:27:54Z</time>
      </trkpt>
      <trkpt lat="45.1283" lon="6.04512">
        <ele>771.8</ele>
        <time>2020-08-05T11:27:56Z</time>
      </trkpt>
      <trkpt lat="45.12835" lon="6.04503">
        <ele>771.9</ele>
        <time>2020-08-05T11:27:57Z</time>
      </trkpt>
      <trkpt lat="45.12848" lon="6.04483">
        <ele>772</ele>
        <time>2020-08-05T11:27:59Z</time>
      </trkpt>
      <trkpt lat="45.12854" lon="6.04472">
        <ele>772.1</ele>
        <time>2020-08-05T11:28:00Z</time>
      </trkpt>
      <trkpt lat="45.12868" lon="6.04449">
        <ele>772.3</ele>
        <time>2020-08-05T11:28:02Z</time>
      </trkpt>
      <trkpt lat="45.12883" lon="6.04424">
        <ele>772.7</ele>
        <time>2020-08-05T11:28:04Z</time>
      </trkpt>
      <trkpt lat="45.12898" lon="6.04399">
        <ele>773</ele>
        <time>2020-08-05T11:28:06Z</time>
      </trkpt>
      <trkpt lat="45.12906" lon="6.04386">
        <ele>773.1</ele>
        <time>2020-08-05T11:28:07Z</time>
      </trkpt>
      <trkpt lat="45.12922" lon="6.04361">
        <ele>773.4</ele>
        <time>2020-08-05T11:28:09Z</time>
      </trkpt>
      <trkpt lat="45.12929" lon="6.04349">
        <ele>773.6</ele>
        <time>2020-08-05T11:28:10Z</time>
      </trkpt>
      <trkpt lat="45.12937" lon="6.04337">
        <ele>773.7</ele>
        <time>2020-08-05T11:28:11Z</time>
      </trkpt>
      <trkpt lat="45.12951" lon="6.04314">
        <ele>774</ele>
        <time>2020-08-05T11:28:13Z</time>
      </trkpt>
      <trkpt lat="45.12965" lon="6.04292">
        <ele>774.4</ele>
        <time>2020-08-05T11:28:15Z</time>
      </trkpt>
      <trkpt lat="45.12971" lon="6.04281">
        <ele>774.6</ele>
        <time>2020-08-05T11:28:16Z</time>
      </trkpt>
      <trkpt lat="45.12985" lon="6.04259">
        <ele>774.9</ele>
        <time>2020-08-05T11:28:18Z</time>
      </trkpt>
      <trkpt lat="45.12991" lon="6.04248">
        <ele>775.1</ele>
        <time>2020-08-05T11:28:19Z</time>
      </trkpt>
      <trkpt lat="45.13005" lon="6.04227">
        <ele>775.4</ele>
        <time>2020-08-05T11:28:21Z</time>
      </trkpt>
      <trkpt lat="45.13011" lon="6.04217">
        <ele>775.6</ele>
        <time>2020-08-05T11:28:22Z</time>
      </trkpt>
      <trkpt lat="45.13024" lon="6.04197">
        <ele>776</ele>
        <time>2020-08-05T11:28:24Z</time>
      </trkpt>
      <trkpt lat="45.13035" lon="6.04178">
        <ele>776.4</ele>
        <time>2020-08-05T11:28:26Z</time>
      </trkpt>
      <trkpt lat="45.13046" lon="6.0416">
        <ele>776.7</ele>
        <time>2020-08-05T11:28:28Z</time>
      </trkpt>
      <trkpt lat="45.13051" lon="6.0415">
        <ele>776.9</ele>
        <time>2020-08-05T11:28:29Z</time>
      </trkpt>
      <trkpt lat="45.13062" lon="6.04133">
        <ele>777.2</ele>
        <time>2020-08-05T11:28:31Z</time>
      </trkpt>
      <trkpt lat="45.13067" lon="6.04124">
        <ele>777.3</ele>
        <time>2020-08-05T11:28:32Z</time>
      </trkpt>
      <trkpt lat="45.13077" lon="6.04107">
        <ele>777.5</ele>
        <time>2020-08-05T11:28:34Z</time>
      </trkpt>
      <trkpt lat="45.13077" lon="6.04086">
        <ele>777.5</ele>
        <time>2020-08-05T11:28:36Z</time>
      </trkpt>
      <trkpt lat="45.13073" lon="6.04077">
        <ele>777.4</ele>
        <time>2020-08-05T11:28:37Z</time>
      </trkpt>
      <trkpt lat="45.13061" lon="6.04069">
        <ele>777.2</ele>
        <time>2020-08-05T11:28:39Z</time>
      </trkpt>
      <trkpt lat="45.13049" lon="6.04082">
        <ele>776.4</ele>
        <time>2020-08-05T11:28:41Z</time>
      </trkpt>
      <trkpt lat="45.13046" lon="6.04093">
        <ele>775.9</ele>
        <time>2020-08-05T11:28:42Z</time>
      </trkpt>
      <trkpt lat="45.13041" lon="6.04116">
        <ele>774.8</ele>
        <time>2020-08-05T11:28:44Z</time>
      </trkpt>
      <trkpt lat="45.13032" lon="6.0414">
        <ele>773.6</ele>
        <time>2020-08-05T11:28:46Z</time>
      </trkpt>
      <trkpt lat="45.13018" lon="6.04162">
        <ele>772.1</ele>
        <time>2020-08-05T11:28:48Z</time>
      </trkpt>
      <trkpt lat="45.13001" lon="6.04181">
        <ele>770.6</ele>
        <time>2020-08-05T11:28:50Z</time>
      </trkpt>
      <trkpt lat="45.12984" lon="6.04203">
        <ele>768.7</ele>
        <time>2020-08-05T11:28:52Z</time>
      </trkpt>
      <trkpt lat="45.12965" lon="6.04226">
        <ele>766.7</ele>
        <time>2020-08-05T11:28:54Z</time>
      </trkpt>
      <trkpt lat="45.12946" lon="6.0425">
        <ele>764.6</ele>
        <time>2020-08-05T11:28:56Z</time>
      </trkpt>
      <trkpt lat="45.12936" lon="6.04262">
        <ele>763.5</ele>
        <time>2020-08-05T11:28:57Z</time>
      </trkpt>
      <trkpt lat="45.12926" lon="6.04275">
        <ele>762.4</ele>
        <time>2020-08-05T11:28:58Z</time>
      </trkpt>
      <trkpt lat="45.12906" lon="6.043">
        <ele>760.2</ele>
        <time>2020-08-05T11:29:00Z</time>
      </trkpt>
      <trkpt lat="45.12896" lon="6.04313">
        <ele>759.1</ele>
        <time>2020-08-05T11:29:01Z</time>
      </trkpt>
      <trkpt lat="45.12876" lon="6.0434">
        <ele>757</ele>
        <time>2020-08-05T11:29:03Z</time>
      </trkpt>
      <trkpt lat="45.12856" lon="6.04366">
        <ele>754.9</ele>
        <time>2020-08-05T11:29:05Z</time>
      </trkpt>
      <trkpt lat="45.12837" lon="6.04391">
        <ele>752.7</ele>
        <time>2020-08-05T11:29:07Z</time>
      </trkpt>
      <trkpt lat="45.12829" lon="6.04402">
        <ele>751.9</ele>
        <time>2020-08-05T11:29:08Z</time>
      </trkpt>
      <trkpt lat="45.12815" lon="6.04415">
        <ele>750.7</ele>
        <time>2020-08-05T11:29:10Z</time>
      </trkpt>
      <trkpt lat="45.12808" lon="6.04413">
        <ele>750.3</ele>
        <time>2020-08-05T11:29:11Z</time>
      </trkpt>
      <trkpt lat="45.12799" lon="6.04392">
        <ele>749.3</ele>
        <time>2020-08-05T11:29:13Z</time>
      </trkpt>
      <trkpt lat="45.12807" lon="6.04373">
        <ele>748.2</ele>
        <time>2020-08-05T11:29:15Z</time>
      </trkpt>
      <trkpt lat="45.12826" lon="6.04361">
        <ele>746.8</ele>
        <time>2020-08-05T11:29:17Z</time>
      </trkpt>
      <trkpt lat="45.12843" lon="6.04344">
        <ele>745.4</ele>
        <time>2020-08-05T11:29:19Z</time>
      </trkpt>
      <trkpt lat="45.1285" lon="6.04332">
        <ele>744.7</ele>
        <time>2020-08-05T11:29:20Z</time>
      </trkpt>
      <trkpt lat="45.12862" lon="6.04305">
        <ele>743.2</ele>
        <time>2020-08-05T11:29:22Z</time>
      </trkpt>
      <trkpt lat="45.12876" lon="6.04278">
        <ele>741.7</ele>
        <time>2020-08-05T11:29:24Z</time>
      </trkpt>
      <trkpt lat="45.12883" lon="6.04264">
        <ele>740.9</ele>
        <time>2020-08-05T11:29:25Z</time>
      </trkpt>
      <trkpt lat="45.1289" lon="6.04249">
        <ele>740.2</ele>
        <time>2020-08-05T11:29:26Z</time>
      </trkpt>
      <trkpt lat="45.12905" lon="6.0422">
        <ele>738.5</ele>
        <time>2020-08-05T11:29:28Z</time>
      </trkpt>
      <trkpt lat="45.12912" lon="6.04205">
        <ele>737.6</ele>
        <time>2020-08-05T11:29:29Z</time>
      </trkpt>
      <trkpt lat="45.12924" lon="6.04174">
        <ele>736.2</ele>
        <time>2020-08-05T11:29:31Z</time>
      </trkpt>
      <trkpt lat="45.12925" lon="6.04142">
        <ele>734.7</ele>
        <time>2020-08-05T11:29:33Z</time>
      </trkpt>
      <trkpt lat="45.12921" lon="6.04127">
        <ele>734.5</ele>
        <time>2020-08-05T11:29:34Z</time>
      </trkpt>
      <trkpt lat="45.12917" lon="6.04114">
        <ele>734.3</ele>
        <time>2020-08-05T11:29:35Z</time>
      </trkpt>
      <trkpt lat="45.12906" lon="6.04091">
        <ele>733.9</ele>
        <time>2020-08-05T11:29:37Z</time>
      </trkpt>
      <trkpt lat="45.12896" lon="6.04069">
        <ele>734</ele>
        <time>2020-08-05T11:29:39Z</time>
      </trkpt>
      <trkpt lat="45.12892" lon="6.04059">
        <ele>734</ele>
        <time>2020-08-05T11:29:40Z</time>
      </trkpt>
      <trkpt lat="45.12882" lon="6.04048">
        <ele>732.8</ele>
        <time>2020-08-05T11:29:42Z</time>
      </trkpt>
      <trkpt lat="45.12877" lon="6.04047">
        <ele>732.8</ele>
        <time>2020-08-05T11:29:43Z</time>
      </trkpt>
      <trkpt lat="45.12871" lon="6.04052">
        <ele>732.7</ele>
        <time>2020-08-05T11:29:45Z</time>
      </trkpt>
      <trkpt lat="45.12865" lon="6.04056">
        <ele>732.6</ele>
        <time>2020-08-05T11:29:47Z</time>
      </trkpt>
      <trkpt lat="45.12862" lon="6.04058">
        <ele>732.5</ele>
        <time>2020-08-05T11:29:48Z</time>
      </trkpt>
      <trkpt lat="45.12859" lon="6.0406">
        <ele>732.5</ele>
        <time>2020-08-05T11:29:50Z</time>
      </trkpt>
      <trkpt lat="45.1286" lon="6.0406">
        <ele>732.5</ele>
        <time>2020-08-05T11:29:52Z</time>
      </trkpt>
      <trkpt lat="45.1286" lon="6.0406">
        <ele>732.5</ele>
        <time>2020-08-05T11:29:53Z</time>
      </trkpt>
      <trkpt lat="45.1286" lon="6.04059">
        <ele>732.5</ele>
        <time>2020-08-05T11:29:55Z</time>
      </trkpt>
      <trkpt lat="45.1286" lon="6.04059">
        <ele>732.5</ele>
        <time>2020-08-05T11:29:56Z</time>
      </trkpt>
      <trkpt lat="45.1286" lon="6.04059">
        <ele>732.5</ele>
        <time>2020-08-05T11:29:57Z</time>
      </trkpt>
      <trkpt lat="45.1286" lon="6.04059">
        <ele>732.5</ele>
        <time>2020-08-05T11:29:59Z</time>
      </trkpt>
    </trkseg>
  </trk>
</gpx>